<?xml version='1.0' encoding='UTF-8'?><gpx version="1.1" creator="JPX - https://github.com/jenetics/jpx" xmlns="http://www.topografix.com/GPX/1/1"><trk><trkseg><trkpt lat="45.2253799006789" lon="7.8587668942621045"><ele>206.0</ele><time>2026-04-25T08:30:02Z</time></trkpt><trkpt lat="45.225448542693606" lon="7.859005426277505"><ele>206.0</ele><time>2026-04-25T08:30:04Z</time></trkpt><trkpt lat="45.22547445904511" lon="7.859144240366495"><ele>206.0</ele><time>2026-04-25T08:30:06Z</time></trkpt><trkpt lat="45.22557438407676" lon="7.859131976370278"><ele>206.0</ele><time>2026-04-25T08:30:10Z</time></trkpt><trkpt lat="45.22562507120429" lon="7.859053856391559"><ele>206.25</ele><time>2026-04-25T08:30:11Z</time></trkpt><trkpt lat="45.22574717641171" lon="7.858853703020654"><ele>206.5</ele><time>2026-04-25T08:30:12Z</time></trkpt><trkpt lat="45.2258406115702" lon="7.858766428982218"><ele>206.75</ele><time>2026-04-25T08:30:13Z</time></trkpt><trkpt lat="45.22595802209641" lon="7.8587028858391905"><ele>207.0</ele><time>2026-04-25T08:30:14Z</time></trkpt><trkpt lat="45.2260620695054" lon="7.858577534926168"><ele>207.0</ele><time>2026-04-25T08:30:15Z</time></trkpt><trkpt lat="45.22616965557158" lon="7.858435886771205"><ele>207.0</ele><time>2026-04-25T08:30:16Z</time></trkpt><trkpt lat="45.22624446665373" lon="7.85832300051628"><ele>207.0</ele><time>2026-04-25T08:30:17Z</time></trkpt><trkpt lat="45.22635037311088" lon="7.858180434753102"><ele>207.0</ele><time>2026-04-25T08:30:18Z</time></trkpt><trkpt lat="45.22644056650949" lon="7.858041811811894"><ele>207.25</ele><time>2026-04-25T08:30:19Z</time></trkpt><trkpt lat="45.22655101262918" lon="7.857915220475136"><ele>207.5</ele><time>2026-04-25T08:30:20Z</time></trkpt><trkpt lat="45.226651749355355" lon="7.8577754937494015"><ele>207.75</ele><time>2026-04-25T08:30:21Z</time></trkpt><trkpt lat="45.226748675185455" lon="7.857639838655372"><ele>208.0</ele><time>2026-04-25T08:30:22Z</time></trkpt><trkpt lat="45.22684156881733" lon="7.857509826909995"><ele>208.0</ele><time>2026-04-25T08:30:23Z</time></trkpt><trkpt lat="45.22693114369263" lon="7.857384460233609"><ele>208.0</ele><time>2026-04-25T08:30:23.999Z</time></trkpt><trkpt lat="45.22701427639649" lon="7.857270170377591"><ele>208.0</ele><time>2026-04-25T08:30:24.999Z</time></trkpt><trkpt lat="45.227094203361425" lon="7.857158093268971"><ele>208.0</ele><time>2026-04-25T08:30:25.999Z</time></trkpt><trkpt lat="45.2271760887292" lon="7.857041756704872"><ele>208.0</ele><time>2026-04-25T08:30:26.999Z</time></trkpt><trkpt lat="45.227261500094315" lon="7.856925317467917"><ele>208.0</ele><time>2026-04-25T08:30:27.999Z</time></trkpt><trkpt lat="45.22733750940713" lon="7.856832214578935"><ele>208.0</ele><time>2026-04-25T08:30:28.999Z</time></trkpt><trkpt lat="45.22741106746046" lon="7.856748028894864"><ele>208.0</ele><time>2026-04-25T08:30:29.999Z</time></trkpt><trkpt lat="45.2274884525742" lon="7.856638273746219"><ele>208.0</ele><time>2026-04-25T08:30:30.999Z</time></trkpt><trkpt lat="45.227589809290876" lon="7.856560570507919"><ele>208.0</ele><time>2026-04-25T08:30:31.999Z</time></trkpt><trkpt lat="45.22768705004423" lon="7.856462030510323"><ele>208.0</ele><time>2026-04-25T08:30:32.999Z</time></trkpt><trkpt lat="45.22778352165823" lon="7.85636427040625"><ele>208.0</ele><time>2026-04-25T08:30:33.999Z</time></trkpt><trkpt lat="45.227877188744536" lon="7.856269884525924"><ele>208.0</ele><time>2026-04-25T08:30:34.999Z</time></trkpt><trkpt lat="45.22794735348877" lon="7.856200747387728"><ele>208.0</ele><time>2026-04-25T08:30:35.999Z</time></trkpt><trkpt lat="45.22798214647161" lon="7.856101586109548"><ele>208.0</ele><time>2026-04-25T08:30:37.999Z</time></trkpt><trkpt lat="45.227862786240294" lon="7.856021690204109"><ele>208.0</ele><time>2026-04-25T08:30:39.999Z</time></trkpt><trkpt lat="45.22775833225983" lon="7.855988302301059"><ele>208.0</ele><time>2026-04-25T08:30:40.999Z</time></trkpt><trkpt lat="45.22764824115178" lon="7.855881680551664"><ele>208.0</ele><time>2026-04-25T08:30:41.999Z</time></trkpt><trkpt lat="45.22752277305789" lon="7.855823138966679"><ele>208.25</ele><time>2026-04-25T08:30:42.999Z</time></trkpt><trkpt lat="45.22738589633151" lon="7.85575881082248"><ele>208.5</ele><time>2026-04-25T08:30:43.999Z</time></trkpt><trkpt lat="45.227247531789885" lon="7.855693501419443"><ele>208.75</ele><time>2026-04-25T08:30:44.999Z</time></trkpt><trkpt lat="45.22710612990467" lon="7.855626493891232"><ele>209.0</ele><time>2026-04-25T08:30:45.999Z</time></trkpt><trkpt lat="45.226958400486865" lon="7.85555574608384"><ele>208.5</ele><time>2026-04-25T08:30:46.999Z</time></trkpt><trkpt lat="45.226825052215254" lon="7.855500801165887"><ele>208.0</ele><time>2026-04-25T08:30:47.999Z</time></trkpt><trkpt lat="45.22671433813632" lon="7.855421034370804"><ele>207.5</ele><time>2026-04-25T08:30:48.999Z</time></trkpt><trkpt lat="45.22660350827657" lon="7.855376063968167"><ele>207.0</ele><time>2026-04-25T08:30:49.999Z</time></trkpt><trkpt lat="45.22651415917008" lon="7.8553308629270155"><ele>206.6</ele><time>2026-04-25T08:30:50.999Z</time></trkpt><trkpt lat="45.22644010788403" lon="7.855295041480837"><ele>206.2</ele><time>2026-04-25T08:30:51.999Z</time></trkpt><trkpt lat="45.22635310271162" lon="7.855361604514222"><ele>205.8</ele><time>2026-04-25T08:30:53.999Z</time></trkpt><trkpt lat="45.226298985989374" lon="7.855425042741843"><ele>205.4</ele><time>2026-04-25T08:30:54.999Z</time></trkpt><trkpt lat="45.22617726545133" lon="7.855653161390402"><ele>205.0</ele><time>2026-04-25T08:30:56.999Z</time></trkpt><trkpt lat="45.22604604345695" lon="7.855802848170518"><ele>205.0</ele><time>2026-04-25T08:30:57.999Z</time></trkpt><trkpt lat="45.22595778896126" lon="7.855905465727184"><ele>205.0</ele><time>2026-04-25T08:30:58.999Z</time></trkpt><trkpt lat="45.22584939541076" lon="7.855958157869714"><ele>205.0</ele><time>2026-04-25T08:30:59.999Z</time></trkpt><trkpt lat="45.2257542195114" lon="7.855955928214945"><ele>205.0</ele><time>2026-04-25T08:31:00.999Z</time></trkpt><trkpt lat="45.22568523288792" lon="7.8559653460601355"><ele>205.0</ele><time>2026-04-25T08:31:02.999Z</time></trkpt><trkpt lat="45.22564103647245" lon="7.855893198955091"><ele>205.0</ele><time>2026-04-25T08:31:06.999Z</time></trkpt><trkpt lat="45.225481895534166" lon="7.856267843974007"><ele>205.0</ele><time>2026-04-25T08:31:14.999Z</time></trkpt><trkpt lat="45.22556726944215" lon="7.856230680488943"><ele>205.0</ele><time>2026-04-25T08:31:29.998Z</time></trkpt><trkpt lat="45.22564398821106" lon="7.856168177339116"><ele>205.0</ele><time>2026-04-25T08:31:30.998Z</time></trkpt><trkpt lat="45.2257140379458" lon="7.856113038178531"><ele>205.0</ele><time>2026-04-25T08:31:31.998Z</time></trkpt><trkpt lat="45.22576846957161" lon="7.856037213960516"><ele>205.0</ele><time>2026-04-25T08:31:33.998Z</time></trkpt><trkpt lat="45.22570659432886" lon="7.855962289117596"><ele>205.0</ele><time>2026-04-25T08:31:35.998Z</time></trkpt><trkpt lat="45.225620946196976" lon="7.855911903550491"><ele>205.0</ele><time>2026-04-25T08:31:36.998Z</time></trkpt><trkpt lat="45.22549078399921" lon="7.855861356355355"><ele>204.66666666666666</ele><time>2026-04-25T08:31:37.998Z</time></trkpt><trkpt lat="45.225351593173826" lon="7.855792672533172"><ele>204.33333333333331</ele><time>2026-04-25T08:31:38.998Z</time></trkpt><trkpt lat="45.22521374848269" lon="7.85571102486421"><ele>204.0</ele><time>2026-04-25T08:31:39.998Z</time></trkpt><trkpt lat="45.22508601792894" lon="7.855578807632049"><ele>204.0</ele><time>2026-04-25T08:31:40.998Z</time></trkpt><trkpt lat="45.22494543445218" lon="7.855501393220916"><ele>204.0</ele><time>2026-04-25T08:31:41.998Z</time></trkpt><trkpt lat="45.224836214118405" lon="7.855448070491367"><ele>204.0</ele><time>2026-04-25T08:31:42.998Z</time></trkpt><trkpt lat="45.22477873146456" lon="7.855397443596926"><ele>204.0</ele><time>2026-04-25T08:31:43.998Z</time></trkpt><trkpt lat="45.224744580387515" lon="7.855178717988295"><ele>204.0</ele><time>2026-04-25T08:31:47.998Z</time></trkpt><trkpt lat="45.22471840823447" lon="7.855014070180142"><ele>204.0</ele><time>2026-04-25T08:31:48.998Z</time></trkpt><trkpt lat="45.22468745596417" lon="7.854793309989979"><ele>204.0</ele><time>2026-04-25T08:31:49.998Z</time></trkpt><trkpt lat="45.22465763186768" lon="7.854551523651811"><ele>204.0</ele><time>2026-04-25T08:31:50.998Z</time></trkpt><trkpt lat="45.22462981806657" lon="7.854296958533614"><ele>204.0</ele><time>2026-04-25T08:31:51.998Z</time></trkpt><trkpt lat="45.224606394259794" lon="7.854059535400069"><ele>204.0</ele><time>2026-04-25T08:31:52.998Z</time></trkpt><trkpt lat="45.22458571538933" lon="7.853840491008162"><ele>204.33333333333331</ele><time>2026-04-25T08:31:53.998Z</time></trkpt><trkpt lat="45.22456354031701" lon="7.853593125294705"><ele>204.66666666666666</ele><time>2026-04-25T08:31:54.998Z</time></trkpt><trkpt lat="45.22454716679894" lon="7.853365779655985"><ele>205.0</ele><time>2026-04-25T08:31:56Z</time></trkpt><trkpt lat="45.22453246701299" lon="7.853131950302872"><ele>204.33333333333331</ele><time>2026-04-25T08:31:57Z</time></trkpt><trkpt lat="45.22451109143075" lon="7.852893532811629"><ele>203.66666666666669</ele><time>2026-04-25T08:31:58Z</time></trkpt><trkpt lat="45.22448726736508" lon="7.852669542666454"><ele>203.0</ele><time>2026-04-25T08:31:59Z</time></trkpt><trkpt lat="45.22446131116589" lon="7.852440803625783"><ele>203.0</ele><time>2026-04-25T08:32:00Z</time></trkpt><trkpt lat="45.22443885446193" lon="7.85224290329581"><ele>203.0</ele><time>2026-04-25T08:32:01Z</time></trkpt><trkpt lat="45.22442123395019" lon="7.852062995904665"><ele>203.0</ele><time>2026-04-25T08:32:02Z</time></trkpt><trkpt lat="45.22440747227927" lon="7.85188759820273"><ele>203.0</ele><time>2026-04-25T08:32:03Z</time></trkpt><trkpt lat="45.224387461621944" lon="7.851693224862048"><ele>202.8</ele><time>2026-04-25T08:32:04Z</time></trkpt><trkpt lat="45.22435674345317" lon="7.85153295680582"><ele>202.60000000000002</ele><time>2026-04-25T08:32:05Z</time></trkpt><trkpt lat="45.22432741959796" lon="7.851405614059282"><ele>202.39999999999998</ele><time>2026-04-25T08:32:06Z</time></trkpt><trkpt lat="45.22431589427112" lon="7.851316224382032"><ele>202.2</ele><time>2026-04-25T08:32:07Z</time></trkpt><trkpt lat="45.22415950329506" lon="7.851228053147648"><ele>202.0</ele><time>2026-04-25T08:32:09Z</time></trkpt><trkpt lat="45.22405079113295" lon="7.85120934697815"><ele>201.66666666666666</ele><time>2026-04-25T08:32:10Z</time></trkpt><trkpt lat="45.22390877793827" lon="7.851186736295392"><ele>201.33333333333331</ele><time>2026-04-25T08:32:11Z</time></trkpt><trkpt lat="45.22374871452" lon="7.851163494423781"><ele>201.0</ele><time>2026-04-25T08:32:12Z</time></trkpt><trkpt lat="45.22358710609637" lon="7.851142069062814"><ele>201.0</ele><time>2026-04-25T08:32:13Z</time></trkpt><trkpt lat="45.22344094746578" lon="7.851127517113812"><ele>201.0</ele><time>2026-04-25T08:32:14Z</time></trkpt><trkpt lat="45.22329238463303" lon="7.851120459543086"><ele>201.0</ele><time>2026-04-25T08:32:15Z</time></trkpt><trkpt lat="45.22316181454929" lon="7.8511242603814475"><ele>201.0</ele><time>2026-04-25T08:32:16Z</time></trkpt><trkpt lat="45.223045917954984" lon="7.851147183359612"><ele>201.0</ele><time>2026-04-25T08:32:17Z</time></trkpt><trkpt lat="45.22296495540833" lon="7.851272864119277"><ele>201.0</ele><time>2026-04-25T08:32:18Z</time></trkpt><trkpt lat="45.222862049072276" lon="7.851344367787965"><ele>201.0</ele><time>2026-04-25T08:32:19Z</time></trkpt><trkpt lat="45.22272563021085" lon="7.851426629442665"><ele>201.0</ele><time>2026-04-25T08:32:20Z</time></trkpt><trkpt lat="45.22263782117312" lon="7.8517109205623"><ele>201.0</ele><time>2026-04-25T08:32:21Z</time></trkpt><trkpt lat="45.22251249724579" lon="7.851879564713041"><ele>201.0</ele><time>2026-04-25T08:32:22Z</time></trkpt><trkpt lat="45.22240601129155" lon="7.852001862879646"><ele>201.0</ele><time>2026-04-25T08:32:23Z</time></trkpt><trkpt lat="45.22233804214592" lon="7.852092565181952"><ele>201.0</ele><time>2026-04-25T08:32:24Z</time></trkpt><trkpt lat="45.22229520873845" lon="7.852175293450589"><ele>200.75</ele><time>2026-04-25T08:32:25Z</time></trkpt><trkpt lat="45.2222678366929" lon="7.852309498157846"><ele>200.5</ele><time>2026-04-25T08:32:25.999Z</time></trkpt><trkpt lat="45.222229407216396" lon="7.852515437952582"><ele>200.25</ele><time>2026-04-25T08:32:26.999Z</time></trkpt><trkpt lat="45.22218996903059" lon="7.8526904020884025"><ele>200.0</ele><time>2026-04-25T08:32:27.999Z</time></trkpt><trkpt lat="45.22213835926739" lon="7.852828562006338"><ele>200.0</ele><time>2026-04-25T08:32:28.999Z</time></trkpt><trkpt lat="45.22206855201444" lon="7.852964577120698"><ele>200.0</ele><time>2026-04-25T08:32:29.999Z</time></trkpt><trkpt lat="45.22197110312747" lon="7.853104574574441"><ele>200.0</ele><time>2026-04-25T08:32:30.999Z</time></trkpt><trkpt lat="45.22185958672066" lon="7.8532380988447805"><ele>200.0</ele><time>2026-04-25T08:32:31.999Z</time></trkpt><trkpt lat="45.22173865303694" lon="7.853360182284885"><ele>200.25</ele><time>2026-04-25T08:32:32.999Z</time></trkpt><trkpt lat="45.221615427457095" lon="7.853476331573769"><ele>200.5</ele><time>2026-04-25T08:32:33.999Z</time></trkpt><trkpt lat="45.22149921250643" lon="7.853573202054782"><ele>200.75</ele><time>2026-04-25T08:32:34.999Z</time></trkpt><trkpt lat="45.22138639500901" lon="7.853653296782604"><ele>201.0</ele><time>2026-04-25T08:32:35.999Z</time></trkpt><trkpt lat="45.221267372229654" lon="7.853733864429136"><ele>201.0</ele><time>2026-04-25T08:32:36.999Z</time></trkpt><trkpt lat="45.221135600692264" lon="7.85382999582191"><ele>201.0</ele><time>2026-04-25T08:32:37.999Z</time></trkpt><trkpt lat="45.22099667199686" lon="7.8539207146267875"><ele>201.0</ele><time>2026-04-25T08:32:38.999Z</time></trkpt><trkpt lat="45.22082255775768" lon="7.854008538216118"><ele>201.0</ele><time>2026-04-25T08:32:39.999Z</time></trkpt><trkpt lat="45.220668009302045" lon="7.854084304732564"><ele>201.0</ele><time>2026-04-25T08:32:40.999Z</time></trkpt><trkpt lat="45.22051245247082" lon="7.854161852959767"><ele>201.0</ele><time>2026-04-25T08:32:41.999Z</time></trkpt><trkpt lat="45.220366681057364" lon="7.854227657618729"><ele>201.25</ele><time>2026-04-25T08:32:42.999Z</time></trkpt><trkpt lat="45.220237865144526" lon="7.854279036045918"><ele>201.5</ele><time>2026-04-25T08:32:43.999Z</time></trkpt><trkpt lat="45.22012918692038" lon="7.854302601950525"><ele>201.75</ele><time>2026-04-25T08:32:44.999Z</time></trkpt><trkpt lat="45.219993686391426" lon="7.8543036311342185"><ele>202.0</ele><time>2026-04-25T08:32:45.999Z</time></trkpt><trkpt lat="45.219832810251084" lon="7.854299548827319"><ele>201.33333333333331</ele><time>2026-04-25T08:32:46.999Z</time></trkpt><trkpt lat="45.21968475796056" lon="7.8542931727895136"><ele>200.66666666666669</ele><time>2026-04-25T08:32:47.999Z</time></trkpt><trkpt lat="45.219517794264966" lon="7.854299166285957"><ele>200.0</ele><time>2026-04-25T08:32:48.999Z</time></trkpt><trkpt lat="45.21937312256015" lon="7.854311152583863"><ele>200.0</ele><time>2026-04-25T08:32:49.999Z</time></trkpt><trkpt lat="45.21925182546346" lon="7.854321432212041"><ele>200.0</ele><time>2026-04-25T08:32:50.999Z</time></trkpt><trkpt lat="45.21913804524986" lon="7.854328591386676"><ele>200.0</ele><time>2026-04-25T08:32:51.999Z</time></trkpt><trkpt lat="45.21900531727898" lon="7.854355601278829"><ele>200.0</ele><time>2026-04-25T08:32:52.999Z</time></trkpt><trkpt lat="45.218870486126804" lon="7.854369656713628"><ele>200.0</ele><time>2026-04-25T08:32:53.999Z</time></trkpt><trkpt lat="45.21874496746827" lon="7.854362106750329"><ele>200.0</ele><time>2026-04-25T08:32:54.999Z</time></trkpt><trkpt lat="45.21862062383347" lon="7.854332629545974"><ele>200.0</ele><time>2026-04-25T08:32:55.999Z</time></trkpt><trkpt lat="45.218469693720095" lon="7.854285365304776"><ele>200.0</ele><time>2026-04-25T08:32:56.999Z</time></trkpt><trkpt lat="45.21831470920298" lon="7.854232114249782"><ele>200.0</ele><time>2026-04-25T08:32:57.999Z</time></trkpt><trkpt lat="45.218172123347976" lon="7.854167307718977"><ele>200.0</ele><time>2026-04-25T08:32:58.999Z</time></trkpt><trkpt lat="45.21804841729043" lon="7.854116107587041"><ele>200.0</ele><time>2026-04-25T08:32:59.999Z</time></trkpt><trkpt lat="45.21793583653976" lon="7.8540705384216665"><ele>200.0</ele><time>2026-04-25T08:33:00.999Z</time></trkpt><trkpt lat="45.2178364713665" lon="7.853993760259374"><ele>199.75</ele><time>2026-04-25T08:33:01.999Z</time></trkpt><trkpt lat="45.21773780898785" lon="7.853901086213736"><ele>199.5</ele><time>2026-04-25T08:33:02.999Z</time></trkpt><trkpt lat="45.21764041880395" lon="7.85382422384233"><ele>199.25</ele><time>2026-04-25T08:33:03.999Z</time></trkpt><trkpt lat="45.217555092238506" lon="7.853739617441192"><ele>199.0</ele><time>2026-04-25T08:33:04.999Z</time></trkpt><trkpt lat="45.21745604920528" lon="7.853576690219204"><ele>198.75</ele><time>2026-04-25T08:33:05.999Z</time></trkpt><trkpt lat="45.21733423603099" lon="7.8534234657357604"><ele>198.5</ele><time>2026-04-25T08:33:06.999Z</time></trkpt><trkpt lat="45.21724548054411" lon="7.853338457416125"><ele>198.25</ele><time>2026-04-25T08:33:07.999Z</time></trkpt><trkpt lat="45.21716047840179" lon="7.853302644761323"><ele>198.0</ele><time>2026-04-25T08:33:08.999Z</time></trkpt><trkpt lat="45.21706624504531" lon="7.853302270054626"><ele>197.5</ele><time>2026-04-25T08:33:09.999Z</time></trkpt><trkpt lat="45.21694605851292" lon="7.853315847331555"><ele>197.0</ele><time>2026-04-25T08:33:10.999Z</time></trkpt><trkpt lat="45.21682744103859" lon="7.853350497837303"><ele>196.5</ele><time>2026-04-25T08:33:11.999Z</time></trkpt><trkpt lat="45.21669161708764" lon="7.853383940903015"><ele>196.0</ele><time>2026-04-25T08:33:12.999Z</time></trkpt><trkpt lat="45.21658544670564" lon="7.85339227006887"><ele>195.99999999999997</ele><time>2026-04-25T08:33:13.999Z</time></trkpt><trkpt lat="45.216511223451626" lon="7.853365039030799"><ele>196.0</ele><time>2026-04-25T08:33:14.999Z</time></trkpt><trkpt lat="45.21644765132257" lon="7.853314883499185"><ele>196.0</ele><time>2026-04-25T08:33:15.999Z</time></trkpt><trkpt lat="45.216388923660745" lon="7.853245184918043"><ele>196.0</ele><time>2026-04-25T08:33:16.999Z</time></trkpt><trkpt lat="45.21632334717587" lon="7.8531539810785524"><ele>195.99999999999997</ele><time>2026-04-25T08:33:17.999Z</time></trkpt><trkpt lat="45.216266058448625" lon="7.853052767218992"><ele>196.0</ele><time>2026-04-25T08:33:18.999Z</time></trkpt><trkpt lat="45.21619875047548" lon="7.852951935175318"><ele>196.20000000000002</ele><time>2026-04-25T08:33:19.999Z</time></trkpt><trkpt lat="45.21610830311036" lon="7.852859284229597"><ele>196.4</ele><time>2026-04-25T08:33:20.999Z</time></trkpt><trkpt lat="45.21601193529406" lon="7.852796589438754"><ele>196.6</ele><time>2026-04-25T08:33:21.999Z</time></trkpt><trkpt lat="45.21590129471074" lon="7.852750290394872"><ele>196.8</ele><time>2026-04-25T08:33:22.999Z</time></trkpt><trkpt lat="45.21579624229928" lon="7.85273400267542"><ele>197.0</ele><time>2026-04-25T08:33:23.998Z</time></trkpt><trkpt lat="45.215672824202535" lon="7.852743283119382"><ele>196.0</ele><time>2026-04-25T08:33:24.998Z</time></trkpt><trkpt lat="45.215522091183296" lon="7.852756290736591"><ele>195.0</ele><time>2026-04-25T08:33:25.998Z</time></trkpt><trkpt lat="45.21534193895479" lon="7.852738814147893"><ele>194.0</ele><time>2026-04-25T08:33:26.998Z</time></trkpt><trkpt lat="45.21515839389706" lon="7.852703451499445"><ele>194.0</ele><time>2026-04-25T08:33:27.998Z</time></trkpt><trkpt lat="45.214985205293075" lon="7.852668547969639"><ele>194.0</ele><time>2026-04-25T08:33:28.998Z</time></trkpt><trkpt lat="45.214846214242854" lon="7.8526168343601075"><ele>194.0</ele><time>2026-04-25T08:33:29.998Z</time></trkpt><trkpt lat="45.21471600729989" lon="7.852583002045607"><ele>194.0</ele><time>2026-04-25T08:33:30.998Z</time></trkpt><trkpt lat="45.214602995985615" lon="7.85252762207273"><ele>194.0</ele><time>2026-04-25T08:33:31.998Z</time></trkpt><trkpt lat="45.21449745756754" lon="7.852498832585065"><ele>194.0</ele><time>2026-04-25T08:33:32.998Z</time></trkpt><trkpt lat="45.21438973234604" lon="7.852501077001942"><ele>194.0</ele><time>2026-04-25T08:33:33.998Z</time></trkpt><trkpt lat="45.214254188432164" lon="7.8525377337599265"><ele>194.0</ele><time>2026-04-25T08:33:34.998Z</time></trkpt><trkpt lat="45.21411199606727" lon="7.852580137458835"><ele>194.0</ele><time>2026-04-25T08:33:35.998Z</time></trkpt><trkpt lat="45.2139610888964" lon="7.852623507768622"><ele>194.0</ele><time>2026-04-25T08:33:36.998Z</time></trkpt><trkpt lat="45.21380178500547" lon="7.852667764449257"><ele>194.0</ele><time>2026-04-25T08:33:37.998Z</time></trkpt><trkpt lat="45.21366664121764" lon="7.852705810924013"><ele>194.0</ele><time>2026-04-25T08:33:38.998Z</time></trkpt><trkpt lat="45.2135418440488" lon="7.852747494974592"><ele>194.0</ele><time>2026-04-25T08:33:39.998Z</time></trkpt><trkpt lat="45.21342605159202" lon="7.852789342118942"><ele>194.0</ele><time>2026-04-25T08:33:40.998Z</time></trkpt><trkpt lat="45.21333321235049" lon="7.852813568394931"><ele>194.0</ele><time>2026-04-25T08:33:41.998Z</time></trkpt><trkpt lat="45.21328179120546" lon="7.852717338872872"><ele>194.0</ele><time>2026-04-25T08:33:44.998Z</time></trkpt><trkpt lat="45.21325425390115" lon="7.852629123230723"><ele>194.0</ele><time>2026-04-25T08:33:45.998Z</time></trkpt><trkpt lat="45.213195650944975" lon="7.852566593583066"><ele>194.0</ele><time>2026-04-25T08:33:46.998Z</time></trkpt><trkpt lat="45.21308571466736" lon="7.852500238077125"><ele>194.0</ele><time>2026-04-25T08:33:47.998Z</time></trkpt><trkpt lat="45.212952768814304" lon="7.852436386003965"><ele>194.0</ele><time>2026-04-25T08:33:48.998Z</time></trkpt><trkpt lat="45.212837061341595" lon="7.852367459575122"><ele>194.0</ele><time>2026-04-25T08:33:49.998Z</time></trkpt><trkpt lat="45.21276079745435" lon="7.852282038328925"><ele>194.0</ele><time>2026-04-25T08:33:50.998Z</time></trkpt><trkpt lat="45.212703975779675" lon="7.8521800100928925"><ele>194.0</ele><time>2026-04-25T08:33:51.998Z</time></trkpt><trkpt lat="45.212669506355475" lon="7.852090011027132"><ele>194.0</ele><time>2026-04-25T08:33:52.998Z</time></trkpt><trkpt lat="45.21266157485188" lon="7.851996234528143"><ele>194.0</ele><time>2026-04-25T08:33:53.998Z</time></trkpt><trkpt lat="45.21267608276188" lon="7.851856032057796"><ele>194.0</ele><time>2026-04-25T08:33:54.998Z</time></trkpt><trkpt lat="45.212697868054896" lon="7.851667733118242"><ele>194.0</ele><time>2026-04-25T08:33:55.998Z</time></trkpt><trkpt lat="45.21272267152019" lon="7.851457692786334"><ele>194.0</ele><time>2026-04-25T08:33:56.998Z</time></trkpt><trkpt lat="45.212732673730564" lon="7.8512267570940475"><ele>194.0</ele><time>2026-04-25T08:33:57.998Z</time></trkpt><trkpt lat="45.21273766270588" lon="7.850980335778062"><ele>194.0</ele><time>2026-04-25T08:33:58.998Z</time></trkpt><trkpt lat="45.212741636392884" lon="7.850732729604663"><ele>194.0</ele><time>2026-04-25T08:33:59.998Z</time></trkpt><trkpt lat="45.212749908220424" lon="7.850488903786959"><ele>194.0</ele><time>2026-04-25T08:34:00.998Z</time></trkpt><trkpt lat="45.21275995156213" lon="7.850223276808654"><ele>194.0</ele><time>2026-04-25T08:34:02Z</time></trkpt><trkpt lat="45.21276758605594" lon="7.849951275457665"><ele>194.0</ele><time>2026-04-25T08:34:03Z</time></trkpt><trkpt lat="45.21277697427509" lon="7.849692645302514"><ele>194.0</ele><time>2026-04-25T08:34:04Z</time></trkpt><trkpt lat="45.212786016921925" lon="7.849468967226863"><ele>194.0</ele><time>2026-04-25T08:34:05Z</time></trkpt><trkpt lat="45.21279277579347" lon="7.849231588333605"><ele>194.0</ele><time>2026-04-25T08:34:06Z</time></trkpt><trkpt lat="45.21280161939579" lon="7.848990498430895"><ele>194.0</ele><time>2026-04-25T08:34:07Z</time></trkpt><trkpt lat="45.21280034914665" lon="7.848744627435654"><ele>194.0</ele><time>2026-04-25T08:34:08Z</time></trkpt><trkpt lat="45.212805816765446" lon="7.848531101896037"><ele>194.0</ele><time>2026-04-25T08:34:09Z</time></trkpt><trkpt lat="45.21277362949921" lon="7.848393844632499"><ele>194.0</ele><time>2026-04-25T08:34:10Z</time></trkpt><trkpt lat="45.212744426483894" lon="7.848276319696409"><ele>193.79999999999998</ele><time>2026-04-25T08:34:11Z</time></trkpt><trkpt lat="45.21269430853242" lon="7.848175180870954"><ele>193.6</ele><time>2026-04-25T08:34:12Z</time></trkpt><trkpt lat="45.212607459352455" lon="7.848017338416117"><ele>193.4</ele><time>2026-04-25T08:34:13Z</time></trkpt><trkpt lat="45.21254265481126" lon="7.8478632232092895"><ele>193.2</ele><time>2026-04-25T08:34:14Z</time></trkpt><trkpt lat="45.21252763818781" lon="7.847743906027266"><ele>193.0</ele><time>2026-04-25T08:34:15Z</time></trkpt><trkpt lat="45.212523741125445" lon="7.847583498464865"><ele>193.0</ele><time>2026-04-25T08:34:16Z</time></trkpt><trkpt lat="45.212513303180124" lon="7.847441847167094"><ele>193.0</ele><time>2026-04-25T08:34:17Z</time></trkpt><trkpt lat="45.21247921214575" lon="7.847319627491517"><ele>193.0</ele><time>2026-04-25T08:34:18Z</time></trkpt><trkpt lat="45.212415527466995" lon="7.847225600422462"><ele>193.0</ele><time>2026-04-25T08:34:19Z</time></trkpt><trkpt lat="45.21233209102747" lon="7.847168112169222"><ele>193.0</ele><time>2026-04-25T08:34:20Z</time></trkpt><trkpt lat="45.21221961048767" lon="7.847144524192433"><ele>192.66666666666666</ele><time>2026-04-25T08:34:21Z</time></trkpt><trkpt lat="45.212088213706046" lon="7.847144350943297"><ele>192.33333333333331</ele><time>2026-04-25T08:34:22Z</time></trkpt><trkpt lat="45.211922774768105" lon="7.847153412385586"><ele>192.0</ele><time>2026-04-25T08:34:23Z</time></trkpt><trkpt lat="45.21171819555958" lon="7.847176870815151"><ele>192.0</ele><time>2026-04-25T08:34:24Z</time></trkpt><trkpt lat="45.21152756224433" lon="7.847213504184374"><ele>192.0</ele><time>2026-04-25T08:34:25Z</time></trkpt><trkpt lat="45.211377988854906" lon="7.847236344317088"><ele>192.0</ele><time>2026-04-25T08:34:26Z</time></trkpt><trkpt lat="45.21124444190369" lon="7.847238137629979"><ele>192.25</ele><time>2026-04-25T08:34:27Z</time></trkpt><trkpt lat="45.211121425843764" lon="7.8472134543434535"><ele>192.5</ele><time>2026-04-25T08:34:28Z</time></trkpt><trkpt lat="45.21100959860617" lon="7.847161339045789"><ele>192.75</ele><time>2026-04-25T08:34:29Z</time></trkpt><trkpt lat="45.21091073710939" lon="7.847077998104256"><ele>193.0</ele><time>2026-04-25T08:34:29.999Z</time></trkpt><trkpt lat="45.21082663476356" lon="7.846959477136546"><ele>193.0</ele><time>2026-04-25T08:34:30.999Z</time></trkpt><trkpt lat="45.21075149352351" lon="7.8468071480803445"><ele>193.0</ele><time>2026-04-25T08:34:31.999Z</time></trkpt><trkpt lat="45.21068255464542" lon="7.84661513219444"><ele>193.0</ele><time>2026-04-25T08:34:32.999Z</time></trkpt><trkpt lat="45.21062113973867" lon="7.8463798383004715"><ele>192.66666666666666</ele><time>2026-04-25T08:34:33.999Z</time></trkpt><trkpt lat="45.210568438211354" lon="7.846122324840544"><ele>192.33333333333331</ele><time>2026-04-25T08:34:34.999Z</time></trkpt><trkpt lat="45.210513072252745" lon="7.845874321082692"><ele>192.0</ele><time>2026-04-25T08:34:35.999Z</time></trkpt><trkpt lat="45.21043017149442" lon="7.8456104477776885"><ele>192.0</ele><time>2026-04-25T08:34:36.999Z</time></trkpt><trkpt lat="45.21036141474456" lon="7.845381632088983"><ele>192.0</ele><time>2026-04-25T08:34:37.999Z</time></trkpt><trkpt lat="45.21030306251569" lon="7.845163694320696"><ele>192.0</ele><time>2026-04-25T08:34:38.999Z</time></trkpt><trkpt lat="45.210250062410026" lon="7.844978815376231"><ele>192.0</ele><time>2026-04-25T08:34:39.999Z</time></trkpt><trkpt lat="45.21020451063734" lon="7.844819260398341"><ele>192.0</ele><time>2026-04-25T08:34:40.999Z</time></trkpt><trkpt lat="45.210152973679605" lon="7.844690113747598"><ele>192.0</ele><time>2026-04-25T08:34:41.999Z</time></trkpt><trkpt lat="45.210083594968864" lon="7.844578459647484"><ele>192.0</ele><time>2026-04-25T08:34:42.999Z</time></trkpt><trkpt lat="45.21001526596085" lon="7.8444779750985445"><ele>192.0</ele><time>2026-04-25T08:34:43.999Z</time></trkpt><trkpt lat="45.209926568019" lon="7.844376691649683"><ele>192.0</ele><time>2026-04-25T08:34:44.999Z</time></trkpt><trkpt lat="45.20978717678231" lon="7.844286669938564"><ele>192.0</ele><time>2026-04-25T08:34:45.999Z</time></trkpt><trkpt lat="45.20964831326096" lon="7.844226329337299"><ele>192.0</ele><time>2026-04-25T08:34:46.999Z</time></trkpt><trkpt lat="45.20950511435279" lon="7.844201714169082"><ele>192.0</ele><time>2026-04-25T08:34:47.999Z</time></trkpt><trkpt lat="45.20936766378334" lon="7.844205877120132"><ele>192.0</ele><time>2026-04-25T08:34:48.999Z</time></trkpt><trkpt lat="45.209223228266126" lon="7.844213968556004"><ele>192.0</ele><time>2026-04-25T08:34:49.999Z</time></trkpt><trkpt lat="45.20908602315716" lon="7.844266380752913"><ele>192.0</ele><time>2026-04-25T08:34:50.999Z</time></trkpt><trkpt lat="45.208912286891355" lon="7.84433841360663"><ele>192.5</ele><time>2026-04-25T08:34:51.999Z</time></trkpt><trkpt lat="45.20877372894582" lon="7.844388558246879"><ele>193.0</ele><time>2026-04-25T08:34:52.999Z</time></trkpt><trkpt lat="45.20867335872588" lon="7.84442416289294"><ele>193.5</ele><time>2026-04-25T08:34:53.999Z</time></trkpt><trkpt lat="45.208593152470755" lon="7.844479430306367"><ele>194.0</ele><time>2026-04-25T08:34:54.999Z</time></trkpt><trkpt lat="45.20849421134913" lon="7.8445778033144204"><ele>194.0</ele><time>2026-04-25T08:34:55.999Z</time></trkpt><trkpt lat="45.20839549858671" lon="7.84470986353726"><ele>194.0</ele><time>2026-04-25T08:34:56.999Z</time></trkpt><trkpt lat="45.20827889346715" lon="7.844890139885319"><ele>194.0</ele><time>2026-04-25T08:34:57.999Z</time></trkpt><trkpt lat="45.208177602937575" lon="7.8450038718108175"><ele>194.0</ele><time>2026-04-25T08:34:58.999Z</time></trkpt><trkpt lat="45.208086113563446" lon="7.845092731394658"><ele>194.75</ele><time>2026-04-25T08:34:59.999Z</time></trkpt><trkpt lat="45.208035572715595" lon="7.845182374120563"><ele>195.5</ele><time>2026-04-25T08:35:00.999Z</time></trkpt><trkpt lat="45.20799361415882" lon="7.845348212328723"><ele>196.25</ele><time>2026-04-25T08:35:01.999Z</time></trkpt><trkpt lat="45.2079644319477" lon="7.845533113526896"><ele>197.0</ele><time>2026-04-25T08:35:02.999Z</time></trkpt><trkpt lat="45.20790830580182" lon="7.845691749017002"><ele>197.0</ele><time>2026-04-25T08:35:03.999Z</time></trkpt><trkpt lat="45.20781668302763" lon="7.845828883432256"><ele>197.0</ele><time>2026-04-25T08:35:04.999Z</time></trkpt><trkpt lat="45.20769472640471" lon="7.845965759083955"><ele>197.0</ele><time>2026-04-25T08:35:05.999Z</time></trkpt><trkpt lat="45.20757936059925" lon="7.846094651243965"><ele>197.0</ele><time>2026-04-25T08:35:06.999Z</time></trkpt><trkpt lat="45.20749270672892" lon="7.846208601519311"><ele>196.5</ele><time>2026-04-25T08:35:07.999Z</time></trkpt><trkpt lat="45.20743507765646" lon="7.846264352125083"><ele>196.0</ele><time>2026-04-25T08:35:08.999Z</time></trkpt><trkpt lat="45.207272432297145" lon="7.846262765182753"><ele>195.5</ele><time>2026-04-25T08:35:10.999Z</time></trkpt><trkpt lat="45.207151814215294" lon="7.8462563999162125"><ele>195.0</ele><time>2026-04-25T08:35:11.999Z</time></trkpt><trkpt lat="45.20702989909454" lon="7.846257636801964"><ele>195.0</ele><time>2026-04-25T08:35:12.999Z</time></trkpt><trkpt lat="45.20692359595084" lon="7.846304493878228"><ele>195.0</ele><time>2026-04-25T08:35:13.999Z</time></trkpt><trkpt lat="45.20682037897081" lon="7.846366857130045"><ele>195.0</ele><time>2026-04-25T08:35:14.999Z</time></trkpt><trkpt lat="45.20674506716227" lon="7.846448468451004"><ele>195.0</ele><time>2026-04-25T08:35:15.999Z</time></trkpt><trkpt lat="45.20665402812711" lon="7.84657889156617"><ele>195.0</ele><time>2026-04-25T08:35:16.999Z</time></trkpt><trkpt lat="45.20655959371887" lon="7.846726576140574"><ele>194.5</ele><time>2026-04-25T08:35:17.999Z</time></trkpt><trkpt lat="45.20648058376956" lon="7.846872712476852"><ele>194.0</ele><time>2026-04-25T08:35:18.999Z</time></trkpt><trkpt lat="45.20641923068531" lon="7.847029612363352"><ele>193.5</ele><time>2026-04-25T08:35:19.999Z</time></trkpt><trkpt lat="45.20636151897398" lon="7.847182360597294"><ele>193.0</ele><time>2026-04-25T08:35:20.999Z</time></trkpt><trkpt lat="45.20630831180232" lon="7.847313539484156"><ele>193.0</ele><time>2026-04-25T08:35:21.999Z</time></trkpt><trkpt lat="45.206267898476405" lon="7.847389082288335"><ele>193.0</ele><time>2026-04-25T08:35:22.999Z</time></trkpt><trkpt lat="45.20618833979044" lon="7.847322498587835"><ele>193.0</ele><time>2026-04-25T08:35:25.999Z</time></trkpt><trkpt lat="45.20614157772782" lon="7.847073914163197"><ele>193.0</ele><time>2026-04-25T08:35:27.999Z</time></trkpt><trkpt lat="45.20608821536439" lon="7.846908950131612"><ele>193.75</ele><time>2026-04-25T08:35:28.999Z</time></trkpt><trkpt lat="45.2060280736319" lon="7.846711105896378"><ele>194.5</ele><time>2026-04-25T08:35:29.999Z</time></trkpt><trkpt lat="45.20601123876472" lon="7.846509313675738"><ele>195.25</ele><time>2026-04-25T08:35:30.998Z</time></trkpt><trkpt lat="45.20598351685264" lon="7.8463585653852075"><ele>196.0</ele><time>2026-04-25T08:35:31.998Z</time></trkpt><trkpt lat="45.205958560706705" lon="7.846204711152677"><ele>196.0</ele><time>2026-04-25T08:35:32.998Z</time></trkpt><trkpt lat="45.205938679056445" lon="7.846071149906987"><ele>196.0</ele><time>2026-04-25T08:35:33.998Z</time></trkpt><trkpt lat="45.20592235065341" lon="7.845953692673589"><ele>196.0</ele><time>2026-04-25T08:35:34.998Z</time></trkpt><trkpt lat="45.20590613012113" lon="7.845841111012497"><ele>196.0</ele><time>2026-04-25T08:35:35.998Z</time></trkpt><trkpt lat="45.205925801989636" lon="7.845673199141999"><ele>196.0</ele><time>2026-04-25T08:35:37.998Z</time></trkpt><trkpt lat="45.20602301401615" lon="7.8455796825178155"><ele>195.4</ele><time>2026-04-25T08:35:38.998Z</time></trkpt><trkpt lat="45.20604908746858" lon="7.845420124776851"><ele>194.8</ele><time>2026-04-25T08:35:39.998Z</time></trkpt><trkpt lat="45.206056217304" lon="7.845269839662957"><ele>194.20000000000002</ele><time>2026-04-25T08:35:40.998Z</time></trkpt><trkpt lat="45.20606942558895" lon="7.845096472382584"><ele>193.60000000000002</ele><time>2026-04-25T08:35:41.998Z</time></trkpt><trkpt lat="45.20608319821331" lon="7.844950438401594"><ele>193.0</ele><time>2026-04-25T08:35:42.998Z</time></trkpt><trkpt lat="45.20605688347994" lon="7.844797363529131"><ele>192.8</ele><time>2026-04-25T08:35:44.998Z</time></trkpt><trkpt lat="45.20599115400146" lon="7.844719847851037"><ele>192.60000000000002</ele><time>2026-04-25T08:35:45.998Z</time></trkpt><trkpt lat="45.20589550011863" lon="7.844703153623634"><ele>192.39999999999998</ele><time>2026-04-25T08:35:46.998Z</time></trkpt><trkpt lat="45.20577409263787" lon="7.8447033084121065"><ele>192.2</ele><time>2026-04-25T08:35:47.998Z</time></trkpt><trkpt lat="45.20568469641505" lon="7.8447070895292725"><ele>192.0</ele><time>2026-04-25T08:35:48.998Z</time></trkpt><trkpt lat="45.205520076005705" lon="7.844823274259805"><ele>192.0</ele><time>2026-04-25T08:35:49.998Z</time></trkpt><trkpt lat="45.20537399021419" lon="7.844696631775329"><ele>192.0</ele><time>2026-04-25T08:35:50.998Z</time></trkpt><trkpt lat="45.20540704165061" lon="7.844329937487862"><ele>192.0</ele><time>2026-04-25T08:35:51.998Z</time></trkpt><trkpt lat="45.20538990851089" lon="7.844208341052961"><ele>192.2</ele><time>2026-04-25T08:35:52.998Z</time></trkpt><trkpt lat="45.20535831035984" lon="7.8440809778407585"><ele>192.39999999999998</ele><time>2026-04-25T08:35:53.998Z</time></trkpt><trkpt lat="45.205336737001225" lon="7.843967612801238"><ele>192.60000000000002</ele><time>2026-04-25T08:35:54.998Z</time></trkpt><trkpt lat="45.205321207678246" lon="7.843829414830374"><ele>192.8</ele><time>2026-04-25T08:35:55.998Z</time></trkpt><trkpt lat="45.20531349469578" lon="7.84368114455818"><ele>193.0</ele><time>2026-04-25T08:35:56.998Z</time></trkpt><trkpt lat="45.20531528213143" lon="7.843522921432142"><ele>193.2</ele><time>2026-04-25T08:35:57.998Z</time></trkpt><trkpt lat="45.20534691414129" lon="7.843372892868228"><ele>193.4</ele><time>2026-04-25T08:35:58.998Z</time></trkpt><trkpt lat="45.20542504921826" lon="7.8432451248423325"><ele>193.6</ele><time>2026-04-25T08:35:59.998Z</time></trkpt><trkpt lat="45.205454628667084" lon="7.84316616277287"><ele>193.79999999999998</ele><time>2026-04-25T08:36:00.998Z</time></trkpt><trkpt lat="45.205475566815785" lon="7.84306285327174"><ele>194.0</ele><time>2026-04-25T08:36:01.998Z</time></trkpt><trkpt lat="45.20550224370496" lon="7.842935231580653"><ele>194.0</ele><time>2026-04-25T08:36:02.998Z</time></trkpt><trkpt lat="45.20551734579904" lon="7.842798240842418"><ele>194.0</ele><time>2026-04-25T08:36:03.998Z</time></trkpt><trkpt lat="45.20551890156237" lon="7.842642170733729"><ele>194.0</ele><time>2026-04-25T08:36:04.998Z</time></trkpt><trkpt lat="45.20552772756248" lon="7.842503587256669"><ele>194.0</ele><time>2026-04-25T08:36:05.998Z</time></trkpt><trkpt lat="45.20552612743399" lon="7.842371960681611"><ele>194.0</ele><time>2026-04-25T08:36:06.998Z</time></trkpt><trkpt lat="45.205567928056176" lon="7.842300483406757"><ele>194.0</ele><time>2026-04-25T08:36:08Z</time></trkpt><trkpt lat="45.20562827783141" lon="7.842179713527291"><ele>194.0</ele><time>2026-04-25T08:36:09Z</time></trkpt><trkpt lat="45.205656729702916" lon="7.842034453164338"><ele>194.0</ele><time>2026-04-25T08:36:10Z</time></trkpt><trkpt lat="45.20565036691588" lon="7.84189508213399"><ele>194.0</ele><time>2026-04-25T08:36:11Z</time></trkpt><trkpt lat="45.205660769396374" lon="7.841743102499642"><ele>194.0</ele><time>2026-04-25T08:36:12Z</time></trkpt><trkpt lat="45.205704883043275" lon="7.841598943803131"><ele>194.2</ele><time>2026-04-25T08:36:13Z</time></trkpt><trkpt lat="45.20576206464533" lon="7.841462024662677"><ele>194.39999999999998</ele><time>2026-04-25T08:36:14Z</time></trkpt><trkpt lat="45.205801443850255" lon="7.841345205494037"><ele>194.6</ele><time>2026-04-25T08:36:15Z</time></trkpt><trkpt lat="45.205814812417195" lon="7.841249877137026"><ele>194.8</ele><time>2026-04-25T08:36:16Z</time></trkpt><trkpt lat="45.20583706996258" lon="7.841068323085009"><ele>195.0</ele><time>2026-04-25T08:36:17Z</time></trkpt><trkpt lat="45.20584406190203" lon="7.840944957090171"><ele>195.4</ele><time>2026-04-25T08:36:18Z</time></trkpt><trkpt lat="45.20581441928612" lon="7.8408303780454816"><ele>195.8</ele><time>2026-04-25T08:36:19Z</time></trkpt><trkpt lat="45.205778296411424" lon="7.840701817961393"><ele>196.2</ele><time>2026-04-25T08:36:20Z</time></trkpt><trkpt lat="45.20577442594299" lon="7.840598460256406"><ele>196.6</ele><time>2026-04-25T08:36:21Z</time></trkpt><trkpt lat="45.20581233678828" lon="7.840472176441355"><ele>197.0</ele><time>2026-04-25T08:36:22Z</time></trkpt><trkpt lat="45.205851311482924" lon="7.840310853262595"><ele>197.0</ele><time>2026-04-25T08:36:23Z</time></trkpt><trkpt lat="45.20585473070444" lon="7.840157422128964"><ele>197.0</ele><time>2026-04-25T08:36:24Z</time></trkpt><trkpt lat="45.20583302860874" lon="7.840038647643529"><ele>197.0</ele><time>2026-04-25T08:36:25Z</time></trkpt><trkpt lat="45.205789458079046" lon="7.8398861530081065"><ele>197.0</ele><time>2026-04-25T08:36:27Z</time></trkpt><trkpt lat="45.20582830891197" lon="7.83977821877231"><ele>197.0</ele><time>2026-04-25T08:36:30Z</time></trkpt><trkpt lat="45.20585560595912" lon="7.83966413861162"><ele>196.2</ele><time>2026-04-25T08:36:52.999Z</time></trkpt><trkpt lat="45.20593424832479" lon="7.839637181946516"><ele>195.39999999999998</ele><time>2026-04-25T08:36:53.999Z</time></trkpt><trkpt lat="45.20599354434846" lon="7.8395674775425395"><ele>194.60000000000002</ele><time>2026-04-25T08:36:54.999Z</time></trkpt><trkpt lat="45.20608247069004" lon="7.8394542895290344"><ele>193.8</ele><time>2026-04-25T08:36:55.999Z</time></trkpt><trkpt lat="45.20617248718304" lon="7.839332898239298"><ele>193.0</ele><time>2026-04-25T08:36:56.999Z</time></trkpt><trkpt lat="45.20627697836002" lon="7.839159590786865"><ele>193.0</ele><time>2026-04-25T08:36:57.999Z</time></trkpt><trkpt lat="45.20638435853538" lon="7.839025682393977"><ele>193.0</ele><time>2026-04-25T08:36:58.999Z</time></trkpt><trkpt lat="45.20649369415304" lon="7.838904753447372"><ele>193.0</ele><time>2026-04-25T08:36:59.999Z</time></trkpt><trkpt lat="45.20659790522049" lon="7.838772399123488"><ele>193.0</ele><time>2026-04-25T08:37:00.999Z</time></trkpt><trkpt lat="45.206683889629296" lon="7.83866383905958"><ele>192.99999999999997</ele><time>2026-04-25T08:37:01.999Z</time></trkpt><trkpt lat="45.206738506171135" lon="7.83856939787475"><ele>193.0</ele><time>2026-04-25T08:37:02.999Z</time></trkpt><trkpt lat="45.206827097691985" lon="7.838523437600304"><ele>193.0</ele><time>2026-04-25T08:37:04.999Z</time></trkpt><trkpt lat="45.20689950577504" lon="7.838404401536357"><ele>193.0</ele><time>2026-04-25T08:37:07.999Z</time></trkpt><trkpt lat="45.20694688309557" lon="7.838333278454691"><ele>192.99999999999997</ele><time>2026-04-25T08:37:08.999Z</time></trkpt><trkpt lat="45.20700071428073" lon="7.838265617194939"><ele>193.0</ele><time>2026-04-25T08:37:09.999Z</time></trkpt><trkpt lat="45.20708641153443" lon="7.838157902976442"><ele>192.0</ele><time>2026-04-25T08:37:10.999Z</time></trkpt><trkpt lat="45.207192221324064" lon="7.838024908994145"><ele>191.0</ele><time>2026-04-25T08:37:11.999Z</time></trkpt><trkpt lat="45.20731231976478" lon="7.837872486091138"><ele>190.0</ele><time>2026-04-25T08:37:12.999Z</time></trkpt><trkpt lat="45.207445884304995" lon="7.837696336824358"><ele>192.0</ele><time>2026-04-25T08:37:13.999Z</time></trkpt><trkpt lat="45.207582051439424" lon="7.837501598915311"><ele>194.0</ele><time>2026-04-25T08:37:14.999Z</time></trkpt><trkpt lat="45.20771587927473" lon="7.8372896156519705"><ele>196.0</ele><time>2026-04-25T08:37:15.999Z</time></trkpt><trkpt lat="45.207816008223" lon="7.8371400886669935"><ele>196.0</ele><time>2026-04-25T08:37:16.999Z</time></trkpt><trkpt lat="45.20790951446699" lon="7.836999508838453"><ele>196.0</ele><time>2026-04-25T08:37:17.999Z</time></trkpt><trkpt lat="45.20799687648533" lon="7.836869915186049"><ele>196.0</ele><time>2026-04-25T08:37:18.999Z</time></trkpt><trkpt lat="45.20808413286499" lon="7.836799897272558"><ele>196.0</ele><time>2026-04-25T08:37:19.999Z</time></trkpt><trkpt lat="45.20817997537506" lon="7.836718531060103"><ele>196.0</ele><time>2026-04-25T08:37:20.999Z</time></trkpt><trkpt lat="45.208278478964466" lon="7.836636257800399"><ele>196.0</ele><time>2026-04-25T08:37:21.999Z</time></trkpt><trkpt lat="45.20837489284469" lon="7.836560314195876"><ele>196.0</ele><time>2026-04-25T08:37:22.999Z</time></trkpt><trkpt lat="45.20847494595461" lon="7.836487877825275"><ele>196.0</ele><time>2026-04-25T08:37:23.999Z</time></trkpt><trkpt lat="45.2085902973007" lon="7.836419987085716"><ele>196.0</ele><time>2026-04-25T08:37:24.999Z</time></trkpt><trkpt lat="45.20872537190677" lon="7.836346653889153"><ele>196.0</ele><time>2026-04-25T08:37:25.999Z</time></trkpt><trkpt lat="45.208853990781364" lon="7.8362868636234975"><ele>196.0</ele><time>2026-04-25T08:37:26.999Z</time></trkpt><trkpt lat="45.20898866210315" lon="7.83624040215059"><ele>196.0</ele><time>2026-04-25T08:37:27.999Z</time></trkpt><trkpt lat="45.20911528435344" lon="7.836196674154581"><ele>196.0</ele><time>2026-04-25T08:37:28.999Z</time></trkpt><trkpt lat="45.209221121226484" lon="7.836146372859755"><ele>196.0</ele><time>2026-04-25T08:37:29.999Z</time></trkpt><trkpt lat="45.20933389030659" lon="7.836064440154374"><ele>196.0</ele><time>2026-04-25T08:37:30.999Z</time></trkpt><trkpt lat="45.209465831299326" lon="7.836006100471518"><ele>196.0</ele><time>2026-04-25T08:37:31.999Z</time></trkpt><trkpt lat="45.20957390400266" lon="7.835892515828055"><ele>196.0</ele><time>2026-04-25T08:37:32.999Z</time></trkpt><trkpt lat="45.209701287480016" lon="7.835817352768778"><ele>196.0</ele><time>2026-04-25T08:37:33.999Z</time></trkpt><trkpt lat="45.209817565026626" lon="7.835732743477679"><ele>196.0</ele><time>2026-04-25T08:37:34.999Z</time></trkpt><trkpt lat="45.209933744596285" lon="7.835660621962556"><ele>196.0</ele><time>2026-04-25T08:37:35.999Z</time></trkpt><trkpt lat="45.210035706219436" lon="7.835615232967045"><ele>196.4</ele><time>2026-04-25T08:37:36.999Z</time></trkpt><trkpt lat="45.2101308940341" lon="7.8355532885851105"><ele>196.8</ele><time>2026-04-25T08:37:37.999Z</time></trkpt><trkpt lat="45.21024900528127" lon="7.8355008821039105"><ele>197.20000000000002</ele><time>2026-04-25T08:37:38.999Z</time></trkpt><trkpt lat="45.21034541303493" lon="7.835462001251511"><ele>197.60000000000002</ele><time>2026-04-25T08:37:39.999Z</time></trkpt><trkpt lat="45.210451841419605" lon="7.835408843637705"><ele>198.0</ele><time>2026-04-25T08:37:40.999Z</time></trkpt><trkpt lat="45.21052843069258" lon="7.835326945583064"><ele>198.0</ele><time>2026-04-25T08:37:41.999Z</time></trkpt><trkpt lat="45.210602545637045" lon="7.835218179149066"><ele>198.0</ele><time>2026-04-25T08:37:42.999Z</time></trkpt><trkpt lat="45.210710265732146" lon="7.835091564200186"><ele>198.0</ele><time>2026-04-25T08:37:43.999Z</time></trkpt><trkpt lat="45.21080760025292" lon="7.8349382773537295"><ele>198.0</ele><time>2026-04-25T08:37:44.999Z</time></trkpt><trkpt lat="45.21090035571352" lon="7.834761346097252"><ele>198.25</ele><time>2026-04-25T08:37:45.999Z</time></trkpt><trkpt lat="45.210952317435996" lon="7.8346130817385164"><ele>198.5</ele><time>2026-04-25T08:37:46.999Z</time></trkpt><trkpt lat="45.21101821138732" lon="7.8344678489919595"><ele>198.75</ele><time>2026-04-25T08:37:47.999Z</time></trkpt><trkpt lat="45.21109601428387" lon="7.8343599016275025"><ele>199.0</ele><time>2026-04-25T08:37:48.999Z</time></trkpt><trkpt lat="45.211165526688205" lon="7.834245326451674"><ele>198.75</ele><time>2026-04-25T08:37:49.999Z</time></trkpt><trkpt lat="45.211243661285735" lon="7.834184356135112"><ele>198.5</ele><time>2026-04-25T08:37:51.999Z</time></trkpt><trkpt lat="45.21140445465806" lon="7.834158132313707"><ele>198.25</ele><time>2026-04-25T08:37:53.998Z</time></trkpt><trkpt lat="45.21154793733709" lon="7.834146321679098"><ele>198.0</ele><time>2026-04-25T08:37:54.998Z</time></trkpt><trkpt lat="45.21171469936526" lon="7.834139525898871"><ele>198.0</ele><time>2026-04-25T08:37:55.998Z</time></trkpt><trkpt lat="45.21183201019522" lon="7.834178320588666"><ele>198.0</ele><time>2026-04-25T08:37:56.998Z</time></trkpt><trkpt lat="45.211943383928684" lon="7.8341604134469724"><ele>198.0</ele><time>2026-04-25T08:37:57.998Z</time></trkpt><trkpt lat="45.21203718991953" lon="7.8341219173538015"><ele>198.0</ele><time>2026-04-25T08:37:58.998Z</time></trkpt><trkpt lat="45.212142438998136" lon="7.8340629420030625"><ele>198.0</ele><time>2026-04-25T08:37:59.998Z</time></trkpt><trkpt lat="45.21224480221283" lon="7.83393499264798"><ele>198.0</ele><time>2026-04-25T08:38:00.998Z</time></trkpt><trkpt lat="45.212364431984376" lon="7.833877522164687"><ele>198.0</ele><time>2026-04-25T08:38:01.998Z</time></trkpt><trkpt lat="45.21245916044391" lon="7.833824158297066"><ele>198.0</ele><time>2026-04-25T08:38:02.998Z</time></trkpt><trkpt lat="45.212563211191544" lon="7.833750704708574"><ele>198.0</ele><time>2026-04-25T08:38:03.998Z</time></trkpt><trkpt lat="45.21265792672445" lon="7.8336498120357785"><ele>198.0</ele><time>2026-04-25T08:38:04.998Z</time></trkpt><trkpt lat="45.21274358435128" lon="7.833490785678898"><ele>198.0</ele><time>2026-04-25T08:38:05.998Z</time></trkpt><trkpt lat="45.2128457816649" lon="7.83331266196785"><ele>198.0</ele><time>2026-04-25T08:38:06.998Z</time></trkpt><trkpt lat="45.21295510524569" lon="7.833167047721642"><ele>198.25</ele><time>2026-04-25T08:38:07.998Z</time></trkpt><trkpt lat="45.2130499937137" lon="7.833022537383716"><ele>198.5</ele><time>2026-04-25T08:38:08.998Z</time></trkpt><trkpt lat="45.21315283762846" lon="7.832909819604126"><ele>198.75</ele><time>2026-04-25T08:38:09.998Z</time></trkpt><trkpt lat="45.21325594923577" lon="7.832793971738804"><ele>199.0</ele><time>2026-04-25T08:38:10.998Z</time></trkpt><trkpt lat="45.213373762263096" lon="7.832696313809619"><ele>197.66666666666666</ele><time>2026-04-25T08:38:11.998Z</time></trkpt><trkpt lat="45.21350705013206" lon="7.832594145680431"><ele>196.33333333333331</ele><time>2026-04-25T08:38:12.998Z</time></trkpt><trkpt lat="45.21364801792214" lon="7.832502109267746"><ele>195.0</ele><time>2026-04-25T08:38:14Z</time></trkpt><trkpt lat="45.21380950346532" lon="7.832417706906431"><ele>195.0</ele><time>2026-04-25T08:38:15Z</time></trkpt><trkpt lat="45.21397382476876" lon="7.832334980249322"><ele>195.0</ele><time>2026-04-25T08:38:16Z</time></trkpt><trkpt lat="45.21413093035161" lon="7.832209094486406"><ele>195.0</ele><time>2026-04-25T08:38:17Z</time></trkpt><trkpt lat="45.21428356088675" lon="7.832112749915994"><ele>195.0</ele><time>2026-04-25T08:38:18Z</time></trkpt><trkpt lat="45.21442914167049" lon="7.832016320851262"><ele>195.0</ele><time>2026-04-25T08:38:19Z</time></trkpt><trkpt lat="45.21456554105143" lon="7.831934439184082"><ele>195.0</ele><time>2026-04-25T08:38:20Z</time></trkpt><trkpt lat="45.214698265784904" lon="7.831864305523401"><ele>194.75</ele><time>2026-04-25T08:38:21Z</time></trkpt><trkpt lat="45.21481826190539" lon="7.831801591001957"><ele>194.5</ele><time>2026-04-25T08:38:22Z</time></trkpt><trkpt lat="45.21493904823091" lon="7.831735364722205"><ele>194.25</ele><time>2026-04-25T08:38:23Z</time></trkpt><trkpt lat="45.215059164561275" lon="7.83166417570604"><ele>194.0</ele><time>2026-04-25T08:38:24Z</time></trkpt><trkpt lat="45.21517770448341" lon="7.831581468630782"><ele>194.0</ele><time>2026-04-25T08:38:25Z</time></trkpt><trkpt lat="45.21527736507911" lon="7.83145577442125"><ele>194.0</ele><time>2026-04-25T08:38:26Z</time></trkpt><trkpt lat="45.21539864796396" lon="7.831286943921296"><ele>194.0</ele><time>2026-04-25T08:38:27Z</time></trkpt><trkpt lat="45.215544509696414" lon="7.8311225214005535"><ele>195.0</ele><time>2026-04-25T08:38:28Z</time></trkpt><trkpt lat="45.21568053741509" lon="7.830958157994485"><ele>196.0</ele><time>2026-04-25T08:38:29Z</time></trkpt><trkpt lat="45.215789508843876" lon="7.830810768946085"><ele>197.0</ele><time>2026-04-25T08:38:30Z</time></trkpt><trkpt lat="45.215883515123416" lon="7.83067267803313"><ele>197.0</ele><time>2026-04-25T08:38:31Z</time></trkpt><trkpt lat="45.21597780593506" lon="7.830488187269142"><ele>197.0</ele><time>2026-04-25T08:38:32Z</time></trkpt><trkpt lat="45.21603997447958" lon="7.830321269731726"><ele>197.0</ele><time>2026-04-25T08:38:33Z</time></trkpt><trkpt lat="45.21610051934589" lon="7.830198478665011"><ele>197.0</ele><time>2026-04-25T08:38:34Z</time></trkpt><trkpt lat="45.216120186832136" lon="7.8300430503905085"><ele>196.6</ele><time>2026-04-25T08:38:35Z</time></trkpt><trkpt lat="45.216151202648824" lon="7.829863670179733"><ele>196.2</ele><time>2026-04-25T08:38:36Z</time></trkpt><trkpt lat="45.21619816405961" lon="7.829725507223552"><ele>195.8</ele><time>2026-04-25T08:38:37Z</time></trkpt><trkpt lat="45.216269335741394" lon="7.829609473010204"><ele>195.4</ele><time>2026-04-25T08:38:38Z</time></trkpt><trkpt lat="45.21630753145174" lon="7.829502282410365"><ele>195.0</ele><time>2026-04-25T08:38:39Z</time></trkpt><trkpt lat="45.21632601656557" lon="7.8293980403769385"><ele>195.0</ele><time>2026-04-25T08:38:40Z</time></trkpt><trkpt lat="45.21631684576734" lon="7.8292825901324825"><ele>195.0</ele><time>2026-04-25T08:38:41Z</time></trkpt><trkpt lat="45.21623255775059" lon="7.829113918487771"><ele>195.0</ele><time>2026-04-25T08:38:42Z</time></trkpt><trkpt lat="45.216201060406256" lon="7.828961406488502"><ele>195.0</ele><time>2026-04-25T08:38:43Z</time></trkpt><trkpt lat="45.21621303875422" lon="7.828836871730023"><ele>195.0</ele><time>2026-04-25T08:38:44Z</time></trkpt><trkpt lat="45.21622737299257" lon="7.8287154290718535"><ele>195.0</ele><time>2026-04-25T08:38:45Z</time></trkpt><trkpt lat="45.21625393183704" lon="7.828580661175982"><ele>195.0</ele><time>2026-04-25T08:38:46Z</time></trkpt><trkpt lat="45.216297032480846" lon="7.828452133769627"><ele>195.0</ele><time>2026-04-25T08:38:47Z</time></trkpt><trkpt lat="45.21634950949852" lon="7.828318397447326"><ele>195.0</ele><time>2026-04-25T08:38:48Z</time></trkpt><trkpt lat="45.21640114261958" lon="7.828192560665152"><ele>195.0</ele><time>2026-04-25T08:38:49Z</time></trkpt><trkpt lat="45.21645747285901" lon="7.828053542450458"><ele>195.75</ele><time>2026-04-25T08:38:50Z</time></trkpt><trkpt lat="45.216499850502785" lon="7.827898562796301"><ele>196.5</ele><time>2026-04-25T08:38:51Z</time></trkpt><trkpt lat="45.216573237510794" lon="7.827762669772014"><ele>197.25</ele><time>2026-04-25T08:38:52Z</time></trkpt><trkpt lat="45.216630049374416" lon="7.827625569438337"><ele>198.0</ele><time>2026-04-25T08:38:53Z</time></trkpt><trkpt lat="45.216690368708264" lon="7.827480764545482"><ele>198.0</ele><time>2026-04-25T08:38:54Z</time></trkpt><trkpt lat="45.216768200173966" lon="7.827360207749804"><ele>198.0</ele><time>2026-04-25T08:38:55Z</time></trkpt><trkpt lat="45.21685563994492" lon="7.8272606225537364"><ele>198.0</ele><time>2026-04-25T08:38:55.999Z</time></trkpt><trkpt lat="45.21696548961972" lon="7.827193515208994"><ele>198.0</ele><time>2026-04-25T08:38:56.999Z</time></trkpt><trkpt lat="45.21705786944135" lon="7.827082787999791"><ele>198.0</ele><time>2026-04-25T08:38:57.999Z</time></trkpt><trkpt lat="45.217142409753016" lon="7.826981457241183"><ele>198.0</ele><time>2026-04-25T08:38:58.999Z</time></trkpt><trkpt lat="45.21722036017048" lon="7.826897810413736"><ele>198.0</ele><time>2026-04-25T08:38:59.999Z</time></trkpt><trkpt lat="45.21728011305319" lon="7.8268460660621475"><ele>198.0</ele><time>2026-04-25T08:39:00.999Z</time></trkpt><trkpt lat="45.217537718883214" lon="7.826637037113722"><ele>198.0</ele><time>2026-04-25T08:39:01.999Z</time></trkpt><trkpt lat="45.21763004569555" lon="7.8264064622840515"><ele>198.0</ele><time>2026-04-25T08:39:02.999Z</time></trkpt><trkpt lat="45.217664667981616" lon="7.8262825715824365"><ele>198.0</ele><time>2026-04-25T08:39:03.999Z</time></trkpt><trkpt lat="45.21770002686382" lon="7.826168579304117"><ele>198.0</ele><time>2026-04-25T08:39:04.999Z</time></trkpt><trkpt lat="45.21774282583387" lon="7.826050357202786"><ele>198.0</ele><time>2026-04-25T08:39:05.999Z</time></trkpt><trkpt lat="45.21775516734578" lon="7.825961921505816"><ele>198.0</ele><time>2026-04-25T08:39:06.999Z</time></trkpt><trkpt lat="45.217810578599064" lon="7.825847390106559"><ele>198.0</ele><time>2026-04-25T08:39:07.999Z</time></trkpt><trkpt lat="45.21791714793418" lon="7.825764324430282"><ele>198.0</ele><time>2026-04-25T08:39:08.999Z</time></trkpt><trkpt lat="45.218033446179646" lon="7.825752802063019"><ele>198.0</ele><time>2026-04-25T08:39:09.999Z</time></trkpt><trkpt lat="45.218135010434096" lon="7.825826202612125"><ele>198.60000000000002</ele><time>2026-04-25T08:39:10.999Z</time></trkpt><trkpt lat="45.21824207556046" lon="7.8258136288009545"><ele>199.20000000000002</ele><time>2026-04-25T08:39:11.999Z</time></trkpt><trkpt lat="45.21830464415458" lon="7.825783412078987"><ele>199.8</ele><time>2026-04-25T08:39:12.999Z</time></trkpt><trkpt lat="45.21836235058568" lon="7.82565235389183"><ele>200.4</ele><time>2026-04-25T08:39:13.999Z</time></trkpt><trkpt lat="45.21848093937252" lon="7.825680108828106"><ele>201.0</ele><time>2026-04-25T08:39:15.999Z</time></trkpt><trkpt lat="45.21853583025835" lon="7.825732168889178"><ele>201.0</ele><time>2026-04-25T08:39:16.999Z</time></trkpt><trkpt lat="45.21860746563558" lon="7.8257111914320525"><ele>201.0</ele><time>2026-04-25T08:39:18.999Z</time></trkpt><trkpt lat="45.21866979840721" lon="7.825629674671769"><ele>201.0</ele><time>2026-04-25T08:39:19.999Z</time></trkpt><trkpt lat="45.218737383599866" lon="7.8255451473059665"><ele>201.0</ele><time>2026-04-25T08:39:20.999Z</time></trkpt><trkpt lat="45.21881528277988" lon="7.825457310325159"><ele>201.0</ele><time>2026-04-25T08:39:21.999Z</time></trkpt><trkpt lat="45.21889117426346" lon="7.8253835512736405"><ele>201.0</ele><time>2026-04-25T08:39:22.999Z</time></trkpt><trkpt lat="45.2189836750571" lon="7.82529426402856"><ele>201.4</ele><time>2026-04-25T08:39:23.999Z</time></trkpt><trkpt lat="45.21908299957398" lon="7.825182588155762"><ele>201.8</ele><time>2026-04-25T08:39:24.999Z</time></trkpt><trkpt lat="45.21914737415692" lon="7.825067933957201"><ele>202.20000000000002</ele><time>2026-04-25T08:39:25.999Z</time></trkpt><trkpt lat="45.2191818006486" lon="7.824940005371684"><ele>202.60000000000002</ele><time>2026-04-25T08:39:26.999Z</time></trkpt><trkpt lat="45.21924698661391" lon="7.824822663355893"><ele>203.0</ele><time>2026-04-25T08:39:27.999Z</time></trkpt><trkpt lat="45.219336352353956" lon="7.824751785971176"><ele>203.0</ele><time>2026-04-25T08:39:28.999Z</time></trkpt><trkpt lat="45.21943162003559" lon="7.824718435878294"><ele>203.0</ele><time>2026-04-25T08:39:29.999Z</time></trkpt><trkpt lat="45.219533776023674" lon="7.82469379754398"><ele>203.0</ele><time>2026-04-25T08:39:30.999Z</time></trkpt><trkpt lat="45.21964335203911" lon="7.824657372133099"><ele>203.0</ele><time>2026-04-25T08:39:32.999Z</time></trkpt><trkpt lat="45.21972681730401" lon="7.824584079681932"><ele>203.0</ele><time>2026-04-25T08:39:34.999Z</time></trkpt><trkpt lat="45.21980066522002" lon="7.824533340115736"><ele>202.4</ele><time>2026-04-25T08:39:36.999Z</time></trkpt><trkpt lat="45.21988171801287" lon="7.824496258300774"><ele>201.8</ele><time>2026-04-25T08:39:39.999Z</time></trkpt><trkpt lat="45.21998195687849" lon="7.824418728519208"><ele>201.2</ele><time>2026-04-25T08:39:41.999Z</time></trkpt><trkpt lat="45.22005214172722" lon="7.824362494912838"><ele>200.6</ele><time>2026-04-25T08:39:42.999Z</time></trkpt><trkpt lat="45.22013512520473" lon="7.824294964178656"><ele>200.0</ele><time>2026-04-25T08:39:43.999Z</time></trkpt><trkpt lat="45.220235160005366" lon="7.824212950151498"><ele>200.0</ele><time>2026-04-25T08:39:44.999Z</time></trkpt><trkpt lat="45.22034190766126" lon="7.824123636004314"><ele>200.0</ele><time>2026-04-25T08:39:45.999Z</time></trkpt><trkpt lat="45.22045881143654" lon="7.8240228234290115"><ele>200.0</ele><time>2026-04-25T08:39:46.999Z</time></trkpt><trkpt lat="45.22057932298477" lon="7.823933087707467"><ele>200.0</ele><time>2026-04-25T08:39:47.999Z</time></trkpt><trkpt lat="45.220685206659525" lon="7.823875564170561"><ele>199.6</ele><time>2026-04-25T08:39:48.999Z</time></trkpt><trkpt lat="45.22077267697129" lon="7.823835929966133"><ele>199.2</ele><time>2026-04-25T08:39:49.999Z</time></trkpt><trkpt lat="45.220865510332594" lon="7.823820789126687"><ele>198.8</ele><time>2026-04-25T08:39:50.999Z</time></trkpt><trkpt lat="45.22096409119325" lon="7.823865251007891"><ele>198.4</ele><time>2026-04-25T08:39:51.999Z</time></trkpt><trkpt lat="45.22106310951878" lon="7.823913247203961"><ele>198.0</ele><time>2026-04-25T08:39:52.999Z</time></trkpt><trkpt lat="45.2211357707604" lon="7.823919490780406"><ele>198.0</ele><time>2026-04-25T08:39:53.999Z</time></trkpt><trkpt lat="45.22120804838685" lon="7.823846589506993"><ele>198.0</ele><time>2026-04-25T08:39:54.999Z</time></trkpt><trkpt lat="45.22133052679938" lon="7.823787142316492"><ele>198.0</ele><time>2026-04-25T08:39:55.999Z</time></trkpt><trkpt lat="45.22145005788045" lon="7.8237262552443445"><ele>198.0</ele><time>2026-04-25T08:39:56.999Z</time></trkpt><trkpt lat="45.221566976457645" lon="7.823692361977136"><ele>198.66666666666666</ele><time>2026-04-25T08:39:57.999Z</time></trkpt><trkpt lat="45.22163571170337" lon="7.8236295475168305"><ele>199.33333333333331</ele><time>2026-04-25T08:39:58.999Z</time></trkpt><trkpt lat="45.22172992117576" lon="7.823612821245116"><ele>200.0</ele><time>2026-04-25T08:39:59.999Z</time></trkpt><trkpt lat="45.22181202441022" lon="7.823555897125445"><ele>200.66666666666666</ele><time>2026-04-25T08:40:00.998Z</time></trkpt><trkpt lat="45.2218648634738" lon="7.823485787805525"><ele>201.33333333333331</ele><time>2026-04-25T08:40:01.998Z</time></trkpt><trkpt lat="45.221926861918085" lon="7.823414800955119"><ele>202.0</ele><time>2026-04-25T08:40:02.998Z</time></trkpt><trkpt lat="45.22197803087399" lon="7.82334547773136"><ele>202.0</ele><time>2026-04-25T08:40:03.998Z</time></trkpt><trkpt lat="45.222038567455485" lon="7.823249809729804"><ele>202.0</ele><time>2026-04-25T08:40:04.998Z</time></trkpt><trkpt lat="45.22210491271891" lon="7.823138833046943"><ele>202.0</ele><time>2026-04-25T08:40:05.998Z</time></trkpt><trkpt lat="45.22215272890984" lon="7.823058163367375"><ele>202.0</ele><time>2026-04-25T08:40:06.998Z</time></trkpt><trkpt lat="45.22221734832683" lon="7.822951433097011"><ele>202.0</ele><time>2026-04-25T08:40:07.998Z</time></trkpt><trkpt lat="45.22229182194885" lon="7.822886172519179"><ele>202.6</ele><time>2026-04-25T08:40:08.998Z</time></trkpt><trkpt lat="45.22236463071783" lon="7.82274749531615"><ele>203.2</ele><time>2026-04-25T08:40:10.998Z</time></trkpt><trkpt lat="45.222490953231656" lon="7.822731815284417"><ele>203.8</ele><time>2026-04-25T08:40:12.998Z</time></trkpt><trkpt lat="45.22254419905364" lon="7.8227847619453765"><ele>204.4</ele><time>2026-04-25T08:40:13.998Z</time></trkpt><trkpt lat="45.22259968188971" lon="7.822844120451948"><ele>205.0</ele><time>2026-04-25T08:40:15.998Z</time></trkpt><trkpt lat="45.22263973644002" lon="7.8227283004504535"><ele>204.66666666666666</ele><time>2026-04-25T08:40:18.998Z</time></trkpt><trkpt lat="45.22267170448519" lon="7.822613669143776"><ele>204.33333333333331</ele><time>2026-04-25T08:40:22Z</time></trkpt><trkpt lat="45.2226912514936" lon="7.822516970153582"><ele>204.0</ele><time>2026-04-25T08:40:23Z</time></trkpt><trkpt lat="45.2226454781859" lon="7.822442193755988"><ele>203.66666666666669</ele><time>2026-04-25T08:40:25Z</time></trkpt><trkpt lat="45.222531588054" lon="7.822369147533097"><ele>203.33333333333334</ele><time>2026-04-25T08:40:27Z</time></trkpt><trkpt lat="45.222464293295594" lon="7.8223312674196235"><ele>203.0</ele><time>2026-04-25T08:40:28Z</time></trkpt><trkpt lat="45.22239447545916" lon="7.822250778530277"><ele>203.00000000000003</ele><time>2026-04-25T08:40:30Z</time></trkpt><trkpt lat="45.22238508853297" lon="7.82216063984113"><ele>203.0</ele><time>2026-04-25T08:40:31Z</time></trkpt><trkpt lat="45.22237963820171" lon="7.822051684216935"><ele>203.0</ele><time>2026-04-25T08:40:32Z</time></trkpt><trkpt lat="45.22238254898598" lon="7.821944071884463"><ele>203.0</ele><time>2026-04-25T08:40:33Z</time></trkpt><trkpt lat="45.22236108540857" lon="7.821833986623419"><ele>203.00000000000003</ele><time>2026-04-25T08:40:34Z</time></trkpt><trkpt lat="45.22235851925894" lon="7.821712754750147"><ele>203.0</ele><time>2026-04-25T08:40:35Z</time></trkpt><trkpt lat="45.22238337184068" lon="7.821612063488593"><ele>202.2</ele><time>2026-04-25T08:40:36Z</time></trkpt><trkpt lat="45.22242284223129" lon="7.821472389449263"><ele>201.4</ele><time>2026-04-25T08:40:37Z</time></trkpt><trkpt lat="45.222465573860504" lon="7.821322898471158"><ele>200.6</ele><time>2026-04-25T08:40:38Z</time></trkpt><trkpt lat="45.22251486973729" lon="7.821174684887348"><ele>199.79999999999998</ele><time>2026-04-25T08:40:39Z</time></trkpt><trkpt lat="45.222538877055115" lon="7.821088862606761"><ele>199.0</ele><time>2026-04-25T08:40:40Z</time></trkpt><trkpt lat="45.22261797913926" lon="7.82096972416744"><ele>199.0</ele><time>2026-04-25T08:40:42Z</time></trkpt><trkpt lat="45.22271813857785" lon="7.82097342146842"><ele>199.0</ele><time>2026-04-25T08:40:44Z</time></trkpt><trkpt lat="45.22278785059416" lon="7.820854362723747"><ele>199.0</ele><time>2026-04-25T08:40:46Z</time></trkpt><trkpt lat="45.22281221772196" lon="7.820762251022577"><ele>199.0</ele><time>2026-04-25T08:40:47Z</time></trkpt><trkpt lat="45.222820453531156" lon="7.820620910832569"><ele>199.0</ele><time>2026-04-25T08:40:49Z</time></trkpt><trkpt lat="45.22298600008548" lon="7.820576097961759"><ele>199.0</ele><time>2026-04-25T08:40:53Z</time></trkpt><trkpt lat="45.22307104782977" lon="7.820645324985589"><ele>199.0</ele><time>2026-04-25T08:40:56Z</time></trkpt><trkpt lat="45.22313970303792" lon="7.820720756474684"><ele>199.0</ele><time>2026-04-25T08:40:59Z</time></trkpt><trkpt lat="45.22322147918596" lon="7.820573400356083"><ele>199.0</ele><time>2026-04-25T08:41:02Z</time></trkpt><trkpt lat="45.223363252215066" lon="7.820539608253697"><ele>200.0</ele><time>2026-04-25T08:41:06Z</time></trkpt><trkpt lat="45.22346868186543" lon="7.820550861195101"><ele>201.0</ele><time>2026-04-25T08:41:07.999Z</time></trkpt><trkpt lat="45.223582929592595" lon="7.820619444468365"><ele>202.0</ele><time>2026-04-25T08:41:09.999Z</time></trkpt><trkpt lat="45.223653149746326" lon="7.820719169297373"><ele>203.0</ele><time>2026-04-25T08:41:11.999Z</time></trkpt><trkpt lat="45.223748527765856" lon="7.820649891612239"><ele>204.0</ele><time>2026-04-25T08:41:13.999Z</time></trkpt><trkpt lat="45.22383340280408" lon="7.820574422233951"><ele>204.0</ele><time>2026-04-25T08:41:14.999Z</time></trkpt><trkpt lat="45.22392821098784" lon="7.820524083397515"><ele>204.0</ele><time>2026-04-25T08:41:15.999Z</time></trkpt><trkpt lat="45.22402243117266" lon="7.82043287009444"><ele>204.0</ele><time>2026-04-25T08:41:16.999Z</time></trkpt><trkpt lat="45.22408892945486" lon="7.820343044644623"><ele>204.0</ele><time>2026-04-25T08:41:17.999Z</time></trkpt><trkpt lat="45.22416315416" lon="7.820277195516657"><ele>204.0</ele><time>2026-04-25T08:41:18.999Z</time></trkpt><trkpt lat="45.22422935505416" lon="7.820247661463561"><ele>205.0</ele><time>2026-04-25T08:41:19.999Z</time></trkpt><trkpt lat="45.22434456743388" lon="7.820257633964566"><ele>206.0</ele><time>2026-04-25T08:41:21.999Z</time></trkpt><trkpt lat="45.22441663415137" lon="7.8202621085997"><ele>207.0</ele><time>2026-04-25T08:41:22.999Z</time></trkpt><trkpt lat="45.22452720252712" lon="7.820272737916995"><ele>208.0</ele><time>2026-04-25T08:41:23.999Z</time></trkpt><trkpt lat="45.224617271610526" lon="7.82025700680683"><ele>209.0</ele><time>2026-04-25T08:41:24.999Z</time></trkpt><trkpt lat="45.22468394113789" lon="7.820256663797828"><ele>209.0</ele><time>2026-04-25T08:41:25.999Z</time></trkpt><trkpt lat="45.22478882105732" lon="7.820250672865558"><ele>209.0</ele><time>2026-04-25T08:41:27.999Z</time></trkpt><trkpt lat="45.22492183158878" lon="7.820187060171875"><ele>209.0</ele><time>2026-04-25T08:41:29.999Z</time></trkpt><trkpt lat="45.22501430563519" lon="7.820106284133572"><ele>209.0</ele><time>2026-04-25T08:41:30.999Z</time></trkpt><trkpt lat="45.225077449438125" lon="7.8200466949352405"><ele>209.0</ele><time>2026-04-25T08:41:31.999Z</time></trkpt><trkpt lat="45.22518368457522" lon="7.819979023154819"><ele>208.79999999999998</ele><time>2026-04-25T08:41:33.999Z</time></trkpt><trkpt lat="45.225292884087274" lon="7.819951256614124"><ele>208.6</ele><time>2026-04-25T08:41:35.999Z</time></trkpt><trkpt lat="45.22540926990108" lon="7.819835891285688"><ele>208.4</ele><time>2026-04-25T08:41:37.999Z</time></trkpt><trkpt lat="45.22547387824055" lon="7.819778646736595"><ele>208.2</ele><time>2026-04-25T08:41:38.999Z</time></trkpt><trkpt lat="45.22556461127133" lon="7.819726631669301"><ele>208.0</ele><time>2026-04-25T08:41:40.999Z</time></trkpt><trkpt lat="45.22565324153754" lon="7.819703936970536"><ele>207.60000000000002</ele><time>2026-04-25T08:41:41.999Z</time></trkpt><trkpt lat="45.22577011165981" lon="7.819707858799135"><ele>207.20000000000002</ele><time>2026-04-25T08:41:42.999Z</time></trkpt><trkpt lat="45.225845740188106" lon="7.819698924176415"><ele>206.8</ele><time>2026-04-25T08:41:43.999Z</time></trkpt><trkpt lat="45.22592232545301" lon="7.819581280799437"><ele>206.4</ele><time>2026-04-25T08:41:45.999Z</time></trkpt><trkpt lat="45.225992256614894" lon="7.819484436801524"><ele>206.0</ele><time>2026-04-25T08:41:46.999Z</time></trkpt><trkpt lat="45.22603635054257" lon="7.819389335204827"><ele>206.20000000000002</ele><time>2026-04-25T08:41:47.999Z</time></trkpt><trkpt lat="45.22607080277101" lon="7.819260536541045"><ele>206.4</ele><time>2026-04-25T08:41:48.999Z</time></trkpt><trkpt lat="45.22608859507183" lon="7.819164508213386"><ele>206.6</ele><time>2026-04-25T08:41:49.999Z</time></trkpt><trkpt lat="45.22614417523252" lon="7.81906808482375"><ele>206.8</ele><time>2026-04-25T08:41:51.999Z</time></trkpt><trkpt lat="45.22623467433223" lon="7.818998716587195"><ele>207.0</ele><time>2026-04-25T08:41:53.999Z</time></trkpt><trkpt lat="45.226220326308656" lon="7.81886724250008"><ele>207.0</ele><time>2026-04-25T08:41:55.999Z</time></trkpt><trkpt lat="45.2262908735307" lon="7.818713767782181"><ele>207.0</ele><time>2026-04-25T08:41:57.999Z</time></trkpt><trkpt lat="45.22632788055738" lon="7.818630456332004"><ele>207.0</ele><time>2026-04-25T08:41:58.999Z</time></trkpt><trkpt lat="45.22635667045939" lon="7.818546946577637"><ele>207.0</ele><time>2026-04-25T08:41:59.999Z</time></trkpt><trkpt lat="45.22638745742031" lon="7.8184539345596855"><ele>207.0</ele><time>2026-04-25T08:42:00.999Z</time></trkpt><trkpt lat="45.22638683202682" lon="7.818293254600204"><ele>207.0</ele><time>2026-04-25T08:42:02.999Z</time></trkpt><trkpt lat="45.226418722927185" lon="7.818197529313015"><ele>207.0</ele><time>2026-04-25T08:42:03.999Z</time></trkpt><trkpt lat="45.22646405931693" lon="7.818092965041232"><ele>207.0</ele><time>2026-04-25T08:42:04.999Z</time></trkpt><trkpt lat="45.226488314211316" lon="7.817991877125879"><ele>207.0</ele><time>2026-04-25T08:42:05.999Z</time></trkpt><trkpt lat="45.22652218747101" lon="7.817905633419313"><ele>207.0</ele><time>2026-04-25T08:42:06.999Z</time></trkpt><trkpt lat="45.22658612924044" lon="7.81779728375871"><ele>207.0</ele><time>2026-04-25T08:42:08.999Z</time></trkpt><trkpt lat="45.226685924632534" lon="7.817787397277363"><ele>207.0</ele><time>2026-04-25T08:42:10.999Z</time></trkpt><trkpt lat="45.226769482122435" lon="7.817744187051455"><ele>207.0</ele><time>2026-04-25T08:42:11.998Z</time></trkpt><trkpt lat="45.226853054416864" lon="7.817672827748401"><ele>207.0</ele><time>2026-04-25T08:42:12.998Z</time></trkpt><trkpt lat="45.22694913113918" lon="7.81756136247811"><ele>207.0</ele><time>2026-04-25T08:42:14.998Z</time></trkpt><trkpt lat="45.22699529193177" lon="7.817436117111721"><ele>207.0</ele><time>2026-04-25T08:42:16.998Z</time></trkpt><trkpt lat="45.22699784632434" lon="7.817344267322306"><ele>207.0</ele><time>2026-04-25T08:42:17.998Z</time></trkpt><trkpt lat="45.2269964014787" lon="7.817217957032246"><ele>207.0</ele><time>2026-04-25T08:42:19.998Z</time></trkpt><trkpt lat="45.227055319942664" lon="7.8171314314230225"><ele>207.0</ele><time>2026-04-25T08:42:21.998Z</time></trkpt><trkpt lat="45.227114406967814" lon="7.8170963691156805"><ele>207.0</ele><time>2026-04-25T08:42:23.998Z</time></trkpt><trkpt lat="45.22718209731396" lon="7.816985678876555"><ele>207.0</ele><time>2026-04-25T08:42:27Z</time></trkpt><trkpt lat="45.227225811470944" lon="7.8168519579111555"><ele>207.0</ele><time>2026-04-25T08:42:29Z</time></trkpt><trkpt lat="45.227308035863835" lon="7.816733122634859"><ele>207.0</ele><time>2026-04-25T08:42:31Z</time></trkpt><trkpt lat="45.22738599296742" lon="7.816682320590318"><ele>207.0</ele><time>2026-04-25T08:42:32Z</time></trkpt><trkpt lat="45.22745877852518" lon="7.8166461465968"><ele>207.0</ele><time>2026-04-25T08:42:33Z</time></trkpt><trkpt lat="45.22751664467277" lon="7.816599613056177"><ele>207.0</ele><time>2026-04-25T08:42:35Z</time></trkpt><trkpt lat="45.227582296077166" lon="7.816576708911929"><ele>207.0</ele><time>2026-04-25T08:42:36Z</time></trkpt><trkpt lat="45.22765402439884" lon="7.816535791668905"><ele>207.0</ele><time>2026-04-25T08:42:37Z</time></trkpt><trkpt lat="45.227719929140385" lon="7.816475592443181"><ele>207.0</ele><time>2026-04-25T08:42:38Z</time></trkpt><trkpt lat="45.22779239091518" lon="7.816398032097299"><ele>207.0</ele><time>2026-04-25T08:42:39Z</time></trkpt><trkpt lat="45.22786029187065" lon="7.816327546265129"><ele>207.0</ele><time>2026-04-25T08:42:40Z</time></trkpt><trkpt lat="45.22792371497798" lon="7.816296740766785"><ele>207.0</ele><time>2026-04-25T08:42:41Z</time></trkpt><trkpt lat="45.228050719204596" lon="7.816246313746009"><ele>207.0</ele><time>2026-04-25T08:42:43Z</time></trkpt><trkpt lat="45.22812459637276" lon="7.816231162377073"><ele>207.0</ele><time>2026-04-25T08:42:44Z</time></trkpt><trkpt lat="45.22820102315336" lon="7.816212737731241"><ele>207.16666666666666</ele><time>2026-04-25T08:42:45Z</time></trkpt><trkpt lat="45.228276100414426" lon="7.816171167331953"><ele>207.33333333333331</ele><time>2026-04-25T08:42:46Z</time></trkpt><trkpt lat="45.22835520862721" lon="7.816111375292094"><ele>207.5</ele><time>2026-04-25T08:42:47Z</time></trkpt><trkpt lat="45.22840913839384" lon="7.816041748403755"><ele>207.66666666666666</ele><time>2026-04-25T08:42:48Z</time></trkpt><trkpt lat="45.22843760371555" lon="7.815952068184092"><ele>207.83333333333331</ele><time>2026-04-25T08:42:49Z</time></trkpt><trkpt lat="45.22847992143306" lon="7.815884645765944"><ele>208.0</ele><time>2026-04-25T08:42:50Z</time></trkpt><trkpt lat="45.228568619450186" lon="7.815922149151364"><ele>208.0</ele><time>2026-04-25T08:42:52Z</time></trkpt><trkpt lat="45.22862366259815" lon="7.815966389414257"><ele>208.0</ele><time>2026-04-25T08:42:53Z</time></trkpt><trkpt lat="45.22869516925199" lon="7.816018541506135"><ele>208.0</ele><time>2026-04-25T08:42:54Z</time></trkpt><trkpt lat="45.228801049387556" lon="7.81606511651923"><ele>208.0</ele><time>2026-04-25T08:42:55Z</time></trkpt><trkpt lat="45.2289096776767" lon="7.81610209949297"><ele>208.0</ele><time>2026-04-25T08:42:56Z</time></trkpt><trkpt lat="45.229003526594816" lon="7.8161427947745565"><ele>208.2</ele><time>2026-04-25T08:42:57Z</time></trkpt><trkpt lat="45.22909208808639" lon="7.816188366953399"><ele>208.4</ele><time>2026-04-25T08:42:58Z</time></trkpt><trkpt lat="45.229177375774086" lon="7.816252473363201"><ele>208.6</ele><time>2026-04-25T08:42:59Z</time></trkpt><trkpt lat="45.229256112553564" lon="7.8162952868634346"><ele>208.79999999999998</ele><time>2026-04-25T08:43:00Z</time></trkpt><trkpt lat="45.22933833174942" lon="7.816297436655116"><ele>209.0</ele><time>2026-04-25T08:43:01Z</time></trkpt><trkpt lat="45.22944498847797" lon="7.8162754315392755"><ele>209.0</ele><time>2026-04-25T08:43:02Z</time></trkpt><trkpt lat="45.22958233864278" lon="7.81623784825178"><ele>209.0</ele><time>2026-04-25T08:43:03Z</time></trkpt><trkpt lat="45.229698343447154" lon="7.816227519569208"><ele>209.0</ele><time>2026-04-25T08:43:04Z</time></trkpt><trkpt lat="45.22977118286158" lon="7.816276526598309"><ele>209.0</ele><time>2026-04-25T08:43:05Z</time></trkpt><trkpt lat="45.22984877372297" lon="7.8163441359129555"><ele>209.0</ele><time>2026-04-25T08:43:06Z</time></trkpt><trkpt lat="45.22994793772766" lon="7.816382686644443"><ele>209.39999999999998</ele><time>2026-04-25T08:43:08Z</time></trkpt><trkpt lat="45.23002023299102" lon="7.816207472468185"><ele>209.8</ele><time>2026-04-25T08:43:26.999Z</time></trkpt><trkpt lat="45.23005879772364" lon="7.816109639496625"><ele>210.2</ele><time>2026-04-25T08:43:27.999Z</time></trkpt><trkpt lat="45.230105872629785" lon="7.81602229801005"><ele>210.60000000000002</ele><time>2026-04-25T08:43:28.999Z</time></trkpt><trkpt lat="45.23016732838444" lon="7.8159802966825795"><ele>211.0</ele><time>2026-04-25T08:43:29.999Z</time></trkpt><trkpt lat="45.230265094588916" lon="7.815944259316452"><ele>211.0</ele><time>2026-04-25T08:43:30.999Z</time></trkpt><trkpt lat="45.23035685989062" lon="7.815855367571483"><ele>211.0</ele><time>2026-04-25T08:43:32.999Z</time></trkpt><trkpt lat="45.23042483369521" lon="7.8157684797604405"><ele>211.0</ele><time>2026-04-25T08:43:33.999Z</time></trkpt><trkpt lat="45.2305015729009" lon="7.815719525533333"><ele>211.0</ele><time>2026-04-25T08:43:34.999Z</time></trkpt><trkpt lat="45.23061872960972" lon="7.815703984483261"><ele>211.0</ele><time>2026-04-25T08:43:36.999Z</time></trkpt><trkpt lat="45.23068953529252" lon="7.815730535103757"><ele>210.83333333333331</ele><time>2026-04-25T08:43:37.999Z</time></trkpt><trkpt lat="45.23076507784682" lon="7.815749777641319"><ele>210.66666666666666</ele><time>2026-04-25T08:43:38.999Z</time></trkpt><trkpt lat="45.23082539609648" lon="7.815780114204792"><ele>210.5</ele><time>2026-04-25T08:43:39.999Z</time></trkpt><trkpt lat="45.23087468912447" lon="7.815844015962507"><ele>210.33333333333331</ele><time>2026-04-25T08:43:40.999Z</time></trkpt><trkpt lat="45.23092669711" lon="7.8159528520990404"><ele>210.16666666666666</ele><time>2026-04-25T08:43:41.999Z</time></trkpt><trkpt lat="45.23095831222405" lon="7.816070691438292"><ele>210.0</ele><time>2026-04-25T08:43:42.999Z</time></trkpt><trkpt lat="45.230991451179165" lon="7.8161869854129975"><ele>210.0</ele><time>2026-04-25T08:43:43.999Z</time></trkpt><trkpt lat="45.23103236438652" lon="7.816299024640398"><ele>210.0</ele><time>2026-04-25T08:43:44.999Z</time></trkpt><trkpt lat="45.23108769180067" lon="7.816411215599746"><ele>210.0</ele><time>2026-04-25T08:43:46.999Z</time></trkpt><trkpt lat="45.23113628704722" lon="7.816516999873815"><ele>210.0</ele><time>2026-04-25T08:43:47.999Z</time></trkpt><trkpt lat="45.23116615603761" lon="7.816610508652697"><ele>210.0</ele><time>2026-04-25T08:43:48.999Z</time></trkpt><trkpt lat="45.231254372000926" lon="7.816612791243907"><ele>210.0</ele><time>2026-04-25T08:43:52.999Z</time></trkpt><trkpt lat="45.231214514641216" lon="7.8165297663785225"><ele>210.0</ele><time>2026-04-25T08:43:57.999Z</time></trkpt><trkpt lat="45.23104972156956" lon="7.816339883647026"><ele>210.0</ele><time>2026-04-25T08:44:03.999Z</time></trkpt><trkpt lat="45.230989258386295" lon="7.816209603387272"><ele>210.0</ele><time>2026-04-25T08:44:04.999Z</time></trkpt><trkpt lat="45.23094241465734" lon="7.816053416252853"><ele>210.0</ele><time>2026-04-25T08:44:05.999Z</time></trkpt><trkpt lat="45.230895879222984" lon="7.8159190923212245"><ele>209.8</ele><time>2026-04-25T08:44:06.999Z</time></trkpt><trkpt lat="45.230866635397646" lon="7.815807974684818"><ele>209.6</ele><time>2026-04-25T08:44:07.999Z</time></trkpt><trkpt lat="45.23084407049892" lon="7.815691607132837"><ele>209.39999999999998</ele><time>2026-04-25T08:44:08.999Z</time></trkpt><trkpt lat="45.23081530713864" lon="7.815593632179292"><ele>209.2</ele><time>2026-04-25T08:44:09.999Z</time></trkpt><trkpt lat="45.23076459614822" lon="7.8154530234545145"><ele>209.0</ele><time>2026-04-25T08:44:10.999Z</time></trkpt><trkpt lat="45.2306874063619" lon="7.815333207329677"><ele>209.39999999999998</ele><time>2026-04-25T08:44:11.999Z</time></trkpt><trkpt lat="45.23059745450389" lon="7.815197417269858"><ele>209.8</ele><time>2026-04-25T08:44:12.999Z</time></trkpt><trkpt lat="45.23052439752199" lon="7.815091623137633"><ele>210.2</ele><time>2026-04-25T08:44:13.999Z</time></trkpt><trkpt lat="45.23047873069013" lon="7.815010241255709"><ele>210.60000000000002</ele><time>2026-04-25T08:44:14.999Z</time></trkpt><trkpt lat="45.23043596177588" lon="7.814885504382163"><ele>211.0</ele><time>2026-04-25T08:44:55Z</time></trkpt><trkpt lat="45.23048891968601" lon="7.81499904697195"><ele>211.0</ele><time>2026-04-25T08:44:58Z</time></trkpt><trkpt lat="45.23057154837263" lon="7.815119888244533"><ele>211.0</ele><time>2026-04-25T08:45:00Z</time></trkpt><trkpt lat="45.230634785557115" lon="7.815202051843373"><ele>211.0</ele><time>2026-04-25T08:45:01Z</time></trkpt><trkpt lat="45.230695200776445" lon="7.815300592076796"><ele>211.0</ele><time>2026-04-25T08:45:02Z</time></trkpt><trkpt lat="45.23075048325093" lon="7.815415092995706"><ele>211.0</ele><time>2026-04-25T08:45:03Z</time></trkpt><trkpt lat="45.23081252258209" lon="7.815529538865169"><ele>210.8</ele><time>2026-04-25T08:45:04Z</time></trkpt><trkpt lat="45.23087231304335" lon="7.815666873950926"><ele>210.60000000000002</ele><time>2026-04-25T08:45:05Z</time></trkpt><trkpt lat="45.230895578694295" lon="7.815792221706909"><ele>210.4</ele><time>2026-04-25T08:45:06Z</time></trkpt><trkpt lat="45.23091496296768" lon="7.815931738659437"><ele>210.2</ele><time>2026-04-25T08:45:07Z</time></trkpt><trkpt lat="45.23095992269096" lon="7.816044146768634"><ele>210.0</ele><time>2026-04-25T08:45:08Z</time></trkpt><trkpt lat="45.230997961606114" lon="7.816172730998484"><ele>210.0</ele><time>2026-04-25T08:45:09Z</time></trkpt><trkpt lat="45.23104902321931" lon="7.816283397079839"><ele>210.0</ele><time>2026-04-25T08:45:10Z</time></trkpt><trkpt lat="45.23109945863787" lon="7.816392671027729"><ele>210.0</ele><time>2026-04-25T08:45:11Z</time></trkpt><trkpt lat="45.231140292588734" lon="7.816493942979022"><ele>210.0</ele><time>2026-04-25T08:45:12Z</time></trkpt><trkpt lat="45.23119705826146" lon="7.816633740366503"><ele>210.0</ele><time>2026-04-25T08:45:13Z</time></trkpt><trkpt lat="45.2312329462177" lon="7.8167803389326735"><ele>209.66666666666666</ele><time>2026-04-25T08:45:14Z</time></trkpt><trkpt lat="45.231253684043494" lon="7.816919167993307"><ele>209.33333333333331</ele><time>2026-04-25T08:45:15Z</time></trkpt><trkpt lat="45.23125306514533" lon="7.817038066152424"><ele>209.0</ele><time>2026-04-25T08:45:16Z</time></trkpt><trkpt lat="45.23128375688679" lon="7.817133556282943"><ele>208.66666666666666</ele><time>2026-04-25T08:45:18Z</time></trkpt><trkpt lat="45.23137847696409" lon="7.817107419442183"><ele>208.33333333333331</ele><time>2026-04-25T08:45:23.999Z</time></trkpt><trkpt lat="45.231441237825" lon="7.817056332898604"><ele>208.0</ele><time>2026-04-25T08:45:24.999Z</time></trkpt><trkpt lat="45.231523699842604" lon="7.817016901152526"><ele>208.2</ele><time>2026-04-25T08:45:25.999Z</time></trkpt><trkpt lat="45.231600657527004" lon="7.816944810047194"><ele>208.4</ele><time>2026-04-25T08:45:26.999Z</time></trkpt><trkpt lat="45.23166694314705" lon="7.816840612450345"><ele>208.6</ele><time>2026-04-25T08:45:27.999Z</time></trkpt><trkpt lat="45.231733275602586" lon="7.816711190823592"><ele>208.79999999999998</ele><time>2026-04-25T08:45:28.999Z</time></trkpt><trkpt lat="45.231801240218424" lon="7.816581128511389"><ele>209.0</ele><time>2026-04-25T08:45:29.999Z</time></trkpt><trkpt lat="45.23187108392279" lon="7.8164576649390405"><ele>209.0</ele><time>2026-04-25T08:45:30.999Z</time></trkpt><trkpt lat="45.23192453782696" lon="7.816329308876365"><ele>209.0</ele><time>2026-04-25T08:45:31.999Z</time></trkpt><trkpt lat="45.23195803376326" lon="7.816181293979124"><ele>209.0</ele><time>2026-04-25T08:45:32.999Z</time></trkpt><trkpt lat="45.231984975823295" lon="7.816017828865604"><ele>209.0</ele><time>2026-04-25T08:45:33.999Z</time></trkpt><trkpt lat="45.232027482977706" lon="7.815842054281191"><ele>208.79999999999998</ele><time>2026-04-25T08:45:34.999Z</time></trkpt><trkpt lat="45.232074607130365" lon="7.815693268811201"><ele>208.6</ele><time>2026-04-25T08:45:35.999Z</time></trkpt><trkpt lat="45.23212327381124" lon="7.8155821213806504"><ele>208.4</ele><time>2026-04-25T08:45:36.999Z</time></trkpt><trkpt lat="45.23218321584239" lon="7.815522910228593"><ele>208.2</ele><time>2026-04-25T08:45:37.999Z</time></trkpt><trkpt lat="45.23226513190734" lon="7.815477776085236"><ele>208.0</ele><time>2026-04-25T08:45:38.999Z</time></trkpt><trkpt lat="45.232382550094904" lon="7.815422514874414"><ele>209.0</ele><time>2026-04-25T08:45:39.999Z</time></trkpt><trkpt lat="45.2324951271581" lon="7.815377841058714"><ele>210.0</ele><time>2026-04-25T08:45:40.999Z</time></trkpt><trkpt lat="45.23261302047738" lon="7.815358283759655"><ele>211.0</ele><time>2026-04-25T08:45:41.999Z</time></trkpt><trkpt lat="45.23273243524125" lon="7.815372738058868"><ele>212.0</ele><time>2026-04-25T08:45:42.999Z</time></trkpt><trkpt lat="45.23286579611796" lon="7.815368591442858"><ele>212.0</ele><time>2026-04-25T08:45:43.999Z</time></trkpt><trkpt lat="45.23297856828859" lon="7.815336182490051"><ele>212.0</ele><time>2026-04-25T08:45:44.999Z</time></trkpt><trkpt lat="45.23310015720933" lon="7.815273099691441"><ele>212.0</ele><time>2026-04-25T08:45:45.999Z</time></trkpt><trkpt lat="45.23319659148716" lon="7.815261773233761"><ele>212.0</ele><time>2026-04-25T08:45:46.999Z</time></trkpt><trkpt lat="45.23327271208954" lon="7.815272754339502"><ele>212.0</ele><time>2026-04-25T08:45:47.999Z</time></trkpt><trkpt lat="45.233370709577656" lon="7.8152787942484565"><ele>212.0</ele><time>2026-04-25T08:45:48.999Z</time></trkpt><trkpt lat="45.23343626393113" lon="7.815237118948874"><ele>212.0</ele><time>2026-04-25T08:45:49.999Z</time></trkpt><trkpt lat="45.2335585050261" lon="7.815087925307022"><ele>212.0</ele><time>2026-04-25T08:45:51.999Z</time></trkpt><trkpt lat="45.23366020907813" lon="7.81504911242188"><ele>212.0</ele><time>2026-04-25T08:45:52.999Z</time></trkpt><trkpt lat="45.23376880632885" lon="7.815054190690087"><ele>212.0</ele><time>2026-04-25T08:45:53.999Z</time></trkpt><trkpt lat="45.23385766197683" lon="7.81503474476258"><ele>212.0</ele><time>2026-04-25T08:45:54.999Z</time></trkpt><trkpt lat="45.233949196347794" lon="7.814981647047008"><ele>212.0</ele><time>2026-04-25T08:45:55.999Z</time></trkpt><trkpt lat="45.2340494835152" lon="7.814907755427421"><ele>212.0</ele><time>2026-04-25T08:45:56.999Z</time></trkpt><trkpt lat="45.23414929456172" lon="7.814829050730374"><ele>212.0</ele><time>2026-04-25T08:45:57.999Z</time></trkpt><trkpt lat="45.234201813224225" lon="7.8147367759820066"><ele>212.0</ele><time>2026-04-25T08:45:58.999Z</time></trkpt><trkpt lat="45.234278494042556" lon="7.814633875192964"><ele>212.0</ele><time>2026-04-25T08:45:59.999Z</time></trkpt><trkpt lat="45.23435476480628" lon="7.814579814742739"><ele>212.0</ele><time>2026-04-25T08:46:00.999Z</time></trkpt><trkpt lat="45.23442582957582" lon="7.814555122349665"><ele>212.0</ele><time>2026-04-25T08:46:01.999Z</time></trkpt><trkpt lat="45.23451198214593" lon="7.81456208668308"><ele>212.0</ele><time>2026-04-25T08:46:02.999Z</time></trkpt><trkpt lat="45.23461134566612" lon="7.814613520291689"><ele>212.0</ele><time>2026-04-25T08:46:03.999Z</time></trkpt><trkpt lat="45.23471549750227" lon="7.81469230905524"><ele>212.00000000000003</ele><time>2026-04-25T08:46:04.999Z</time></trkpt><trkpt lat="45.23482596500778" lon="7.814750754416322"><ele>212.0</ele><time>2026-04-25T08:46:05.999Z</time></trkpt><trkpt lat="45.2349149763322" lon="7.814782671738941"><ele>212.0</ele><time>2026-04-25T08:46:06.999Z</time></trkpt><trkpt lat="45.23500497495521" lon="7.8148262988410755"><ele>212.0</ele><time>2026-04-25T08:46:07.999Z</time></trkpt><trkpt lat="45.23507806501693" lon="7.814797909029497"><ele>212.00000000000003</ele><time>2026-04-25T08:46:09.999Z</time></trkpt><trkpt lat="45.235103429743546" lon="7.814713419785474"><ele>212.0</ele><time>2026-04-25T08:46:10.999Z</time></trkpt><trkpt lat="45.23511056098027" lon="7.814596976757078"><ele>212.0</ele><time>2026-04-25T08:46:11.999Z</time></trkpt><trkpt lat="45.23512206221176" lon="7.814464787476492"><ele>212.0</ele><time>2026-04-25T08:46:12.999Z</time></trkpt><trkpt lat="45.23520194142518" lon="7.814353361818989"><ele>212.0</ele><time>2026-04-25T08:46:14.999Z</time></trkpt><trkpt lat="45.2352936764101" lon="7.81432518114055"><ele>212.0</ele><time>2026-04-25T08:46:15.999Z</time></trkpt><trkpt lat="45.23537534279688" lon="7.814322674468382"><ele>212.0</ele><time>2026-04-25T08:46:16.999Z</time></trkpt><trkpt lat="45.23543524568563" lon="7.81436912463671"><ele>212.00000000000003</ele><time>2026-04-25T08:46:17.999Z</time></trkpt><trkpt lat="45.235498486450616" lon="7.814443996919597"><ele>212.0</ele><time>2026-04-25T08:46:18.999Z</time></trkpt><trkpt lat="45.235592153019645" lon="7.814472443145619"><ele>212.0</ele><time>2026-04-25T08:46:20.999Z</time></trkpt><trkpt lat="45.23567100434407" lon="7.814429827533171"><ele>212.0</ele><time>2026-04-25T08:46:21.998Z</time></trkpt><trkpt lat="45.23574322602556" lon="7.8144367144008635"><ele>212.00000000000003</ele><time>2026-04-25T08:46:22.998Z</time></trkpt><trkpt lat="45.23581845410779" lon="7.8145391015489265"><ele>212.0</ele><time>2026-04-25T08:46:24.998Z</time></trkpt><trkpt lat="45.23593986185723" lon="7.814563883722022"><ele>212.0</ele><time>2026-04-25T08:46:26.998Z</time></trkpt><trkpt lat="45.23603485740891" lon="7.814575991300996"><ele>212.0</ele><time>2026-04-25T08:46:27.998Z</time></trkpt><trkpt lat="45.23611483293862" lon="7.814623732480791"><ele>212.0</ele><time>2026-04-25T08:46:28.998Z</time></trkpt><trkpt lat="45.236181884595986" lon="7.814637744116934"><ele>212.0</ele><time>2026-04-25T08:46:29.998Z</time></trkpt><trkpt lat="45.23628916536326" lon="7.814651516588792"><ele>212.0</ele><time>2026-04-25T08:46:30.998Z</time></trkpt><trkpt lat="45.23640448203028" lon="7.814673250466919"><ele>212.00000000000003</ele><time>2026-04-25T08:46:31.998Z</time></trkpt><trkpt lat="45.23650839232637" lon="7.81467507260133"><ele>212.0</ele><time>2026-04-25T08:46:32.998Z</time></trkpt><trkpt lat="45.236591760384904" lon="7.81463399763024"><ele>212.0</ele><time>2026-04-25T08:46:33.998Z</time></trkpt><trkpt lat="45.23665898170714" lon="7.814582020192209"><ele>212.0</ele><time>2026-04-25T08:46:34.998Z</time></trkpt><trkpt lat="45.236735084978115" lon="7.8145040835807045"><ele>212.00000000000003</ele><time>2026-04-25T08:46:36.998Z</time></trkpt><trkpt lat="45.23679223603986" lon="7.814463877642305"><ele>212.0</ele><time>2026-04-25T08:46:39Z</time></trkpt><trkpt lat="45.23686377280541" lon="7.814394857291137"><ele>212.00000000000003</ele><time>2026-04-25T08:46:41Z</time></trkpt><trkpt lat="45.236918305710894" lon="7.8143323875302855"><ele>212.0</ele><time>2026-04-25T08:46:42Z</time></trkpt><trkpt lat="45.236984383142506" lon="7.81427825329027"><ele>212.0</ele><time>2026-04-25T08:46:43Z</time></trkpt><trkpt lat="45.2370443561004" lon="7.814238165237514"><ele>212.0</ele><time>2026-04-25T08:46:44Z</time></trkpt><trkpt lat="45.237103606910075" lon="7.814206123083138"><ele>212.00000000000003</ele><time>2026-04-25T08:46:45Z</time></trkpt><trkpt lat="45.237192892287005" lon="7.81423388453385"><ele>212.0</ele><time>2026-04-25T08:46:49Z</time></trkpt><trkpt lat="45.237298734903455" lon="7.814239872801324"><ele>211.75</ele><time>2026-04-25T08:46:51Z</time></trkpt><trkpt lat="45.23751696184148" lon="7.814329010563915"><ele>211.5</ele><time>2026-04-25T08:46:57Z</time></trkpt><trkpt lat="45.237611131196346" lon="7.814320988742572"><ele>211.25</ele><time>2026-04-25T08:46:58Z</time></trkpt><trkpt lat="45.23770195076818" lon="7.814299636966229"><ele>211.0</ele><time>2026-04-25T08:46:59Z</time></trkpt><trkpt lat="45.237764049471785" lon="7.8142816954153735"><ele>210.49999999999997</ele><time>2026-04-25T08:47:00Z</time></trkpt><trkpt lat="45.23782763853387" lon="7.814261326551094"><ele>210.0</ele><time>2026-04-25T08:47:01Z</time></trkpt><trkpt lat="45.237869780309886" lon="7.814151678186843"><ele>209.5</ele><time>2026-04-25T08:47:03Z</time></trkpt><trkpt lat="45.23787388880828" lon="7.814057325478798"><ele>209.0</ele><time>2026-04-25T08:47:04Z</time></trkpt><trkpt lat="45.237890260222386" lon="7.813957394038757"><ele>208.49999999999997</ele><time>2026-04-25T08:47:05Z</time></trkpt><trkpt lat="45.23799067618348" lon="7.813841555342473"><ele>208.0</ele><time>2026-04-25T08:47:07Z</time></trkpt><trkpt lat="45.2380720530786" lon="7.813824984050792"><ele>208.0</ele><time>2026-04-25T08:47:08Z</time></trkpt><trkpt lat="45.23816537647426" lon="7.81379798501188"><ele>208.0</ele><time>2026-04-25T08:47:09Z</time></trkpt><trkpt lat="45.238241086558126" lon="7.813796350089611"><ele>208.0</ele><time>2026-04-25T08:47:10Z</time></trkpt><trkpt lat="45.23835470600355" lon="7.813760543615356"><ele>208.0</ele><time>2026-04-25T08:47:12Z</time></trkpt><trkpt lat="45.23845464489661" lon="7.813680521457677"><ele>208.0</ele><time>2026-04-25T08:47:13Z</time></trkpt><trkpt lat="45.23853836830687" lon="7.81362113768396"><ele>208.0</ele><time>2026-04-25T08:47:14Z</time></trkpt><trkpt lat="45.238617054228364" lon="7.813585643406886"><ele>208.0</ele><time>2026-04-25T08:47:15Z</time></trkpt><trkpt lat="45.238704988929534" lon="7.813507071738645"><ele>208.0</ele><time>2026-04-25T08:47:16Z</time></trkpt><trkpt lat="45.23883133179313" lon="7.813405069874679"><ele>208.0</ele><time>2026-04-25T08:47:17Z</time></trkpt><trkpt lat="45.238956431191106" lon="7.813282102192451"><ele>208.25</ele><time>2026-04-25T08:47:18Z</time></trkpt><trkpt lat="45.23910041652955" lon="7.813200653062566"><ele>208.5</ele><time>2026-04-25T08:47:19Z</time></trkpt><trkpt lat="45.23922983464921" lon="7.81310799373258"><ele>208.75</ele><time>2026-04-25T08:47:20Z</time></trkpt><trkpt lat="45.239348964723575" lon="7.813038858523544"><ele>209.0</ele><time>2026-04-25T08:47:21Z</time></trkpt><trkpt lat="45.23944722069024" lon="7.812972228397959"><ele>209.0</ele><time>2026-04-25T08:47:22Z</time></trkpt><trkpt lat="45.23953195049581" lon="7.812917836450789"><ele>209.0</ele><time>2026-04-25T08:47:23Z</time></trkpt><trkpt lat="45.23958988462151" lon="7.812859186088056"><ele>209.0</ele><time>2026-04-25T08:47:24Z</time></trkpt><trkpt lat="45.23964379186062" lon="7.812768510585743"><ele>209.0</ele><time>2026-04-25T08:47:25Z</time></trkpt><trkpt lat="45.23969970332954" lon="7.81262523424179"><ele>209.0</ele><time>2026-04-25T08:47:26Z</time></trkpt><trkpt lat="45.23975112059518" lon="7.812463158116791"><ele>209.0</ele><time>2026-04-25T08:47:26.999Z</time></trkpt><trkpt lat="45.23978477678929" lon="7.812331850937565"><ele>209.0</ele><time>2026-04-25T08:47:27.999Z</time></trkpt><trkpt lat="45.23984180338776" lon="7.812216095513734"><ele>209.0</ele><time>2026-04-25T08:47:28.999Z</time></trkpt><trkpt lat="45.23992572048838" lon="7.812132966987851"><ele>209.0</ele><time>2026-04-25T08:47:29.999Z</time></trkpt><trkpt lat="45.240040390520356" lon="7.812033757608263"><ele>209.0</ele><time>2026-04-25T08:47:30.999Z</time></trkpt><trkpt lat="45.24013556325945" lon="7.811979738726684"><ele>209.0</ele><time>2026-04-25T08:47:31.999Z</time></trkpt><trkpt lat="45.24025184028111" lon="7.811942995024555"><ele>209.0</ele><time>2026-04-25T08:47:32.999Z</time></trkpt><trkpt lat="45.240369960886625" lon="7.811919324831886"><ele>209.0</ele><time>2026-04-25T08:47:33.999Z</time></trkpt><trkpt lat="45.240446001724976" lon="7.811854030094657"><ele>209.0</ele><time>2026-04-25T08:47:34.999Z</time></trkpt><trkpt lat="45.240519824996326" lon="7.8117512714825645"><ele>209.0</ele><time>2026-04-25T08:47:35.999Z</time></trkpt><trkpt lat="45.24061392212246" lon="7.811641025855629"><ele>209.2</ele><time>2026-04-25T08:47:36.999Z</time></trkpt><trkpt lat="45.24072388213065" lon="7.811572166099907"><ele>209.39999999999998</ele><time>2026-04-25T08:47:37.999Z</time></trkpt><trkpt lat="45.24081699253877" lon="7.811539049109115"><ele>209.6</ele><time>2026-04-25T08:47:38.999Z</time></trkpt><trkpt lat="45.24089712842539" lon="7.811495401771041"><ele>209.8</ele><time>2026-04-25T08:47:39.999Z</time></trkpt><trkpt lat="45.2409638400826" lon="7.81141611993653"><ele>210.0</ele><time>2026-04-25T08:47:40.999Z</time></trkpt><trkpt lat="45.24104843786246" lon="7.8113425555657505"><ele>210.0</ele><time>2026-04-25T08:47:41.999Z</time></trkpt><trkpt lat="45.2411566466141" lon="7.811285315031029"><ele>210.0</ele><time>2026-04-25T08:47:42.999Z</time></trkpt><trkpt lat="45.24129177305657" lon="7.811222849588757"><ele>210.0</ele><time>2026-04-25T08:47:43.999Z</time></trkpt><trkpt lat="45.24142125782175" lon="7.811144980800705"><ele>210.0</ele><time>2026-04-25T08:47:44.999Z</time></trkpt><trkpt lat="45.2415327788236" lon="7.811058629306502"><ele>210.0</ele><time>2026-04-25T08:47:45.999Z</time></trkpt><trkpt lat="45.241634489319566" lon="7.810987066453707"><ele>210.0</ele><time>2026-04-25T08:47:46.999Z</time></trkpt><trkpt lat="45.24172604930187" lon="7.8109301700477785"><ele>210.0</ele><time>2026-04-25T08:47:47.999Z</time></trkpt><trkpt lat="45.24185000837044" lon="7.810836328274274"><ele>210.0</ele><time>2026-04-25T08:47:48.999Z</time></trkpt><trkpt lat="45.24202923080137" lon="7.8108842778291425"><ele>210.0</ele><time>2026-04-25T08:47:50.999Z</time></trkpt><trkpt lat="45.242192991154816" lon="7.810917520641187"><ele>210.0</ele><time>2026-04-25T08:47:51.999Z</time></trkpt><trkpt lat="45.24236073696457" lon="7.810944983353818"><ele>210.0</ele><time>2026-04-25T08:47:52.999Z</time></trkpt><trkpt lat="45.24252969127447" lon="7.8109652790547175"><ele>210.66666666666669</ele><time>2026-04-25T08:47:53.999Z</time></trkpt><trkpt lat="45.24267819254414" lon="7.810995028253268"><ele>211.33333333333334</ele><time>2026-04-25T08:47:54.999Z</time></trkpt><trkpt lat="45.242837476897705" lon="7.811047519003626"><ele>212.0</ele><time>2026-04-25T08:47:55.999Z</time></trkpt><trkpt lat="45.2429749441199" lon="7.811089072376874"><ele>212.0</ele><time>2026-04-25T08:47:56.999Z</time></trkpt><trkpt lat="45.24312570766552" lon="7.811113458566679"><ele>212.0</ele><time>2026-04-25T08:47:57.999Z</time></trkpt><trkpt lat="45.243259827705565" lon="7.811109667356365"><ele>212.0</ele><time>2026-04-25T08:47:58.999Z</time></trkpt><trkpt lat="45.24340034670902" lon="7.811094545656298"><ele>212.0</ele><time>2026-04-25T08:47:59.999Z</time></trkpt><trkpt lat="45.243540319807" lon="7.81105149587892"><ele>212.25</ele><time>2026-04-25T08:48:00.999Z</time></trkpt><trkpt lat="45.24367631887977" lon="7.811005736556154"><ele>212.5</ele><time>2026-04-25T08:48:01.999Z</time></trkpt><trkpt lat="45.243818661989145" lon="7.810945212925896"><ele>212.75</ele><time>2026-04-25T08:48:02.999Z</time></trkpt><trkpt lat="45.243951557894135" lon="7.810868165333955"><ele>213.0</ele><time>2026-04-25T08:48:03.999Z</time></trkpt><trkpt lat="45.24408324352475" lon="7.810776156951964"><ele>213.5</ele><time>2026-04-25T08:48:04.999Z</time></trkpt><trkpt lat="45.24420361728103" lon="7.81066888833072"><ele>214.0</ele><time>2026-04-25T08:48:05.999Z</time></trkpt><trkpt lat="45.24430569112553" lon="7.810555103182759"><ele>214.5</ele><time>2026-04-25T08:48:06.999Z</time></trkpt><trkpt lat="45.24441310232997" lon="7.8104288193303315"><ele>215.0</ele><time>2026-04-25T08:48:07.999Z</time></trkpt><trkpt lat="45.244534346740664" lon="7.810297155934561"><ele>215.33333333333334</ele><time>2026-04-25T08:48:08.999Z</time></trkpt><trkpt lat="45.24465720504892" lon="7.810157225098252"><ele>215.66666666666669</ele><time>2026-04-25T08:48:09.999Z</time></trkpt><trkpt lat="45.244781488907705" lon="7.810010183137844"><ele>216.0</ele><time>2026-04-25T08:48:10.999Z</time></trkpt><trkpt lat="45.244899703525654" lon="7.809865725546939"><ele>216.0</ele><time>2026-04-25T08:48:11.999Z</time></trkpt><trkpt lat="45.24502245790341" lon="7.80971558226711"><ele>216.0</ele><time>2026-04-25T08:48:12.999Z</time></trkpt><trkpt lat="45.24515119868738" lon="7.8095625720735535"><ele>216.0</ele><time>2026-04-25T08:48:13.999Z</time></trkpt><trkpt lat="45.24527128787753" lon="7.809408259956189"><ele>215.33333333333331</ele><time>2026-04-25T08:48:14.999Z</time></trkpt><trkpt lat="45.24539301382438" lon="7.809260604276495"><ele>214.66666666666666</ele><time>2026-04-25T08:48:15.999Z</time></trkpt><trkpt lat="45.24551303019985" lon="7.809110109619437"><ele>214.0</ele><time>2026-04-25T08:48:16.999Z</time></trkpt><trkpt lat="45.24563351750409" lon="7.808966749185361"><ele>215.66666666666666</ele><time>2026-04-25T08:48:17.999Z</time></trkpt><trkpt lat="45.24575260885584" lon="7.808829802836152"><ele>217.33333333333331</ele><time>2026-04-25T08:48:18.999Z</time></trkpt><trkpt lat="45.245869487295906" lon="7.8086860523165775"><ele>219.0</ele><time>2026-04-25T08:48:19.999Z</time></trkpt><trkpt lat="45.24599180471272" lon="7.808538705359219"><ele>217.5</ele><time>2026-04-25T08:48:20.999Z</time></trkpt><trkpt lat="45.246108646235264" lon="7.80837500283561"><ele>216.0</ele><time>2026-04-25T08:48:21.999Z</time></trkpt><trkpt lat="45.24622262550301" lon="7.808241670167373"><ele>214.5</ele><time>2026-04-25T08:48:22.999Z</time></trkpt><trkpt lat="45.24632211763017" lon="7.808131710423616"><ele>213.0</ele><time>2026-04-25T08:48:23.999Z</time></trkpt><trkpt lat="45.24641955180147" lon="7.808007965840898"><ele>213.66666666666666</ele><time>2026-04-25T08:48:24.999Z</time></trkpt><trkpt lat="45.246506214424194" lon="7.807914554336047"><ele>214.33333333333331</ele><time>2026-04-25T08:48:25.999Z</time></trkpt><trkpt lat="45.24657890109787" lon="7.807851361608907"><ele>215.0</ele><time>2026-04-25T08:48:26.999Z</time></trkpt><trkpt lat="45.24665299570344" lon="7.807802823073273"><ele>215.66666666666666</ele><time>2026-04-25T08:48:27.998Z</time></trkpt><trkpt lat="45.24673101917495" lon="7.807785358007232"><ele>216.33333333333331</ele><time>2026-04-25T08:48:28.998Z</time></trkpt><trkpt lat="45.24681768212154" lon="7.807787898485174"><ele>217.0</ele><time>2026-04-25T08:48:29.998Z</time></trkpt><trkpt lat="45.246895996039065" lon="7.807842480252916"><ele>217.0</ele><time>2026-04-25T08:48:30.998Z</time></trkpt><trkpt lat="45.24698495125556" lon="7.807937329718812"><ele>217.0</ele><time>2026-04-25T08:48:31.998Z</time></trkpt><trkpt lat="45.24707064420091" lon="7.808036372046398"><ele>217.0</ele><time>2026-04-25T08:48:32.998Z</time></trkpt><trkpt lat="45.24717450405039" lon="7.808149952174115"><ele>217.0</ele><time>2026-04-25T08:48:33.998Z</time></trkpt><trkpt lat="45.2472732422709" lon="7.808270777792529"><ele>217.25</ele><time>2026-04-25T08:48:34.998Z</time></trkpt><trkpt lat="45.247358105574044" lon="7.808419747432375"><ele>217.5</ele><time>2026-04-25T08:48:35.998Z</time></trkpt><trkpt lat="45.24744555738862" lon="7.808581107729279"><ele>217.75</ele><time>2026-04-25T08:48:36.998Z</time></trkpt><trkpt lat="45.24749242662578" lon="7.808704620722567"><ele>218.0</ele><time>2026-04-25T08:48:37.998Z</time></trkpt><trkpt lat="45.247537944190114" lon="7.808786329272381"><ele>218.00000000000003</ele><time>2026-04-25T08:48:38.998Z</time></trkpt><trkpt lat="45.24763025363331" lon="7.808764866256515"><ele>218.0</ele><time>2026-04-25T08:48:40.998Z</time></trkpt><trkpt lat="45.247689488952915" lon="7.808683958740899"><ele>218.0</ele><time>2026-04-25T08:48:42.998Z</time></trkpt><trkpt lat="45.24774071298722" lon="7.808617364720167"><ele>218.0</ele><time>2026-04-25T08:48:48Z</time></trkpt><trkpt lat="45.24778746272564" lon="7.808533355628372"><ele>218.00000000000003</ele><time>2026-04-25T08:48:57Z</time></trkpt><trkpt lat="45.24785708600156" lon="7.808504399020847"><ele>218.0</ele><time>2026-04-25T08:48:59Z</time></trkpt><trkpt lat="45.24785590426169" lon="7.808372950667842"><ele>218.25</ele><time>2026-04-25T08:49:02Z</time></trkpt><trkpt lat="45.24780363058617" lon="7.808264031474574"><ele>218.5</ele><time>2026-04-25T08:49:03Z</time></trkpt><trkpt lat="45.24772335570418" lon="7.808116551228199"><ele>218.75</ele><time>2026-04-25T08:49:04Z</time></trkpt><trkpt lat="45.247635236383836" lon="7.807971559896094"><ele>219.0</ele><time>2026-04-25T08:49:05Z</time></trkpt><trkpt lat="45.247549494428924" lon="7.807796963126033"><ele>218.0</ele><time>2026-04-25T08:49:06Z</time></trkpt><trkpt lat="45.24745955816787" lon="7.807607861577153"><ele>217.0</ele><time>2026-04-25T08:49:07Z</time></trkpt><trkpt lat="45.24736132807485" lon="7.807408250553718"><ele>216.0</ele><time>2026-04-25T08:49:08Z</time></trkpt><trkpt lat="45.247258555064796" lon="7.807196815449422"><ele>214.66666666666669</ele><time>2026-04-25T08:49:09Z</time></trkpt><trkpt lat="45.24714787765275" lon="7.806988397340628"><ele>213.33333333333334</ele><time>2026-04-25T08:49:10Z</time></trkpt><trkpt lat="45.24704799473322" lon="7.806803800813229"><ele>212.0</ele><time>2026-04-25T08:49:11Z</time></trkpt><trkpt lat="45.246971097517225" lon="7.8066187957503095"><ele>212.0</ele><time>2026-04-25T08:49:12Z</time></trkpt><trkpt lat="45.24688198112352" lon="7.8064757871593615"><ele>212.0</ele><time>2026-04-25T08:49:13Z</time></trkpt><trkpt lat="45.246802763702036" lon="7.806309068360674"><ele>212.0</ele><time>2026-04-25T08:49:14Z</time></trkpt><trkpt lat="45.24671293843996" lon="7.8061325813280495"><ele>212.0</ele><time>2026-04-25T08:49:15Z</time></trkpt><trkpt lat="45.24663246318235" lon="7.805944494410551"><ele>212.0</ele><time>2026-04-25T08:49:16Z</time></trkpt><trkpt lat="45.24652738719397" lon="7.8057728956182055"><ele>212.0</ele><time>2026-04-25T08:49:17Z</time></trkpt><trkpt lat="45.2464358975657" lon="7.805587970680708"><ele>212.0</ele><time>2026-04-25T08:49:18Z</time></trkpt><trkpt lat="45.246346429839036" lon="7.8053975502334545"><ele>213.66666666666669</ele><time>2026-04-25T08:49:19Z</time></trkpt><trkpt lat="45.2462484981897" lon="7.805205183501715"><ele>215.33333333333331</ele><time>2026-04-25T08:49:20Z</time></trkpt><trkpt lat="45.24615144698977" lon="7.805016752959852"><ele>217.0</ele><time>2026-04-25T08:49:21Z</time></trkpt><trkpt lat="45.24605727892385" lon="7.804812295046358"><ele>217.25</ele><time>2026-04-25T08:49:22Z</time></trkpt><trkpt lat="45.2459635499731" lon="7.804614168445229"><ele>217.5</ele><time>2026-04-25T08:49:23Z</time></trkpt><trkpt lat="45.245884475344766" lon="7.804464907679797"><ele>217.75</ele><time>2026-04-25T08:49:23.999Z</time></trkpt><trkpt lat="45.24582722073208" lon="7.804346331500855"><ele>218.0</ele><time>2026-04-25T08:49:24.999Z</time></trkpt><trkpt lat="45.245783175614115" lon="7.804245105428464"><ele>218.0</ele><time>2026-04-25T08:49:25.999Z</time></trkpt><trkpt lat="45.24574847292594" lon="7.804167646004377"><ele>218.0</ele><time>2026-04-25T08:49:26.999Z</time></trkpt><trkpt lat="45.245711864499725" lon="7.804067199851376"><ele>218.0</ele><time>2026-04-25T08:49:28.999Z</time></trkpt><trkpt lat="45.24594575560889" lon="7.8038326469346515"><ele>218.0</ele><time>2026-04-25T08:49:33.999Z</time></trkpt><trkpt lat="45.24602350008121" lon="7.803777555266858"><ele>218.00000000000003</ele><time>2026-04-25T08:49:34.999Z</time></trkpt><trkpt lat="45.246082259768414" lon="7.8037258814316965"><ele>218.0</ele><time>2026-04-25T08:49:35.999Z</time></trkpt><trkpt lat="45.2461820894144" lon="7.803637506890123"><ele>218.0</ele><time>2026-04-25T08:49:37.999Z</time></trkpt><trkpt lat="45.24624159370393" lon="7.803590647433417"><ele>218.0</ele><time>2026-04-25T08:49:39.999Z</time></trkpt><trkpt lat="45.24630724751269" lon="7.8035434713874805"><ele>218.00000000000003</ele><time>2026-04-25T08:49:44.999Z</time></trkpt><trkpt lat="45.24635530908583" lon="7.803603427663821"><ele>218.0</ele><time>2026-04-25T08:49:47.999Z</time></trkpt><trkpt lat="45.24637213982461" lon="7.803724401804535"><ele>218.00000000000003</ele><time>2026-04-25T08:49:51.999Z</time></trkpt><trkpt lat="45.24638673033196" lon="7.80383162870779"><ele>218.0</ele><time>2026-04-25T08:49:53.999Z</time></trkpt><trkpt lat="45.246414995925285" lon="7.803913111918759"><ele>218.0</ele><time>2026-04-25T08:50:08.999Z</time></trkpt><trkpt lat="45.2464250785255" lon="7.804045906980564"><ele>218.0</ele><time>2026-04-25T08:50:10.999Z</time></trkpt><trkpt lat="45.24637290579482" lon="7.804136053009212"><ele>218.00000000000003</ele><time>2026-04-25T08:50:11.999Z</time></trkpt><trkpt lat="45.246325567070016" lon="7.804241710758766"><ele>218.0</ele><time>2026-04-25T08:50:12.999Z</time></trkpt><trkpt lat="45.24627055640351" lon="7.80431601129758"><ele>218.00000000000003</ele><time>2026-04-25T08:50:13.999Z</time></trkpt><trkpt lat="45.246208808237185" lon="7.804376897209067"><ele>218.0</ele><time>2026-04-25T08:50:14.999Z</time></trkpt><trkpt lat="45.24615459480836" lon="7.804428982668135"><ele>218.0</ele><time>2026-04-25T08:50:16.999Z</time></trkpt><trkpt lat="45.24609514500886" lon="7.804497686711149"><ele>218.0</ele><time>2026-04-25T08:50:27.998Z</time></trkpt><trkpt lat="45.246035535355524" lon="7.804567352453247"><ele>218.00000000000003</ele><time>2026-04-25T08:50:55Z</time></trkpt><trkpt lat="45.24597121636259" lon="7.804651864751743"><ele>218.0</ele><time>2026-04-25T08:50:57Z</time></trkpt><trkpt lat="45.24589484984132" lon="7.8047498344073185"><ele>218.00000000000003</ele><time>2026-04-25T08:50:59Z</time></trkpt><trkpt lat="45.24582717206022" lon="7.804789283048551"><ele>218.0</ele><time>2026-04-25T08:51:14Z</time></trkpt><trkpt lat="45.24577589632663" lon="7.804863593241369"><ele>218.0</ele><time>2026-04-25T08:51:19Z</time></trkpt><trkpt lat="45.24578937607278" lon="7.80496812553927"><ele>218.0</ele><time>2026-04-25T08:51:20.999Z</time></trkpt><trkpt lat="45.245774547736026" lon="7.8050921282956045"><ele>218.00000000000003</ele><time>2026-04-25T08:51:24.999Z</time></trkpt><trkpt lat="45.24569979743267" lon="7.805142745802014"><ele>218.0</ele><time>2026-04-25T08:51:26.999Z</time></trkpt><trkpt lat="45.24564987792469" lon="7.805212864251729"><ele>217.8</ele><time>2026-04-25T08:51:28.999Z</time></trkpt><trkpt lat="45.2456266015508" lon="7.8053523382776016"><ele>217.60000000000002</ele><time>2026-04-25T08:51:31.999Z</time></trkpt><trkpt lat="45.24560453274024" lon="7.805467363712795"><ele>217.39999999999998</ele><time>2026-04-25T08:51:32.999Z</time></trkpt><trkpt lat="45.24557969852382" lon="7.8055586175327205"><ele>217.2</ele><time>2026-04-25T08:51:33.999Z</time></trkpt><trkpt lat="45.245478094575546" lon="7.805764082678147"><ele>217.0</ele><time>2026-04-25T08:52:03.999Z</time></trkpt><trkpt lat="45.24543349706928" lon="7.805874131008281"><ele>216.39999999999998</ele><time>2026-04-25T08:52:05.999Z</time></trkpt><trkpt lat="45.245467874427064" lon="7.806082102943167"><ele>215.79999999999998</ele><time>2026-04-25T08:52:07.999Z</time></trkpt><trkpt lat="45.245468491859505" lon="7.806213308234984"><ele>215.2</ele><time>2026-04-25T08:52:08.999Z</time></trkpt><trkpt lat="45.24544294230114" lon="7.806330137838202"><ele>214.6</ele><time>2026-04-25T08:52:09.999Z</time></trkpt><trkpt lat="45.24540337247154" lon="7.806428375184326"><ele>214.0</ele><time>2026-04-25T08:52:10.999Z</time></trkpt><trkpt lat="45.24535576314909" lon="7.806505898882901"><ele>214.0</ele><time>2026-04-25T08:52:11.999Z</time></trkpt><trkpt lat="45.24528933306861" lon="7.806576775127279"><ele>213.99999999999997</ele><time>2026-04-25T08:52:12.999Z</time></trkpt><trkpt lat="45.24521012307705" lon="7.806636448826449"><ele>213.99999999999997</ele><time>2026-04-25T08:52:13.999Z</time></trkpt><trkpt lat="45.24512546244282" lon="7.806708913777492"><ele>214.0</ele><time>2026-04-25T08:52:14.999Z</time></trkpt><trkpt lat="45.245038689118644" lon="7.806794468999598"><ele>214.0</ele><time>2026-04-25T08:52:15.999Z</time></trkpt><trkpt lat="45.2449641493366" lon="7.806897359758846"><ele>213.39999999999998</ele><time>2026-04-25T08:52:16.999Z</time></trkpt><trkpt lat="45.24488286692047" lon="7.806999677629245"><ele>212.79999999999998</ele><time>2026-04-25T08:52:17.999Z</time></trkpt><trkpt lat="45.244795161413286" lon="7.8070702674352"><ele>212.2</ele><time>2026-04-25T08:52:18.999Z</time></trkpt><trkpt lat="45.24469494588178" lon="7.807155033871258"><ele>211.60000000000002</ele><time>2026-04-25T08:52:19.999Z</time></trkpt><trkpt lat="45.24459605325791" lon="7.807246400582171"><ele>211.0</ele><time>2026-04-25T08:52:20.999Z</time></trkpt><trkpt lat="45.244506663029895" lon="7.807352854803019"><ele>211.0</ele><time>2026-04-25T08:52:21.999Z</time></trkpt><trkpt lat="45.2444080502935" lon="7.8074478397361045"><ele>211.0</ele><time>2026-04-25T08:52:22.999Z</time></trkpt><trkpt lat="45.24430095134174" lon="7.807542006603921"><ele>211.0</ele><time>2026-04-25T08:52:23.999Z</time></trkpt><trkpt lat="45.24418682049621" lon="7.807632342384715"><ele>211.0</ele><time>2026-04-25T08:52:24.999Z</time></trkpt><trkpt lat="45.244062317844396" lon="7.807727975132923"><ele>211.25</ele><time>2026-04-25T08:52:25.999Z</time></trkpt><trkpt lat="45.2439480062957" lon="7.807822668893332"><ele>211.5</ele><time>2026-04-25T08:52:26.999Z</time></trkpt><trkpt lat="45.243811514428245" lon="7.807890406404956"><ele>211.75</ele><time>2026-04-25T08:52:27.999Z</time></trkpt><trkpt lat="45.24370425144636" lon="7.807976539146002"><ele>212.0</ele><time>2026-04-25T08:52:28.999Z</time></trkpt><trkpt lat="45.24359526329723" lon="7.808072308136803"><ele>212.0</ele><time>2026-04-25T08:52:29.999Z</time></trkpt><trkpt lat="45.24349753406798" lon="7.80814391025783"><ele>212.0</ele><time>2026-04-25T08:52:30.998Z</time></trkpt><trkpt lat="45.24339416770294" lon="7.80820896400475"><ele>212.0</ele><time>2026-04-25T08:52:31.998Z</time></trkpt><trkpt lat="45.24329216247156" lon="7.808267792269956"><ele>212.0</ele><time>2026-04-25T08:52:32.998Z</time></trkpt><trkpt lat="45.24318002015652" lon="7.808340654242469"><ele>212.5</ele><time>2026-04-25T08:52:33.998Z</time></trkpt><trkpt lat="45.24306445806303" lon="7.808396988184031"><ele>213.0</ele><time>2026-04-25T08:52:34.998Z</time></trkpt><trkpt lat="45.24295018647581" lon="7.808445826524146"><ele>213.5</ele><time>2026-04-25T08:52:35.998Z</time></trkpt><trkpt lat="45.242851056341884" lon="7.808512728446192"><ele>214.0</ele><time>2026-04-25T08:52:36.998Z</time></trkpt><trkpt lat="45.24276228028598" lon="7.808572765405174"><ele>213.2</ele><time>2026-04-25T08:52:37.998Z</time></trkpt><trkpt lat="45.24267671072693" lon="7.808617071711841"><ele>212.39999999999998</ele><time>2026-04-25T08:52:38.998Z</time></trkpt><trkpt lat="45.24259342454202" lon="7.8086495990347915"><ele>211.6</ele><time>2026-04-25T08:52:39.998Z</time></trkpt><trkpt lat="45.242507312446435" lon="7.808696581044518"><ele>210.8</ele><time>2026-04-25T08:52:40.998Z</time></trkpt><trkpt lat="45.242412402211656" lon="7.808737672427087"><ele>210.0</ele><time>2026-04-25T08:52:41.998Z</time></trkpt><trkpt lat="45.24232875658343" lon="7.808773840076288"><ele>210.0</ele><time>2026-04-25T08:52:42.998Z</time></trkpt><trkpt lat="45.24224570223374" lon="7.808798523699393"><ele>210.0</ele><time>2026-04-25T08:52:43.998Z</time></trkpt><trkpt lat="45.24214566303165" lon="7.808774468332883"><ele>210.0</ele><time>2026-04-25T08:52:45.998Z</time></trkpt><trkpt lat="45.24208662521077" lon="7.808731956690479"><ele>210.0</ele><time>2026-04-25T08:52:46.998Z</time></trkpt><trkpt lat="45.24202095697291" lon="7.808716256901922"><ele>210.0</ele><time>2026-04-25T08:52:47.998Z</time></trkpt><trkpt lat="45.2419513189057" lon="7.808733222292439"><ele>210.0</ele><time>2026-04-25T08:52:48.998Z</time></trkpt><trkpt lat="45.24188817567248" lon="7.808803949192183"><ele>210.0</ele><time>2026-04-25T08:52:49.998Z</time></trkpt><trkpt lat="45.24182326757112" lon="7.808886346265447"><ele>210.0</ele><time>2026-04-25T08:52:50.998Z</time></trkpt><trkpt lat="45.24174701874996" lon="7.808952600956063"><ele>210.0</ele><time>2026-04-25T08:52:51.998Z</time></trkpt><trkpt lat="45.2416515864565" lon="7.80899111197768"><ele>210.0</ele><time>2026-04-25T08:52:52.998Z</time></trkpt><trkpt lat="45.24155909389099" lon="7.809008851159744"><ele>210.0</ele><time>2026-04-25T08:52:53.998Z</time></trkpt><trkpt lat="45.24144725724746" lon="7.809046888397816"><ele>210.2</ele><time>2026-04-25T08:52:54.998Z</time></trkpt><trkpt lat="45.241355849635426" lon="7.809074206764161"><ele>210.4</ele><time>2026-04-25T08:52:56Z</time></trkpt><trkpt lat="45.24126207357356" lon="7.809117567592298"><ele>210.60000000000002</ele><time>2026-04-25T08:52:57Z</time></trkpt><trkpt lat="45.24118116184362" lon="7.809192175273064"><ele>210.8</ele><time>2026-04-25T08:52:58Z</time></trkpt><trkpt lat="45.24111086593455" lon="7.809308096399971"><ele>211.0</ele><time>2026-04-25T08:52:59Z</time></trkpt><trkpt lat="45.2410405735664" lon="7.8094243912374015"><ele>210.60000000000002</ele><time>2026-04-25T08:53:00Z</time></trkpt><trkpt lat="45.24100362610063" lon="7.809506191159363"><ele>210.2</ele><time>2026-04-25T08:53:01Z</time></trkpt><trkpt lat="45.24092167181228" lon="7.809603491048341"><ele>209.8</ele><time>2026-04-25T08:53:03Z</time></trkpt><trkpt lat="45.24081721816244" lon="7.8096665721536"><ele>209.39999999999998</ele><time>2026-04-25T08:53:05Z</time></trkpt><trkpt lat="45.2407379379003" lon="7.809688304132572"><ele>209.0</ele><time>2026-04-25T08:53:06Z</time></trkpt><trkpt lat="45.24065668600102" lon="7.8096988313804125"><ele>209.0</ele><time>2026-04-25T08:53:07Z</time></trkpt><trkpt lat="45.240572535373985" lon="7.809759878323412"><ele>209.0</ele><time>2026-04-25T08:53:08Z</time></trkpt><trkpt lat="45.24048025008599" lon="7.80976071873772"><ele>209.0</ele><time>2026-04-25T08:53:09Z</time></trkpt><trkpt lat="45.24036718557633" lon="7.8097457082406505"><ele>209.0</ele><time>2026-04-25T08:53:10Z</time></trkpt><trkpt lat="45.24026343270956" lon="7.809757564278982"><ele>209.0</ele><time>2026-04-25T08:53:11Z</time></trkpt><trkpt lat="45.24015112278999" lon="7.80979719788371"><ele>209.0</ele><time>2026-04-25T08:53:12Z</time></trkpt><trkpt lat="45.240068439503204" lon="7.809817187583391"><ele>209.0</ele><time>2026-04-25T08:53:13Z</time></trkpt><trkpt lat="45.23999829314938" lon="7.809910634019772"><ele>209.0</ele><time>2026-04-25T08:53:14Z</time></trkpt><trkpt lat="45.239895009879035" lon="7.809967007736015"><ele>209.0</ele><time>2026-04-25T08:53:15Z</time></trkpt><trkpt lat="45.23976987088498" lon="7.810030222526087"><ele>209.0</ele><time>2026-04-25T08:53:16Z</time></trkpt><trkpt lat="45.23967025861502" lon="7.810035271109071"><ele>209.00000000000003</ele><time>2026-04-25T08:53:17Z</time></trkpt><trkpt lat="45.239581048570706" lon="7.8100379366220025"><ele>209.0</ele><time>2026-04-25T08:53:18Z</time></trkpt><trkpt lat="45.23950650105215" lon="7.810051663193194"><ele>209.0</ele><time>2026-04-25T08:53:19Z</time></trkpt><trkpt lat="45.23944458614998" lon="7.810102736245036"><ele>209.0</ele><time>2026-04-25T08:53:20Z</time></trkpt><trkpt lat="45.23934684036992" lon="7.810132633465829"><ele>209.00000000000003</ele><time>2026-04-25T08:53:21Z</time></trkpt><trkpt lat="45.239249847229146" lon="7.810136506816593"><ele>209.0</ele><time>2026-04-25T08:53:22Z</time></trkpt><trkpt lat="45.2391674867353" lon="7.810172804011771"><ele>209.0</ele><time>2026-04-25T08:53:23Z</time></trkpt><trkpt lat="45.239090344458596" lon="7.810229002656903"><ele>209.0</ele><time>2026-04-25T08:53:24Z</time></trkpt><trkpt lat="45.23900979185967" lon="7.810312245374812"><ele>209.0</ele><time>2026-04-25T08:53:25Z</time></trkpt><trkpt lat="45.23892354741358" lon="7.810404944789746"><ele>209.0</ele><time>2026-04-25T08:53:26Z</time></trkpt><trkpt lat="45.23883866012555" lon="7.810515369667167"><ele>209.0</ele><time>2026-04-25T08:53:27Z</time></trkpt><trkpt lat="45.23874744896963" lon="7.810614271653413"><ele>209.0</ele><time>2026-04-25T08:53:28Z</time></trkpt><trkpt lat="45.2386759112705" lon="7.810682658901877"><ele>209.0</ele><time>2026-04-25T08:53:29Z</time></trkpt><trkpt lat="45.23860753869658" lon="7.8107792470122615"><ele>209.0</ele><time>2026-04-25T08:53:30Z</time></trkpt><trkpt lat="45.23853324087643" lon="7.810896727292638"><ele>209.0</ele><time>2026-04-25T08:53:31Z</time></trkpt><trkpt lat="45.2384622642085" lon="7.810972993649759"><ele>209.0</ele><time>2026-04-25T08:53:32Z</time></trkpt><trkpt lat="45.23837369856186" lon="7.811017668025271"><ele>209.0</ele><time>2026-04-25T08:53:33Z</time></trkpt><trkpt lat="45.23827770251119" lon="7.8110573107624965"><ele>209.0</ele><time>2026-04-25T08:53:34Z</time></trkpt><trkpt lat="45.23816409736594" lon="7.811132409199456"><ele>209.0</ele><time>2026-04-25T08:53:35Z</time></trkpt><trkpt lat="45.238054129241384" lon="7.811200499256765"><ele>209.0</ele><time>2026-04-25T08:53:36Z</time></trkpt><trkpt lat="45.237955523965354" lon="7.8112367261290885"><ele>209.0</ele><time>2026-04-25T08:53:37Z</time></trkpt><trkpt lat="45.237874974235" lon="7.811237324174194"><ele>209.0</ele><time>2026-04-25T08:53:38Z</time></trkpt><trkpt lat="45.237768421246926" lon="7.81116216035444"><ele>209.0</ele><time>2026-04-25T08:53:39.999Z</time></trkpt><trkpt lat="45.2376797530077" lon="7.811089627674201"><ele>209.0</ele><time>2026-04-25T08:53:40.999Z</time></trkpt><trkpt lat="45.23757792492095" lon="7.81104137904129"><ele>209.0</ele><time>2026-04-25T08:53:41.999Z</time></trkpt><trkpt lat="45.23746546143499" lon="7.811002769158238"><ele>209.0</ele><time>2026-04-25T08:53:42.999Z</time></trkpt><trkpt lat="45.237365501642614" lon="7.810982634272554"><ele>209.2</ele><time>2026-04-25T08:53:43.999Z</time></trkpt><trkpt lat="45.23725833958129" lon="7.810993938184727"><ele>209.39999999999998</ele><time>2026-04-25T08:53:44.999Z</time></trkpt><trkpt lat="45.237170255873835" lon="7.811024754297116"><ele>209.6</ele><time>2026-04-25T08:53:45.999Z</time></trkpt><trkpt lat="45.23711601275081" lon="7.811081517839753"><ele>209.8</ele><time>2026-04-25T08:53:46.999Z</time></trkpt><trkpt lat="45.23705326542009" lon="7.811191488857145"><ele>210.0</ele><time>2026-04-25T08:53:47.999Z</time></trkpt><trkpt lat="45.23696985067123" lon="7.811310187140987"><ele>210.0</ele><time>2026-04-25T08:53:48.999Z</time></trkpt><trkpt lat="45.23688384862596" lon="7.811373299383841"><ele>210.0</ele><time>2026-04-25T08:53:49.999Z</time></trkpt><trkpt lat="45.23682505738432" lon="7.811434769524202"><ele>210.0</ele><time>2026-04-25T08:53:50.999Z</time></trkpt><trkpt lat="45.236778024328274" lon="7.811508203681138"><ele>210.0</ele><time>2026-04-25T08:53:51.999Z</time></trkpt><trkpt lat="45.23664809156529" lon="7.811605697822908"><ele>210.0</ele><time>2026-04-25T08:53:53.999Z</time></trkpt><trkpt lat="45.23654804299019" lon="7.811678385113793"><ele>210.0</ele><time>2026-04-25T08:53:54.999Z</time></trkpt><trkpt lat="45.23646531186467" lon="7.8117344710722785"><ele>210.0</ele><time>2026-04-25T08:53:55.999Z</time></trkpt><trkpt lat="45.23640717039354" lon="7.811771699898274"><ele>210.0</ele><time>2026-04-25T08:53:56.999Z</time></trkpt><trkpt lat="45.236301520115376" lon="7.811812196609095"><ele>210.0</ele><time>2026-04-25T08:53:57.999Z</time></trkpt><trkpt lat="45.23621942718611" lon="7.81188006208703"><ele>210.0</ele><time>2026-04-25T08:53:58.999Z</time></trkpt><trkpt lat="45.236123356448" lon="7.811978035281328"><ele>209.6</ele><time>2026-04-25T08:53:59.999Z</time></trkpt><trkpt lat="45.236046514269134" lon="7.8120433645161205"><ele>209.2</ele><time>2026-04-25T08:54:00.999Z</time></trkpt><trkpt lat="45.23595457436792" lon="7.812141107536776"><ele>208.8</ele><time>2026-04-25T08:54:01.999Z</time></trkpt><trkpt lat="45.23587466702071" lon="7.812229677829199"><ele>208.4</ele><time>2026-04-25T08:54:02.999Z</time></trkpt><trkpt lat="45.235773846582646" lon="7.812248314389489"><ele>208.0</ele><time>2026-04-25T08:54:03.999Z</time></trkpt><trkpt lat="45.23570952020462" lon="7.812243331529975"><ele>208.5</ele><time>2026-04-25T08:54:04.999Z</time></trkpt><trkpt lat="45.23560014010027" lon="7.812304722063617"><ele>209.0</ele><time>2026-04-25T08:54:05.999Z</time></trkpt><trkpt lat="45.2354691376924" lon="7.812383986638646"><ele>209.5</ele><time>2026-04-25T08:54:06.999Z</time></trkpt><trkpt lat="45.235339961845064" lon="7.8124536836030405"><ele>210.0</ele><time>2026-04-25T08:54:07.999Z</time></trkpt><trkpt lat="45.235238563087606" lon="7.812527149973929"><ele>210.0</ele><time>2026-04-25T08:54:08.999Z</time></trkpt><trkpt lat="45.23514487018379" lon="7.812609540494884"><ele>210.0</ele><time>2026-04-25T08:54:09.999Z</time></trkpt><trkpt lat="45.235031320931725" lon="7.812670348912671"><ele>210.0</ele><time>2026-04-25T08:54:10.999Z</time></trkpt><trkpt lat="45.23491696123608" lon="7.812726519221999"><ele>210.0</ele><time>2026-04-25T08:54:11.999Z</time></trkpt><trkpt lat="45.23482399186643" lon="7.8127806645857385"><ele>209.33333333333334</ele><time>2026-04-25T08:54:12.999Z</time></trkpt><trkpt lat="45.234757754368815" lon="7.812833162553956"><ele>208.66666666666669</ele><time>2026-04-25T08:54:13.999Z</time></trkpt><trkpt lat="45.23466941559269" lon="7.812895472903945"><ele>208.0</ele><time>2026-04-25T08:54:15.999Z</time></trkpt><trkpt lat="45.234538609235784" lon="7.812870002233722"><ele>207.33333333333334</ele><time>2026-04-25T08:54:17.999Z</time></trkpt><trkpt lat="45.23447022077917" lon="7.812844549752001"><ele>206.66666666666669</ele><time>2026-04-25T08:54:18.999Z</time></trkpt><trkpt lat="45.23440752061583" lon="7.812804519371958"><ele>206.0</ele><time>2026-04-25T08:54:19.999Z</time></trkpt><trkpt lat="45.23433609027058" lon="7.812725434833593"><ele>206.20000000000002</ele><time>2026-04-25T08:54:21.999Z</time></trkpt><trkpt lat="45.234294561079736" lon="7.812595099482124"><ele>206.4</ele><time>2026-04-25T08:54:23.999Z</time></trkpt><trkpt lat="45.234200484603015" lon="7.812539811501157"><ele>206.6</ele><time>2026-04-25T08:54:25.999Z</time></trkpt><trkpt lat="45.234130216728715" lon="7.812486828217901"><ele>206.8</ele><time>2026-04-25T08:54:26.999Z</time></trkpt><trkpt lat="45.23402577905565" lon="7.812389966446501"><ele>207.0</ele><time>2026-04-25T08:54:28.999Z</time></trkpt><trkpt lat="45.23391490770717" lon="7.812320377668064"><ele>207.0</ele><time>2026-04-25T08:54:30.999Z</time></trkpt><trkpt lat="45.23383765481099" lon="7.812289053463311"><ele>207.0</ele><time>2026-04-25T08:54:31.999Z</time></trkpt><trkpt lat="45.23376023738716" lon="7.812254089476248"><ele>207.0</ele><time>2026-04-25T08:54:32.999Z</time></trkpt><trkpt lat="45.23366936473553" lon="7.8121961101525565"><ele>207.0</ele><time>2026-04-25T08:54:33.999Z</time></trkpt><trkpt lat="45.233591350294105" lon="7.812142339447765"><ele>207.0</ele><time>2026-04-25T08:54:34.999Z</time></trkpt><trkpt lat="45.23352374675473" lon="7.812067810009058"><ele>207.0</ele><time>2026-04-25T08:54:35.999Z</time></trkpt><trkpt lat="45.23342645007531" lon="7.812139654712728"><ele>207.0</ele><time>2026-04-25T08:54:37.999Z</time></trkpt><trkpt lat="45.23332344040641" lon="7.812087088709061"><ele>207.0</ele><time>2026-04-25T08:54:38.999Z</time></trkpt><trkpt lat="45.2332854151897" lon="7.811990659819318"><ele>207.0</ele><time>2026-04-25T08:54:39.999Z</time></trkpt><trkpt lat="45.233188436485996" lon="7.81196364836718"><ele>207.0</ele><time>2026-04-25T08:54:41.999Z</time></trkpt><trkpt lat="45.23307205431284" lon="7.811767743307259"><ele>206.8</ele><time>2026-04-25T08:55:12Z</time></trkpt><trkpt lat="45.23303331789483" lon="7.8116440933547935"><ele>206.6</ele><time>2026-04-25T08:55:13Z</time></trkpt><trkpt lat="45.23298888416868" lon="7.8115210248526195"><ele>206.4</ele><time>2026-04-25T08:55:14Z</time></trkpt><trkpt lat="45.232974570324075" lon="7.811319712928844"><ele>206.20000000000002</ele><time>2026-04-25T08:55:16Z</time></trkpt><trkpt lat="45.23297071416624" lon="7.811162046748503"><ele>206.0</ele><time>2026-04-25T08:55:17Z</time></trkpt><trkpt lat="45.232867829307644" lon="7.811090634715876"><ele>206.00000000000003</ele><time>2026-04-25T08:55:19Z</time></trkpt><trkpt lat="45.232796242239914" lon="7.8111067728147265"><ele>206.0</ele><time>2026-04-25T08:55:20Z</time></trkpt><trkpt lat="45.23276148999533" lon="7.811188916639635"><ele>206.0</ele><time>2026-04-25T08:55:21Z</time></trkpt><trkpt lat="45.23277467964695" lon="7.811327606739934"><ele>206.0</ele><time>2026-04-25T08:55:22Z</time></trkpt><trkpt lat="45.23279175755875" lon="7.811451505968658"><ele>206.00000000000003</ele><time>2026-04-25T08:55:23Z</time></trkpt><trkpt lat="45.232818284497625" lon="7.81157316017702"><ele>206.0</ele><time>2026-04-25T08:55:24Z</time></trkpt><trkpt lat="45.23281595268946" lon="7.811691155631437"><ele>206.4</ele><time>2026-04-25T08:55:25Z</time></trkpt><trkpt lat="45.2328014180725" lon="7.811863776288427"><ele>206.8</ele><time>2026-04-25T08:55:27Z</time></trkpt><trkpt lat="45.232796603766396" lon="7.8119703416330974"><ele>207.20000000000002</ele><time>2026-04-25T08:55:28Z</time></trkpt><trkpt lat="45.23276542960818" lon="7.8121308856831515"><ele>207.60000000000002</ele><time>2026-04-25T08:55:30Z</time></trkpt><trkpt lat="45.232682765171774" lon="7.812129224393314"><ele>208.0</ele><time>2026-04-25T08:55:31Z</time></trkpt><trkpt lat="45.23263333824159" lon="7.812057232662893"><ele>208.0</ele><time>2026-04-25T08:55:32Z</time></trkpt><trkpt lat="45.2326549619452" lon="7.811898408509161"><ele>208.0</ele><time>2026-04-25T08:55:33Z</time></trkpt><trkpt lat="45.23270722317621" lon="7.81174651060472"><ele>208.0</ele><time>2026-04-25T08:55:34Z</time></trkpt><trkpt lat="45.232706645010744" lon="7.811625849118179"><ele>208.0</ele><time>2026-04-25T08:55:35Z</time></trkpt><trkpt lat="45.23272679200661" lon="7.811420503970739"><ele>207.60000000000002</ele><time>2026-04-25T08:55:37Z</time></trkpt><trkpt lat="45.23272425374636" lon="7.811304692723706"><ele>207.20000000000002</ele><time>2026-04-25T08:55:38Z</time></trkpt><trkpt lat="45.23272897385543" lon="7.811182536422144"><ele>206.8</ele><time>2026-04-25T08:55:39Z</time></trkpt><trkpt lat="45.23273934780288" lon="7.811088150857862"><ele>206.4</ele><time>2026-04-25T08:55:40Z</time></trkpt><trkpt lat="45.232739285732116" lon="7.81092666079116"><ele>206.0</ele><time>2026-04-25T08:55:42Z</time></trkpt><trkpt lat="45.23270984042348" lon="7.810744754860766"><ele>205.8</ele><time>2026-04-25T08:55:44Z</time></trkpt><trkpt lat="45.23267353733411" lon="7.810636374747718"><ele>205.60000000000002</ele><time>2026-04-25T08:55:45Z</time></trkpt><trkpt lat="45.23261446602145" lon="7.8105151055241215"><ele>205.4</ele><time>2026-04-25T08:55:47Z</time></trkpt><trkpt lat="45.23253148653629" lon="7.810383501640962"><ele>205.2</ele><time>2026-04-25T08:55:49Z</time></trkpt><trkpt lat="45.23248866742403" lon="7.810454102485069"><ele>205.0</ele><time>2026-04-25T08:55:51Z</time></trkpt><trkpt lat="45.23250430089749" lon="7.810553560304107"><ele>205.0</ele><time>2026-04-25T08:55:52.999Z</time></trkpt><trkpt lat="45.23255061507429" lon="7.810666921884241"><ele>205.0</ele><time>2026-04-25T08:55:54.999Z</time></trkpt><trkpt lat="45.2326080534887" lon="7.810744678953318"><ele>205.0</ele><time>2026-04-25T08:55:56.999Z</time></trkpt><trkpt lat="45.232645452902815" lon="7.81089848403719"><ele>205.0</ele><time>2026-04-25T08:55:58.999Z</time></trkpt><trkpt lat="45.23257033869221" lon="7.811010301666739"><ele>205.0</ele><time>2026-04-25T08:56:00.999Z</time></trkpt><trkpt lat="45.23250410987162" lon="7.810949651542706"><ele>205.0</ele><time>2026-04-25T08:56:01.999Z</time></trkpt><trkpt lat="45.2324473139762" lon="7.810853099928927"><ele>205.0</ele><time>2026-04-25T08:56:02.999Z</time></trkpt><trkpt lat="45.2323946453372" lon="7.81072255305682"><ele>205.0</ele><time>2026-04-25T08:56:03.999Z</time></trkpt><trkpt lat="45.232404038543606" lon="7.810549400504311"><ele>205.0</ele><time>2026-04-25T08:56:05.999Z</time></trkpt><trkpt lat="45.23231224370163" lon="7.810457225820918"><ele>205.0</ele><time>2026-04-25T08:56:07.999Z</time></trkpt><trkpt lat="45.23225978604042" lon="7.810510552923257"><ele>205.0</ele><time>2026-04-25T08:56:08.999Z</time></trkpt><trkpt lat="45.23225929649485" lon="7.810702124720775"><ele>205.0</ele><time>2026-04-25T08:56:10.999Z</time></trkpt><trkpt lat="45.232295091765515" lon="7.810810125258297"><ele>205.0</ele><time>2026-04-25T08:56:11.999Z</time></trkpt><trkpt lat="45.23238666767312" lon="7.810903230389222"><ele>205.0</ele><time>2026-04-25T08:56:13.999Z</time></trkpt><trkpt lat="45.232434563794854" lon="7.810977224966491"><ele>205.0</ele><time>2026-04-25T08:56:14.999Z</time></trkpt><trkpt lat="45.23251844764973" lon="7.811100738829045"><ele>205.2</ele><time>2026-04-25T08:56:16.999Z</time></trkpt><trkpt lat="45.232584521890914" lon="7.811227383871477"><ele>205.4</ele><time>2026-04-25T08:56:18.999Z</time></trkpt><trkpt lat="45.232636580713134" lon="7.8113578650311934"><ele>205.60000000000002</ele><time>2026-04-25T08:56:20.999Z</time></trkpt><trkpt lat="45.232661581206656" lon="7.811495864311396"><ele>205.8</ele><time>2026-04-25T08:56:22.999Z</time></trkpt><trkpt lat="45.23268979362532" lon="7.811637214535122"><ele>206.0</ele><time>2026-04-25T08:56:24.999Z</time></trkpt><trkpt lat="45.23264101651636" lon="7.811745300230547"><ele>206.00000000000003</ele><time>2026-04-25T08:56:26.999Z</time></trkpt><trkpt lat="45.232575810269026" lon="7.811763499286108"><ele>206.0</ele><time>2026-04-25T08:56:27.999Z</time></trkpt><trkpt lat="45.23253350557147" lon="7.8116951599390125"><ele>206.0</ele><time>2026-04-25T08:56:28.999Z</time></trkpt><trkpt lat="45.23252056030622" lon="7.811573438977537"><ele>206.0</ele><time>2026-04-25T08:56:29.999Z</time></trkpt><trkpt lat="45.232486046799224" lon="7.811448774897375"><ele>206.00000000000003</ele><time>2026-04-25T08:56:30.999Z</time></trkpt><trkpt lat="45.23243070956096" lon="7.811364088930348"><ele>206.0</ele><time>2026-04-25T08:56:31.999Z</time></trkpt><trkpt lat="45.232380539697445" lon="7.811272220902564"><ele>206.0</ele><time>2026-04-25T08:56:32.999Z</time></trkpt><trkpt lat="45.23231900509853" lon="7.811521027331995"><ele>206.0</ele><time>2026-04-25T08:56:36.999Z</time></trkpt><trkpt lat="45.23234109369125" lon="7.811626157794626"><ele>206.0</ele><time>2026-04-25T08:56:37.999Z</time></trkpt><trkpt lat="45.232387379201235" lon="7.811703801246167"><ele>206.0</ele><time>2026-04-25T08:56:38.999Z</time></trkpt><trkpt lat="45.23240684629138" lon="7.811836828102772"><ele>206.0</ele><time>2026-04-25T08:56:39.999Z</time></trkpt><trkpt lat="45.23246131697831" lon="7.811989223479629"><ele>206.4</ele><time>2026-04-25T08:56:40.999Z</time></trkpt><trkpt lat="45.23252490704339" lon="7.812112546513688"><ele>206.8</ele><time>2026-04-25T08:56:42.999Z</time></trkpt><trkpt lat="45.23258483513568" lon="7.8122287152409315"><ele>207.20000000000002</ele><time>2026-04-25T08:56:44.999Z</time></trkpt><trkpt lat="45.232643854404124" lon="7.81226715420191"><ele>207.60000000000002</ele><time>2026-04-25T08:56:45.999Z</time></trkpt><trkpt lat="45.23276586823139" lon="7.812294636640131"><ele>208.0</ele><time>2026-04-25T08:56:47.999Z</time></trkpt><trkpt lat="45.23288331484504" lon="7.812245379089677"><ele>208.0</ele><time>2026-04-25T08:56:49.999Z</time></trkpt><trkpt lat="45.232971556380605" lon="7.812176141285245"><ele>208.0</ele><time>2026-04-25T08:56:51.999Z</time></trkpt><trkpt lat="45.23302707446861" lon="7.812110206947547"><ele>208.0</ele><time>2026-04-25T08:56:53.999Z</time></trkpt><trkpt lat="45.233110864363155" lon="7.81206289200476"><ele>208.0</ele><time>2026-04-25T08:56:55.999Z</time></trkpt></trkseg><trkseg><trkpt lat="45.23586069267423" lon="7.810427582175106"><ele>210.0</ele><time>2026-04-25T09:04:24.999Z</time></trkpt><trkpt lat="45.235967014515744" lon="7.810510162619745"><ele>210.0</ele><time>2026-04-25T09:04:29.999Z</time></trkpt><trkpt lat="45.23604739085559" lon="7.810535646971795"><ele>210.0</ele><time>2026-04-25T09:04:30.999Z</time></trkpt><trkpt lat="45.236128966601264" lon="7.810572342883835"><ele>210.0</ele><time>2026-04-25T09:04:31.999Z</time></trkpt><trkpt lat="45.23620660285164" lon="7.810632907751267"><ele>210.0</ele><time>2026-04-25T09:04:32.999Z</time></trkpt><trkpt lat="45.23627495184253" lon="7.810650398848339"><ele>210.0</ele><time>2026-04-25T09:04:33.999Z</time></trkpt><trkpt lat="45.236370998473724" lon="7.810650254137929"><ele>210.0</ele><time>2026-04-25T09:04:34.999Z</time></trkpt><trkpt lat="45.23645865678471" lon="7.810660901775998"><ele>210.0</ele><time>2026-04-25T09:04:35.999Z</time></trkpt><trkpt lat="45.2365132677198" lon="7.810721739127224"><ele>210.0</ele><time>2026-04-25T09:04:36.999Z</time></trkpt><trkpt lat="45.236595124848805" lon="7.8108496773190765"><ele>210.0</ele><time>2026-04-25T09:04:38.999Z</time></trkpt><trkpt lat="45.23664846502705" lon="7.810965841992246"><ele>210.0</ele><time>2026-04-25T09:04:39.999Z</time></trkpt><trkpt lat="45.23670468285533" lon="7.811101262366885"><ele>210.0</ele><time>2026-04-25T09:04:40.999Z</time></trkpt><trkpt lat="45.236730539357325" lon="7.8112073707677085"><ele>210.0</ele><time>2026-04-25T09:04:42.999Z</time></trkpt><trkpt lat="45.2367436025191" lon="7.811362695066467"><ele>210.0</ele><time>2026-04-25T09:04:44.999Z</time></trkpt><trkpt lat="45.23682136016897" lon="7.811439430655266"><ele>210.0</ele><time>2026-04-25T09:04:46.999Z</time></trkpt><trkpt lat="45.2369159014939" lon="7.8113973017074905"><ele>210.0</ele><time>2026-04-25T09:04:48.999Z</time></trkpt><trkpt lat="45.23698827019932" lon="7.81129948335091"><ele>210.0</ele><time>2026-04-25T09:04:50.999Z</time></trkpt><trkpt lat="45.23706266673248" lon="7.811231547668133"><ele>210.0</ele><time>2026-04-25T09:04:51.999Z</time></trkpt><trkpt lat="45.2371459782299" lon="7.811131673813487"><ele>210.0</ele><time>2026-04-25T09:04:52.999Z</time></trkpt><trkpt lat="45.2372206279613" lon="7.811033165112233"><ele>210.0</ele><time>2026-04-25T09:04:53.999Z</time></trkpt><trkpt lat="45.237289520335075" lon="7.810988026432526"><ele>210.0</ele><time>2026-04-25T09:04:54.999Z</time></trkpt><trkpt lat="45.23738963741494" lon="7.81098300362524"><ele>210.0</ele><time>2026-04-25T09:04:55.999Z</time></trkpt><trkpt lat="45.23749259451693" lon="7.811002567709117"><ele>210.0</ele><time>2026-04-25T09:04:56.999Z</time></trkpt><trkpt lat="45.237600340490076" lon="7.811039806525272"><ele>210.0</ele><time>2026-04-25T09:04:57.999Z</time></trkpt><trkpt lat="45.23771318805039" lon="7.811093349607504"><ele>210.0</ele><time>2026-04-25T09:04:58.999Z</time></trkpt><trkpt lat="45.23778089810929" lon="7.811144514186769"><ele>210.0</ele><time>2026-04-25T09:04:59.999Z</time></trkpt><trkpt lat="45.23784896065029" lon="7.811190727319508"><ele>210.0</ele><time>2026-04-25T09:05:00.999Z</time></trkpt><trkpt lat="45.237918039336165" lon="7.811250285654295"><ele>210.0</ele><time>2026-04-25T09:05:01.999Z</time></trkpt><trkpt lat="45.23799072730724" lon="7.811287043404167"><ele>210.0</ele><time>2026-04-25T09:05:02.999Z</time></trkpt><trkpt lat="45.23806242731614" lon="7.811204968811516"><ele>210.0</ele><time>2026-04-25T09:05:03.999Z</time></trkpt><trkpt lat="45.23814448814882" lon="7.811086841226027"><ele>210.0</ele><time>2026-04-25T09:05:04.999Z</time></trkpt><trkpt lat="45.23825545578964" lon="7.811029220746221"><ele>210.0</ele><time>2026-04-25T09:05:05.999Z</time></trkpt><trkpt lat="45.238401460301574" lon="7.810972293297936"><ele>210.0</ele><time>2026-04-25T09:05:06.999Z</time></trkpt><trkpt lat="45.23850610385775" lon="7.810919503149574"><ele>210.0</ele><time>2026-04-25T09:05:07.999Z</time></trkpt><trkpt lat="45.23859053832838" lon="7.810867532440992"><ele>210.0</ele><time>2026-04-25T09:05:08.998Z</time></trkpt><trkpt lat="45.23865805133831" lon="7.810777848283639"><ele>210.0</ele><time>2026-04-25T09:05:09.998Z</time></trkpt><trkpt lat="45.238735719801426" lon="7.810645546819777"><ele>210.0</ele><time>2026-04-25T09:05:10.998Z</time></trkpt><trkpt lat="45.23880408531498" lon="7.810551138482791"><ele>210.0</ele><time>2026-04-25T09:05:11.998Z</time></trkpt><trkpt lat="45.238889060900945" lon="7.810473728753364"><ele>210.0</ele><time>2026-04-25T09:05:12.998Z</time></trkpt><trkpt lat="45.23898351464372" lon="7.810362593290557"><ele>210.0</ele><time>2026-04-25T09:05:13.998Z</time></trkpt><trkpt lat="45.239080510499704" lon="7.810256513996074"><ele>210.0</ele><time>2026-04-25T09:05:14.998Z</time></trkpt><trkpt lat="45.23918174281324" lon="7.810164344513605"><ele>210.33333333333334</ele><time>2026-04-25T09:05:15.998Z</time></trkpt><trkpt lat="45.23928430801436" lon="7.81010903586021"><ele>210.66666666666669</ele><time>2026-04-25T09:05:16.998Z</time></trkpt><trkpt lat="45.23935364935377" lon="7.810075014412623"><ele>211.0</ele><time>2026-04-25T09:05:17.998Z</time></trkpt><trkpt lat="45.239444236891025" lon="7.8100838643631505"><ele>211.33333333333334</ele><time>2026-04-25T09:05:18.998Z</time></trkpt><trkpt lat="45.239533991564876" lon="7.810082485716076"><ele>211.66666666666669</ele><time>2026-04-25T09:05:19.998Z</time></trkpt><trkpt lat="45.239610831012726" lon="7.810046187936983"><ele>212.0</ele><time>2026-04-25T09:05:20.998Z</time></trkpt><trkpt lat="45.23971700453404" lon="7.80997393033413"><ele>211.25</ele><time>2026-04-25T09:05:21.998Z</time></trkpt><trkpt lat="45.23980556710556" lon="7.809958851599301"><ele>210.5</ele><time>2026-04-25T09:05:22.998Z</time></trkpt><trkpt lat="45.23990151823902" lon="7.809912339746512"><ele>209.75</ele><time>2026-04-25T09:05:23.998Z</time></trkpt><trkpt lat="45.240048016217756" lon="7.809874470122314"><ele>209.0</ele><time>2026-04-25T09:05:24.998Z</time></trkpt><trkpt lat="45.24016913962416" lon="7.8098114023089655"><ele>209.0</ele><time>2026-04-25T09:05:25.998Z</time></trkpt><trkpt lat="45.24027669791325" lon="7.80973982490515"><ele>209.0</ele><time>2026-04-25T09:05:26.998Z</time></trkpt><trkpt lat="45.24035906614612" lon="7.809709342785262"><ele>209.0</ele><time>2026-04-25T09:05:27.998Z</time></trkpt><trkpt lat="45.24044448940496" lon="7.809686671601367"><ele>209.0</ele><time>2026-04-25T09:05:28.998Z</time></trkpt><trkpt lat="45.24053197182944" lon="7.809689293970538"><ele>209.0</ele><time>2026-04-25T09:05:29.998Z</time></trkpt><trkpt lat="45.24060671598177" lon="7.809705017322299"><ele>209.00000000000003</ele><time>2026-04-25T09:05:30.998Z</time></trkpt><trkpt lat="45.24067811627721" lon="7.809711351665474"><ele>209.0</ele><time>2026-04-25T09:05:32Z</time></trkpt><trkpt lat="45.240746947913046" lon="7.809702348899008"><ele>209.0</ele><time>2026-04-25T09:05:33Z</time></trkpt><trkpt lat="45.24082245651601" lon="7.8096109027767895"><ele>209.0</ele><time>2026-04-25T09:05:35Z</time></trkpt><trkpt lat="45.24091601225158" lon="7.809542325783985"><ele>209.00000000000003</ele><time>2026-04-25T09:05:37Z</time></trkpt><trkpt lat="45.24098951796555" lon="7.809514998840704"><ele>209.0</ele><time>2026-04-25T09:05:38Z</time></trkpt><trkpt lat="45.24105699878977" lon="7.809402622146375"><ele>209.0</ele><time>2026-04-25T09:05:40Z</time></trkpt><trkpt lat="45.24109482403875" lon="7.809326818342443"><ele>209.0</ele><time>2026-04-25T09:05:41Z</time></trkpt><trkpt lat="45.241147380940134" lon="7.809250171648504"><ele>209.0</ele><time>2026-04-25T09:05:42Z</time></trkpt><trkpt lat="45.24121726104806" lon="7.809162445615242"><ele>209.0</ele><time>2026-04-25T09:05:43Z</time></trkpt><trkpt lat="45.24130919449068" lon="7.809071882378919"><ele>209.0</ele><time>2026-04-25T09:05:44Z</time></trkpt><trkpt lat="45.24141495074292" lon="7.809012398461189"><ele>209.25</ele><time>2026-04-25T09:05:45Z</time></trkpt><trkpt lat="45.241523856012975" lon="7.808983548727222"><ele>209.5</ele><time>2026-04-25T09:05:46Z</time></trkpt><trkpt lat="45.24163704755578" lon="7.808948821844517"><ele>209.75</ele><time>2026-04-25T09:05:47Z</time></trkpt><trkpt lat="45.241755590446736" lon="7.808904346265725"><ele>210.0</ele><time>2026-04-25T09:05:48Z</time></trkpt><trkpt lat="45.24185226582254" lon="7.808852681233458"><ele>210.0</ele><time>2026-04-25T09:05:49Z</time></trkpt><trkpt lat="45.24193672620363" lon="7.808798077574991"><ele>210.0</ele><time>2026-04-25T09:05:50Z</time></trkpt><trkpt lat="45.24201104103475" lon="7.8087343799023685"><ele>210.0</ele><time>2026-04-25T09:05:51Z</time></trkpt><trkpt lat="45.2420869421157" lon="7.808689941069014"><ele>210.0</ele><time>2026-04-25T09:05:52Z</time></trkpt><trkpt lat="45.24216556061649" lon="7.808695792483632"><ele>210.0</ele><time>2026-04-25T09:05:53Z</time></trkpt><trkpt lat="45.242234312941484" lon="7.808751491386529"><ele>210.0</ele><time>2026-04-25T09:05:54Z</time></trkpt><trkpt lat="45.242293009450634" lon="7.8087882778072375"><ele>210.0</ele><time>2026-04-25T09:05:55Z</time></trkpt><trkpt lat="45.242385356332264" lon="7.808766079106814"><ele>210.0</ele><time>2026-04-25T09:05:56Z</time></trkpt><trkpt lat="45.24249123732794" lon="7.8087099116479335"><ele>210.0</ele><time>2026-04-25T09:05:57Z</time></trkpt><trkpt lat="45.242587570031816" lon="7.80865965175106"><ele>210.0</ele><time>2026-04-25T09:05:58Z</time></trkpt><trkpt lat="45.24270103145469" lon="7.808600818523264"><ele>210.0</ele><time>2026-04-25T09:05:59Z</time></trkpt><trkpt lat="45.242817750657615" lon="7.8085361595305836"><ele>210.5</ele><time>2026-04-25T09:06:00Z</time></trkpt><trkpt lat="45.2429289056833" lon="7.808488027264861"><ele>211.0</ele><time>2026-04-25T09:06:01Z</time></trkpt><trkpt lat="45.24303212733898" lon="7.808419133567406"><ele>211.5</ele><time>2026-04-25T09:06:02Z</time></trkpt><trkpt lat="45.243140238329026" lon="7.808346486586919"><ele>212.0</ele><time>2026-04-25T09:06:03Z</time></trkpt><trkpt lat="45.24327100074047" lon="7.808281620405857"><ele>212.0</ele><time>2026-04-25T09:06:04Z</time></trkpt><trkpt lat="45.243389673320955" lon="7.808237922857733"><ele>212.0</ele><time>2026-04-25T09:06:04.999Z</time></trkpt><trkpt lat="45.243466870041026" lon="7.808188982123992"><ele>212.0</ele><time>2026-04-25T09:06:05.999Z</time></trkpt><trkpt lat="45.24355264250096" lon="7.808118697163532"><ele>212.0</ele><time>2026-04-25T09:06:06.999Z</time></trkpt><trkpt lat="45.24363541433659" lon="7.808059689370524"><ele>212.0</ele><time>2026-04-25T09:06:07.999Z</time></trkpt><trkpt lat="45.24373166882407" lon="7.807987898552891"><ele>212.0</ele><time>2026-04-25T09:06:08.999Z</time></trkpt><trkpt lat="45.24384557929856" lon="7.807894383175537"><ele>212.0</ele><time>2026-04-25T09:06:09.999Z</time></trkpt><trkpt lat="45.24397123241803" lon="7.807771684324199"><ele>212.0</ele><time>2026-04-25T09:06:10.999Z</time></trkpt><trkpt lat="45.24411941051179" lon="7.8076451478763484"><ele>211.75</ele><time>2026-04-25T09:06:11.999Z</time></trkpt><trkpt lat="45.24419394067868" lon="7.807614494490669"><ele>211.5</ele><time>2026-04-25T09:06:12.999Z</time></trkpt><trkpt lat="45.24431875116623" lon="7.807531093200081"><ele>211.25</ele><time>2026-04-25T09:06:13.999Z</time></trkpt><trkpt lat="45.2444490214936" lon="7.80742159256299"><ele>211.0</ele><time>2026-04-25T09:06:14.999Z</time></trkpt><trkpt lat="45.24456450422597" lon="7.8072953961835765"><ele>211.0</ele><time>2026-04-25T09:06:15.999Z</time></trkpt><trkpt lat="45.24466983218576" lon="7.8071755865380394"><ele>211.0</ele><time>2026-04-25T09:06:16.999Z</time></trkpt><trkpt lat="45.24479385651221" lon="7.807049524633179"><ele>211.0</ele><time>2026-04-25T09:06:17.999Z</time></trkpt><trkpt lat="45.24489448274061" lon="7.806965163194355"><ele>211.0</ele><time>2026-04-25T09:06:18.999Z</time></trkpt><trkpt lat="45.24497321047075" lon="7.806890197892541"><ele>211.75</ele><time>2026-04-25T09:06:19.999Z</time></trkpt><trkpt lat="45.24506099875557" lon="7.806782496833783"><ele>212.5</ele><time>2026-04-25T09:06:20.999Z</time></trkpt><trkpt lat="45.24515150438309" lon="7.806667144133366"><ele>213.25</ele><time>2026-04-25T09:06:21.999Z</time></trkpt><trkpt lat="45.24526315670503" lon="7.806537664097129"><ele>214.0</ele><time>2026-04-25T09:06:22.999Z</time></trkpt><trkpt lat="45.245354322897725" lon="7.806443536820264"><ele>214.0</ele><time>2026-04-25T09:06:23.999Z</time></trkpt><trkpt lat="45.245418909319746" lon="7.806361213978419"><ele>213.99999999999997</ele><time>2026-04-25T09:06:24.999Z</time></trkpt><trkpt lat="45.24545362335613" lon="7.80626844785648"><ele>213.99999999999997</ele><time>2026-04-25T09:06:25.999Z</time></trkpt><trkpt lat="45.24548015624753" lon="7.8061396260347795"><ele>214.0</ele><time>2026-04-25T09:06:26.999Z</time></trkpt><trkpt lat="45.24548953837582" lon="7.805995129022254"><ele>214.0</ele><time>2026-04-25T09:06:27.999Z</time></trkpt><trkpt lat="45.24547461225717" lon="7.805865754897031"><ele>214.49999999999997</ele><time>2026-04-25T09:06:28.999Z</time></trkpt><trkpt lat="45.24544382030419" lon="7.805785226097155"><ele>215.0</ele><time>2026-04-25T09:06:29.999Z</time></trkpt><trkpt lat="45.245496775053645" lon="7.805695417246868"><ele>215.5</ele><time>2026-04-25T09:06:31.999Z</time></trkpt><trkpt lat="45.24554339742544" lon="7.805618237744734"><ele>216.0</ele><time>2026-04-25T09:06:32.999Z</time></trkpt><trkpt lat="45.24558918966077" lon="7.8054694633143615"><ele>216.49999999999997</ele><time>2026-04-25T09:06:33.999Z</time></trkpt><trkpt lat="45.24562065589322" lon="7.805334121582607"><ele>217.0</ele><time>2026-04-25T09:06:34.999Z</time></trkpt><trkpt lat="45.245640875963836" lon="7.805221088816645"><ele>217.16666666666666</ele><time>2026-04-25T09:06:35.999Z</time></trkpt><trkpt lat="45.24570603385467" lon="7.805133305574322"><ele>217.33333333333331</ele><time>2026-04-25T09:06:37.999Z</time></trkpt><trkpt lat="45.2457954659863" lon="7.805056297982262"><ele>217.5</ele><time>2026-04-25T09:06:39.999Z</time></trkpt><trkpt lat="45.24580875520506" lon="7.804925356794633"><ele>217.66666666666669</ele><time>2026-04-25T09:06:41.999Z</time></trkpt><trkpt lat="45.245780385083236" lon="7.804822655442664"><ele>217.83333333333334</ele><time>2026-04-25T09:06:59.999Z</time></trkpt><trkpt lat="45.24585345010473" lon="7.804781205680131"><ele>218.0</ele><time>2026-04-25T09:07:05.998Z</time></trkpt><trkpt lat="45.24591929529555" lon="7.804700226479268"><ele>218.00000000000003</ele><time>2026-04-25T09:07:07.998Z</time></trkpt><trkpt lat="45.24599290991561" lon="7.804647588972629"><ele>218.0</ele><time>2026-04-25T09:07:12.998Z</time></trkpt><trkpt lat="45.24593927232884" lon="7.804519599822226"><ele>218.0</ele><time>2026-04-25T09:07:36.998Z</time></trkpt><trkpt lat="45.24601730308497" lon="7.80451269907391"><ele>218.0</ele><time>2026-04-25T09:07:55.999Z</time></trkpt><trkpt lat="45.24608379202978" lon="7.804514192681905"><ele>218.00000000000003</ele><time>2026-04-25T09:08:02.999Z</time></trkpt><trkpt lat="45.246156196423954" lon="7.804428543748076"><ele>218.0</ele><time>2026-04-25T09:08:12.999Z</time></trkpt><trkpt lat="45.24620906376558" lon="7.804365264320524"><ele>218.00000000000003</ele><time>2026-04-25T09:08:13.999Z</time></trkpt><trkpt lat="45.24626678274823" lon="7.804301002626206"><ele>218.0</ele><time>2026-04-25T09:08:14.999Z</time></trkpt><trkpt lat="45.2463255331912" lon="7.804232667974312"><ele>218.0</ele><time>2026-04-25T09:08:15.999Z</time></trkpt><trkpt lat="45.246380157252375" lon="7.80415107138022"><ele>218.0</ele><time>2026-04-25T09:08:16.999Z</time></trkpt><trkpt lat="45.2464213380576" lon="7.804051779423784"><ele>218.00000000000003</ele><time>2026-04-25T09:08:17.999Z</time></trkpt><trkpt lat="45.24643890457946" lon="7.803954511569743"><ele>218.0</ele><time>2026-04-25T09:08:18.999Z</time></trkpt><trkpt lat="45.246397331138205" lon="7.803773955959224"><ele>218.0</ele><time>2026-04-25T09:08:20.999Z</time></trkpt><trkpt lat="45.246364791581264" lon="7.803666673765254"><ele>218.0</ele><time>2026-04-25T09:08:21.999Z</time></trkpt><trkpt lat="45.24633270673385" lon="7.803560691431769"><ele>218.0</ele><time>2026-04-25T09:08:23.999Z</time></trkpt><trkpt lat="45.24623896438334" lon="7.803579640101773"><ele>218.0</ele><time>2026-04-25T09:08:32.999Z</time></trkpt><trkpt lat="45.24611712010179" lon="7.803689720669225"><ele>218.0</ele><time>2026-04-25T09:08:34.999Z</time></trkpt><trkpt lat="45.246043211990035" lon="7.80376233782309"><ele>218.00000000000003</ele><time>2026-04-25T09:08:35.999Z</time></trkpt><trkpt lat="45.245976628646936" lon="7.803790050140371"><ele>218.0</ele><time>2026-04-25T09:08:36.999Z</time></trkpt><trkpt lat="45.245907668895086" lon="7.803873781414453"><ele>218.0</ele><time>2026-04-25T09:08:37.999Z</time></trkpt><trkpt lat="45.24584997699608" lon="7.803937791723885"><ele>218.0</ele><time>2026-04-25T09:08:38.999Z</time></trkpt><trkpt lat="45.245768773932355" lon="7.804020594601585"><ele>218.00000000000003</ele><time>2026-04-25T09:08:40.999Z</time></trkpt><trkpt lat="45.24574008167902" lon="7.804108689559842"><ele>218.0</ele><time>2026-04-25T09:08:43.999Z</time></trkpt><trkpt lat="45.245797836592494" lon="7.804314589818102"><ele>218.0</ele><time>2026-04-25T09:08:45.999Z</time></trkpt><trkpt lat="45.24587264657078" lon="7.80444251339985"><ele>218.0</ele><time>2026-04-25T09:08:46.999Z</time></trkpt><trkpt lat="45.2459476833296" lon="7.804585310713248"><ele>218.0</ele><time>2026-04-25T09:08:47.999Z</time></trkpt><trkpt lat="45.246023173663495" lon="7.80474481606298"><ele>218.0</ele><time>2026-04-25T09:08:48.999Z</time></trkpt><trkpt lat="45.2461079788984" lon="7.804915577514694"><ele>218.0</ele><time>2026-04-25T09:08:49.999Z</time></trkpt><trkpt lat="45.24619921722731" lon="7.805104997228997"><ele>218.0</ele><time>2026-04-25T09:08:50.999Z</time></trkpt><trkpt lat="45.24627152556811" lon="7.80530442049378"><ele>218.0</ele><time>2026-04-25T09:08:51.999Z</time></trkpt><trkpt lat="45.24636974197257" lon="7.80550070847313"><ele>216.0</ele><time>2026-04-25T09:08:52.999Z</time></trkpt><trkpt lat="45.246470388794016" lon="7.805701853766346"><ele>214.0</ele><time>2026-04-25T09:08:53.999Z</time></trkpt><trkpt lat="45.24657163795515" lon="7.805904380005535"><ele>212.0</ele><time>2026-04-25T09:08:54.999Z</time></trkpt><trkpt lat="45.24667850212688" lon="7.806117504064155"><ele>211.66666666666669</ele><time>2026-04-25T09:08:55.999Z</time></trkpt><trkpt lat="45.24679096699788" lon="7.806341448276107"><ele>211.33333333333331</ele><time>2026-04-25T09:08:56.999Z</time></trkpt><trkpt lat="45.246904345780735" lon="7.806567212222555"><ele>211.0</ele><time>2026-04-25T09:08:57.999Z</time></trkpt><trkpt lat="45.24701744760881" lon="7.8067919780514"><ele>211.33333333333331</ele><time>2026-04-25T09:08:58.999Z</time></trkpt><trkpt lat="45.247134516488316" lon="7.807022165813779"><ele>211.66666666666669</ele><time>2026-04-25T09:08:59.999Z</time></trkpt><trkpt lat="45.24725431838353" lon="7.807257030971657"><ele>212.0</ele><time>2026-04-25T09:09:00.999Z</time></trkpt><trkpt lat="45.24737393680003" lon="7.80749173211812"><ele>214.33333333333334</ele><time>2026-04-25T09:09:01.999Z</time></trkpt><trkpt lat="45.247486431819354" lon="7.807716644255773"><ele>216.66666666666669</ele><time>2026-04-25T09:09:02.999Z</time></trkpt><trkpt lat="45.24758859344479" lon="7.807921244792981"><ele>219.0</ele><time>2026-04-25T09:09:03.999Z</time></trkpt><trkpt lat="45.24768552268737" lon="7.80811356148688"><ele>219.0</ele><time>2026-04-25T09:09:04.999Z</time></trkpt><trkpt lat="45.24777792510896" lon="7.808294034798128"><ele>219.0</ele><time>2026-04-25T09:09:05.999Z</time></trkpt><trkpt lat="45.247870949246355" lon="7.808463297742167"><ele>219.0</ele><time>2026-04-25T09:09:06.999Z</time></trkpt><trkpt lat="45.247965608087284" lon="7.808616561252201"><ele>219.0</ele><time>2026-04-25T09:09:07.999Z</time></trkpt><trkpt lat="45.24805947197991" lon="7.808742630646155"><ele>219.0</ele><time>2026-04-25T09:09:08.998Z</time></trkpt><trkpt lat="45.24814687504462" lon="7.808857642988659"><ele>219.0</ele><time>2026-04-25T09:09:09.998Z</time></trkpt><trkpt lat="45.24824952020652" lon="7.8089825112317"><ele>219.0</ele><time>2026-04-25T09:09:10.998Z</time></trkpt><trkpt lat="45.24836782374327" lon="7.809110344748382"><ele>219.0</ele><time>2026-04-25T09:09:11.998Z</time></trkpt><trkpt lat="45.24850949520291" lon="7.809233966437765"><ele>219.0</ele><time>2026-04-25T09:09:12.998Z</time></trkpt><trkpt lat="45.24865819417009" lon="7.809329119299752"><ele>219.0</ele><time>2026-04-25T09:09:13.998Z</time></trkpt><trkpt lat="45.24878571120054" lon="7.80946132381173"><ele>218.5</ele><time>2026-04-25T09:09:14.998Z</time></trkpt><trkpt lat="45.24893140241543" lon="7.809540144036701"><ele>218.0</ele><time>2026-04-25T09:09:15.998Z</time></trkpt><trkpt lat="45.249063402304934" lon="7.809584627372657"><ele>217.5</ele><time>2026-04-25T09:09:16.998Z</time></trkpt><trkpt lat="45.24917430922493" lon="7.8096379576444095"><ele>217.0</ele><time>2026-04-25T09:09:17.998Z</time></trkpt><trkpt lat="45.249254453389945" lon="7.809673044871324"><ele>217.0</ele><time>2026-04-25T09:09:18.998Z</time></trkpt><trkpt lat="45.249313636980645" lon="7.809716319712022"><ele>217.0</ele><time>2026-04-25T09:09:19.998Z</time></trkpt><trkpt lat="45.24930321189655" lon="7.809932342131619"><ele>217.0</ele><time>2026-04-25T09:09:21.998Z</time></trkpt><trkpt lat="45.24929808734133" lon="7.810084376784132"><ele>217.0</ele><time>2026-04-25T09:09:22.998Z</time></trkpt><trkpt lat="45.249291836074285" lon="7.8102698383723"><ele>217.33333333333331</ele><time>2026-04-25T09:09:23.998Z</time></trkpt><trkpt lat="45.24928489428613" lon="7.810475786214953"><ele>217.66666666666669</ele><time>2026-04-25T09:09:24.998Z</time></trkpt><trkpt lat="45.249278716902616" lon="7.81070213045973"><ele>218.0</ele><time>2026-04-25T09:09:25.998Z</time></trkpt><trkpt lat="45.24927261702887" lon="7.810937252842406"><ele>218.33333333333334</ele><time>2026-04-25T09:09:26.998Z</time></trkpt><trkpt lat="45.24926611859971" lon="7.811187737801704"><ele>218.66666666666669</ele><time>2026-04-25T09:09:27.998Z</time></trkpt><trkpt lat="45.24927509652907" lon="7.8114583025115"><ele>219.0</ele><time>2026-04-25T09:09:28.998Z</time></trkpt><trkpt lat="45.2492653415971" lon="7.811737637191786"><ele>219.0</ele><time>2026-04-25T09:09:29.998Z</time></trkpt><trkpt lat="45.249254879800496" lon="7.81201641680172"><ele>219.0</ele><time>2026-04-25T09:09:30.998Z</time></trkpt><trkpt lat="45.24924636971807" lon="7.812303517023728"><ele>219.0</ele><time>2026-04-25T09:09:31.998Z</time></trkpt><trkpt lat="45.249239366376734" lon="7.812600749368194"><ele>218.66666666666669</ele><time>2026-04-25T09:09:32.998Z</time></trkpt><trkpt lat="45.249231482383486" lon="7.812906572551881"><ele>218.33333333333334</ele><time>2026-04-25T09:09:33.998Z</time></trkpt><trkpt lat="45.24922175778268" lon="7.813211313026426"><ele>218.0</ele><time>2026-04-25T09:09:34.998Z</time></trkpt><trkpt lat="45.24921123125488" lon="7.813499730918959"><ele>219.0</ele><time>2026-04-25T09:09:35.998Z</time></trkpt><trkpt lat="45.24920301716792" lon="7.813772848210619"><ele>220.0</ele><time>2026-04-25T09:09:36.998Z</time></trkpt><trkpt lat="45.24919924572844" lon="7.8140372994440455"><ele>221.0</ele><time>2026-04-25T09:09:37.998Z</time></trkpt><trkpt lat="45.24919118530762" lon="7.814303985535064"><ele>220.33333333333334</ele><time>2026-04-25T09:09:38.998Z</time></trkpt><trkpt lat="45.24918241862227" lon="7.814563087894942"><ele>219.66666666666669</ele><time>2026-04-25T09:09:39.998Z</time></trkpt><trkpt lat="45.24917454190196" lon="7.81482557153809"><ele>219.0</ele><time>2026-04-25T09:09:40.998Z</time></trkpt><trkpt lat="45.24916744636693" lon="7.81508348085704"><ele>218.33333333333331</ele><time>2026-04-25T09:09:41.998Z</time></trkpt><trkpt lat="45.24915912794414" lon="7.815343101290757"><ele>217.66666666666666</ele><time>2026-04-25T09:09:42.998Z</time></trkpt><trkpt lat="45.249151513749965" lon="7.815614846172399"><ele>217.0</ele><time>2026-04-25T09:09:43.999Z</time></trkpt><trkpt lat="45.24914491580712" lon="7.8158793072683705"><ele>217.0</ele><time>2026-04-25T09:09:44.999Z</time></trkpt><trkpt lat="45.24913665019571" lon="7.816144561865973"><ele>217.0</ele><time>2026-04-25T09:09:45.999Z</time></trkpt><trkpt lat="45.24913053057336" lon="7.816391446439534"><ele>217.0</ele><time>2026-04-25T09:09:46.999Z</time></trkpt><trkpt lat="45.24912479372567" lon="7.816604182803623"><ele>216.99999999999997</ele><time>2026-04-25T09:09:47.999Z</time></trkpt><trkpt lat="45.24911983040928" lon="7.81677957941315"><ele>217.0</ele><time>2026-04-25T09:09:48.999Z</time></trkpt><trkpt lat="45.24911703039422" lon="7.816925701265489"><ele>217.0</ele><time>2026-04-25T09:09:49.999Z</time></trkpt><trkpt lat="45.249110672099484" lon="7.817045150857727"><ele>217.0</ele><time>2026-04-25T09:09:50.999Z</time></trkpt><trkpt lat="45.24909688699454" lon="7.81713310129812"><ele>216.99999999999997</ele><time>2026-04-25T09:09:51.999Z</time></trkpt><trkpt lat="45.249094182045816" lon="7.817223768346511"><ele>217.0</ele><time>2026-04-25T09:09:56.999Z</time></trkpt><trkpt lat="45.24934214892436" lon="7.8173196230171635"><ele>217.0</ele><time>2026-04-25T09:10:15.999Z</time></trkpt><trkpt lat="45.249417838656136" lon="7.817345821901311"><ele>217.0</ele><time>2026-04-25T09:10:16.999Z</time></trkpt><trkpt lat="45.24951074062742" lon="7.817383983700531"><ele>217.0</ele><time>2026-04-25T09:10:17.999Z</time></trkpt><trkpt lat="45.24960810439067" lon="7.817428587780507"><ele>217.0</ele><time>2026-04-25T09:10:18.999Z</time></trkpt><trkpt lat="45.24971060946897" lon="7.817464591079229"><ele>217.0</ele><time>2026-04-25T09:10:19.999Z</time></trkpt><trkpt lat="45.249821952878115" lon="7.817495983483662"><ele>217.0</ele><time>2026-04-25T09:10:20.999Z</time></trkpt><trkpt lat="45.24992866143996" lon="7.817523463657425"><ele>217.0</ele><time>2026-04-25T09:10:21.999Z</time></trkpt><trkpt lat="45.25003056359138" lon="7.817556514892301"><ele>217.0</ele><time>2026-04-25T09:10:22.999Z</time></trkpt><trkpt lat="45.25012940149476" lon="7.817614211666931"><ele>217.0</ele><time>2026-04-25T09:10:23.999Z</time></trkpt><trkpt lat="45.250233002406446" lon="7.817668246145717"><ele>217.0</ele><time>2026-04-25T09:10:24.999Z</time></trkpt><trkpt lat="45.25032958796479" lon="7.817750467958963"><ele>217.2</ele><time>2026-04-25T09:10:25.999Z</time></trkpt><trkpt lat="45.25041150079909" lon="7.817850870272178"><ele>217.39999999999998</ele><time>2026-04-25T09:10:26.999Z</time></trkpt><trkpt lat="45.25048401617684" lon="7.817968993928599"><ele>217.60000000000002</ele><time>2026-04-25T09:10:27.999Z</time></trkpt><trkpt lat="45.25053021683927" lon="7.818094751968654"><ele>217.8</ele><time>2026-04-25T09:10:28.999Z</time></trkpt><trkpt lat="45.2505702428342" lon="7.8182213201125395"><ele>218.0</ele><time>2026-04-25T09:10:29.999Z</time></trkpt><trkpt lat="45.25060890974159" lon="7.8183364858204"><ele>218.00000000000003</ele><time>2026-04-25T09:10:30.999Z</time></trkpt><trkpt lat="45.25064576574724" lon="7.818449381196956"><ele>218.0</ele><time>2026-04-25T09:10:31.999Z</time></trkpt><trkpt lat="45.25068435268544" lon="7.8185462818687155"><ele>218.0</ele><time>2026-04-25T09:10:32.999Z</time></trkpt><trkpt lat="45.25073210189911" lon="7.818626679475943"><ele>218.0</ele><time>2026-04-25T09:10:33.999Z</time></trkpt><trkpt lat="45.25079574966075" lon="7.818690765637594"><ele>218.00000000000003</ele><time>2026-04-25T09:10:34.999Z</time></trkpt><trkpt lat="45.2508737827935" lon="7.818713906702233"><ele>218.0</ele><time>2026-04-25T09:10:35.999Z</time></trkpt><trkpt lat="45.25097257094939" lon="7.818690867667758"><ele>218.0</ele><time>2026-04-25T09:10:36.999Z</time></trkpt><trkpt lat="45.251104319373205" lon="7.818645828446814"><ele>218.0</ele><time>2026-04-25T09:10:37.999Z</time></trkpt><trkpt lat="45.25124819250379" lon="7.81860704682598"><ele>218.0</ele><time>2026-04-25T09:10:38.999Z</time></trkpt><trkpt lat="45.251387546482206" lon="7.81857576793517"><ele>218.0</ele><time>2026-04-25T09:10:39.999Z</time></trkpt><trkpt lat="45.2515230371873" lon="7.81854596388085"><ele>217.75</ele><time>2026-04-25T09:10:40.999Z</time></trkpt><trkpt lat="45.251660821428615" lon="7.818513751855686"><ele>217.5</ele><time>2026-04-25T09:10:41.999Z</time></trkpt><trkpt lat="45.25180928042216" lon="7.8184817758654415"><ele>217.25</ele><time>2026-04-25T09:10:42.999Z</time></trkpt><trkpt lat="45.25196267596197" lon="7.818457882632199"><ele>217.0</ele><time>2026-04-25T09:10:43.999Z</time></trkpt><trkpt lat="45.25211755643889" lon="7.818447511668876"><ele>217.0</ele><time>2026-04-25T09:10:44.999Z</time></trkpt><trkpt lat="45.2522722077881" lon="7.818442763784979"><ele>217.0</ele><time>2026-04-25T09:10:45.999Z</time></trkpt><trkpt lat="45.25243228872722" lon="7.818417239273293"><ele>217.0</ele><time>2026-04-25T09:10:46.999Z</time></trkpt><trkpt lat="45.25259446788494" lon="7.818386990161189"><ele>217.0</ele><time>2026-04-25T09:10:47.999Z</time></trkpt><trkpt lat="45.252759913244944" lon="7.818355080931214"><ele>217.0</ele><time>2026-04-25T09:10:48.999Z</time></trkpt><trkpt lat="45.2529214826566" lon="7.818324719220485"><ele>217.0</ele><time>2026-04-25T09:10:49.999Z</time></trkpt><trkpt lat="45.25308994985034" lon="7.818298481825471"><ele>217.33333333333331</ele><time>2026-04-25T09:10:50.999Z</time></trkpt><trkpt lat="45.25326228793071" lon="7.818275583468553"><ele>217.66666666666669</ele><time>2026-04-25T09:10:51.999Z</time></trkpt><trkpt lat="45.25343385388697" lon="7.818255872086173"><ele>218.0</ele><time>2026-04-25T09:10:52.999Z</time></trkpt><trkpt lat="45.25359517414256" lon="7.818248220151176"><ele>218.0</ele><time>2026-04-25T09:10:53.999Z</time></trkpt><trkpt lat="45.25375098558523" lon="7.818249128485967"><ele>218.0</ele><time>2026-04-25T09:10:54.999Z</time></trkpt><trkpt lat="45.25388721730092" lon="7.818287758145994"><ele>218.0</ele><time>2026-04-25T09:10:55.999Z</time></trkpt><trkpt lat="45.25402956002232" lon="7.818361061954111"><ele>218.0</ele><time>2026-04-25T09:10:56.999Z</time></trkpt><trkpt lat="45.254164141332325" lon="7.818451308568442"><ele>218.0</ele><time>2026-04-25T09:10:57.999Z</time></trkpt><trkpt lat="45.25426566230185" lon="7.818552268204052"><ele>218.0</ele><time>2026-04-25T09:10:58.999Z</time></trkpt><trkpt lat="45.254337135487795" lon="7.818673488196004"><ele>218.0</ele><time>2026-04-25T09:10:59.999Z</time></trkpt><trkpt lat="45.25438703177743" lon="7.818830157294588"><ele>218.0</ele><time>2026-04-25T09:11:00.999Z</time></trkpt><trkpt lat="45.25442662038323" lon="7.819028836943328"><ele>218.0</ele><time>2026-04-25T09:11:01.999Z</time></trkpt><trkpt lat="45.254475084427995" lon="7.819245976019294"><ele>218.0</ele><time>2026-04-25T09:11:02.999Z</time></trkpt><trkpt lat="45.2545527585484" lon="7.819454632933321"><ele>218.0</ele><time>2026-04-25T09:11:03.999Z</time></trkpt><trkpt lat="45.25461885829969" lon="7.819657847993794"><ele>217.75</ele><time>2026-04-25T09:11:04.999Z</time></trkpt><trkpt lat="45.254677168042754" lon="7.819834556529077"><ele>217.5</ele><time>2026-04-25T09:11:05.999Z</time></trkpt><trkpt lat="45.254737308632365" lon="7.820005166305601"><ele>217.25</ele><time>2026-04-25T09:11:06.999Z</time></trkpt><trkpt lat="45.25478614239014" lon="7.820151380383568"><ele>217.0</ele><time>2026-04-25T09:11:07.999Z</time></trkpt><trkpt lat="45.25482209810577" lon="7.820280070732598"><ele>217.33333333333331</ele><time>2026-04-25T09:11:08.999Z</time></trkpt><trkpt lat="45.25485621120525" lon="7.820389481951232"><ele>217.66666666666666</ele><time>2026-04-25T09:11:09.999Z</time></trkpt><trkpt lat="45.25491302744501" lon="7.820486478397607"><ele>218.0</ele><time>2026-04-25T09:11:10.999Z</time></trkpt><trkpt lat="45.254983772037725" lon="7.820527554911279"><ele>218.33333333333331</ele><time>2026-04-25T09:11:11.999Z</time></trkpt><trkpt lat="45.25506602363292" lon="7.820531169298838"><ele>218.66666666666666</ele><time>2026-04-25T09:11:12.999Z</time></trkpt><trkpt lat="45.255164841835764" lon="7.820491718303504"><ele>219.0</ele><time>2026-04-25T09:11:13.999Z</time></trkpt><trkpt lat="45.255288591239456" lon="7.820432229661976"><ele>219.0</ele><time>2026-04-25T09:11:14.998Z</time></trkpt><trkpt lat="45.25542305966214" lon="7.820366796033287"><ele>219.0</ele><time>2026-04-25T09:11:15.998Z</time></trkpt><trkpt lat="45.25556463297013" lon="7.820322967551719"><ele>219.0</ele><time>2026-04-25T09:11:16.998Z</time></trkpt><trkpt lat="45.25571106799573" lon="7.820290888522042"><ele>219.0</ele><time>2026-04-25T09:11:17.998Z</time></trkpt><trkpt lat="45.25583973544954" lon="7.820266255779731"><ele>219.0</ele><time>2026-04-25T09:11:18.998Z</time></trkpt><trkpt lat="45.2559799932097" lon="7.820252664879069"><ele>219.0</ele><time>2026-04-25T09:11:19.998Z</time></trkpt><trkpt lat="45.2560987803368" lon="7.820250215420035"><ele>219.0</ele><time>2026-04-25T09:11:20.998Z</time></trkpt><trkpt lat="45.256181014566465" lon="7.820250490290469"><ele>219.0</ele><time>2026-04-25T09:11:21.998Z</time></trkpt><trkpt lat="45.25629344177658" lon="7.820262221544678"><ele>219.0</ele><time>2026-04-25T09:11:23.998Z</time></trkpt><trkpt lat="45.25642769732183" lon="7.820286367377206"><ele>219.0</ele><time>2026-04-25T09:11:25.998Z</time></trkpt><trkpt lat="45.25651451193318" lon="7.820314266166539"><ele>219.0</ele><time>2026-04-25T09:11:26.998Z</time></trkpt><trkpt lat="45.25664051440419" lon="7.820347489556465"><ele>219.0</ele><time>2026-04-25T09:11:27.998Z</time></trkpt><trkpt lat="45.25678777613408" lon="7.820395226500015"><ele>219.25</ele><time>2026-04-25T09:11:28.998Z</time></trkpt><trkpt lat="45.25695020781427" lon="7.820442980980185"><ele>219.5</ele><time>2026-04-25T09:11:29.998Z</time></trkpt><trkpt lat="45.25709411052726" lon="7.8204710207778465"><ele>219.75</ele><time>2026-04-25T09:11:30.998Z</time></trkpt><trkpt lat="45.25720966411698" lon="7.820468380436808"><ele>220.0</ele><time>2026-04-25T09:11:31.998Z</time></trkpt><trkpt lat="45.25733129494254" lon="7.820434948679611"><ele>220.0</ele><time>2026-04-25T09:11:32.998Z</time></trkpt><trkpt lat="45.25747095355847" lon="7.820361109384634"><ele>220.0</ele><time>2026-04-25T09:11:33.998Z</time></trkpt><trkpt lat="45.25762151917062" lon="7.820279078487911"><ele>220.0</ele><time>2026-04-25T09:11:34.998Z</time></trkpt><trkpt lat="45.257780698087416" lon="7.820207812938266"><ele>220.33333333333331</ele><time>2026-04-25T09:11:35.998Z</time></trkpt><trkpt lat="45.25794346338136" lon="7.82014645405644"><ele>220.66666666666669</ele><time>2026-04-25T09:11:36.998Z</time></trkpt><trkpt lat="45.25810842082112" lon="7.820084658555342"><ele>221.0</ele><time>2026-04-25T09:11:37.998Z</time></trkpt><trkpt lat="45.25827045979363" lon="7.820005837353359"><ele>221.5</ele><time>2026-04-25T09:11:38.998Z</time></trkpt><trkpt lat="45.2584053962631" lon="7.819953345693018"><ele>222.0</ele><time>2026-04-25T09:11:39.998Z</time></trkpt><trkpt lat="45.2585362795884" lon="7.819936067672438"><ele>222.5</ele><time>2026-04-25T09:11:40.998Z</time></trkpt><trkpt lat="45.25871173353159" lon="7.81993298172069"><ele>223.0</ele><time>2026-04-25T09:11:41.998Z</time></trkpt><trkpt lat="45.25888855085376" lon="7.819959916635946"><ele>223.0</ele><time>2026-04-25T09:11:42.998Z</time></trkpt><trkpt lat="45.259056166237315" lon="7.819966239700105"><ele>223.0</ele><time>2026-04-25T09:11:43.998Z</time></trkpt><trkpt lat="45.25922877312749" lon="7.81994877691333"><ele>223.0</ele><time>2026-04-25T09:11:44.998Z</time></trkpt><trkpt lat="45.25938996333312" lon="7.81994360607207"><ele>223.0</ele><time>2026-04-25T09:11:45.998Z</time></trkpt><trkpt lat="45.25955962083717" lon="7.819963697926242"><ele>223.0</ele><time>2026-04-25T09:11:46.998Z</time></trkpt><trkpt lat="45.25973020660614" lon="7.820000697767802"><ele>223.0</ele><time>2026-04-25T09:11:47.998Z</time></trkpt><trkpt lat="45.259893613877225" lon="7.820039813457571"><ele>223.0</ele><time>2026-04-25T09:11:48.998Z</time></trkpt><trkpt lat="45.26003872183418" lon="7.82008721371153"><ele>223.0</ele><time>2026-04-25T09:11:49.999Z</time></trkpt><trkpt lat="45.260156153677784" lon="7.820112833375307"><ele>223.0</ele><time>2026-04-25T09:11:50.999Z</time></trkpt><trkpt lat="45.26026256088781" lon="7.820137004542276"><ele>223.0</ele><time>2026-04-25T09:11:51.999Z</time></trkpt><trkpt lat="45.2603784517777" lon="7.820168926822326"><ele>223.0</ele><time>2026-04-25T09:11:52.999Z</time></trkpt><trkpt lat="45.26051414305196" lon="7.820176164312748"><ele>223.0</ele><time>2026-04-25T09:11:53.999Z</time></trkpt><trkpt lat="45.260656977897135" lon="7.820153570276292"><ele>223.0</ele><time>2026-04-25T09:11:54.999Z</time></trkpt><trkpt lat="45.26080721787657" lon="7.820111091716455"><ele>223.0</ele><time>2026-04-25T09:11:55.999Z</time></trkpt><trkpt lat="45.260959417421574" lon="7.820066669223675"><ele>223.0</ele><time>2026-04-25T09:11:56.999Z</time></trkpt><trkpt lat="45.26110982244969" lon="7.820048802907573"><ele>223.0</ele><time>2026-04-25T09:11:57.999Z</time></trkpt><trkpt lat="45.26127966173637" lon="7.820027864219225"><ele>223.0</ele><time>2026-04-25T09:11:58.999Z</time></trkpt><trkpt lat="45.261435991329535" lon="7.820028600794341"><ele>223.66666666666666</ele><time>2026-04-25T09:11:59.999Z</time></trkpt><trkpt lat="45.26159356233861" lon="7.820034421252261"><ele>224.33333333333331</ele><time>2026-04-25T09:12:00.999Z</time></trkpt><trkpt lat="45.26174602026967" lon="7.820036244236457"><ele>225.0</ele><time>2026-04-25T09:12:01.999Z</time></trkpt><trkpt lat="45.261892875927366" lon="7.820038145334006"><ele>225.0</ele><time>2026-04-25T09:12:02.999Z</time></trkpt><trkpt lat="45.26203221955188" lon="7.820039082222776"><ele>225.0</ele><time>2026-04-25T09:12:03.999Z</time></trkpt><trkpt lat="45.26217264645419" lon="7.820040918088606"><ele>225.0</ele><time>2026-04-25T09:12:04.999Z</time></trkpt><trkpt lat="45.26231031720813" lon="7.820040488629523"><ele>225.0</ele><time>2026-04-25T09:12:05.999Z</time></trkpt><trkpt lat="45.26246948469825" lon="7.820036369041776"><ele>224.66666666666669</ele><time>2026-04-25T09:12:06.999Z</time></trkpt><trkpt lat="45.262642870157336" lon="7.820033890866622"><ele>224.33333333333334</ele><time>2026-04-25T09:12:07.999Z</time></trkpt><trkpt lat="45.26280224158792" lon="7.820040080482622"><ele>224.0</ele><time>2026-04-25T09:12:08.999Z</time></trkpt><trkpt lat="45.26294349414476" lon="7.820056037522911"><ele>224.0</ele><time>2026-04-25T09:12:09.999Z</time></trkpt><trkpt lat="45.26309310743338" lon="7.820095428654826"><ele>224.0</ele><time>2026-04-25T09:12:10.999Z</time></trkpt><trkpt lat="45.26325662802" lon="7.820144860819942"><ele>224.0</ele><time>2026-04-25T09:12:11.999Z</time></trkpt><trkpt lat="45.26342068288197" lon="7.820189883917008"><ele>225.0</ele><time>2026-04-25T09:12:12.999Z</time></trkpt><trkpt lat="45.26357338421387" lon="7.820227757464868"><ele>226.0</ele><time>2026-04-25T09:12:13.999Z</time></trkpt><trkpt lat="45.263701849834106" lon="7.8203081427010455"><ele>227.0</ele><time>2026-04-25T09:12:14.999Z</time></trkpt><trkpt lat="45.26385462826971" lon="7.820347036917187"><ele>227.0</ele><time>2026-04-25T09:12:15.999Z</time></trkpt><trkpt lat="45.26400649269878" lon="7.820377606678901"><ele>227.0</ele><time>2026-04-25T09:12:16.999Z</time></trkpt><trkpt lat="45.264162963722626" lon="7.820403629919201"><ele>227.0</ele><time>2026-04-25T09:12:17.999Z</time></trkpt><trkpt lat="45.2643225963845" lon="7.820420662791181"><ele>227.0</ele><time>2026-04-25T09:12:18.999Z</time></trkpt><trkpt lat="45.26449173973513" lon="7.82042222542574"><ele>227.0</ele><time>2026-04-25T09:12:19.999Z</time></trkpt><trkpt lat="45.26467485839985" lon="7.8204140075624595"><ele>227.0</ele><time>2026-04-25T09:12:20.999Z</time></trkpt><trkpt lat="45.26485916845302" lon="7.820402968922209"><ele>226.66666666666669</ele><time>2026-04-25T09:12:21.999Z</time></trkpt><trkpt lat="45.265055608287945" lon="7.820391203807137"><ele>226.33333333333331</ele><time>2026-04-25T09:12:22.999Z</time></trkpt><trkpt lat="45.26525634025056" lon="7.820378923718005"><ele>226.0</ele><time>2026-04-25T09:12:23.999Z</time></trkpt><trkpt lat="45.26545840879939" lon="7.82034379034663"><ele>225.33333333333331</ele><time>2026-04-25T09:12:24.999Z</time></trkpt><trkpt lat="45.26566004308403" lon="7.820334762012112"><ele>224.66666666666669</ele><time>2026-04-25T09:12:25.999Z</time></trkpt><trkpt lat="45.26586413447504" lon="7.820262703289048"><ele>224.0</ele><time>2026-04-25T09:12:26.999Z</time></trkpt><trkpt lat="45.2660792597065" lon="7.820243348591414"><ele>224.0</ele><time>2026-04-25T09:12:27.999Z</time></trkpt><trkpt lat="45.2662894158288" lon="7.820229270202085"><ele>224.0</ele><time>2026-04-25T09:12:28.999Z</time></trkpt><trkpt lat="45.26650190565111" lon="7.820218869169691"><ele>224.0</ele><time>2026-04-25T09:12:29.999Z</time></trkpt><trkpt lat="45.266722446601136" lon="7.820208990006339"><ele>224.33333333333334</ele><time>2026-04-25T09:12:30.999Z</time></trkpt><trkpt lat="45.266937984958595" lon="7.820200789574609"><ele>224.66666666666669</ele><time>2026-04-25T09:12:31.999Z</time></trkpt><trkpt lat="45.267154310183095" lon="7.820190121129898"><ele>225.0</ele><time>2026-04-25T09:12:32.999Z</time></trkpt><trkpt lat="45.267354595772304" lon="7.820173573192623"><ele>225.66666666666669</ele><time>2026-04-25T09:12:33.999Z</time></trkpt><trkpt lat="45.267556261174136" lon="7.820177046520506"><ele>226.33333333333334</ele><time>2026-04-25T09:12:34.999Z</time></trkpt><trkpt lat="45.26774745917755" lon="7.820192883881835"><ele>227.0</ele><time>2026-04-25T09:12:35.999Z</time></trkpt><trkpt lat="45.26792431039283" lon="7.820185792371971"><ele>227.0</ele><time>2026-04-25T09:12:36.999Z</time></trkpt><trkpt lat="45.2680872611824" lon="7.820197226634796"><ele>227.0</ele><time>2026-04-25T09:12:37.999Z</time></trkpt><trkpt lat="45.26825574954004" lon="7.820208113194974"><ele>227.0</ele><time>2026-04-25T09:12:38.999Z</time></trkpt><trkpt lat="45.268415687777846" lon="7.820222763053782"><ele>227.33333333333334</ele><time>2026-04-25T09:12:39.999Z</time></trkpt><trkpt lat="45.26857959986781" lon="7.820244157683764"><ele>227.66666666666669</ele><time>2026-04-25T09:12:40.999Z</time></trkpt><trkpt lat="45.26874419281282" lon="7.8202693501522536"><ele>228.0</ele><time>2026-04-25T09:12:41.999Z</time></trkpt><trkpt lat="45.26890692631087" lon="7.820314621608963"><ele>228.66666666666669</ele><time>2026-04-25T09:12:42.999Z</time></trkpt><trkpt lat="45.26907655754132" lon="7.820376323296997"><ele>229.33333333333334</ele><time>2026-04-25T09:12:43.999Z</time></trkpt><trkpt lat="45.269246345801754" lon="7.820432311071491"><ele>230.0</ele><time>2026-04-25T09:12:44.999Z</time></trkpt><trkpt lat="45.269405823428755" lon="7.820477421300103"><ele>230.0</ele><time>2026-04-25T09:12:45.999Z</time></trkpt><trkpt lat="45.26956389001167" lon="7.82051259844361"><ele>230.0</ele><time>2026-04-25T09:12:46.999Z</time></trkpt><trkpt lat="45.269729283131106" lon="7.820542347561243"><ele>230.0</ele><time>2026-04-25T09:12:47.999Z</time></trkpt><trkpt lat="45.26988981152717" lon="7.820554133599121"><ele>230.2</ele><time>2026-04-25T09:12:48.999Z</time></trkpt><trkpt lat="45.27003255229633" lon="7.820538007166281"><ele>230.4</ele><time>2026-04-25T09:12:49.999Z</time></trkpt><trkpt lat="45.270141087604884" lon="7.820516011568956"><ele>230.60000000000002</ele><time>2026-04-25T09:12:50.999Z</time></trkpt><trkpt lat="45.27022468375697" lon="7.820499356574854"><ele>230.8</ele><time>2026-04-25T09:12:51.999Z</time></trkpt><trkpt lat="45.27028757980287" lon="7.820494081428397"><ele>231.0</ele><time>2026-04-25T09:12:52.999Z</time></trkpt><trkpt lat="45.27034866626113" lon="7.8204700475601046"><ele>231.0</ele><time>2026-04-25T09:12:54.999Z</time></trkpt><trkpt lat="45.270388872345" lon="7.820320845885686"><ele>231.00000000000003</ele><time>2026-04-25T09:13:08.999Z</time></trkpt><trkpt lat="45.2703657447289" lon="7.820191902148404"><ele>231.00000000000003</ele><time>2026-04-25T09:13:09.999Z</time></trkpt><trkpt lat="45.27033578738136" lon="7.820051724661496"><ele>231.0</ele><time>2026-04-25T09:13:10.999Z</time></trkpt><trkpt lat="45.27027356386268" lon="7.819906503144156"><ele>231.0</ele><time>2026-04-25T09:13:11.999Z</time></trkpt><trkpt lat="45.270208846988595" lon="7.819782148613622"><ele>231.0</ele><time>2026-04-25T09:13:12.999Z</time></trkpt><trkpt lat="45.27012491863115" lon="7.819653366333"><ele>231.0</ele><time>2026-04-25T09:13:13.999Z</time></trkpt><trkpt lat="45.270031103072384" lon="7.819526548535936"><ele>231.0</ele><time>2026-04-25T09:13:14.999Z</time></trkpt><trkpt lat="45.26991438971306" lon="7.819400762788902"><ele>231.0</ele><time>2026-04-25T09:13:15.999Z</time></trkpt><trkpt lat="45.269787094716705" lon="7.819253034949956"><ele>230.66666666666669</ele><time>2026-04-25T09:13:16.999Z</time></trkpt><trkpt lat="45.26966115827778" lon="7.819104027798333"><ele>230.33333333333334</ele><time>2026-04-25T09:13:17.999Z</time></trkpt><trkpt lat="45.269526743920274" lon="7.8189532061109555"><ele>230.0</ele><time>2026-04-25T09:13:18.999Z</time></trkpt><trkpt lat="45.26939289637071" lon="7.818801266278101"><ele>230.0</ele><time>2026-04-25T09:13:19.999Z</time></trkpt><trkpt lat="45.269245465740624" lon="7.818641989970911"><ele>230.0</ele><time>2026-04-25T09:13:20.999Z</time></trkpt><trkpt lat="45.269107421662326" lon="7.818482573382733"><ele>230.0</ele><time>2026-04-25T09:13:21.999Z</time></trkpt><trkpt lat="45.26896264936463" lon="7.818329835450511"><ele>229.66666666666669</ele><time>2026-04-25T09:13:22.999Z</time></trkpt><trkpt lat="45.26882392981501" lon="7.818173444695473"><ele>229.33333333333331</ele><time>2026-04-25T09:13:23.999Z</time></trkpt><trkpt lat="45.26868651794016" lon="7.818022794109457"><ele>229.0</ele><time>2026-04-25T09:13:24.999Z</time></trkpt><trkpt lat="45.26856019662237" lon="7.817893860083479"><ele>229.0</ele><time>2026-04-25T09:13:25.999Z</time></trkpt><trkpt lat="45.26845428917169" lon="7.8177706803524405"><ele>229.0</ele><time>2026-04-25T09:13:26.999Z</time></trkpt><trkpt lat="45.268348808624395" lon="7.817652696591407"><ele>229.0</ele><time>2026-04-25T09:13:27.999Z</time></trkpt><trkpt lat="45.26824550383139" lon="7.817541966584085"><ele>229.0</ele><time>2026-04-25T09:13:28.999Z</time></trkpt><trkpt lat="45.26813317582053" lon="7.817419860045501"><ele>229.0</ele><time>2026-04-25T09:13:29.999Z</time></trkpt><trkpt lat="45.268001615527375" lon="7.817283528334833"><ele>229.0</ele><time>2026-04-25T09:13:30.999Z</time></trkpt><trkpt lat="45.26787025800992" lon="7.817135343285765"><ele>229.0</ele><time>2026-04-25T09:13:31.999Z</time></trkpt><trkpt lat="45.2677423609479" lon="7.8169858040706135"><ele>229.0</ele><time>2026-04-25T09:13:32.999Z</time></trkpt><trkpt lat="45.267626007082086" lon="7.816850803590366"><ele>229.0</ele><time>2026-04-25T09:13:33.999Z</time></trkpt><trkpt lat="45.267506021709146" lon="7.816715759621871"><ele>229.0</ele><time>2026-04-25T09:13:34.999Z</time></trkpt><trkpt lat="45.26738125121845" lon="7.816576444584875"><ele>229.0</ele><time>2026-04-25T09:13:35.999Z</time></trkpt><trkpt lat="45.26725944942809" lon="7.816432831669378"><ele>229.0</ele><time>2026-04-25T09:13:36.999Z</time></trkpt><trkpt lat="45.26713750487515" lon="7.8162917558844"><ele>229.0</ele><time>2026-04-25T09:13:37.999Z</time></trkpt><trkpt lat="45.26702706546675" lon="7.81616355765486"><ele>229.0</ele><time>2026-04-25T09:13:38.999Z</time></trkpt><trkpt lat="45.266920031145624" lon="7.816036412790099"><ele>229.0</ele><time>2026-04-25T09:13:39.999Z</time></trkpt><trkpt lat="45.266805198616275" lon="7.8159045378138945"><ele>229.0</ele><time>2026-04-25T09:13:40.999Z</time></trkpt><trkpt lat="45.26669400530148" lon="7.815766696370689"><ele>229.0</ele><time>2026-04-25T09:13:41.999Z</time></trkpt><trkpt lat="45.266584633866266" lon="7.815625220694931"><ele>228.66666666666666</ele><time>2026-04-25T09:13:42.999Z</time></trkpt><trkpt lat="45.26646915734371" lon="7.815481478075214"><ele>228.33333333333331</ele><time>2026-04-25T09:13:43.999Z</time></trkpt><trkpt lat="45.266350119133065" lon="7.815338155283879"><ele>228.0</ele><time>2026-04-25T09:13:44.999Z</time></trkpt><trkpt lat="45.266231406649766" lon="7.815189731273713"><ele>227.66666666666669</ele><time>2026-04-25T09:13:45.999Z</time></trkpt><trkpt lat="45.266110496869764" lon="7.815035496745612"><ele>227.33333333333334</ele><time>2026-04-25T09:13:46.999Z</time></trkpt><trkpt lat="45.265989096795415" lon="7.8148721497506815"><ele>227.0</ele><time>2026-04-25T09:13:47.999Z</time></trkpt><trkpt lat="45.265881637315786" lon="7.814696873307225"><ele>227.0</ele><time>2026-04-25T09:13:48.999Z</time></trkpt><trkpt lat="45.26578521941261" lon="7.814495409005482"><ele>227.0</ele><time>2026-04-25T09:13:49.999Z</time></trkpt><trkpt lat="45.26572053869399" lon="7.814285579974213"><ele>227.0</ele><time>2026-04-25T09:13:50.999Z</time></trkpt><trkpt lat="45.265675844629165" lon="7.814064732946325"><ele>226.33333333333334</ele><time>2026-04-25T09:13:51.999Z</time></trkpt><trkpt lat="45.265652101967895" lon="7.81383331783405"><ele>225.66666666666669</ele><time>2026-04-25T09:13:52.999Z</time></trkpt><trkpt lat="45.26564432333893" lon="7.813598752072224"><ele>225.0</ele><time>2026-04-25T09:13:53.999Z</time></trkpt><trkpt lat="45.26564086582869" lon="7.813368831788252"><ele>225.0</ele><time>2026-04-25T09:13:54.999Z</time></trkpt><trkpt lat="45.265631822244025" lon="7.813157545618238"><ele>225.0</ele><time>2026-04-25T09:13:56Z</time></trkpt><trkpt lat="45.265617396463654" lon="7.812962762051696"><ele>225.0</ele><time>2026-04-25T09:13:57Z</time></trkpt><trkpt lat="45.26560543097735" lon="7.812792055731307"><ele>225.0</ele><time>2026-04-25T09:13:58Z</time></trkpt><trkpt lat="45.265604896581806" lon="7.812644286084799"><ele>225.33333333333334</ele><time>2026-04-25T09:13:59Z</time></trkpt><trkpt lat="45.26560578825913" lon="7.812509475820167"><ele>225.66666666666669</ele><time>2026-04-25T09:14:00Z</time></trkpt><trkpt lat="45.265599542643784" lon="7.8123831861880895"><ele>226.0</ele><time>2026-04-25T09:14:01Z</time></trkpt><trkpt lat="45.26559725286271" lon="7.812267829663636"><ele>226.33333333333334</ele><time>2026-04-25T09:14:02Z</time></trkpt><trkpt lat="45.265584558829886" lon="7.812173905734908"><ele>226.66666666666669</ele><time>2026-04-25T09:14:03Z</time></trkpt><trkpt lat="45.26562255263347" lon="7.812064484940768"><ele>227.0</ele><time>2026-04-25T09:14:04Z</time></trkpt><trkpt lat="45.26565871654271" lon="7.811943180128223"><ele>227.00000000000003</ele><time>2026-04-25T09:14:05Z</time></trkpt><trkpt lat="45.265710562409254" lon="7.811851929681958"><ele>227.0</ele><time>2026-04-25T09:14:06Z</time></trkpt><trkpt lat="45.26576842996068" lon="7.811783661060289"><ele>227.0</ele><time>2026-04-25T09:14:07Z</time></trkpt><trkpt lat="45.265833595703526" lon="7.81172177068234"><ele>227.0</ele><time>2026-04-25T09:14:08Z</time></trkpt><trkpt lat="45.265910702161676" lon="7.811677766624904"><ele>227.00000000000003</ele><time>2026-04-25T09:14:09Z</time></trkpt><trkpt lat="45.26600044270309" lon="7.811648905233408"><ele>227.0</ele><time>2026-04-25T09:14:10Z</time></trkpt><trkpt lat="45.26609046569471" lon="7.811625498742808"><ele>227.00000000000003</ele><time>2026-04-25T09:14:11Z</time></trkpt><trkpt lat="45.26617630347718" lon="7.811605428498651"><ele>227.0</ele><time>2026-04-25T09:14:12Z</time></trkpt><trkpt lat="45.266241766234664" lon="7.811590820815684"><ele>227.0</ele><time>2026-04-25T09:14:13Z</time></trkpt><trkpt lat="45.26635327993621" lon="7.8115671948299354"><ele>227.0</ele><time>2026-04-25T09:14:15Z</time></trkpt><trkpt lat="45.266417018690746" lon="7.811555961774601"><ele>227.00000000000003</ele><time>2026-04-25T09:14:17Z</time></trkpt><trkpt lat="45.26649587988711" lon="7.811568985127156"><ele>227.0</ele><time>2026-04-25T09:14:30Z</time></trkpt><trkpt lat="45.26644961348461" lon="7.8114138296122135"><ele>227.0</ele><time>2026-04-25T09:14:35Z</time></trkpt><trkpt lat="45.26637162355309" lon="7.8114112417377175"><ele>227.0</ele><time>2026-04-25T09:14:36Z</time></trkpt><trkpt lat="45.26628546766499" lon="7.811408382898093"><ele>227.0</ele><time>2026-04-25T09:14:37Z</time></trkpt><trkpt lat="45.26617846515919" lon="7.811404788945665"><ele>227.0</ele><time>2026-04-25T09:14:38Z</time></trkpt><trkpt lat="45.266050805868744" lon="7.81140147312185"><ele>227.0</ele><time>2026-04-25T09:14:39Z</time></trkpt><trkpt lat="45.265912299448615" lon="7.8113978755553415"><ele>227.0</ele><time>2026-04-25T09:14:39.999Z</time></trkpt><trkpt lat="45.2657857801134" lon="7.811394589340054"><ele>227.0</ele><time>2026-04-25T09:14:40.999Z</time></trkpt><trkpt lat="45.26568492617111" lon="7.811391969757922"><ele>227.0</ele><time>2026-04-25T09:14:41.999Z</time></trkpt><trkpt lat="45.2656222807291" lon="7.811403515801683"><ele>227.0</ele><time>2026-04-25T09:14:42.999Z</time></trkpt><trkpt lat="45.26554815554285" lon="7.812187644878727"><ele>227.0</ele><time>2026-04-25T09:14:44.999Z</time></trkpt><trkpt lat="45.26553812136775" lon="7.812371646239442"><ele>227.0</ele><time>2026-04-25T09:14:45.999Z</time></trkpt><trkpt lat="45.26555066551426" lon="7.812588286852503"><ele>227.0</ele><time>2026-04-25T09:14:46.999Z</time></trkpt><trkpt lat="45.26557357223245" lon="7.812818406475166"><ele>227.0</ele><time>2026-04-25T09:14:47.999Z</time></trkpt><trkpt lat="45.26558498986547" lon="7.81306416927522"><ele>227.0</ele><time>2026-04-25T09:14:48.999Z</time></trkpt><trkpt lat="45.26559015655119" lon="7.813310361538709"><ele>227.0</ele><time>2026-04-25T09:14:49.999Z</time></trkpt><trkpt lat="45.26559625808331" lon="7.81354367333291"><ele>227.0</ele><time>2026-04-25T09:14:50.999Z</time></trkpt><trkpt lat="45.26560787575765" lon="7.813769553823021"><ele>227.0</ele><time>2026-04-25T09:14:51.999Z</time></trkpt><trkpt lat="45.265619801035385" lon="7.813975336855133"><ele>227.0</ele><time>2026-04-25T09:14:52.999Z</time></trkpt><trkpt lat="45.265642723613986" lon="7.814160841916362"><ele>227.0</ele><time>2026-04-25T09:14:53.999Z</time></trkpt><trkpt lat="45.26568148058673" lon="7.814332225001756"><ele>227.0</ele><time>2026-04-25T09:14:54.999Z</time></trkpt><trkpt lat="45.265732450445775" lon="7.814490200066598"><ele>227.0</ele><time>2026-04-25T09:14:55.999Z</time></trkpt><trkpt lat="45.26579689206409" lon="7.814640630750853"><ele>227.0</ele><time>2026-04-25T09:14:56.999Z</time></trkpt><trkpt lat="45.26587278436676" lon="7.814783933847582"><ele>227.0</ele><time>2026-04-25T09:14:57.999Z</time></trkpt><trkpt lat="45.2659628476889" lon="7.814919254135495"><ele>227.0</ele><time>2026-04-25T09:14:58.999Z</time></trkpt><trkpt lat="45.26606049695265" lon="7.8150459846715705"><ele>226.75</ele><time>2026-04-25T09:14:59.999Z</time></trkpt><trkpt lat="45.26615864827885" lon="7.815170366577583"><ele>226.5</ele><time>2026-04-25T09:15:00.999Z</time></trkpt><trkpt lat="45.26626026131449" lon="7.815291776400543"><ele>226.25</ele><time>2026-04-25T09:15:01.999Z</time></trkpt><trkpt lat="45.2663632497274" lon="7.815412979836631"><ele>226.0</ele><time>2026-04-25T09:15:02.999Z</time></trkpt><trkpt lat="45.26646462877076" lon="7.815541531453688"><ele>226.5</ele><time>2026-04-25T09:15:03.999Z</time></trkpt><trkpt lat="45.26656563638686" lon="7.815676850560011"><ele>227.0</ele><time>2026-04-25T09:15:04.999Z</time></trkpt><trkpt lat="45.266671604150986" lon="7.815809777876084"><ele>227.5</ele><time>2026-04-25T09:15:05.999Z</time></trkpt><trkpt lat="45.266785078615136" lon="7.815944129675057"><ele>228.0</ele><time>2026-04-25T09:15:06.999Z</time></trkpt><trkpt lat="45.266905646168524" lon="7.816086714991156"><ele>228.33333333333331</ele><time>2026-04-25T09:15:07.999Z</time></trkpt><trkpt lat="45.26702667279488" lon="7.8162324322511525"><ele>228.66666666666666</ele><time>2026-04-25T09:15:08.999Z</time></trkpt><trkpt lat="45.26714806181859" lon="7.816383703147638"><ele>229.0</ele><time>2026-04-25T09:15:09.999Z</time></trkpt><trkpt lat="45.26727643797513" lon="7.816533250005516"><ele>229.0</ele><time>2026-04-25T09:15:10.999Z</time></trkpt><trkpt lat="45.26740185482267" lon="7.816674811222261"><ele>229.0</ele><time>2026-04-25T09:15:11.999Z</time></trkpt><trkpt lat="45.26753016707681" lon="7.81681608067989"><ele>229.0</ele><time>2026-04-25T09:15:12.999Z</time></trkpt><trkpt lat="45.26765857670823" lon="7.816954268335386"><ele>229.0</ele><time>2026-04-25T09:15:13.999Z</time></trkpt><trkpt lat="45.2677815363519" lon="7.817091137577124"><ele>229.0</ele><time>2026-04-25T09:15:14.999Z</time></trkpt><trkpt lat="45.26790414074437" lon="7.817223884773513"><ele>229.0</ele><time>2026-04-25T09:15:15.999Z</time></trkpt><trkpt lat="45.26802793172776" lon="7.817358746798912"><ele>229.0</ele><time>2026-04-25T09:15:16.999Z</time></trkpt><trkpt lat="45.26814910493089" lon="7.8174925957634285"><ele>229.0</ele><time>2026-04-25T09:15:17.999Z</time></trkpt><trkpt lat="45.26827449070713" lon="7.8176352136496465"><ele>229.0</ele><time>2026-04-25T09:15:18.999Z</time></trkpt><trkpt lat="45.26841602920671" lon="7.817790492413715"><ele>229.0</ele><time>2026-04-25T09:15:19.999Z</time></trkpt><trkpt lat="45.26855559686338" lon="7.817944907699884"><ele>229.0</ele><time>2026-04-25T09:15:20.999Z</time></trkpt><trkpt lat="45.26869989777259" lon="7.8181081235791"><ele>229.0</ele><time>2026-04-25T09:15:21.999Z</time></trkpt><trkpt lat="45.26884257419098" lon="7.818265498242744"><ele>229.33333333333331</ele><time>2026-04-25T09:15:22.999Z</time></trkpt><trkpt lat="45.268978510910294" lon="7.818410987587583"><ele>229.66666666666669</ele><time>2026-04-25T09:15:23.999Z</time></trkpt><trkpt lat="45.26911054423701" lon="7.81855405485135"><ele>230.0</ele><time>2026-04-25T09:15:24.999Z</time></trkpt><trkpt lat="45.26922750601148" lon="7.818683128027697"><ele>230.0</ele><time>2026-04-25T09:15:25.999Z</time></trkpt><trkpt lat="45.26933631979009" lon="7.818802411435357"><ele>230.0</ele><time>2026-04-25T09:15:26.999Z</time></trkpt><trkpt lat="45.26944072686416" lon="7.818914481041358"><ele>230.0</ele><time>2026-04-25T09:15:27.999Z</time></trkpt><trkpt lat="45.26953827001022" lon="7.819021949727485"><ele>230.0</ele><time>2026-04-25T09:15:28.999Z</time></trkpt><trkpt lat="45.269624078913196" lon="7.819112204828353"><ele>230.0</ele><time>2026-04-25T09:15:29.999Z</time></trkpt><trkpt lat="45.269688032001426" lon="7.8191945235893145"><ele>230.0</ele><time>2026-04-25T09:15:30.999Z</time></trkpt><trkpt lat="45.269744002083215" lon="7.819253333787192"><ele>230.0</ele><time>2026-04-25T09:15:31.999Z</time></trkpt><trkpt lat="45.26979241375837" lon="7.819323158554151"><ele>230.0</ele><time>2026-04-25T09:15:33.999Z</time></trkpt><trkpt lat="45.26982801975191" lon="7.8190877562975585"><ele>230.0</ele><time>2026-04-25T09:15:35.999Z</time></trkpt><trkpt lat="45.269781955918674" lon="7.818935926396093"><ele>230.0</ele><time>2026-04-25T09:15:36.999Z</time></trkpt><trkpt lat="45.269751738185406" lon="7.818749389229368"><ele>230.0</ele><time>2026-04-25T09:15:37.999Z</time></trkpt><trkpt lat="45.269742728847966" lon="7.8185698304133995"><ele>230.0</ele><time>2026-04-25T09:15:38.999Z</time></trkpt><trkpt lat="45.269725398414636" lon="7.818369377302908"><ele>230.0</ele><time>2026-04-25T09:15:39.999Z</time></trkpt><trkpt lat="45.26970170420498" lon="7.818148145425229"><ele>230.0</ele><time>2026-04-25T09:15:40.999Z</time></trkpt><trkpt lat="45.26967672458523" lon="7.817928268084077"><ele>230.0</ele><time>2026-04-25T09:15:41.999Z</time></trkpt><trkpt lat="45.26965577788032" lon="7.817719576945949"><ele>230.0</ele><time>2026-04-25T09:15:42.999Z</time></trkpt><trkpt lat="45.269631654853455" lon="7.817532175590797"><ele>230.0</ele><time>2026-04-25T09:15:43.999Z</time></trkpt><trkpt lat="45.26958604029507" lon="7.817380143745245"><ele>230.0</ele><time>2026-04-25T09:15:44.999Z</time></trkpt><trkpt lat="45.26951210742615" lon="7.817256416160359"><ele>230.0</ele><time>2026-04-25T09:15:45.999Z</time></trkpt><trkpt lat="45.26940783078488" lon="7.817137097438288"><ele>230.0</ele><time>2026-04-25T09:15:46.999Z</time></trkpt><trkpt lat="45.26928671990882" lon="7.817023175555462"><ele>230.0</ele><time>2026-04-25T09:15:47.999Z</time></trkpt><trkpt lat="45.26917083219854" lon="7.816896086846803"><ele>229.5</ele><time>2026-04-25T09:15:48.999Z</time></trkpt><trkpt lat="45.269067329065976" lon="7.8167613207134465"><ele>229.0</ele><time>2026-04-25T09:15:49.999Z</time></trkpt><trkpt lat="45.26896825652768" lon="7.816635553092711"><ele>228.5</ele><time>2026-04-25T09:15:50.999Z</time></trkpt><trkpt lat="45.2688786436041" lon="7.816501232230852"><ele>228.0</ele><time>2026-04-25T09:15:51.999Z</time></trkpt><trkpt lat="45.26880468025" lon="7.816352723963282"><ele>228.0</ele><time>2026-04-25T09:15:52.999Z</time></trkpt><trkpt lat="45.268745403310625" lon="7.816199499545963"><ele>228.0</ele><time>2026-04-25T09:15:53.999Z</time></trkpt><trkpt lat="45.26869556451306" lon="7.816045706990532"><ele>228.0</ele><time>2026-04-25T09:15:54.999Z</time></trkpt><trkpt lat="45.268651151130356" lon="7.815905521146354"><ele>228.0</ele><time>2026-04-25T09:15:55.999Z</time></trkpt><trkpt lat="45.26861527287201" lon="7.815793334293617"><ele>228.0</ele><time>2026-04-25T09:15:56.999Z</time></trkpt><trkpt lat="45.26858523705209" lon="7.815689716062407"><ele>228.16666666666666</ele><time>2026-04-25T09:15:57.999Z</time></trkpt><trkpt lat="45.26855866856834" lon="7.815588172962919"><ele>228.33333333333331</ele><time>2026-04-25T09:15:58.999Z</time></trkpt><trkpt lat="45.268534233641496" lon="7.81547022750624"><ele>228.5</ele><time>2026-04-25T09:16:00.999Z</time></trkpt><trkpt lat="45.26852124856572" lon="7.815379962305437"><ele>228.66666666666666</ele><time>2026-04-25T09:16:06Z</time></trkpt><trkpt lat="45.26848976179539" lon="7.81529384189165"><ele>228.83333333333331</ele><time>2026-04-25T09:16:09Z</time></trkpt><trkpt lat="45.26851641288408" lon="7.815396707408934"><ele>229.0</ele><time>2026-04-25T09:16:13Z</time></trkpt><trkpt lat="45.26854483109473" lon="7.815579444189788"><ele>229.0</ele><time>2026-04-25T09:16:15Z</time></trkpt><trkpt lat="45.26858114442419" lon="7.815707036373425"><ele>229.0</ele><time>2026-04-25T09:16:16Z</time></trkpt><trkpt lat="45.268618726922405" lon="7.815851580329132"><ele>229.0</ele><time>2026-04-25T09:16:17Z</time></trkpt><trkpt lat="45.26866636703449" lon="7.816016764809436"><ele>229.0</ele><time>2026-04-25T09:16:18Z</time></trkpt><trkpt lat="45.268720582729095" lon="7.816190171184088"><ele>228.75</ele><time>2026-04-25T09:16:19Z</time></trkpt><trkpt lat="45.2687805436138" lon="7.816341728217127"><ele>228.5</ele><time>2026-04-25T09:16:20Z</time></trkpt><trkpt lat="45.26884242678192" lon="7.816476918426197"><ele>228.25</ele><time>2026-04-25T09:16:21Z</time></trkpt><trkpt lat="45.26892422982229" lon="7.816612454445021"><ele>228.0</ele><time>2026-04-25T09:16:22Z</time></trkpt><trkpt lat="45.269015979281484" lon="7.816734313296409"><ele>228.5</ele><time>2026-04-25T09:16:23Z</time></trkpt><trkpt lat="45.26911158884647" lon="7.81684712858414"><ele>229.0</ele><time>2026-04-25T09:16:24Z</time></trkpt><trkpt lat="45.269206496110456" lon="7.8169548360379055"><ele>229.5</ele><time>2026-04-25T09:16:25Z</time></trkpt><trkpt lat="45.269297091318705" lon="7.81706317232142"><ele>230.0</ele><time>2026-04-25T09:16:26Z</time></trkpt><trkpt lat="45.269383638240434" lon="7.8171579742388575"><ele>230.0</ele><time>2026-04-25T09:16:27Z</time></trkpt><trkpt lat="45.26946291997554" lon="7.817247758280907"><ele>230.0</ele><time>2026-04-25T09:16:28Z</time></trkpt><trkpt lat="45.269535936240786" lon="7.817347404201905"><ele>230.0</ele><time>2026-04-25T09:16:29Z</time></trkpt><trkpt lat="45.26959171414432" lon="7.817457193002232"><ele>230.0</ele><time>2026-04-25T09:16:30Z</time></trkpt><trkpt lat="45.26962956050719" lon="7.817592326967334"><ele>230.0</ele><time>2026-04-25T09:16:31Z</time></trkpt><trkpt lat="45.26964709637906" lon="7.8177306770548975"><ele>230.0</ele><time>2026-04-25T09:16:32Z</time></trkpt><trkpt lat="45.269655988551015" lon="7.817873150667021"><ele>230.0</ele><time>2026-04-25T09:16:33Z</time></trkpt><trkpt lat="45.26966417085235" lon="7.818022248440812"><ele>230.0</ele><time>2026-04-25T09:16:34Z</time></trkpt><trkpt lat="45.26968225167054" lon="7.818169804426643"><ele>230.0</ele><time>2026-04-25T09:16:35Z</time></trkpt><trkpt lat="45.26970000710847" lon="7.818315539901733"><ele>230.0</ele><time>2026-04-25T09:16:36Z</time></trkpt><trkpt lat="45.269701459784095" lon="7.818460666551525"><ele>230.00000000000003</ele><time>2026-04-25T09:16:37Z</time></trkpt><trkpt lat="45.2697160697491" lon="7.81859895529604"><ele>230.0</ele><time>2026-04-25T09:16:38Z</time></trkpt><trkpt lat="45.26973103836909" lon="7.818740638633607"><ele>230.0</ele><time>2026-04-25T09:16:39Z</time></trkpt><trkpt lat="45.26974550512761" lon="7.818877341817826"><ele>230.0</ele><time>2026-04-25T09:16:40Z</time></trkpt><trkpt lat="45.26975778508903" lon="7.818993400244112"><ele>230.00000000000003</ele><time>2026-04-25T09:16:41Z</time></trkpt><trkpt lat="45.26976782207003" lon="7.819088260226247"><ele>230.0</ele><time>2026-04-25T09:16:42Z</time></trkpt><trkpt lat="45.269792365371735" lon="7.819197835847601"><ele>230.25</ele><time>2026-04-25T09:16:44Z</time></trkpt><trkpt lat="45.26979575915802" lon="7.819352294413662"><ele>230.5</ele><time>2026-04-25T09:16:47Z</time></trkpt><trkpt lat="45.26991029035323" lon="7.81945671121704"><ele>230.75</ele><time>2026-04-25T09:16:48Z</time></trkpt><trkpt lat="45.26999544327817" lon="7.819557625933836"><ele>231.0</ele><time>2026-04-25T09:16:49Z</time></trkpt><trkpt lat="45.27009906169827" lon="7.819680423402653"><ele>231.0</ele><time>2026-04-25T09:16:50Z</time></trkpt><trkpt lat="45.27019442039822" lon="7.819818277029778"><ele>231.00000000000003</ele><time>2026-04-25T09:16:51Z</time></trkpt><trkpt lat="45.27025293332711" lon="7.8199673833206615"><ele>231.00000000000003</ele><time>2026-04-25T09:16:52Z</time></trkpt><trkpt lat="45.27028863443185" lon="7.820087285738431"><ele>231.0</ele><time>2026-04-25T09:16:53Z</time></trkpt><trkpt lat="45.27031490057851" lon="7.820188683090748"><ele>231.0</ele><time>2026-04-25T09:16:58Z</time></trkpt><trkpt lat="45.270516909874324" lon="7.820129759358053"><ele>231.25</ele><time>2026-04-25T09:16:59.999Z</time></trkpt><trkpt lat="45.2706375293162" lon="7.820104140528239"><ele>231.5</ele><time>2026-04-25T09:17:00.999Z</time></trkpt><trkpt lat="45.27076522877836" lon="7.82008166765555"><ele>231.75</ele><time>2026-04-25T09:17:01.999Z</time></trkpt><trkpt lat="45.2709067247553" lon="7.820076881713955"><ele>232.0</ele><time>2026-04-25T09:17:02.999Z</time></trkpt><trkpt lat="45.271029247489366" lon="7.820053598099128"><ele>232.0</ele><time>2026-04-25T09:17:03.999Z</time></trkpt><trkpt lat="45.27113874099691" lon="7.8200312360558595"><ele>232.0</ele><time>2026-04-25T09:17:04.999Z</time></trkpt><trkpt lat="45.271237587075305" lon="7.820017222347766"><ele>232.0</ele><time>2026-04-25T09:17:05.999Z</time></trkpt><trkpt lat="45.271328505545206" lon="7.82001385457365"><ele>232.0</ele><time>2026-04-25T09:17:06.999Z</time></trkpt><trkpt lat="45.27141112547118" lon="7.820018768216976"><ele>232.0</ele><time>2026-04-25T09:17:07.999Z</time></trkpt><trkpt lat="45.27147966073653" lon="7.820013874602586"><ele>232.2</ele><time>2026-04-25T09:17:08.999Z</time></trkpt><trkpt lat="45.27157267648474" lon="7.820015606601928"><ele>232.39999999999998</ele><time>2026-04-25T09:17:10.999Z</time></trkpt><trkpt lat="45.27164137986376" lon="7.820061146294529"><ele>232.60000000000002</ele><time>2026-04-25T09:17:13.999Z</time></trkpt><trkpt lat="45.27172555893467" lon="7.82010632483846"><ele>232.8</ele><time>2026-04-25T09:17:15.999Z</time></trkpt><trkpt lat="45.271822753699006" lon="7.820061628624602"><ele>233.0</ele><time>2026-04-25T09:17:16.999Z</time></trkpt><trkpt lat="45.271941329901665" lon="7.819969214439198"><ele>233.0</ele><time>2026-04-25T09:17:17.999Z</time></trkpt><trkpt lat="45.27207226607075" lon="7.819871628776821"><ele>233.0</ele><time>2026-04-25T09:17:18.999Z</time></trkpt><trkpt lat="45.27221417882878" lon="7.819772683579909"><ele>233.0</ele><time>2026-04-25T09:17:19.999Z</time></trkpt><trkpt lat="45.27235648258451" lon="7.819651320581368"><ele>232.66666666666669</ele><time>2026-04-25T09:17:20.999Z</time></trkpt><trkpt lat="45.27248086301914" lon="7.8194926972420955"><ele>232.33333333333331</ele><time>2026-04-25T09:17:21.999Z</time></trkpt><trkpt lat="45.272597972714344" lon="7.819300551535274"><ele>232.0</ele><time>2026-04-25T09:17:22.999Z</time></trkpt><trkpt lat="45.27271554697128" lon="7.819105921080718"><ele>232.0</ele><time>2026-04-25T09:17:23.999Z</time></trkpt><trkpt lat="45.27282408934255" lon="7.818943898307417"><ele>232.0</ele><time>2026-04-25T09:17:24.999Z</time></trkpt><trkpt lat="45.27292562286875" lon="7.8187839100863545"><ele>232.0</ele><time>2026-04-25T09:17:25.999Z</time></trkpt><trkpt lat="45.27302850995452" lon="7.818669307088965"><ele>232.0</ele><time>2026-04-25T09:17:26.999Z</time></trkpt><trkpt lat="45.2731553583983" lon="7.818589348348663"><ele>232.0</ele><time>2026-04-25T09:17:27.999Z</time></trkpt><trkpt lat="45.273302938276835" lon="7.818522472862572"><ele>232.0</ele><time>2026-04-25T09:17:28.999Z</time></trkpt><trkpt lat="45.273460804094775" lon="7.818436528623829"><ele>232.0</ele><time>2026-04-25T09:17:29.999Z</time></trkpt><trkpt lat="45.27361979028332" lon="7.8183350973138115"><ele>232.0</ele><time>2026-04-25T09:17:30.999Z</time></trkpt><trkpt lat="45.27377831246254" lon="7.818218967457076"><ele>232.0</ele><time>2026-04-25T09:17:31.999Z</time></trkpt><trkpt lat="45.273937025832026" lon="7.818079324436246"><ele>232.0</ele><time>2026-04-25T09:17:32.999Z</time></trkpt><trkpt lat="45.27406964147085" lon="7.817922806655802"><ele>232.0</ele><time>2026-04-25T09:17:33.999Z</time></trkpt><trkpt lat="45.27419076744043" lon="7.817730750896064"><ele>232.0</ele><time>2026-04-25T09:17:34.999Z</time></trkpt><trkpt lat="45.27429522434285" lon="7.817539143548568"><ele>232.0</ele><time>2026-04-25T09:17:35.999Z</time></trkpt><trkpt lat="45.274401884230834" lon="7.817329093587557"><ele>232.0</ele><time>2026-04-25T09:17:36.999Z</time></trkpt><trkpt lat="45.27450384233518" lon="7.817138951177806"><ele>232.0</ele><time>2026-04-25T09:17:37.999Z</time></trkpt><trkpt lat="45.274605766660635" lon="7.816936379355572"><ele>232.0</ele><time>2026-04-25T09:17:38.999Z</time></trkpt><trkpt lat="45.274699236047844" lon="7.816752459923342"><ele>232.25</ele><time>2026-04-25T09:17:39.999Z</time></trkpt><trkpt lat="45.27477218527432" lon="7.816567392935098"><ele>232.5</ele><time>2026-04-25T09:17:40.999Z</time></trkpt><trkpt lat="45.27484227611083" lon="7.816408823845433"><ele>232.75</ele><time>2026-04-25T09:17:41.999Z</time></trkpt><trkpt lat="45.274903878869054" lon="7.816261498883859"><ele>233.0</ele><time>2026-04-25T09:17:42.999Z</time></trkpt><trkpt lat="45.274961809537125" lon="7.816133728651233"><ele>233.00000000000003</ele><time>2026-04-25T09:17:43.999Z</time></trkpt><trkpt lat="45.27500868898145" lon="7.8160351581978835"><ele>233.0</ele><time>2026-04-25T09:17:44.999Z</time></trkpt><trkpt lat="45.27506316947466" lon="7.8159402158474"><ele>233.0</ele><time>2026-04-25T09:17:46.999Z</time></trkpt><trkpt lat="45.275165378157894" lon="7.815935224687906"><ele>233.0</ele><time>2026-04-25T09:17:48.999Z</time></trkpt><trkpt lat="45.27524707472903" lon="7.815935842432609"><ele>233.00000000000003</ele><time>2026-04-25T09:17:49.999Z</time></trkpt><trkpt lat="45.2753327325795" lon="7.8159337594370095"><ele>233.0</ele><time>2026-04-25T09:17:50.999Z</time></trkpt><trkpt lat="45.27543064677893" lon="7.815921983716601"><ele>233.0</ele><time>2026-04-25T09:17:51.999Z</time></trkpt><trkpt lat="45.27554932628745" lon="7.815936717832715"><ele>233.0</ele><time>2026-04-25T09:17:52.999Z</time></trkpt><trkpt lat="45.27567516992152" lon="7.8159281733263395"><ele>233.0</ele><time>2026-04-25T09:17:53.999Z</time></trkpt><trkpt lat="45.2758077969004" lon="7.815917495854905"><ele>233.0</ele><time>2026-04-25T09:17:54.999Z</time></trkpt><trkpt lat="45.275944830232255" lon="7.815905000314556"><ele>233.0</ele><time>2026-04-25T09:17:55.999Z</time></trkpt><trkpt lat="45.27607587126202" lon="7.815893051190338"><ele>233.0</ele><time>2026-04-25T09:17:56.999Z</time></trkpt><trkpt lat="45.276202940883806" lon="7.8158800958098515"><ele>233.0</ele><time>2026-04-25T09:17:57.999Z</time></trkpt><trkpt lat="45.276321338154" lon="7.815858346249015"><ele>233.0</ele><time>2026-04-25T09:17:58.999Z</time></trkpt><trkpt lat="45.276426718276454" lon="7.815872761152767"><ele>233.0</ele><time>2026-04-25T09:17:59.999Z</time></trkpt><trkpt lat="45.27650559678422" lon="7.815900177490926"><ele>233.0</ele><time>2026-04-25T09:18:00.999Z</time></trkpt><trkpt lat="45.27651680342352" lon="7.816032838459408"><ele>233.0</ele><time>2026-04-25T09:18:01.999Z</time></trkpt><trkpt lat="45.27656017436742" lon="7.816168187541922"><ele>233.0</ele><time>2026-04-25T09:18:02.999Z</time></trkpt><trkpt lat="45.276631414259505" lon="7.816318633343927"><ele>233.0</ele><time>2026-04-25T09:18:03.999Z</time></trkpt><trkpt lat="45.27668313542226" lon="7.816495953802855"><ele>233.0</ele><time>2026-04-25T09:18:04.999Z</time></trkpt><trkpt lat="45.276744875047854" lon="7.81667021863602"><ele>233.0</ele><time>2026-04-25T09:18:05.999Z</time></trkpt><trkpt lat="45.27680842511153" lon="7.816845765784828"><ele>233.0</ele><time>2026-04-25T09:18:06.999Z</time></trkpt><trkpt lat="45.276869810229535" lon="7.817045742971389"><ele>233.0</ele><time>2026-04-25T09:18:08Z</time></trkpt><trkpt lat="45.27689358364761" lon="7.817267686637457"><ele>233.0</ele><time>2026-04-25T09:18:09Z</time></trkpt><trkpt lat="45.276918886242036" lon="7.817492829626431"><ele>233.0</ele><time>2026-04-25T09:18:10Z</time></trkpt><trkpt lat="45.27695051261286" lon="7.817713163976452"><ele>233.0</ele><time>2026-04-25T09:18:11Z</time></trkpt><trkpt lat="45.27695990312314" lon="7.81794209992098"><ele>233.0</ele><time>2026-04-25T09:18:12Z</time></trkpt><trkpt lat="45.276964232665655" lon="7.818169143669832"><ele>233.0</ele><time>2026-04-25T09:18:13Z</time></trkpt><trkpt lat="45.27696064625088" lon="7.818401232141798"><ele>233.0</ele><time>2026-04-25T09:18:14Z</time></trkpt><trkpt lat="45.27695358822561" lon="7.81862280715763"><ele>233.25</ele><time>2026-04-25T09:18:15Z</time></trkpt><trkpt lat="45.27694596514901" lon="7.818819136251974"><ele>233.5</ele><time>2026-04-25T09:18:16Z</time></trkpt><trkpt lat="45.27693981210091" lon="7.818998845374984"><ele>233.75</ele><time>2026-04-25T09:18:17Z</time></trkpt><trkpt lat="45.27693327125631" lon="7.8191669421926555"><ele>234.0</ele><time>2026-04-25T09:18:18Z</time></trkpt><trkpt lat="45.27692993565795" lon="7.819318139454888"><ele>234.66666666666666</ele><time>2026-04-25T09:18:19Z</time></trkpt><trkpt lat="45.276933127176974" lon="7.819454470675015"><ele>235.33333333333331</ele><time>2026-04-25T09:18:20Z</time></trkpt><trkpt lat="45.276922715304444" lon="7.819564616680303"><ele>236.0</ele><time>2026-04-25T09:18:21Z</time></trkpt><trkpt lat="45.27699905497571" lon="7.819634615442968"><ele>236.66666666666666</ele><time>2026-04-25T09:18:22Z</time></trkpt><trkpt lat="45.277082744904526" lon="7.819610276069301"><ele>237.33333333333331</ele><time>2026-04-25T09:18:24Z</time></trkpt><trkpt lat="45.27716749936397" lon="7.819625855271865"><ele>238.0</ele><time>2026-04-25T09:18:26Z</time></trkpt><trkpt lat="45.277166665771475" lon="7.819751951142588"><ele>238.0</ele><time>2026-04-25T09:18:27Z</time></trkpt><trkpt lat="45.27724247432109" lon="7.8198621475223"><ele>238.0</ele><time>2026-04-25T09:18:29Z</time></trkpt><trkpt lat="45.27756264607946" lon="7.819537833242954"><ele>238.5</ele><time>2026-04-25T09:18:30Z</time></trkpt><trkpt lat="45.277692553530166" lon="7.819532357319423"><ele>239.0</ele><time>2026-04-25T09:18:31Z</time></trkpt><trkpt lat="45.27782562754215" lon="7.819534363929255"><ele>239.5</ele><time>2026-04-25T09:18:32Z</time></trkpt><trkpt lat="45.27794540912819" lon="7.819547165264312"><ele>240.0</ele><time>2026-04-25T09:18:33Z</time></trkpt><trkpt lat="45.278061714922146" lon="7.819554110585571"><ele>242.0</ele><time>2026-04-25T09:18:34Z</time></trkpt><trkpt lat="45.27817846970731" lon="7.819561270137391"><ele>244.0</ele><time>2026-04-25T09:18:35Z</time></trkpt><trkpt lat="45.278302205573006" lon="7.819574925063235"><ele>246.0</ele><time>2026-04-25T09:18:36Z</time></trkpt><trkpt lat="45.278428599096046" lon="7.8195683061952"><ele>248.0</ele><time>2026-04-25T09:18:37Z</time></trkpt><trkpt lat="45.27856222165087" lon="7.819539860449335"><ele>248.0</ele><time>2026-04-25T09:18:38Z</time></trkpt><trkpt lat="45.27869601645947" lon="7.8194979558016735"><ele>248.0</ele><time>2026-04-25T09:18:39Z</time></trkpt><trkpt lat="45.278819831991676" lon="7.819439031413071"><ele>248.0</ele><time>2026-04-25T09:18:40Z</time></trkpt><trkpt lat="45.27894205548741" lon="7.819386429186585"><ele>248.0</ele><time>2026-04-25T09:18:41Z</time></trkpt><trkpt lat="45.27906719751447" lon="7.819339789885651"><ele>246.25</ele><time>2026-04-25T09:18:42Z</time></trkpt><trkpt lat="45.2791953752891" lon="7.819300885807251"><ele>244.5</ele><time>2026-04-25T09:18:43Z</time></trkpt><trkpt lat="45.2793296359451" lon="7.819253847050609"><ele>242.75</ele><time>2026-04-25T09:18:44Z</time></trkpt><trkpt lat="45.279472022599215" lon="7.819214427086975"><ele>241.0</ele><time>2026-04-25T09:18:45Z</time></trkpt><trkpt lat="45.27961671002986" lon="7.819183827819423"><ele>241.0</ele><time>2026-04-25T09:18:46Z</time></trkpt><trkpt lat="45.279756872580194" lon="7.819176209441638"><ele>241.0</ele><time>2026-04-25T09:18:47Z</time></trkpt><trkpt lat="45.279886167434555" lon="7.819166746977868"><ele>241.0</ele><time>2026-04-25T09:18:48Z</time></trkpt><trkpt lat="45.28002835584328" lon="7.819128885199533"><ele>241.0</ele><time>2026-04-25T09:18:49Z</time></trkpt><trkpt lat="45.28015778484541" lon="7.819078787053291"><ele>242.25</ele><time>2026-04-25T09:18:50Z</time></trkpt><trkpt lat="45.28027033413078" lon="7.819039569015363"><ele>243.5</ele><time>2026-04-25T09:18:51Z</time></trkpt><trkpt lat="45.28037898419312" lon="7.8189841363419825"><ele>244.75</ele><time>2026-04-25T09:18:52Z</time></trkpt><trkpt lat="45.28049527554449" lon="7.818909263856196"><ele>246.0</ele><time>2026-04-25T09:18:53Z</time></trkpt><trkpt lat="45.28060800107727" lon="7.81882378106955"><ele>246.75</ele><time>2026-04-25T09:18:54Z</time></trkpt><trkpt lat="45.28070963486394" lon="7.818725833606732"><ele>247.5</ele><time>2026-04-25T09:18:55Z</time></trkpt><trkpt lat="45.28079961486795" lon="7.81864239833154"><ele>248.25</ele><time>2026-04-25T09:18:56Z</time></trkpt><trkpt lat="45.28089774292779" lon="7.818603859173819"><ele>249.0</ele><time>2026-04-25T09:18:57Z</time></trkpt><trkpt lat="45.28102159203108" lon="7.818593856359197"><ele>249.0</ele><time>2026-04-25T09:18:58Z</time></trkpt><trkpt lat="45.281150491828186" lon="7.818603380802253"><ele>249.0</ele><time>2026-04-25T09:18:59Z</time></trkpt><trkpt lat="45.28128150643908" lon="7.818614784305927"><ele>249.0</ele><time>2026-04-25T09:19:00Z</time></trkpt><trkpt lat="45.281414937378365" lon="7.8186015159139295"><ele>249.0</ele><time>2026-04-25T09:19:01Z</time></trkpt><trkpt lat="45.28155620374605" lon="7.818561846426076"><ele>249.33333333333331</ele><time>2026-04-25T09:19:02Z</time></trkpt><trkpt lat="45.28171362107986" lon="7.818526202303352"><ele>249.66666666666666</ele><time>2026-04-25T09:19:03Z</time></trkpt><trkpt lat="45.281888119087434" lon="7.8184846057593065"><ele>250.0</ele><time>2026-04-25T09:19:04Z</time></trkpt><trkpt lat="45.28205369452033" lon="7.818460863949914"><ele>248.0</ele><time>2026-04-25T09:19:05Z</time></trkpt><trkpt lat="45.28220111924964" lon="7.818449640346381"><ele>246.0</ele><time>2026-04-25T09:19:06Z</time></trkpt><trkpt lat="45.28234658750768" lon="7.818433400374223"><ele>244.0</ele><time>2026-04-25T09:19:07Z</time></trkpt><trkpt lat="45.28247824350673" lon="7.8184189683833765"><ele>242.0</ele><time>2026-04-25T09:19:08Z</time></trkpt><trkpt lat="45.2826032302555" lon="7.818431352715175"><ele>241.5</ele><time>2026-04-25T09:19:09Z</time></trkpt><trkpt lat="45.28274191116892" lon="7.818465088584851"><ele>241.0</ele><time>2026-04-25T09:19:10Z</time></trkpt><trkpt lat="45.28289004623491" lon="7.8185066681296815"><ele>240.5</ele><time>2026-04-25T09:19:11Z</time></trkpt><trkpt lat="45.28304371541789" lon="7.818535940965968"><ele>240.0</ele><time>2026-04-25T09:19:11.999Z</time></trkpt><trkpt lat="45.283200104219674" lon="7.818553512974174"><ele>243.33333333333331</ele><time>2026-04-25T09:19:12.999Z</time></trkpt><trkpt lat="45.28335649753739" lon="7.818543288277165"><ele>246.66666666666666</ele><time>2026-04-25T09:19:13.999Z</time></trkpt><trkpt lat="45.283521408936494" lon="7.818565682946695"><ele>250.0</ele><time>2026-04-25T09:19:14.999Z</time></trkpt><trkpt lat="45.283677693402346" lon="7.8185726410211"><ele>250.0</ele><time>2026-04-25T09:19:15.999Z</time></trkpt><trkpt lat="45.28385861746691" lon="7.818569925787564"><ele>250.0</ele><time>2026-04-25T09:19:16.999Z</time></trkpt><trkpt lat="45.28402083109153" lon="7.818566527930219"><ele>250.0</ele><time>2026-04-25T09:19:17.999Z</time></trkpt><trkpt lat="45.284165043566965" lon="7.818564940449047"><ele>250.0</ele><time>2026-04-25T09:19:18.999Z</time></trkpt><trkpt lat="45.28432318261108" lon="7.81858413059756"><ele>250.0</ele><time>2026-04-25T09:19:19.999Z</time></trkpt><trkpt lat="45.284443858516866" lon="7.818604447554499"><ele>250.0</ele><time>2026-04-25T09:19:20.999Z</time></trkpt><trkpt lat="45.2845496158784" lon="7.818618489813293"><ele>250.0</ele><time>2026-04-25T09:19:21.999Z</time></trkpt><trkpt lat="45.284685332934686" lon="7.818643943860721"><ele>250.33333333333331</ele><time>2026-04-25T09:19:22.999Z</time></trkpt><trkpt lat="45.28482892441377" lon="7.818685338249855"><ele>250.66666666666669</ele><time>2026-04-25T09:19:23.999Z</time></trkpt><trkpt lat="45.284982112375516" lon="7.81870790137552"><ele>251.0</ele><time>2026-04-25T09:19:24.999Z</time></trkpt><trkpt lat="45.28513319588049" lon="7.818722781612108"><ele>251.0</ele><time>2026-04-25T09:19:25.999Z</time></trkpt><trkpt lat="45.285273922179556" lon="7.81873719175996"><ele>251.0</ele><time>2026-04-25T09:19:26.999Z</time></trkpt><trkpt lat="45.28539901090579" lon="7.818748561783192"><ele>251.0</ele><time>2026-04-25T09:19:27.999Z</time></trkpt><trkpt lat="45.28553179696559" lon="7.81873127439994"><ele>251.0</ele><time>2026-04-25T09:19:28.999Z</time></trkpt><trkpt lat="45.285667979835864" lon="7.818724869090754"><ele>251.75</ele><time>2026-04-25T09:19:29.999Z</time></trkpt><trkpt lat="45.28580850812646" lon="7.8187064904134616"><ele>252.5</ele><time>2026-04-25T09:19:30.999Z</time></trkpt><trkpt lat="45.285937697463076" lon="7.818669432044162"><ele>253.25</ele><time>2026-04-25T09:19:31.999Z</time></trkpt><trkpt lat="45.2860751492653" lon="7.818634534523126"><ele>254.0</ele><time>2026-04-25T09:19:32.999Z</time></trkpt><trkpt lat="45.28622288464488" lon="7.818631342365033"><ele>254.0</ele><time>2026-04-25T09:19:33.999Z</time></trkpt><trkpt lat="45.286372133540816" lon="7.818631011670683"><ele>254.0</ele><time>2026-04-25T09:19:34.999Z</time></trkpt><trkpt lat="45.28651042013196" lon="7.818637500679359"><ele>254.0</ele><time>2026-04-25T09:19:35.999Z</time></trkpt><trkpt lat="45.28665850300626" lon="7.8186547816244065"><ele>254.0</ele><time>2026-04-25T09:19:36.999Z</time></trkpt><trkpt lat="45.286810221053386" lon="7.818683310195608"><ele>253.66666666666669</ele><time>2026-04-25T09:19:37.999Z</time></trkpt><trkpt lat="45.286955705609465" lon="7.818698152147888"><ele>253.33333333333331</ele><time>2026-04-25T09:19:38.999Z</time></trkpt><trkpt lat="45.287107249242446" lon="7.818729905379281"><ele>253.0</ele><time>2026-04-25T09:19:39.999Z</time></trkpt><trkpt lat="45.287257061906196" lon="7.81878166209757"><ele>252.75</ele><time>2026-04-25T09:19:40.999Z</time></trkpt><trkpt lat="45.28740744116883" lon="7.818815879226842"><ele>252.5</ele><time>2026-04-25T09:19:41.999Z</time></trkpt><trkpt lat="45.28755708060732" lon="7.818823543165785"><ele>252.25</ele><time>2026-04-25T09:19:42.999Z</time></trkpt><trkpt lat="45.28769809995379" lon="7.8188339203447255"><ele>252.0</ele><time>2026-04-25T09:19:43.999Z</time></trkpt><trkpt lat="45.28781825996947" lon="7.818839935385516"><ele>252.0</ele><time>2026-04-25T09:19:44.999Z</time></trkpt><trkpt lat="45.2879263963426" lon="7.818844895715093"><ele>252.0</ele><time>2026-04-25T09:19:45.999Z</time></trkpt><trkpt lat="45.28801983654317" lon="7.818870792370093"><ele>252.0</ele><time>2026-04-25T09:19:46.999Z</time></trkpt><trkpt lat="45.288091965465554" lon="7.818912774486294"><ele>252.0</ele><time>2026-04-25T09:19:47.999Z</time></trkpt><trkpt lat="45.288164659618175" lon="7.818961865026779"><ele>252.0</ele><time>2026-04-25T09:19:48.999Z</time></trkpt><trkpt lat="45.28828250179486" lon="7.819032586583301"><ele>251.6</ele><time>2026-04-25T09:19:50.999Z</time></trkpt><trkpt lat="45.28835997248164" lon="7.819065426564261"><ele>251.2</ele><time>2026-04-25T09:19:51.999Z</time></trkpt><trkpt lat="45.28845022757111" lon="7.81907770126719"><ele>250.8</ele><time>2026-04-25T09:19:52.999Z</time></trkpt><trkpt lat="45.28858012808604" lon="7.819102316572338"><ele>250.4</ele><time>2026-04-25T09:19:53.999Z</time></trkpt><trkpt lat="45.28871239248791" lon="7.819160343036699"><ele>250.0</ele><time>2026-04-25T09:19:54.999Z</time></trkpt><trkpt lat="45.288839190573015" lon="7.819206994647243"><ele>249.33333333333331</ele><time>2026-04-25T09:19:55.999Z</time></trkpt><trkpt lat="45.28898255846926" lon="7.819232036309422"><ele>248.66666666666669</ele><time>2026-04-25T09:19:56.999Z</time></trkpt><trkpt lat="45.289136163637906" lon="7.8192391685314035"><ele>248.0</ele><time>2026-04-25T09:19:57.999Z</time></trkpt><trkpt lat="45.28930287080036" lon="7.819215032514857"><ele>248.0</ele><time>2026-04-25T09:19:58.999Z</time></trkpt><trkpt lat="45.28945807055409" lon="7.8192028889292615"><ele>248.0</ele><time>2026-04-25T09:19:59.999Z</time></trkpt><trkpt lat="45.289625305227005" lon="7.819208067058886"><ele>248.0</ele><time>2026-04-25T09:20:00.999Z</time></trkpt><trkpt lat="45.289764540471936" lon="7.819200111581249"><ele>248.25</ele><time>2026-04-25T09:20:01.999Z</time></trkpt><trkpt lat="45.28990484384636" lon="7.819169495073139"><ele>248.5</ele><time>2026-04-25T09:20:02.999Z</time></trkpt><trkpt lat="45.29005978728057" lon="7.819139179734924"><ele>248.75</ele><time>2026-04-25T09:20:03.999Z</time></trkpt><trkpt lat="45.290175100402955" lon="7.819143394451193"><ele>249.0</ele><time>2026-04-25T09:20:04.999Z</time></trkpt><trkpt lat="45.29029424484813" lon="7.819173281976099"><ele>249.0</ele><time>2026-04-25T09:20:05.999Z</time></trkpt><trkpt lat="45.29042835440715" lon="7.819213597850399"><ele>248.99999999999997</ele><time>2026-04-25T09:20:06.999Z</time></trkpt><trkpt lat="45.29052121141513" lon="7.819194697681154"><ele>248.99999999999997</ele><time>2026-04-25T09:20:07.999Z</time></trkpt><trkpt lat="45.290612844099364" lon="7.819222043620944"><ele>249.0</ele><time>2026-04-25T09:20:08.999Z</time></trkpt><trkpt lat="45.29073437387263" lon="7.819229371978696"><ele>249.0</ele><time>2026-04-25T09:20:09.999Z</time></trkpt><trkpt lat="45.29087763394559" lon="7.819217923210627"><ele>249.25</ele><time>2026-04-25T09:20:10.999Z</time></trkpt><trkpt lat="45.29101081166376" lon="7.8192067052724745"><ele>249.5</ele><time>2026-04-25T09:20:11.999Z</time></trkpt><trkpt lat="45.291134685322476" lon="7.819221599885874"><ele>249.75</ele><time>2026-04-25T09:20:12.999Z</time></trkpt><trkpt lat="45.29127120254762" lon="7.819228294388879"><ele>250.0</ele><time>2026-04-25T09:20:14Z</time></trkpt><trkpt lat="45.29137078951734" lon="7.819233775804102"><ele>250.2</ele><time>2026-04-25T09:20:15Z</time></trkpt><trkpt lat="45.29144452138575" lon="7.819218881815507"><ele>250.4</ele><time>2026-04-25T09:20:16Z</time></trkpt><trkpt lat="45.29153237971829" lon="7.819197772389512"><ele>250.60000000000002</ele><time>2026-04-25T09:20:17Z</time></trkpt><trkpt lat="45.29164501795605" lon="7.8191074964096545"><ele>250.8</ele><time>2026-04-25T09:20:18Z</time></trkpt><trkpt lat="45.29178748238886" lon="7.8190501181518295"><ele>251.0</ele><time>2026-04-25T09:20:19Z</time></trkpt><trkpt lat="45.29195364355302" lon="7.819009355031678"><ele>251.0</ele><time>2026-04-25T09:20:20Z</time></trkpt><trkpt lat="45.292130425512035" lon="7.8189584003087145"><ele>251.0</ele><time>2026-04-25T09:20:21Z</time></trkpt><trkpt lat="45.29229819378103" lon="7.818903534879282"><ele>251.0</ele><time>2026-04-25T09:20:22Z</time></trkpt><trkpt lat="45.292442664567346" lon="7.8188466064706645"><ele>252.66666666666669</ele><time>2026-04-25T09:20:23Z</time></trkpt><trkpt lat="45.29260015288275" lon="7.818790991380457"><ele>254.33333333333331</ele><time>2026-04-25T09:20:24Z</time></trkpt><trkpt lat="45.292763337354636" lon="7.818729434555301"><ele>256.0</ele><time>2026-04-25T09:20:25Z</time></trkpt><trkpt lat="45.29292936500982" lon="7.818671566360082"><ele>257.66666666666663</ele><time>2026-04-25T09:20:26Z</time></trkpt><trkpt lat="45.293090594805626" lon="7.8186197353637175"><ele>259.3333333333333</ele><time>2026-04-25T09:20:27Z</time></trkpt><trkpt lat="45.29324615764827" lon="7.818555143848075"><ele>261.0</ele><time>2026-04-25T09:20:28Z</time></trkpt><trkpt lat="45.29339976295522" lon="7.8184764137377964"><ele>256.0</ele><time>2026-04-25T09:20:29Z</time></trkpt><trkpt lat="45.29355123914644" lon="7.818400506600268"><ele>251.0</ele><time>2026-04-25T09:20:30Z</time></trkpt><trkpt lat="45.293700916600876" lon="7.818325000246378"><ele>246.0</ele><time>2026-04-25T09:20:31Z</time></trkpt><trkpt lat="45.29384999841528" lon="7.818267148941375"><ele>248.33333333333331</ele><time>2026-04-25T09:20:32Z</time></trkpt><trkpt lat="45.294002217330515" lon="7.8182235944696306"><ele>250.66666666666666</ele><time>2026-04-25T09:20:33Z</time></trkpt><trkpt lat="45.294148572439234" lon="7.818191870526334"><ele>253.0</ele><time>2026-04-25T09:20:34Z</time></trkpt><trkpt lat="45.29429385851133" lon="7.818144928660065"><ele>253.0</ele><time>2026-04-25T09:20:35Z</time></trkpt><trkpt lat="45.29444191460329" lon="7.818092478543427"><ele>253.0</ele><time>2026-04-25T09:20:36Z</time></trkpt><trkpt lat="45.29457495702287" lon="7.818042100642548"><ele>253.0</ele><time>2026-04-25T09:20:37Z</time></trkpt><trkpt lat="45.294705046970414" lon="7.817991635588131"><ele>253.0</ele><time>2026-04-25T09:20:38Z</time></trkpt><trkpt lat="45.29484531593525" lon="7.817930978676088"><ele>256.3333333333333</ele><time>2026-04-25T09:20:39Z</time></trkpt><trkpt lat="45.29499860653747" lon="7.817875207533826"><ele>259.6666666666667</ele><time>2026-04-25T09:20:40Z</time></trkpt><trkpt lat="45.29514306489254" lon="7.817811093421298"><ele>263.0</ele><time>2026-04-25T09:20:41Z</time></trkpt><trkpt lat="45.295279379426596" lon="7.817764057156733"><ele>263.0</ele><time>2026-04-25T09:20:42Z</time></trkpt><trkpt lat="45.29542692803041" lon="7.817724965541475"><ele>263.0</ele><time>2026-04-25T09:20:43Z</time></trkpt><trkpt lat="45.29558006910154" lon="7.817683770810123"><ele>263.0</ele><time>2026-04-25T09:20:44Z</time></trkpt><trkpt lat="45.29573372536943" lon="7.817620782999949"><ele>260.75</ele><time>2026-04-25T09:20:45Z</time></trkpt><trkpt lat="45.29587179321468" lon="7.817575967834478"><ele>258.5</ele><time>2026-04-25T09:20:46Z</time></trkpt><trkpt lat="45.295992824415755" lon="7.817534434488532"><ele>256.25</ele><time>2026-04-25T09:20:47Z</time></trkpt><trkpt lat="45.29610693291553" lon="7.817522896566475"><ele>254.0</ele><time>2026-04-25T09:20:48Z</time></trkpt><trkpt lat="45.29622669017551" lon="7.817525716589029"><ele>254.0</ele><time>2026-04-25T09:20:49Z</time></trkpt><trkpt lat="45.29635536904637" lon="7.817571136277755"><ele>254.0</ele><time>2026-04-25T09:20:50Z</time></trkpt><trkpt lat="45.29648223481239" lon="7.817645418074993"><ele>254.0</ele><time>2026-04-25T09:20:51Z</time></trkpt><trkpt lat="45.29660658760685" lon="7.8177564429825575"><ele>254.0</ele><time>2026-04-25T09:20:52Z</time></trkpt><trkpt lat="45.29674819547769" lon="7.817899793472002"><ele>256.6666666666667</ele><time>2026-04-25T09:20:53Z</time></trkpt><trkpt lat="45.29689374139451" lon="7.818075259006832"><ele>259.3333333333333</ele><time>2026-04-25T09:20:54Z</time></trkpt><trkpt lat="45.29700603272917" lon="7.818216587837353"><ele>262.0</ele><time>2026-04-25T09:20:55Z</time></trkpt><trkpt lat="45.29712146378348" lon="7.818303031155848"><ele>259.3333333333333</ele><time>2026-04-25T09:20:56Z</time></trkpt><trkpt lat="45.29725895534616" lon="7.818347236561495"><ele>256.6666666666667</ele><time>2026-04-25T09:20:57Z</time></trkpt><trkpt lat="45.29743539286617" lon="7.818352807267268"><ele>254.0</ele><time>2026-04-25T09:20:58Z</time></trkpt><trkpt lat="45.297599232700115" lon="7.818367753032714"><ele>254.0</ele><time>2026-04-25T09:20:59Z</time></trkpt><trkpt lat="45.297721553601846" lon="7.818384435215315"><ele>253.99999999999997</ele><time>2026-04-25T09:21:00Z</time></trkpt><trkpt lat="45.29780535558102" lon="7.818399740960052"><ele>253.99999999999997</ele><time>2026-04-25T09:21:01Z</time></trkpt><trkpt lat="45.29788280305301" lon="7.818362930799004"><ele>254.0</ele><time>2026-04-25T09:21:03Z</time></trkpt><trkpt lat="45.297928920174925" lon="7.818270586220664"><ele>254.0</ele><time>2026-04-25T09:21:04Z</time></trkpt><trkpt lat="45.29797540335362" lon="7.818109985960891"><ele>254.0</ele><time>2026-04-25T09:21:05Z</time></trkpt><trkpt lat="45.298039710536095" lon="7.817931328892445"><ele>254.0</ele><time>2026-04-25T09:21:06Z</time></trkpt><trkpt lat="45.29808746434972" lon="7.817765805101143"><ele>254.0</ele><time>2026-04-25T09:21:07Z</time></trkpt><trkpt lat="45.29811212501588" lon="7.8176358029352215"><ele>254.0</ele><time>2026-04-25T09:21:08Z</time></trkpt><trkpt lat="45.29816684559932" lon="7.817521267555694"><ele>254.0</ele><time>2026-04-25T09:21:09Z</time></trkpt><trkpt lat="45.29821903282359" lon="7.817412412837563"><ele>253.99999999999997</ele><time>2026-04-25T09:21:10Z</time></trkpt><trkpt lat="45.29828891531574" lon="7.817336657321037"><ele>253.99999999999997</ele><time>2026-04-25T09:21:11Z</time></trkpt><trkpt lat="45.298379926832965" lon="7.8173013921320145"><ele>254.0</ele><time>2026-04-25T09:21:12Z</time></trkpt><trkpt lat="45.29848448916969" lon="7.817265211884919"><ele>254.0</ele><time>2026-04-25T09:21:13Z</time></trkpt><trkpt lat="45.29860895151883" lon="7.817252268893963"><ele>254.0</ele><time>2026-04-25T09:21:14Z</time></trkpt><trkpt lat="45.29873742312165" lon="7.81721877611958"><ele>254.0</ele><time>2026-04-25T09:21:15Z</time></trkpt><trkpt lat="45.298870257402335" lon="7.817217426241825"><ele>254.0</ele><time>2026-04-25T09:21:16Z</time></trkpt><trkpt lat="45.29899370391021" lon="7.817200206347302"><ele>254.0</ele><time>2026-04-25T09:21:17Z</time></trkpt><trkpt lat="45.29914260338902" lon="7.817192400143774"><ele>255.25</ele><time>2026-04-25T09:21:18Z</time></trkpt><trkpt lat="45.29929817582618" lon="7.817183849436863"><ele>256.5</ele><time>2026-04-25T09:21:18.999Z</time></trkpt><trkpt lat="45.299440939468944" lon="7.817163443956532"><ele>257.75</ele><time>2026-04-25T09:21:19.999Z</time></trkpt><trkpt lat="45.29956709200855" lon="7.817136071240246"><ele>259.0</ele><time>2026-04-25T09:21:20.999Z</time></trkpt><trkpt lat="45.29967467673391" lon="7.817099981203529"><ele>259.2</ele><time>2026-04-25T09:21:21.999Z</time></trkpt><trkpt lat="45.29975548079628" lon="7.817064423400323"><ele>259.4</ele><time>2026-04-25T09:21:22.999Z</time></trkpt><trkpt lat="45.29981765497037" lon="7.817007330170813"><ele>259.6</ele><time>2026-04-25T09:21:24.999Z</time></trkpt><trkpt lat="45.29986639383127" lon="7.817158735510644"><ele>259.8</ele><time>2026-04-25T09:21:27.999Z</time></trkpt><trkpt lat="45.299962225530294" lon="7.817275214081157"><ele>260.0</ele><time>2026-04-25T09:21:29.999Z</time></trkpt><trkpt lat="45.30004364969161" lon="7.817325970366958"><ele>260.0</ele><time>2026-04-25T09:21:30.999Z</time></trkpt><trkpt lat="45.3001335923439" lon="7.817406615753129"><ele>260.0</ele><time>2026-04-25T09:21:31.999Z</time></trkpt><trkpt lat="45.30021447516625" lon="7.8175124069827415"><ele>260.0</ele><time>2026-04-25T09:21:32.999Z</time></trkpt><trkpt lat="45.30032404020486" lon="7.817588130908325"><ele>260.0</ele><time>2026-04-25T09:21:33.999Z</time></trkpt><trkpt lat="45.30046369328439" lon="7.817662211029024"><ele>261.4</ele><time>2026-04-25T09:21:34.999Z</time></trkpt><trkpt lat="45.300583247846426" lon="7.817740345329901"><ele>262.8</ele><time>2026-04-25T09:21:35.999Z</time></trkpt><trkpt lat="45.30066357651166" lon="7.817804820436025"><ele>264.2</ele><time>2026-04-25T09:21:36.999Z</time></trkpt><trkpt lat="45.300724712404644" lon="7.81785665817752"><ele>265.6</ele><time>2026-04-25T09:21:38.999Z</time></trkpt><trkpt lat="45.30081515857585" lon="7.817914392036882"><ele>267.0</ele><time>2026-04-25T09:21:41.999Z</time></trkpt><trkpt lat="45.30088595011224" lon="7.817896947019315"><ele>267.0</ele><time>2026-04-25T09:21:43.999Z</time></trkpt><trkpt lat="45.30095250778908" lon="7.817898722998003"><ele>267.0</ele><time>2026-04-25T09:21:47.999Z</time></trkpt><trkpt lat="45.301033420352354" lon="7.817993483930428"><ele>267.0</ele><time>2026-04-25T09:21:52.999Z</time></trkpt><trkpt lat="45.30112068142859" lon="7.818008149618297"><ele>267.0</ele><time>2026-04-25T09:21:54.999Z</time></trkpt><trkpt lat="45.30119137613903" lon="7.8180019222782295"><ele>267.0</ele><time>2026-04-25T09:21:55.999Z</time></trkpt><trkpt lat="45.30126557484769" lon="7.818027820467324"><ele>267.0</ele><time>2026-04-25T09:21:57.999Z</time></trkpt><trkpt lat="45.30137790904525" lon="7.818073369839649"><ele>266.8</ele><time>2026-04-25T09:21:59.999Z</time></trkpt><trkpt lat="45.30149524473935" lon="7.818089663803082"><ele>266.6</ele><time>2026-04-25T09:22:01.999Z</time></trkpt><trkpt lat="45.30155171166562" lon="7.818143144450276"><ele>266.40000000000003</ele><time>2026-04-25T09:22:02.999Z</time></trkpt><trkpt lat="45.3016137539925" lon="7.818209255896762"><ele>266.2</ele><time>2026-04-25T09:22:03.999Z</time></trkpt><trkpt lat="45.30169625094568" lon="7.8182428582786425"><ele>266.0</ele><time>2026-04-25T09:22:04.999Z</time></trkpt><trkpt lat="45.301792731118745" lon="7.818286860205211"><ele>266.0</ele><time>2026-04-25T09:22:05.999Z</time></trkpt><trkpt lat="45.30188318428115" lon="7.818314773470606"><ele>266.0</ele><time>2026-04-25T09:22:06.999Z</time></trkpt><trkpt lat="45.30197980355779" lon="7.818335418895652"><ele>266.0</ele><time>2026-04-25T09:22:07.999Z</time></trkpt><trkpt lat="45.302075786141614" lon="7.818387241969103"><ele>266.0</ele><time>2026-04-25T09:22:08.999Z</time></trkpt><trkpt lat="45.30215038363316" lon="7.818437595451573"><ele>266.0</ele><time>2026-04-25T09:22:09.999Z</time></trkpt><trkpt lat="45.30222618489722" lon="7.818491935887828"><ele>266.83333333333337</ele><time>2026-04-25T09:22:10.999Z</time></trkpt><trkpt lat="45.3023130819114" lon="7.818535532539898"><ele>267.6666666666667</ele><time>2026-04-25T09:22:11.999Z</time></trkpt><trkpt lat="45.302394591682294" lon="7.818576371557406"><ele>268.5</ele><time>2026-04-25T09:22:12.999Z</time></trkpt><trkpt lat="45.302469584024465" lon="7.818656620277436"><ele>269.3333333333333</ele><time>2026-04-25T09:22:13.999Z</time></trkpt><trkpt lat="45.30253509411212" lon="7.81873531166665"><ele>270.16666666666663</ele><time>2026-04-25T09:22:14.999Z</time></trkpt><trkpt lat="45.302611838186365" lon="7.81869470303113"><ele>271.0</ele><time>2026-04-25T09:22:15.999Z</time></trkpt><trkpt lat="45.30270688653883" lon="7.8186913074927515"><ele>271.0</ele><time>2026-04-25T09:22:16.999Z</time></trkpt><trkpt lat="45.302782125962985" lon="7.818668502514401"><ele>271.0</ele><time>2026-04-25T09:22:17.999Z</time></trkpt><trkpt lat="45.302872004862536" lon="7.818641132549525"><ele>271.0</ele><time>2026-04-25T09:22:18.999Z</time></trkpt><trkpt lat="45.302984772039736" lon="7.818754891386684"><ele>271.0</ele><time>2026-04-25T09:22:21Z</time></trkpt><trkpt lat="45.303031496685335" lon="7.818846900115344"><ele>271.0</ele><time>2026-04-25T09:22:22Z</time></trkpt><trkpt lat="45.30308858301342" lon="7.8189124341976015"><ele>271.2</ele><time>2026-04-25T09:22:28Z</time></trkpt><trkpt lat="45.303152500168004" lon="7.81899687717177"><ele>271.40000000000003</ele><time>2026-04-25T09:22:30Z</time></trkpt><trkpt lat="45.30323091176713" lon="7.819053001807753"><ele>271.6</ele><time>2026-04-25T09:22:32Z</time></trkpt><trkpt lat="45.303379340393974" lon="7.8190026233546694"><ele>271.8</ele><time>2026-04-25T09:22:34Z</time></trkpt><trkpt lat="45.303463875724226" lon="7.818992508031276"><ele>272.0</ele><time>2026-04-25T09:22:35Z</time></trkpt><trkpt lat="45.303525987809884" lon="7.819023310788585"><ele>272.0</ele><time>2026-04-25T09:22:36Z</time></trkpt><trkpt lat="45.30365269606204" lon="7.819144911716422"><ele>272.0</ele><time>2026-04-25T09:22:38Z</time></trkpt><trkpt lat="45.30376609251603" lon="7.819191203656267"><ele>272.0</ele><time>2026-04-25T09:22:40Z</time></trkpt><trkpt lat="45.30383783415666" lon="7.819192828594913"><ele>272.0</ele><time>2026-04-25T09:22:41Z</time></trkpt><trkpt lat="45.30371677675355" lon="7.819008283416575"><ele>272.0</ele><time>2026-04-25T09:22:57Z</time></trkpt><trkpt lat="45.30362826530608" lon="7.81887025122465"><ele>272.0</ele><time>2026-04-25T09:22:59Z</time></trkpt><trkpt lat="45.30363779824777" lon="7.818734472367054"><ele>272.0</ele><time>2026-04-25T09:23:01Z</time></trkpt><trkpt lat="45.30368426420258" lon="7.818664563788441"><ele>272.0</ele><time>2026-04-25T09:23:02Z</time></trkpt><trkpt lat="45.30373834358056" lon="7.8185946144594425"><ele>272.0</ele><time>2026-04-25T09:23:03Z</time></trkpt><trkpt lat="45.30380421396302" lon="7.818494461285339"><ele>272.5</ele><time>2026-04-25T09:23:04Z</time></trkpt><trkpt lat="45.30385336474847" lon="7.818374192687162"><ele>273.0</ele><time>2026-04-25T09:23:05Z</time></trkpt><trkpt lat="45.303908781795656" lon="7.81827176769871"><ele>273.5</ele><time>2026-04-25T09:23:06Z</time></trkpt><trkpt lat="45.3039483019045" lon="7.818177274169956"><ele>274.0</ele><time>2026-04-25T09:23:07Z</time></trkpt><trkpt lat="45.30396214906157" lon="7.8180826666707635"><ele>274.5</ele><time>2026-04-25T09:23:08Z</time></trkpt><trkpt lat="45.30396303699199" lon="7.817979333533916"><ele>275.0</ele><time>2026-04-25T09:23:09Z</time></trkpt><trkpt lat="45.30397918483964" lon="7.817856848260278"><ele>275.0</ele><time>2026-04-25T09:23:10Z</time></trkpt><trkpt lat="45.3040068759632" lon="7.817770325173082"><ele>275.0</ele><time>2026-04-25T09:23:11Z</time></trkpt><trkpt lat="45.30422738379758" lon="7.817703283269698"><ele>275.0</ele><time>2026-04-25T09:23:16Z</time></trkpt><trkpt lat="45.30432476704071" lon="7.8177283484801965"><ele>275.0</ele><time>2026-04-25T09:23:17Z</time></trkpt><trkpt lat="45.30439475810365" lon="7.817746022834379"><ele>275.0</ele><time>2026-04-25T09:23:18Z</time></trkpt><trkpt lat="45.30449125304251" lon="7.817770103820285"><ele>275.0</ele><time>2026-04-25T09:23:20Z</time></trkpt><trkpt lat="45.304579177912004" lon="7.817792046049714"><ele>275.0</ele><time>2026-04-25T09:23:22Z</time></trkpt><trkpt lat="45.304713331579414" lon="7.817825525029549"><ele>275.0</ele><time>2026-04-25T09:23:24Z</time></trkpt><trkpt lat="45.3047975066179" lon="7.8178465314949035"><ele>275.0</ele><time>2026-04-25T09:23:25Z</time></trkpt><trkpt lat="45.304890267680406" lon="7.817869680669332"><ele>274.8</ele><time>2026-04-25T09:23:26Z</time></trkpt><trkpt lat="45.3049809433012" lon="7.817892752667407"><ele>274.6</ele><time>2026-04-25T09:23:27Z</time></trkpt><trkpt lat="45.305076982618054" lon="7.817917370484535"><ele>274.4</ele><time>2026-04-25T09:23:28Z</time></trkpt><trkpt lat="45.3051687117986" lon="7.81794088346706"><ele>274.2</ele><time>2026-04-25T09:23:29Z</time></trkpt><trkpt lat="45.30525597392479" lon="7.817963251414198"><ele>274.0</ele><time>2026-04-25T09:23:30Z</time></trkpt><trkpt lat="45.30535877830011" lon="7.8179896033407905"><ele>274.0</ele><time>2026-04-25T09:23:31Z</time></trkpt><trkpt lat="45.30546484626128" lon="7.8180167917516075"><ele>274.0</ele><time>2026-04-25T09:23:32Z</time></trkpt><trkpt lat="45.30557023512117" lon="7.818043806165557"><ele>274.0</ele><time>2026-04-25T09:23:33Z</time></trkpt><trkpt lat="45.30568023199575" lon="7.81807200165065"><ele>274.0</ele><time>2026-04-25T09:23:34Z</time></trkpt><trkpt lat="45.30579203887094" lon="7.81810027115251"><ele>274.0</ele><time>2026-04-25T09:23:35Z</time></trkpt><trkpt lat="45.30590823886637" lon="7.818130206041968"><ele>273.75</ele><time>2026-04-25T09:23:36Z</time></trkpt><trkpt lat="45.3060305252414" lon="7.818161708863056"><ele>273.5</ele><time>2026-04-25T09:23:37Z</time></trkpt><trkpt lat="45.30615170519563" lon="7.818192926688982"><ele>273.25</ele><time>2026-04-25T09:23:38Z</time></trkpt><trkpt lat="45.306276900219295" lon="7.818225178849172"><ele>273.0</ele><time>2026-04-25T09:23:39Z</time></trkpt><trkpt lat="45.30640914898799" lon="7.8182592561078845"><ele>273.0</ele><time>2026-04-25T09:23:39.999Z</time></trkpt><trkpt lat="45.306542107027" lon="7.818293508125025"><ele>273.0</ele><time>2026-04-25T09:23:40.999Z</time></trkpt><trkpt lat="45.30667609071481" lon="7.818328024364679"><ele>273.0</ele><time>2026-04-25T09:23:41.999Z</time></trkpt><trkpt lat="45.30681540055121" lon="7.818363912706267"><ele>273.0</ele><time>2026-04-25T09:23:42.999Z</time></trkpt><trkpt lat="45.30695297289016" lon="7.818399353492239"><ele>273.0</ele><time>2026-04-25T09:23:43.999Z</time></trkpt><trkpt lat="45.307093562027326" lon="7.818435571337065"><ele>273.0</ele><time>2026-04-25T09:23:44.999Z</time></trkpt><trkpt lat="45.30724085868711" lon="7.818473517192622"><ele>273.0</ele><time>2026-04-25T09:23:45.999Z</time></trkpt><trkpt lat="45.30739183114084" lon="7.818512303985545"><ele>273.0</ele><time>2026-04-25T09:23:46.999Z</time></trkpt><trkpt lat="45.30754370398743" lon="7.818550864917325"><ele>273.6666666666667</ele><time>2026-04-25T09:23:47.999Z</time></trkpt><trkpt lat="45.30769811463261" lon="7.81859007018265"><ele>274.33333333333337</ele><time>2026-04-25T09:23:48.999Z</time></trkpt><trkpt lat="45.307845672904776" lon="7.818627535603961"><ele>275.0</ele><time>2026-04-25T09:23:49.999Z</time></trkpt><trkpt lat="45.307990800763115" lon="7.818664383962546"><ele>275.0</ele><time>2026-04-25T09:23:50.999Z</time></trkpt><trkpt lat="45.308147078833535" lon="7.818704063368659"><ele>275.0</ele><time>2026-04-25T09:23:51.999Z</time></trkpt><trkpt lat="45.308336668982676" lon="7.818752200756555"><ele>275.0</ele><time>2026-04-25T09:23:52.999Z</time></trkpt><trkpt lat="45.30854352392304" lon="7.8188047217840175"><ele>275.0</ele><time>2026-04-25T09:23:53.999Z</time></trkpt><trkpt lat="45.30875496239785" lon="7.818858406515841"><ele>275.0</ele><time>2026-04-25T09:23:54.999Z</time></trkpt><trkpt lat="45.308957250946015" lon="7.8189097681220625"><ele>275.0</ele><time>2026-04-25T09:23:55.999Z</time></trkpt><trkpt lat="45.30916315214846" lon="7.818962502728187"><ele>276.0</ele><time>2026-04-25T09:23:56.999Z</time></trkpt><trkpt lat="45.30936642840802" lon="7.8190152296746"><ele>277.0</ele><time>2026-04-25T09:23:57.999Z</time></trkpt><trkpt lat="45.30956678918287" lon="7.819067200408041"><ele>278.0</ele><time>2026-04-25T09:23:58.999Z</time></trkpt><trkpt lat="45.30977123918417" lon="7.819120231777457"><ele>278.33333333333337</ele><time>2026-04-25T09:23:59.999Z</time></trkpt><trkpt lat="45.30998146680294" lon="7.819174761806411"><ele>278.6666666666667</ele><time>2026-04-25T09:24:00.999Z</time></trkpt><trkpt lat="45.31020770959709" lon="7.819233445887744"><ele>279.0</ele><time>2026-04-25T09:24:01.999Z</time></trkpt><trkpt lat="45.31043698989343" lon="7.8192929178430415"><ele>279.0</ele><time>2026-04-25T09:24:02.999Z</time></trkpt><trkpt lat="45.31066487701175" lon="7.819352028629445"><ele>279.0</ele><time>2026-04-25T09:24:03.999Z</time></trkpt><trkpt lat="45.31087138478184" lon="7.819405593864962"><ele>279.0</ele><time>2026-04-25T09:24:04.999Z</time></trkpt><trkpt lat="45.31108518537197" lon="7.819460932956499"><ele>279.0</ele><time>2026-04-25T09:24:05.999Z</time></trkpt><trkpt lat="45.3113036537104" lon="7.81951724885545"><ele>279.0</ele><time>2026-04-25T09:24:06.999Z</time></trkpt><trkpt lat="45.31153118265325" lon="7.819575892120931"><ele>279.0</ele><time>2026-04-25T09:24:07.999Z</time></trkpt><trkpt lat="45.31175343288995" lon="7.819633174853256"><ele>279.0</ele><time>2026-04-25T09:24:08.999Z</time></trkpt><trkpt lat="45.31196830168851" lon="7.819688555070757"><ele>279.0</ele><time>2026-04-25T09:24:09.999Z</time></trkpt><trkpt lat="45.31217023370161" lon="7.8197406009755275"><ele>279.0</ele><time>2026-04-25T09:24:10.999Z</time></trkpt><trkpt lat="45.312366903028085" lon="7.819791290489044"><ele>279.0</ele><time>2026-04-25T09:24:11.999Z</time></trkpt><trkpt lat="45.31254245661966" lon="7.8198365376369905"><ele>279.0</ele><time>2026-04-25T09:24:12.999Z</time></trkpt><trkpt lat="45.312717275176425" lon="7.819881595308278"><ele>279.0</ele><time>2026-04-25T09:24:13.999Z</time></trkpt><trkpt lat="45.31287876341133" lon="7.819923217252303"><ele>279.0</ele><time>2026-04-25T09:24:14.999Z</time></trkpt><trkpt lat="45.31305089525856" lon="7.81996758250678"><ele>279.0</ele><time>2026-04-25T09:24:15.999Z</time></trkpt><trkpt lat="45.31322358163659" lon="7.820012090626409"><ele>279.8</ele><time>2026-04-25T09:24:16.999Z</time></trkpt><trkpt lat="45.31335485604483" lon="7.820045925295159"><ele>280.59999999999997</ele><time>2026-04-25T09:24:17.999Z</time></trkpt><trkpt lat="45.313464014779065" lon="7.820074059822591"><ele>281.4</ele><time>2026-04-25T09:24:18.999Z</time></trkpt><trkpt lat="45.313550413099875" lon="7.820096156033412"><ele>282.2</ele><time>2026-04-25T09:24:19.999Z</time></trkpt><trkpt lat="45.313618410197314" lon="7.820113329264845"><ele>283.0</ele><time>2026-04-25T09:24:21.999Z</time></trkpt><trkpt lat="45.313548082672526" lon="7.820545750323415"><ele>283.0</ele><time>2026-04-25T09:24:23.999Z</time></trkpt><trkpt lat="45.31349348588831" lon="7.82072140606783"><ele>283.0</ele><time>2026-04-25T09:24:24.999Z</time></trkpt><trkpt lat="45.31344823818328" lon="7.820919530917301"><ele>283.0</ele><time>2026-04-25T09:24:26.001Z</time></trkpt><trkpt lat="45.31340178833108" lon="7.821119673658917"><ele>283.0</ele><time>2026-04-25T09:24:27.001Z</time></trkpt><trkpt lat="45.31335074884805" lon="7.821337731958355"><ele>282.5</ele><time>2026-04-25T09:24:28.001Z</time></trkpt><trkpt lat="45.31329872115708" lon="7.8215685401997685"><ele>282.0</ele><time>2026-04-25T09:24:29.001Z</time></trkpt><trkpt lat="45.313260029239686" lon="7.821755649085079"><ele>281.5</ele><time>2026-04-25T09:24:30.001Z</time></trkpt><trkpt lat="45.31326311583801" lon="7.821913525122388"><ele>281.0</ele><time>2026-04-25T09:24:31.001Z</time></trkpt><trkpt lat="45.313233624156695" lon="7.822018390980199"><ele>281.0</ele><time>2026-04-25T09:24:32.001Z</time></trkpt><trkpt lat="45.31319543818157" lon="7.822133109033098"><ele>281.0</ele><time>2026-04-25T09:24:34.001Z</time></trkpt><trkpt lat="45.313179176387784" lon="7.822246330563126"><ele>281.0</ele><time>2026-04-25T09:24:36.001Z</time></trkpt><trkpt lat="45.31314428231426" lon="7.8223991404887725"><ele>281.0</ele><time>2026-04-25T09:24:38.001Z</time></trkpt><trkpt lat="45.31311440713633" lon="7.82252981198112"><ele>281.0</ele><time>2026-04-25T09:24:40.001Z</time></trkpt><trkpt lat="45.313089901322726" lon="7.822635148773028"><ele>280.8571428571429</ele><time>2026-04-25T09:24:42Z</time></trkpt><trkpt lat="45.31307824816825" lon="7.822735145605697"><ele>280.7142857142857</ele><time>2026-04-25T09:24:44Z</time></trkpt><trkpt lat="45.31306906499755" lon="7.822841688290518"><ele>280.57142857142856</ele><time>2026-04-25T09:24:46Z</time></trkpt><trkpt lat="45.313050915185926" lon="7.822942959363336"><ele>280.42857142857144</ele><time>2026-04-25T09:24:48Z</time></trkpt><trkpt lat="45.31302924789619" lon="7.823045191778395"><ele>280.2857142857143</ele><time>2026-04-25T09:24:50Z</time></trkpt><trkpt lat="45.31298721086598" lon="7.823128648728226"><ele>280.14285714285717</ele><time>2026-04-25T09:24:52Z</time></trkpt><trkpt lat="45.312979874929994" lon="7.823237707020647"><ele>280.0</ele><time>2026-04-25T09:24:54Z</time></trkpt><trkpt lat="45.3129609989195" lon="7.8234225570155305"><ele>280.0</ele><time>2026-04-25T09:24:56Z</time></trkpt><trkpt lat="45.31294362249211" lon="7.82354471661879"><ele>280.0</ele><time>2026-04-25T09:24:57Z</time></trkpt><trkpt lat="45.3129217242811" lon="7.823670865505958"><ele>280.0</ele><time>2026-04-25T09:24:58Z</time></trkpt><trkpt lat="45.31289164856874" lon="7.823805911618849"><ele>280.0</ele><time>2026-04-25T09:24:59Z</time></trkpt><trkpt lat="45.312863004217135" lon="7.82395178446479"><ele>280.0</ele><time>2026-04-25T09:25:00Z</time></trkpt><trkpt lat="45.31284091039839" lon="7.824102878436532"><ele>280.0</ele><time>2026-04-25T09:25:01Z</time></trkpt><trkpt lat="45.31281742159148" lon="7.824267619427308"><ele>280.0</ele><time>2026-04-25T09:25:02Z</time></trkpt><trkpt lat="45.312790581919906" lon="7.824420905860424"><ele>280.0</ele><time>2026-04-25T09:25:03Z</time></trkpt><trkpt lat="45.31276376653936" lon="7.824558817279951"><ele>280.0</ele><time>2026-04-25T09:25:04Z</time></trkpt><trkpt lat="45.312736872759956" lon="7.824686435174945"><ele>280.0</ele><time>2026-04-25T09:25:05Z</time></trkpt><trkpt lat="45.31271315448538" lon="7.824807184363646"><ele>280.0</ele><time>2026-04-25T09:25:06Z</time></trkpt><trkpt lat="45.31269151640486" lon="7.824914045485469"><ele>280.0</ele><time>2026-04-25T09:25:07Z</time></trkpt><trkpt lat="45.31266018653323" lon="7.825026253023153"><ele>280.0</ele><time>2026-04-25T09:25:20Z</time></trkpt><trkpt lat="45.312633344325775" lon="7.825164265549578"><ele>280.0</ele><time>2026-04-25T09:25:22Z</time></trkpt><trkpt lat="45.3126213187271" lon="7.825261975138098"><ele>280.0</ele><time>2026-04-25T09:25:24Z</time></trkpt><trkpt lat="45.31260309490916" lon="7.825358160578236"><ele>280.0</ele><time>2026-04-25T09:25:26Z</time></trkpt><trkpt lat="45.3125755455146" lon="7.825519203148016"><ele>280.5</ele><time>2026-04-25T09:25:28Z</time></trkpt><trkpt lat="45.31255647489431" lon="7.825636507429484"><ele>281.0</ele><time>2026-04-25T09:25:29Z</time></trkpt><trkpt lat="45.31253537866545" lon="7.825758402021671"><ele>281.5</ele><time>2026-04-25T09:25:30Z</time></trkpt><trkpt lat="45.312511356512516" lon="7.825850678525294"><ele>282.0</ele><time>2026-04-25T09:25:31Z</time></trkpt><trkpt lat="45.31249107793773" lon="7.825966460117912"><ele>282.5</ele><time>2026-04-25T09:25:33Z</time></trkpt><trkpt lat="45.31250328646649" lon="7.825867836682631"><ele>283.0</ele><time>2026-04-25T09:25:37Z</time></trkpt><trkpt lat="45.312527807542786" lon="7.825755518997444"><ele>283.0</ele><time>2026-04-25T09:25:38Z</time></trkpt><trkpt lat="45.312551300929655" lon="7.825617742920419"><ele>283.0</ele><time>2026-04-25T09:25:39Z</time></trkpt><trkpt lat="45.3125746193698" lon="7.825474995023889"><ele>283.0</ele><time>2026-04-25T09:25:40Z</time></trkpt><trkpt lat="45.31259747492739" lon="7.825324441186205"><ele>283.0</ele><time>2026-04-25T09:25:41Z</time></trkpt><trkpt lat="45.3126203543805" lon="7.825198200639121"><ele>283.0</ele><time>2026-04-25T09:25:42Z</time></trkpt><trkpt lat="45.31264079838991" lon="7.82509494544895"><ele>283.0</ele><time>2026-04-25T09:25:43Z</time></trkpt><trkpt lat="45.312661974993595" lon="7.824989746198915"><ele>283.0</ele><time>2026-04-25T09:25:44.999Z</time></trkpt><trkpt lat="45.312859240694" lon="7.8251039028231775"><ele>283.0</ele><time>2026-04-25T09:26:17.999Z</time></trkpt><trkpt lat="45.31296350263742" lon="7.825165108404744"><ele>283.0</ele><time>2026-04-25T09:26:18.999Z</time></trkpt><trkpt lat="45.31308964939893" lon="7.825232536483467"><ele>283.0</ele><time>2026-04-25T09:26:19.999Z</time></trkpt><trkpt lat="45.313222775823526" lon="7.825291047147233"><ele>283.0</ele><time>2026-04-25T09:26:20.999Z</time></trkpt><trkpt lat="45.313337505192294" lon="7.825333943173978"><ele>283.0</ele><time>2026-04-25T09:26:21.999Z</time></trkpt><trkpt lat="45.31342333137368" lon="7.825384656802562"><ele>283.0</ele><time>2026-04-25T09:26:22.999Z</time></trkpt><trkpt lat="45.313500628563524" lon="7.825458834726011"><ele>283.0</ele><time>2026-04-25T09:26:24.999Z</time></trkpt><trkpt lat="45.313474783652" lon="7.825627379609608"><ele>283.0</ele><time>2026-04-25T09:26:26.999Z</time></trkpt><trkpt lat="45.31343894857719" lon="7.825765222729683"><ele>283.0</ele><time>2026-04-25T09:26:27.999Z</time></trkpt><trkpt lat="45.313407484222" lon="7.825913447010908"><ele>283.0</ele><time>2026-04-25T09:26:28.999Z</time></trkpt><trkpt lat="45.31337672477499" lon="7.826095452776691"><ele>283.0</ele><time>2026-04-25T09:26:29.999Z</time></trkpt><trkpt lat="45.313351840532384" lon="7.826231467607427"><ele>283.0</ele><time>2026-04-25T09:26:30.999Z</time></trkpt><trkpt lat="45.313419419871884" lon="7.826329310353951"><ele>283.25</ele><time>2026-04-25T09:26:39.001Z</time></trkpt><trkpt lat="45.313556837929" lon="7.8264026891128875"><ele>283.5</ele><time>2026-04-25T09:26:41.001Z</time></trkpt><trkpt lat="45.31367396520927" lon="7.8264587237696635"><ele>283.75</ele><time>2026-04-25T09:26:42.001Z</time></trkpt><trkpt lat="45.31380181953889" lon="7.826520529366934"><ele>284.0</ele><time>2026-04-25T09:26:43.001Z</time></trkpt><trkpt lat="45.313923596876606" lon="7.82657991895514"><ele>284.0</ele><time>2026-04-25T09:26:44.001Z</time></trkpt><trkpt lat="45.314040225817564" lon="7.826623393429408"><ele>284.0</ele><time>2026-04-25T09:26:45.001Z</time></trkpt><trkpt lat="45.31415121766318" lon="7.826648946220849"><ele>284.0</ele><time>2026-04-25T09:26:46.001Z</time></trkpt><trkpt lat="45.314280028745294" lon="7.826662049339911"><ele>284.0</ele><time>2026-04-25T09:26:47.001Z</time></trkpt><trkpt lat="45.3144187823322" lon="7.826679835514814"><ele>284.0</ele><time>2026-04-25T09:26:48Z</time></trkpt><trkpt lat="45.31456579701528" lon="7.826708000516945"><ele>284.0</ele><time>2026-04-25T09:26:49Z</time></trkpt><trkpt lat="45.314712868424685" lon="7.826730114945045"><ele>284.0</ele><time>2026-04-25T09:26:50Z</time></trkpt><trkpt lat="45.314858946154665" lon="7.826753520370922"><ele>284.0</ele><time>2026-04-25T09:26:51Z</time></trkpt><trkpt lat="45.314997506244296" lon="7.826775821888384"><ele>284.2</ele><time>2026-04-25T09:26:52Z</time></trkpt><trkpt lat="45.3151193712954" lon="7.826786442860606"><ele>284.4</ele><time>2026-04-25T09:26:53Z</time></trkpt><trkpt lat="45.31521851678906" lon="7.82677519769726"><ele>284.6</ele><time>2026-04-25T09:26:54Z</time></trkpt><trkpt lat="45.31529894472139" lon="7.826760868260208"><ele>284.8</ele><time>2026-04-25T09:26:55Z</time></trkpt><trkpt lat="45.31536782276054" lon="7.826682172919836"><ele>285.0</ele><time>2026-04-25T09:26:57Z</time></trkpt><trkpt lat="45.31538669485966" lon="7.826505431127032"><ele>285.0</ele><time>2026-04-25T09:26:59Z</time></trkpt><trkpt lat="45.315396749566816" lon="7.826413195313058"><ele>285.0</ele><time>2026-04-25T09:27:00Z</time></trkpt><trkpt lat="45.315410202519296" lon="7.826312555320224"><ele>285.0</ele><time>2026-04-25T09:27:01Z</time></trkpt><trkpt lat="45.315427018624405" lon="7.826224517387047"><ele>285.0</ele><time>2026-04-25T09:27:02Z</time></trkpt><trkpt lat="45.31547985741911" lon="7.826149359527958"><ele>285.0</ele><time>2026-04-25T09:27:04Z</time></trkpt><trkpt lat="45.31560006487667" lon="7.826195164036124"><ele>285.0</ele><time>2026-04-25T09:27:06Z</time></trkpt><trkpt lat="45.31568351300982" lon="7.8262457479682705"><ele>285.4</ele><time>2026-04-25T09:27:07Z</time></trkpt><trkpt lat="45.31577871299861" lon="7.826296306093625"><ele>285.8</ele><time>2026-04-25T09:27:08Z</time></trkpt><trkpt lat="45.31588635463669" lon="7.826348053235912"><ele>286.2</ele><time>2026-04-25T09:27:09Z</time></trkpt><trkpt lat="45.31599451240505" lon="7.826397823047652"><ele>286.6</ele><time>2026-04-25T09:27:10Z</time></trkpt><trkpt lat="45.316100522190546" lon="7.826459198777474"><ele>287.0</ele><time>2026-04-25T09:27:11Z</time></trkpt><trkpt lat="45.31620071955804" lon="7.826510665654672"><ele>287.0</ele><time>2026-04-25T09:27:12Z</time></trkpt><trkpt lat="45.316312752856234" lon="7.826582451520855"><ele>287.0</ele><time>2026-04-25T09:27:14Z</time></trkpt><trkpt lat="45.31646913107817" lon="7.82643721174156"><ele>287.0</ele><time>2026-04-25T09:27:23Z</time></trkpt><trkpt lat="45.31651962219559" lon="7.826268936542673"><ele>287.0</ele><time>2026-04-25T09:27:24Z</time></trkpt><trkpt lat="45.316558813522335" lon="7.826066708248419"><ele>287.33333333333337</ele><time>2026-04-25T09:27:25Z</time></trkpt><trkpt lat="45.3166109905822" lon="7.825838891079492"><ele>287.6666666666667</ele><time>2026-04-25T09:27:26Z</time></trkpt><trkpt lat="45.316678772455695" lon="7.825592237659097"><ele>288.0</ele><time>2026-04-25T09:27:27Z</time></trkpt><trkpt lat="45.31674469835976" lon="7.825330746151127"><ele>289.0</ele><time>2026-04-25T09:27:28Z</time></trkpt><trkpt lat="45.316812936241654" lon="7.825056521208633"><ele>290.0</ele><time>2026-04-25T09:27:29Z</time></trkpt><trkpt lat="45.31688847960775" lon="7.824772696852859"><ele>291.0</ele><time>2026-04-25T09:27:30Z</time></trkpt><trkpt lat="45.31697072362407" lon="7.82448172112029"><ele>289.5</ele><time>2026-04-25T09:27:31Z</time></trkpt><trkpt lat="45.317049346153716" lon="7.824179942266311"><ele>288.0</ele><time>2026-04-25T09:27:32Z</time></trkpt><trkpt lat="45.317125417127166" lon="7.823876238327671"><ele>288.0</ele><time>2026-04-25T09:27:33Z</time></trkpt><trkpt lat="45.31719999814386" lon="7.823573283175697"><ele>288.0</ele><time>2026-04-25T09:27:34Z</time></trkpt><trkpt lat="45.31727678052485" lon="7.823281942114829"><ele>288.0</ele><time>2026-04-25T09:27:35Z</time></trkpt><trkpt lat="45.317362653979856" lon="7.823004391392652"><ele>288.0</ele><time>2026-04-25T09:27:36Z</time></trkpt><trkpt lat="45.317459601887684" lon="7.822732761871873"><ele>288.0</ele><time>2026-04-25T09:27:37Z</time></trkpt><trkpt lat="45.317563876762804" lon="7.82247157483575"><ele>288.0</ele><time>2026-04-25T09:27:38Z</time></trkpt><trkpt lat="45.31767444306782" lon="7.822213124741621"><ele>288.0</ele><time>2026-04-25T09:27:38.999Z</time></trkpt><trkpt lat="45.31778183094697" lon="7.821972149168064"><ele>288.0</ele><time>2026-04-25T09:27:39.999Z</time></trkpt><trkpt lat="45.317884287552936" lon="7.821749112757024"><ele>288.0</ele><time>2026-04-25T09:27:40.999Z</time></trkpt><trkpt lat="45.317975385725354" lon="7.821556214249421"><ele>287.75</ele><time>2026-04-25T09:27:41.999Z</time></trkpt><trkpt lat="45.318039652226695" lon="7.821431867579518"><ele>287.5</ele><time>2026-04-25T09:27:42.999Z</time></trkpt><trkpt lat="45.31808510175722" lon="7.821351990654657"><ele>287.25</ele><time>2026-04-25T09:27:43.999Z</time></trkpt><trkpt lat="45.318151503441285" lon="7.821346663120356"><ele>287.0</ele><time>2026-04-25T09:27:45.999Z</time></trkpt><trkpt lat="45.31835472386256" lon="7.821446468910694"><ele>286.75</ele><time>2026-04-25T09:27:49.999Z</time></trkpt><trkpt lat="45.31844944348082" lon="7.8214533777718565"><ele>286.5</ele><time>2026-04-25T09:27:50.999Z</time></trkpt><trkpt lat="45.3185707105338" lon="7.821468994849592"><ele>286.25</ele><time>2026-04-25T09:27:51.999Z</time></trkpt><trkpt lat="45.31870080300431" lon="7.821504892068411"><ele>286.0</ele><time>2026-04-25T09:27:52.999Z</time></trkpt><trkpt lat="45.318840802602224" lon="7.821534037539462"><ele>286.75</ele><time>2026-04-25T09:27:53.999Z</time></trkpt><trkpt lat="45.31897097067638" lon="7.821567692833688"><ele>287.5</ele><time>2026-04-25T09:27:54.999Z</time></trkpt><trkpt lat="45.319070632266374" lon="7.821602315430261"><ele>288.25</ele><time>2026-04-25T09:27:55.999Z</time></trkpt><trkpt lat="45.31918077474375" lon="7.821644875479716"><ele>289.0</ele><time>2026-04-25T09:27:56.999Z</time></trkpt><trkpt lat="45.31929546001681" lon="7.8216982620784785"><ele>289.0</ele><time>2026-04-25T09:27:57.999Z</time></trkpt><trkpt lat="45.3193976704397" lon="7.821738274426139"><ele>289.0</ele><time>2026-04-25T09:27:58.999Z</time></trkpt><trkpt lat="45.31948658370425" lon="7.821777686528915"><ele>289.0</ele><time>2026-04-25T09:27:59.999Z</time></trkpt><trkpt lat="45.319597367104315" lon="7.821805597258564"><ele>289.0</ele><time>2026-04-25T09:28:00.999Z</time></trkpt><trkpt lat="45.31972276204234" lon="7.821825718693217"><ele>289.0</ele><time>2026-04-25T09:28:01.999Z</time></trkpt><trkpt lat="45.31984918924182" lon="7.821852856968094"><ele>289.25</ele><time>2026-04-25T09:28:02.999Z</time></trkpt><trkpt lat="45.31997718893168" lon="7.821877950907277"><ele>289.5</ele><time>2026-04-25T09:28:03.999Z</time></trkpt><trkpt lat="45.3201100118019" lon="7.821908138261463"><ele>289.75</ele><time>2026-04-25T09:28:04.999Z</time></trkpt><trkpt lat="45.32026216113774" lon="7.821811737832186"><ele>290.0</ele><time>2026-04-25T09:28:05.999Z</time></trkpt><trkpt lat="45.3203923584044" lon="7.82184509710742"><ele>290.0</ele><time>2026-04-25T09:28:06.999Z</time></trkpt><trkpt lat="45.32053019134174" lon="7.821880412908907"><ele>290.0</ele><time>2026-04-25T09:28:07.999Z</time></trkpt><trkpt lat="45.32066913197635" lon="7.821916166951798"><ele>290.0</ele><time>2026-04-25T09:28:08.999Z</time></trkpt><trkpt lat="45.320791628126244" lon="7.821947910865344"><ele>290.0</ele><time>2026-04-25T09:28:09.999Z</time></trkpt><trkpt lat="45.32091702742493" lon="7.82198040683862"><ele>289.8</ele><time>2026-04-25T09:28:10.999Z</time></trkpt><trkpt lat="45.32103704144354" lon="7.822011515202558"><ele>289.6</ele><time>2026-04-25T09:28:11.999Z</time></trkpt><trkpt lat="45.32113811747228" lon="7.8220377081358485"><ele>289.4</ele><time>2026-04-25T09:28:12.999Z</time></trkpt><trkpt lat="45.3212390216296" lon="7.822063856520664"><ele>289.2</ele><time>2026-04-25T09:28:13.999Z</time></trkpt><trkpt lat="45.321343121506274" lon="7.822090926775423"><ele>289.0</ele><time>2026-04-25T09:28:14.999Z</time></trkpt><trkpt lat="45.32141244291933" lon="7.8221089553067085"><ele>289.59999999999997</ele><time>2026-04-25T09:28:15.999Z</time></trkpt><trkpt lat="45.32148544683214" lon="7.822127547606302"><ele>290.2</ele><time>2026-04-25T09:28:16.999Z</time></trkpt><trkpt lat="45.32155687177159" lon="7.822145521621832"><ele>290.79999999999995</ele><time>2026-04-25T09:28:17.999Z</time></trkpt><trkpt lat="45.32167758339401" lon="7.822176023617256"><ele>291.4</ele><time>2026-04-25T09:28:19.999Z</time></trkpt><trkpt lat="45.32181484008677" lon="7.822210975880794"><ele>292.0</ele><time>2026-04-25T09:28:21.999Z</time></trkpt><trkpt lat="45.321890328853016" lon="7.82223019896959"><ele>292.0</ele><time>2026-04-25T09:28:22.999Z</time></trkpt><trkpt lat="45.32199393659127" lon="7.8222565825237025"><ele>292.0</ele><time>2026-04-25T09:28:23.999Z</time></trkpt><trkpt lat="45.32208155286031" lon="7.822278893878804"><ele>292.0</ele><time>2026-04-25T09:28:24.999Z</time></trkpt><trkpt lat="45.32216858645028" lon="7.822301056870312"><ele>292.0</ele><time>2026-04-25T09:28:25.999Z</time></trkpt><trkpt lat="45.32228861453276" lon="7.822331621805276"><ele>292.0</ele><time>2026-04-25T09:28:26.999Z</time></trkpt><trkpt lat="45.32234066744317" lon="7.82268824739656"><ele>291.8</ele><time>2026-04-25T09:28:27.999Z</time></trkpt><trkpt lat="45.32242909981772" lon="7.8227071052837305"><ele>291.6</ele><time>2026-04-25T09:28:28.999Z</time></trkpt><trkpt lat="45.32253660453796" lon="7.822746027480746"><ele>291.40000000000003</ele><time>2026-04-25T09:28:29.999Z</time></trkpt><trkpt lat="45.322649858385134" lon="7.822819762697104"><ele>291.2</ele><time>2026-04-25T09:28:30.999Z</time></trkpt><trkpt lat="45.322767362337146" lon="7.8228733684316865"><ele>291.0</ele><time>2026-04-25T09:28:31.999Z</time></trkpt><trkpt lat="45.322862396106416" lon="7.822943698239015"><ele>291.0</ele><time>2026-04-25T09:28:32.999Z</time></trkpt><trkpt lat="45.322944982669966" lon="7.823034178743824"><ele>291.0</ele><time>2026-04-25T09:28:33.999Z</time></trkpt><trkpt lat="45.32304565824581" lon="7.8230246885674575"><ele>291.0</ele><time>2026-04-25T09:28:34.999Z</time></trkpt><trkpt lat="45.32315459689396" lon="7.823088869460155"><ele>291.0</ele><time>2026-04-25T09:28:35.999Z</time></trkpt><trkpt lat="45.323294543269505" lon="7.823180461015475"><ele>291.0</ele><time>2026-04-25T09:28:36.999Z</time></trkpt><trkpt lat="45.323417533486115" lon="7.823283834467864"><ele>291.0</ele><time>2026-04-25T09:28:38Z</time></trkpt><trkpt lat="45.32355711281401" lon="7.82338713534531"><ele>291.0</ele><time>2026-04-25T09:28:39Z</time></trkpt><trkpt lat="45.32368463921246" lon="7.823477173264271"><ele>291.0</ele><time>2026-04-25T09:28:40Z</time></trkpt><trkpt lat="45.32379020084178" lon="7.823550670858112"><ele>291.2</ele><time>2026-04-25T09:28:41Z</time></trkpt><trkpt lat="45.323875137153536" lon="7.823607316220484"><ele>291.40000000000003</ele><time>2026-04-25T09:28:42Z</time></trkpt><trkpt lat="45.323956230370634" lon="7.823671593404151"><ele>291.6</ele><time>2026-04-25T09:28:43Z</time></trkpt><trkpt lat="45.324058715932544" lon="7.8237521016925475"><ele>291.8</ele><time>2026-04-25T09:28:44Z</time></trkpt><trkpt lat="45.324180710849774" lon="7.823839231984841"><ele>292.0</ele><time>2026-04-25T09:28:45Z</time></trkpt><trkpt lat="45.324309162544" lon="7.823927053671991"><ele>292.0</ele><time>2026-04-25T09:28:46Z</time></trkpt><trkpt lat="45.3244463153871" lon="7.824005375754313"><ele>292.0</ele><time>2026-04-25T09:28:47Z</time></trkpt><trkpt lat="45.32459170513172" lon="7.824102028648241"><ele>292.0</ele><time>2026-04-25T09:28:48Z</time></trkpt><trkpt lat="45.3247375688309" lon="7.824210084561618"><ele>292.0</ele><time>2026-04-25T09:28:49Z</time></trkpt><trkpt lat="45.32488262972347" lon="7.824302775860768"><ele>292.0</ele><time>2026-04-25T09:28:50Z</time></trkpt><trkpt lat="45.32499048450604" lon="7.82434450091877"><ele>292.0</ele><time>2026-04-25T09:28:51Z</time></trkpt><trkpt lat="45.325107400992884" lon="7.824463812275697"><ele>292.0</ele><time>2026-04-25T09:28:52Z</time></trkpt><trkpt lat="45.32521410720852" lon="7.8245456358546575"><ele>293.0</ele><time>2026-04-25T09:28:53Z</time></trkpt><trkpt lat="45.32531957382436" lon="7.824618015654325"><ele>294.0</ele><time>2026-04-25T09:28:54Z</time></trkpt><trkpt lat="45.325417905333865" lon="7.824700067948719"><ele>295.0</ele><time>2026-04-25T09:28:55Z</time></trkpt><trkpt lat="45.32552874618662" lon="7.824777817684828"><ele>296.0</ele><time>2026-04-25T09:28:56Z</time></trkpt><trkpt lat="45.325648812567856" lon="7.824845757529523"><ele>296.0</ele><time>2026-04-25T09:28:57Z</time></trkpt><trkpt lat="45.325774153251295" lon="7.8249111005586665"><ele>296.0</ele><time>2026-04-25T09:28:58Z</time></trkpt><trkpt lat="45.32589949131798" lon="7.824993714400803"><ele>296.0</ele><time>2026-04-25T09:28:59Z</time></trkpt><trkpt lat="45.326026228172815" lon="7.825087832338577"><ele>296.0</ele><time>2026-04-25T09:29:00Z</time></trkpt><trkpt lat="45.32615343803268" lon="7.825180798332432"><ele>295.75</ele><time>2026-04-25T09:29:01Z</time></trkpt><trkpt lat="45.32627013675657" lon="7.825253655708953"><ele>295.5</ele><time>2026-04-25T09:29:02Z</time></trkpt><trkpt lat="45.326373958958534" lon="7.8253272947250725"><ele>295.25</ele><time>2026-04-25T09:29:03Z</time></trkpt><trkpt lat="45.32647917714614" lon="7.825400868440867"><ele>295.0</ele><time>2026-04-25T09:29:04Z</time></trkpt><trkpt lat="45.326588214606666" lon="7.825476514652346"><ele>295.5</ele><time>2026-04-25T09:29:05Z</time></trkpt><trkpt lat="45.32670251542548" lon="7.825551057223924"><ele>296.0</ele><time>2026-04-25T09:29:06Z</time></trkpt><trkpt lat="45.32681214240151" lon="7.825632046097508"><ele>296.5</ele><time>2026-04-25T09:29:07Z</time></trkpt><trkpt lat="45.32692431967861" lon="7.825726689564594"><ele>297.0</ele><time>2026-04-25T09:29:08Z</time></trkpt><trkpt lat="45.32705123269468" lon="7.8258222630181"><ele>297.0</ele><time>2026-04-25T09:29:09Z</time></trkpt><trkpt lat="45.32716558241723" lon="7.825904131647194"><ele>297.0</ele><time>2026-04-25T09:29:10Z</time></trkpt><trkpt lat="45.327258949023154" lon="7.825981150229844"><ele>297.0</ele><time>2026-04-25T09:29:11Z</time></trkpt><trkpt lat="45.327327582259855" lon="7.826075277146345"><ele>297.0</ele><time>2026-04-25T09:29:12Z</time></trkpt><trkpt lat="45.327360144615604" lon="7.826192311019176"><ele>297.0</ele><time>2026-04-25T09:29:13Z</time></trkpt><trkpt lat="45.327390501566" lon="7.826352655372378"><ele>297.8</ele><time>2026-04-25T09:29:14Z</time></trkpt><trkpt lat="45.32743226478247" lon="7.826528716293104"><ele>298.6</ele><time>2026-04-25T09:29:15Z</time></trkpt><trkpt lat="45.32745747595517" lon="7.826673157006354"><ele>299.40000000000003</ele><time>2026-04-25T09:29:16Z</time></trkpt><trkpt lat="45.32749732166046" lon="7.82674467090796"><ele>300.2</ele><time>2026-04-25T09:29:17Z</time></trkpt><trkpt lat="45.32764202802293" lon="7.826777201125683"><ele>301.0</ele><time>2026-04-25T09:29:19Z</time></trkpt><trkpt lat="45.327773599051056" lon="7.826806716283953"><ele>301.3333333333333</ele><time>2026-04-25T09:29:20Z</time></trkpt><trkpt lat="45.32792250987555" lon="7.826871808075704"><ele>301.6666666666667</ele><time>2026-04-25T09:29:21Z</time></trkpt><trkpt lat="45.32808211485918" lon="7.826952110182037"><ele>302.0</ele><time>2026-04-25T09:29:22Z</time></trkpt><trkpt lat="45.328241367923106" lon="7.827028402024304"><ele>302.0</ele><time>2026-04-25T09:29:23Z</time></trkpt><trkpt lat="45.328392904930865" lon="7.827096211239836"><ele>302.0</ele><time>2026-04-25T09:29:24Z</time></trkpt><trkpt lat="45.32853896313728" lon="7.827161032724194"><ele>302.0</ele><time>2026-04-25T09:29:25Z</time></trkpt><trkpt lat="45.3286958688366" lon="7.827229708178454"><ele>302.0</ele><time>2026-04-25T09:29:25.999Z</time></trkpt><trkpt lat="45.3288399676765" lon="7.827297807199014"><ele>302.0</ele><time>2026-04-25T09:29:26.999Z</time></trkpt><trkpt lat="45.3289843420215" lon="7.827389205023314"><ele>302.0</ele><time>2026-04-25T09:29:27.999Z</time></trkpt><trkpt lat="45.32913889736848" lon="7.827487843975924"><ele>302.33333333333337</ele><time>2026-04-25T09:29:28.999Z</time></trkpt><trkpt lat="45.32931182019384" lon="7.827558840722552"><ele>302.6666666666667</ele><time>2026-04-25T09:29:29.999Z</time></trkpt><trkpt lat="45.32947223668256" lon="7.827624392734634"><ele>303.0</ele><time>2026-04-25T09:29:30.999Z</time></trkpt><trkpt lat="45.32960498861387" lon="7.8276799962616925"><ele>303.25</ele><time>2026-04-25T09:29:31.999Z</time></trkpt><trkpt lat="45.32971960474368" lon="7.827739273536597"><ele>303.5</ele><time>2026-04-25T09:29:32.999Z</time></trkpt><trkpt lat="45.32984030706827" lon="7.827814974128538"><ele>303.75</ele><time>2026-04-25T09:29:33.999Z</time></trkpt><trkpt lat="45.32997182969722" lon="7.827912398253108"><ele>304.0</ele><time>2026-04-25T09:29:34.999Z</time></trkpt><trkpt lat="45.33011122673028" lon="7.82801487573256"><ele>305.3333333333333</ele><time>2026-04-25T09:29:35.999Z</time></trkpt><trkpt lat="45.33024758240926" lon="7.828099486455722"><ele>306.6666666666667</ele><time>2026-04-25T09:29:36.999Z</time></trkpt><trkpt lat="45.33038853337989" lon="7.828186606040632"><ele>308.0</ele><time>2026-04-25T09:29:37.999Z</time></trkpt><trkpt lat="45.33053439931857" lon="7.828275336468212"><ele>308.6666666666667</ele><time>2026-04-25T09:29:38.999Z</time></trkpt><trkpt lat="45.33067812359663" lon="7.828366394829596"><ele>309.3333333333333</ele><time>2026-04-25T09:29:39.999Z</time></trkpt><trkpt lat="45.330823684064605" lon="7.8284669450834885"><ele>310.0</ele><time>2026-04-25T09:29:40.999Z</time></trkpt><trkpt lat="45.330959696098724" lon="7.8285717824567"><ele>310.0</ele><time>2026-04-25T09:29:41.999Z</time></trkpt><trkpt lat="45.33109545007903" lon="7.828671220609649"><ele>310.0</ele><time>2026-04-25T09:29:42.999Z</time></trkpt><trkpt lat="45.331234101903014" lon="7.828764866913665"><ele>310.0</ele><time>2026-04-25T09:29:43.999Z</time></trkpt><trkpt lat="45.33138149082396" lon="7.828846878283563"><ele>311.0</ele><time>2026-04-25T09:29:44.999Z</time></trkpt><trkpt lat="45.33151775481993" lon="7.828932900438507"><ele>312.0</ele><time>2026-04-25T09:29:45.999Z</time></trkpt><trkpt lat="45.33166062328024" lon="7.829028928551866"><ele>313.0</ele><time>2026-04-25T09:29:46.999Z</time></trkpt><trkpt lat="45.33180229586788" lon="7.829135568611796"><ele>313.0</ele><time>2026-04-25T09:29:47.999Z</time></trkpt><trkpt lat="45.331945789633174" lon="7.829240934168044"><ele>313.0</ele><time>2026-04-25T09:29:48.999Z</time></trkpt><trkpt lat="45.332079292713985" lon="7.829335300726328"><ele>313.0</ele><time>2026-04-25T09:29:49.999Z</time></trkpt><trkpt lat="45.332214291306464" lon="7.829431174435279"><ele>313.3333333333333</ele><time>2026-04-25T09:29:50.999Z</time></trkpt><trkpt lat="45.332345636776836" lon="7.829509150325164"><ele>313.6666666666667</ele><time>2026-04-25T09:29:51.999Z</time></trkpt><trkpt lat="45.33249186232949" lon="7.829576117038957"><ele>314.0</ele><time>2026-04-25T09:29:52.999Z</time></trkpt><trkpt lat="45.332636418120074" lon="7.829658213161655"><ele>314.0</ele><time>2026-04-25T09:29:53.999Z</time></trkpt><trkpt lat="45.33281489007071" lon="7.829640384017247"><ele>314.0</ele><time>2026-04-25T09:29:54.999Z</time></trkpt><trkpt lat="45.332957770340485" lon="7.829683238673606"><ele>314.0</ele><time>2026-04-25T09:29:55.999Z</time></trkpt><trkpt lat="45.333096119048086" lon="7.829678298883806"><ele>315.0</ele><time>2026-04-25T09:29:56.999Z</time></trkpt><trkpt lat="45.333236404055484" lon="7.829665343515078"><ele>316.0</ele><time>2026-04-25T09:29:57.999Z</time></trkpt><trkpt lat="45.333419070141346" lon="7.830227382560183"><ele>316.0</ele><time>2026-04-25T09:29:58.999Z</time></trkpt><trkpt lat="45.3335605989345" lon="7.830344882832333"><ele>316.0</ele><time>2026-04-25T09:29:59.999Z</time></trkpt><trkpt lat="45.33368981901441" lon="7.830453289355887"><ele>316.0</ele><time>2026-04-25T09:30:00.999Z</time></trkpt><trkpt lat="45.333781461171604" lon="7.8305504103397485"><ele>316.0</ele><time>2026-04-25T09:30:01.999Z</time></trkpt><trkpt lat="45.33386215094499" lon="7.83062208230347"><ele>316.8333333333333</ele><time>2026-04-25T09:30:02.999Z</time></trkpt><trkpt lat="45.333941123154126" lon="7.830661226055549"><ele>317.66666666666663</ele><time>2026-04-25T09:30:03.999Z</time></trkpt><trkpt lat="45.33400523073174" lon="7.830714578513964"><ele>318.5</ele><time>2026-04-25T09:30:05.999Z</time></trkpt><trkpt lat="45.334076421901926" lon="7.830758763178767"><ele>319.3333333333333</ele><time>2026-04-25T09:30:22.999Z</time></trkpt><trkpt lat="45.33414146276999" lon="7.830816231616552"><ele>320.1666666666667</ele><time>2026-04-25T09:30:23.999Z</time></trkpt><trkpt lat="45.33420988075862" lon="7.830851239881064"><ele>321.0</ele><time>2026-04-25T09:30:24.999Z</time></trkpt><trkpt lat="45.33429370838507" lon="7.8309094254818445"><ele>321.25</ele><time>2026-04-25T09:30:25.999Z</time></trkpt><trkpt lat="45.33438639030094" lon="7.830983352126441"><ele>321.5</ele><time>2026-04-25T09:30:26.999Z</time></trkpt><trkpt lat="45.33450153696561" lon="7.831079600744271"><ele>321.75</ele><time>2026-04-25T09:30:27.999Z</time></trkpt><trkpt lat="45.33466047980146" lon="7.831182613781348"><ele>322.0</ele><time>2026-04-25T09:30:28.999Z</time></trkpt><trkpt lat="45.33482071656811" lon="7.831297378186554"><ele>322.0</ele><time>2026-04-25T09:30:29.999Z</time></trkpt><trkpt lat="45.334991155183936" lon="7.8314234430078855"><ele>322.0</ele><time>2026-04-25T09:30:30.999Z</time></trkpt><trkpt lat="45.33516494125463" lon="7.831555533068291"><ele>322.0</ele><time>2026-04-25T09:30:31.998Z</time></trkpt><trkpt lat="45.33534211692711" lon="7.831699217375773"><ele>322.0</ele><time>2026-04-25T09:30:32.998Z</time></trkpt><trkpt lat="45.33550250445422" lon="7.831818452701655"><ele>322.0</ele><time>2026-04-25T09:30:33.998Z</time></trkpt><trkpt lat="45.335678094995586" lon="7.831946668874694"><ele>322.0</ele><time>2026-04-25T09:30:34.998Z</time></trkpt><trkpt lat="45.33586315787687" lon="7.832056189184438"><ele>322.0</ele><time>2026-04-25T09:30:35.998Z</time></trkpt><trkpt lat="45.33604684586874" lon="7.832180115189182"><ele>322.0</ele><time>2026-04-25T09:30:36.998Z</time></trkpt><trkpt lat="45.33622616574128" lon="7.832319160983003"><ele>322.0</ele><time>2026-04-25T09:30:37.998Z</time></trkpt><trkpt lat="45.33639374456754" lon="7.832444703343237"><ele>321.66666666666663</ele><time>2026-04-25T09:30:38.998Z</time></trkpt><trkpt lat="45.336553590783325" lon="7.832562554595544"><ele>321.3333333333333</ele><time>2026-04-25T09:30:39.998Z</time></trkpt><trkpt lat="45.33669425027103" lon="7.832664150290704"><ele>321.0</ele><time>2026-04-25T09:30:40.998Z</time></trkpt><trkpt lat="45.33682635959304" lon="7.832764169287504"><ele>320.75</ele><time>2026-04-25T09:30:41.998Z</time></trkpt><trkpt lat="45.33694814900067" lon="7.8328642374407185"><ele>320.5</ele><time>2026-04-25T09:30:42.998Z</time></trkpt><trkpt lat="45.33706700382573" lon="7.8329545988614795"><ele>320.25</ele><time>2026-04-25T09:30:44Z</time></trkpt><trkpt lat="45.337168107817476" lon="7.833029656735754"><ele>320.0</ele><time>2026-04-25T09:30:45Z</time></trkpt><trkpt lat="45.337261637791656" lon="7.833108245426275"><ele>320.4</ele><time>2026-04-25T09:30:46Z</time></trkpt><trkpt lat="45.337341250452994" lon="7.8331695205881795"><ele>320.8</ele><time>2026-04-25T09:30:47Z</time></trkpt><trkpt lat="45.3374187716669" lon="7.833206678337491"><ele>321.20000000000005</ele><time>2026-04-25T09:30:49Z</time></trkpt><trkpt lat="45.337395255191716" lon="7.833007450444847"><ele>321.6</ele><time>2026-04-25T09:30:52Z</time></trkpt><trkpt lat="45.33732977309292" lon="7.832899393046294"><ele>322.0</ele><time>2026-04-25T09:30:53Z</time></trkpt><trkpt lat="45.337272314227945" lon="7.832742441891659"><ele>321.75</ele><time>2026-04-25T09:30:54Z</time></trkpt><trkpt lat="45.33719626036017" lon="7.83258420186967"><ele>321.5</ele><time>2026-04-25T09:30:55Z</time></trkpt><trkpt lat="45.33711152938916" lon="7.832407907966674"><ele>321.25</ele><time>2026-04-25T09:30:56Z</time></trkpt><trkpt lat="45.33703193637566" lon="7.832222180253031"><ele>321.0</ele><time>2026-04-25T09:30:57Z</time></trkpt><trkpt lat="45.336959856608914" lon="7.832023968556179"><ele>321.0</ele><time>2026-04-25T09:30:58Z</time></trkpt><trkpt lat="45.33691021674061" lon="7.831818086114692"><ele>321.0</ele><time>2026-04-25T09:30:59Z</time></trkpt><trkpt lat="45.33691857733972" lon="7.831586990595248"><ele>321.0</ele><time>2026-04-25T09:31:00Z</time></trkpt><trkpt lat="45.33690957460299" lon="7.831331913064138"><ele>320.3333333333333</ele><time>2026-04-25T09:31:01Z</time></trkpt><trkpt lat="45.33674125979249" lon="7.831096391957418"><ele>319.66666666666663</ele><time>2026-04-25T09:31:02Z</time></trkpt><trkpt lat="45.33669461027505" lon="7.830819419428322"><ele>319.0</ele><time>2026-04-25T09:31:03Z</time></trkpt><trkpt lat="45.33663755936028" lon="7.830543198740407"><ele>319.0</ele><time>2026-04-25T09:31:04Z</time></trkpt><trkpt lat="45.336575656160754" lon="7.830292887485837"><ele>319.0</ele><time>2026-04-25T09:31:05Z</time></trkpt><trkpt lat="45.33651406781187" lon="7.830074573836041"><ele>319.0</ele><time>2026-04-25T09:31:06Z</time></trkpt><trkpt lat="45.33645774858688" lon="7.829844631673067"><ele>319.0</ele><time>2026-04-25T09:31:07Z</time></trkpt><trkpt lat="45.33640472138517" lon="7.829608367042672"><ele>319.0</ele><time>2026-04-25T09:31:08Z</time></trkpt><trkpt lat="45.33637312981564" lon="7.8293939339303"><ele>319.0</ele><time>2026-04-25T09:31:09Z</time></trkpt><trkpt lat="45.33633581460651" lon="7.82916884819361"><ele>318.3333333333333</ele><time>2026-04-25T09:31:10Z</time></trkpt><trkpt lat="45.336290119418564" lon="7.828942039533232"><ele>317.6666666666667</ele><time>2026-04-25T09:31:11Z</time></trkpt><trkpt lat="45.33624965489766" lon="7.828730353380868"><ele>317.0</ele><time>2026-04-25T09:31:12Z</time></trkpt><trkpt lat="45.33621537715761" lon="7.828517333513252"><ele>316.33333333333337</ele><time>2026-04-25T09:31:13Z</time></trkpt><trkpt lat="45.336188887687115" lon="7.828302455746696"><ele>315.6666666666667</ele><time>2026-04-25T09:31:14Z</time></trkpt><trkpt lat="45.33616758867629" lon="7.8280811398664385"><ele>315.0</ele><time>2026-04-25T09:31:15Z</time></trkpt><trkpt lat="45.33615969138632" lon="7.827838617192403"><ele>314.3333333333333</ele><time>2026-04-25T09:31:16Z</time></trkpt><trkpt lat="45.336150839352136" lon="7.827597425783298"><ele>313.66666666666663</ele><time>2026-04-25T09:31:17Z</time></trkpt><trkpt lat="45.33613721491742" lon="7.827373163370133"><ele>313.0</ele><time>2026-04-25T09:31:18Z</time></trkpt><trkpt lat="45.33612365168572" lon="7.827156518691817"><ele>313.0</ele><time>2026-04-25T09:31:19Z</time></trkpt><trkpt lat="45.33611192870248" lon="7.826983839146209"><ele>313.0</ele><time>2026-04-25T09:31:20Z</time></trkpt><trkpt lat="45.33609750407443" lon="7.826813398520787"><ele>313.0</ele><time>2026-04-25T09:31:21Z</time></trkpt><trkpt lat="45.33608700789221" lon="7.826652247073064"><ele>313.0</ele><time>2026-04-25T09:31:22Z</time></trkpt><trkpt lat="45.33607003571079" lon="7.826523787933155"><ele>313.0</ele><time>2026-04-25T09:31:23Z</time></trkpt><trkpt lat="45.336062099850764" lon="7.826408047291917"><ele>313.3333333333333</ele><time>2026-04-25T09:31:24Z</time></trkpt><trkpt lat="45.3361312706732" lon="7.826279807118562"><ele>313.66666666666663</ele><time>2026-04-25T09:31:27Z</time></trkpt><trkpt lat="45.33619044741444" lon="7.826245414385819"><ele>314.0</ele><time>2026-04-25T09:31:27.999Z</time></trkpt><trkpt lat="45.3363064751773" lon="7.82619108535889"><ele>314.3333333333333</ele><time>2026-04-25T09:31:29.999Z</time></trkpt><trkpt lat="45.336333747937964" lon="7.826102722013114"><ele>314.6666666666667</ele><time>2026-04-25T09:31:32.999Z</time></trkpt><trkpt lat="45.33629374613524" lon="7.826182119061689"><ele>315.0</ele><time>2026-04-25T09:33:06Z</time></trkpt><trkpt lat="45.33618157428092" lon="7.826239356318426"><ele>315.0</ele><time>2026-04-25T09:33:08Z</time></trkpt><trkpt lat="45.336107546380305" lon="7.826303010272787"><ele>315.0</ele><time>2026-04-25T09:33:10Z</time></trkpt><trkpt lat="45.33603982791679" lon="7.8264098571704315"><ele>315.0</ele><time>2026-04-25T09:33:12Z</time></trkpt><trkpt lat="45.33603581815854" lon="7.826545490416924"><ele>315.0</ele><time>2026-04-25T09:33:14Z</time></trkpt><trkpt lat="45.336043913504845" lon="7.826680105447829"><ele>315.0</ele><time>2026-04-25T09:33:17Z</time></trkpt><trkpt lat="45.33610885990677" lon="7.8269223561445935"><ele>314.5</ele><time>2026-04-25T09:35:29Z</time></trkpt><trkpt lat="45.336116003692425" lon="7.827092631906056"><ele>314.0</ele><time>2026-04-25T09:35:30Z</time></trkpt><trkpt lat="45.3361297936935" lon="7.827250177461571"><ele>313.5</ele><time>2026-04-25T09:35:31Z</time></trkpt><trkpt lat="45.336137332527436" lon="7.82742620454428"><ele>313.0</ele><time>2026-04-25T09:35:32Z</time></trkpt><trkpt lat="45.33615045721199" lon="7.827627252185525"><ele>313.5</ele><time>2026-04-25T09:35:33Z</time></trkpt><trkpt lat="45.33616061629619" lon="7.827826826118134"><ele>314.0</ele><time>2026-04-25T09:35:34Z</time></trkpt><trkpt lat="45.336172901242335" lon="7.8280236192823995"><ele>314.5</ele><time>2026-04-25T09:35:35Z</time></trkpt><trkpt lat="45.33618966893786" lon="7.828237690087116"><ele>315.0</ele><time>2026-04-25T09:35:36Z</time></trkpt><trkpt lat="45.336213816613075" lon="7.828449229708287"><ele>315.6666666666667</ele><time>2026-04-25T09:35:37Z</time></trkpt><trkpt lat="45.336239533599446" lon="7.828659046286902"><ele>316.33333333333337</ele><time>2026-04-25T09:35:38Z</time></trkpt><trkpt lat="45.33627725424915" lon="7.82888609071596"><ele>317.0</ele><time>2026-04-25T09:35:39Z</time></trkpt><trkpt lat="45.336334216489256" lon="7.829137329588393"><ele>317.6666666666667</ele><time>2026-04-25T09:35:40Z</time></trkpt><trkpt lat="45.33637633000405" lon="7.829354767342322"><ele>318.3333333333333</ele><time>2026-04-25T09:35:41Z</time></trkpt><trkpt lat="45.336419374551504" lon="7.8295564396846755"><ele>319.0</ele><time>2026-04-25T09:35:42Z</time></trkpt><trkpt lat="45.3364439780498" lon="7.829767606326299"><ele>319.0</ele><time>2026-04-25T09:35:43Z</time></trkpt><trkpt lat="45.33649016926295" lon="7.829986293711086"><ele>319.0</ele><time>2026-04-25T09:35:44Z</time></trkpt><trkpt lat="45.33655681936354" lon="7.830251157876023"><ele>319.0</ele><time>2026-04-25T09:35:45Z</time></trkpt><trkpt lat="45.33662924653437" lon="7.830524042060405"><ele>319.0</ele><time>2026-04-25T09:35:46Z</time></trkpt><trkpt lat="45.33668028278636" lon="7.8307914812328585"><ele>319.0</ele><time>2026-04-25T09:35:47Z</time></trkpt><trkpt lat="45.33672858532855" lon="7.831037592644408"><ele>319.0</ele><time>2026-04-25T09:35:48Z</time></trkpt><trkpt lat="45.33676158527145" lon="7.831260696660703"><ele>319.0</ele><time>2026-04-25T09:35:49Z</time></trkpt><trkpt lat="45.33679652673734" lon="7.831464768019741"><ele>319.0</ele><time>2026-04-25T09:35:50Z</time></trkpt><trkpt lat="45.336839489441125" lon="7.831676009289688"><ele>319.0</ele><time>2026-04-25T09:35:51Z</time></trkpt><trkpt lat="45.3368924705873" lon="7.831890259989891"><ele>319.66666666666663</ele><time>2026-04-25T09:35:52Z</time></trkpt><trkpt lat="45.3369481287108" lon="7.8320930594579705"><ele>320.3333333333333</ele><time>2026-04-25T09:35:53Z</time></trkpt><trkpt lat="45.3370168603827" lon="7.832279012161754"><ele>321.0</ele><time>2026-04-25T09:35:54Z</time></trkpt><trkpt lat="45.33709863400347" lon="7.83245902950563"><ele>321.0</ele><time>2026-04-25T09:35:55Z</time></trkpt><trkpt lat="45.33718882370588" lon="7.832634867705635"><ele>321.0</ele><time>2026-04-25T09:35:56Z</time></trkpt><trkpt lat="45.33728636362554" lon="7.832824758103085"><ele>321.0</ele><time>2026-04-25T09:35:56.999Z</time></trkpt><trkpt lat="45.33735587965624" lon="7.833007549416974"><ele>321.20000000000005</ele><time>2026-04-25T09:35:57.999Z</time></trkpt><trkpt lat="45.33741769204733" lon="7.833162192461566"><ele>321.40000000000003</ele><time>2026-04-25T09:35:58.999Z</time></trkpt><trkpt lat="45.33743631709616" lon="7.833305541522569"><ele>321.6</ele><time>2026-04-25T09:35:59.999Z</time></trkpt><trkpt lat="45.3374555278249" lon="7.833415333274699"><ele>321.8</ele><time>2026-04-25T09:36:00.999Z</time></trkpt><trkpt lat="45.33744504588778" lon="7.833525274649105"><ele>322.0</ele><time>2026-04-25T09:36:01.999Z</time></trkpt><trkpt lat="45.33743625575187" lon="7.833673245050029"><ele>322.6</ele><time>2026-04-25T09:36:02.999Z</time></trkpt><trkpt lat="45.33739881164449" lon="7.833830441758875"><ele>323.20000000000005</ele><time>2026-04-25T09:36:03.999Z</time></trkpt><trkpt lat="45.33737126396938" lon="7.8339868194922575"><ele>323.8</ele><time>2026-04-25T09:36:04.999Z</time></trkpt><trkpt lat="45.3373472352781" lon="7.834142786907287"><ele>324.4</ele><time>2026-04-25T09:36:05.999Z</time></trkpt><trkpt lat="45.337323526087026" lon="7.834290934897081"><ele>325.0</ele><time>2026-04-25T09:36:06.999Z</time></trkpt><trkpt lat="45.33730335634742" lon="7.834411176110131"><ele>325.2</ele><time>2026-04-25T09:36:07.999Z</time></trkpt><trkpt lat="45.33728107175511" lon="7.834516420425594"><ele>325.4</ele><time>2026-04-25T09:36:08.999Z</time></trkpt><trkpt lat="45.33723580823007" lon="7.834622027473273"><ele>325.6</ele><time>2026-04-25T09:36:09.999Z</time></trkpt><trkpt lat="45.33723393015889" lon="7.834741960787896"><ele>325.8</ele><time>2026-04-25T09:36:10.999Z</time></trkpt><trkpt lat="45.337204419710226" lon="7.834876257680662"><ele>326.0</ele><time>2026-04-25T09:36:11.999Z</time></trkpt><trkpt lat="45.337183070837916" lon="7.835036029692969"><ele>327.4</ele><time>2026-04-25T09:36:12.999Z</time></trkpt><trkpt lat="45.33716350203738" lon="7.835149522034211"><ele>328.8</ele><time>2026-04-25T09:36:13.999Z</time></trkpt><trkpt lat="45.33713600053685" lon="7.835273257175318"><ele>330.2</ele><time>2026-04-25T09:36:14.999Z</time></trkpt><trkpt lat="45.33710762836712" lon="7.835370264824852"><ele>331.59999999999997</ele><time>2026-04-25T09:36:15.999Z</time></trkpt><trkpt lat="45.337078179484344" lon="7.835472971043782"><ele>333.0</ele><time>2026-04-25T09:36:23.999Z</time></trkpt><trkpt lat="45.33721710841678" lon="7.835544062062054"><ele>332.59999999999997</ele><time>2026-04-25T09:36:24.999Z</time></trkpt><trkpt lat="45.33731817482575" lon="7.835530181005927"><ele>332.2</ele><time>2026-04-25T09:36:25.999Z</time></trkpt><trkpt lat="45.33740484073062" lon="7.83553662660221"><ele>331.8</ele><time>2026-04-25T09:36:26.999Z</time></trkpt><trkpt lat="45.337485483983144" lon="7.835545660995118"><ele>331.4</ele><time>2026-04-25T09:36:27.999Z</time></trkpt><trkpt lat="45.33756770925836" lon="7.835554547966536"><ele>331.0</ele><time>2026-04-25T09:36:28.999Z</time></trkpt><trkpt lat="45.337667919143016" lon="7.835543065972257"><ele>331.0</ele><time>2026-04-25T09:36:29.999Z</time></trkpt><trkpt lat="45.33777067820471" lon="7.835558059630559"><ele>331.0</ele><time>2026-04-25T09:36:30.999Z</time></trkpt><trkpt lat="45.3378644905577" lon="7.835597963747512"><ele>331.0</ele><time>2026-04-25T09:36:31.999Z</time></trkpt><trkpt lat="45.33793019882606" lon="7.83561159758718"><ele>331.0</ele><time>2026-04-25T09:36:32.999Z</time></trkpt><trkpt lat="45.338058238534494" lon="7.835605514490502"><ele>331.0</ele><time>2026-04-25T09:43:10.998Z</time></trkpt><trkpt lat="45.33814974718424" lon="7.835615151594973"><ele>331.0</ele><time>2026-04-25T09:43:11.998Z</time></trkpt><trkpt lat="45.33825692257338" lon="7.835637688718912"><ele>331.0</ele><time>2026-04-25T09:43:12.998Z</time></trkpt><trkpt lat="45.33837667290473" lon="7.83565011765716"><ele>331.0</ele><time>2026-04-25T09:43:13.998Z</time></trkpt><trkpt lat="45.33850636832224" lon="7.835663772093084"><ele>331.0</ele><time>2026-04-25T09:43:14.998Z</time></trkpt><trkpt lat="45.338639305076946" lon="7.835675131112195"><ele>331.0</ele><time>2026-04-25T09:43:15.998Z</time></trkpt><trkpt lat="45.3387715763934" lon="7.835693527399777"><ele>331.0</ele><time>2026-04-25T09:43:16.998Z</time></trkpt><trkpt lat="45.33890648172945" lon="7.835707240506727"><ele>331.0</ele><time>2026-04-25T09:43:17.998Z</time></trkpt><trkpt lat="45.339040058902185" lon="7.835719673036219"><ele>331.0</ele><time>2026-04-25T09:43:18.998Z</time></trkpt><trkpt lat="45.33917032222311" lon="7.835734935934513"><ele>331.25</ele><time>2026-04-25T09:43:20Z</time></trkpt><trkpt lat="45.33930238517478" lon="7.835749339883141"><ele>331.5</ele><time>2026-04-25T09:43:21Z</time></trkpt><trkpt lat="45.339436761248514" lon="7.835768276264777"><ele>331.75</ele><time>2026-04-25T09:43:22Z</time></trkpt><trkpt lat="45.339571312253376" lon="7.835783504813222"><ele>332.0</ele><time>2026-04-25T09:43:23Z</time></trkpt><trkpt lat="45.33971007439346" lon="7.835800686600053"><ele>331.75</ele><time>2026-04-25T09:43:24Z</time></trkpt><trkpt lat="45.33985144558107" lon="7.835815545957724"><ele>331.5</ele><time>2026-04-25T09:43:25Z</time></trkpt><trkpt lat="45.339994933862364" lon="7.835829533821386"><ele>331.25</ele><time>2026-04-25T09:43:26Z</time></trkpt><trkpt lat="45.34013877140216" lon="7.835847379845644"><ele>331.0</ele><time>2026-04-25T09:43:27Z</time></trkpt><trkpt lat="45.340286701516874" lon="7.835864812367616"><ele>331.0</ele><time>2026-04-25T09:43:28Z</time></trkpt><trkpt lat="45.34043166065364" lon="7.835876901108217"><ele>331.0</ele><time>2026-04-25T09:43:29Z</time></trkpt><trkpt lat="45.34058464073194" lon="7.835899246872843"><ele>331.0</ele><time>2026-04-25T09:43:30Z</time></trkpt><trkpt lat="45.34074046342388" lon="7.835926180025104"><ele>331.0</ele><time>2026-04-25T09:43:31Z</time></trkpt><trkpt lat="45.340900296659576" lon="7.835958552291456"><ele>331.0</ele><time>2026-04-25T09:43:32Z</time></trkpt><trkpt lat="45.34105310658321" lon="7.835997806041875"><ele>331.0</ele><time>2026-04-25T09:43:33Z</time></trkpt><trkpt lat="45.341211079011195" lon="7.836048961028242"><ele>333.66666666666663</ele><time>2026-04-25T09:43:34Z</time></trkpt><trkpt lat="45.341368084680184" lon="7.836108736345232"><ele>336.3333333333333</ele><time>2026-04-25T09:43:35Z</time></trkpt><trkpt lat="45.34152281358357" lon="7.836175283746898"><ele>339.0</ele><time>2026-04-25T09:43:36Z</time></trkpt><trkpt lat="45.34167393987174" lon="7.836245907124114"><ele>340.6666666666667</ele><time>2026-04-25T09:43:37Z</time></trkpt><trkpt lat="45.34182856492" lon="7.836308935221723"><ele>342.33333333333337</ele><time>2026-04-25T09:43:38Z</time></trkpt><trkpt lat="45.341987643173574" lon="7.836372665600937"><ele>344.0</ele><time>2026-04-25T09:43:39Z</time></trkpt><trkpt lat="45.34213986009689" lon="7.836438082443479"><ele>341.33333333333337</ele><time>2026-04-25T09:43:40Z</time></trkpt><trkpt lat="45.34229408060043" lon="7.836504971574007"><ele>338.6666666666667</ele><time>2026-04-25T09:43:41Z</time></trkpt><trkpt lat="45.342453255391206" lon="7.836567407532707"><ele>336.0</ele><time>2026-04-25T09:43:42Z</time></trkpt><trkpt lat="45.3426073234866" lon="7.836629415792783"><ele>336.0</ele><time>2026-04-25T09:43:43Z</time></trkpt><trkpt lat="45.34276430395724" lon="7.8366944708782285"><ele>336.0</ele><time>2026-04-25T09:43:44Z</time></trkpt><trkpt lat="45.34292137949408" lon="7.836761891294852"><ele>336.0</ele><time>2026-04-25T09:43:45Z</time></trkpt><trkpt lat="45.34307575247531" lon="7.836825787906199"><ele>337.0</ele><time>2026-04-25T09:43:46Z</time></trkpt><trkpt lat="45.34323175444399" lon="7.836886963013047"><ele>338.0</ele><time>2026-04-25T09:43:47Z</time></trkpt><trkpt lat="45.34338934117058" lon="7.8369463035693725"><ele>339.0</ele><time>2026-04-25T09:43:48Z</time></trkpt><trkpt lat="45.3435425199073" lon="7.837012137981254"><ele>339.0</ele><time>2026-04-25T09:43:49Z</time></trkpt><trkpt lat="45.34370229258322" lon="7.837075259956451"><ele>339.0</ele><time>2026-04-25T09:43:50Z</time></trkpt><trkpt lat="45.34385910071315" lon="7.837138274942457"><ele>339.0</ele><time>2026-04-25T09:43:51Z</time></trkpt><trkpt lat="45.34402103079873" lon="7.837206411688027"><ele>338.3333333333333</ele><time>2026-04-25T09:43:52Z</time></trkpt><trkpt lat="45.3441770927946" lon="7.8372801627323705"><ele>337.66666666666663</ele><time>2026-04-25T09:43:53Z</time></trkpt><trkpt lat="45.344340695725045" lon="7.837353291032969"><ele>337.0</ele><time>2026-04-25T09:43:54Z</time></trkpt><trkpt lat="45.344500702932024" lon="7.837416072403324"><ele>337.0</ele><time>2026-04-25T09:43:55Z</time></trkpt><trkpt lat="45.34466244023105" lon="7.83747469283509"><ele>337.0</ele><time>2026-04-25T09:43:56Z</time></trkpt><trkpt lat="45.34482669900491" lon="7.837543475471129"><ele>337.0</ele><time>2026-04-25T09:43:57Z</time></trkpt><trkpt lat="45.34498870710415" lon="7.83761600304703"><ele>338.0</ele><time>2026-04-25T09:43:58Z</time></trkpt><trkpt lat="45.345150402118676" lon="7.837680641938767"><ele>339.0</ele><time>2026-04-25T09:43:59Z</time></trkpt><trkpt lat="45.34531501840194" lon="7.837742330598421"><ele>340.0</ele><time>2026-04-25T09:44:00Z</time></trkpt><trkpt lat="45.345476758101285" lon="7.837801338772504"><ele>341.3333333333333</ele><time>2026-04-25T09:44:01Z</time></trkpt><trkpt lat="45.345636839172144" lon="7.8378665573929975"><ele>342.6666666666667</ele><time>2026-04-25T09:44:02Z</time></trkpt><trkpt lat="45.34580115853149" lon="7.837932969659325"><ele>344.0</ele><time>2026-04-25T09:44:03Z</time></trkpt><trkpt lat="45.34596692546824" lon="7.837996967767558"><ele>344.0</ele><time>2026-04-25T09:44:03.999Z</time></trkpt><trkpt lat="45.34612883685905" lon="7.838062461569438"><ele>344.0</ele><time>2026-04-25T09:44:04.999Z</time></trkpt><trkpt lat="45.34628684090915" lon="7.838125638337642"><ele>344.0</ele><time>2026-04-25T09:44:05.999Z</time></trkpt><trkpt lat="45.34643614912017" lon="7.838181556533386"><ele>344.75</ele><time>2026-04-25T09:44:06.999Z</time></trkpt><trkpt lat="45.3465772225928" lon="7.838240207388838"><ele>345.5</ele><time>2026-04-25T09:44:07.999Z</time></trkpt><trkpt lat="45.34671679445517" lon="7.838296360974313"><ele>346.25</ele><time>2026-04-25T09:44:08.999Z</time></trkpt><trkpt lat="45.34685313732108" lon="7.838351066989716"><ele>347.0</ele><time>2026-04-25T09:44:09.999Z</time></trkpt><trkpt lat="45.3469819454848" lon="7.838402698234291"><ele>347.0</ele><time>2026-04-25T09:44:10.999Z</time></trkpt><trkpt lat="45.3470952404985" lon="7.8384516244330475"><ele>347.0</ele><time>2026-04-25T09:44:11.999Z</time></trkpt><trkpt lat="45.34719634657501" lon="7.838492990290576"><ele>347.0</ele><time>2026-04-25T09:44:12.999Z</time></trkpt><trkpt lat="45.34728509951336" lon="7.8385260013941505"><ele>347.0</ele><time>2026-04-25T09:44:13.999Z</time></trkpt><trkpt lat="45.347372341243684" lon="7.838569072991675"><ele>347.0</ele><time>2026-04-25T09:44:14.999Z</time></trkpt><trkpt lat="45.34744666915029" lon="7.838602334787984"><ele>350.40000000000003</ele><time>2026-04-25T09:44:15.999Z</time></trkpt><trkpt lat="45.34752861095771" lon="7.8386342778041636"><ele>353.8</ele><time>2026-04-25T09:44:16.999Z</time></trkpt><trkpt lat="45.34761807683521" lon="7.838666291314663"><ele>357.2</ele><time>2026-04-25T09:44:17.999Z</time></trkpt><trkpt lat="45.34771405437829" lon="7.838715473579788"><ele>360.6</ele><time>2026-04-25T09:44:18.999Z</time></trkpt><trkpt lat="45.347815750839274" lon="7.838787270632569"><ele>364.0</ele><time>2026-04-25T09:44:19.999Z</time></trkpt><trkpt lat="45.34791343839428" lon="7.838879981578698"><ele>364.0</ele><time>2026-04-25T09:44:20.999Z</time></trkpt><trkpt lat="45.348000416939584" lon="7.8389954697759325"><ele>364.0</ele><time>2026-04-25T09:44:21.999Z</time></trkpt><trkpt lat="45.34807768600881" lon="7.839127207311509"><ele>364.0</ele><time>2026-04-25T09:44:22.999Z</time></trkpt><trkpt lat="45.348152580604605" lon="7.8392607988799625"><ele>364.0</ele><time>2026-04-25T09:44:23.999Z</time></trkpt><trkpt lat="45.348222461766184" lon="7.839393253380772"><ele>364.75</ele><time>2026-04-25T09:44:24.999Z</time></trkpt><trkpt lat="45.34829642202961" lon="7.8395201097768625"><ele>365.5</ele><time>2026-04-25T09:44:25.999Z</time></trkpt><trkpt lat="45.34836810191845" lon="7.839655310325838"><ele>366.25</ele><time>2026-04-25T09:44:26.999Z</time></trkpt><trkpt lat="45.34843958660168" lon="7.839789091631688"><ele>367.0</ele><time>2026-04-25T09:44:27.999Z</time></trkpt><trkpt lat="45.348503736140174" lon="7.839896898213442"><ele>367.0</ele><time>2026-04-25T09:44:28.999Z</time></trkpt><trkpt lat="45.34854840071659" lon="7.839983853831706"><ele>367.0</ele><time>2026-04-25T09:44:29.999Z</time></trkpt><trkpt lat="45.348603550507804" lon="7.840071761714269"><ele>367.0</ele><time>2026-04-25T09:44:31.999Z</time></trkpt><trkpt lat="45.34864719567753" lon="7.840169675709274"><ele>367.0</ele><time>2026-04-25T09:44:35.999Z</time></trkpt><trkpt lat="45.34861869102825" lon="7.840253138270425"><ele>367.0</ele><time>2026-04-25T09:44:38.999Z</time></trkpt><trkpt lat="45.34843565328346" lon="7.840452774045362"><ele>367.20000000000005</ele><time>2026-04-25T09:44:41.999Z</time></trkpt><trkpt lat="45.348371989197574" lon="7.840540757392154"><ele>367.4</ele><time>2026-04-25T09:44:42.999Z</time></trkpt><trkpt lat="45.34832433869571" lon="7.8406382334814335"><ele>367.6</ele><time>2026-04-25T09:44:43.999Z</time></trkpt><trkpt lat="45.348323888371965" lon="7.840755306825176"><ele>367.79999999999995</ele><time>2026-04-25T09:44:44.999Z</time></trkpt><trkpt lat="45.348322923327714" lon="7.840851942184635"><ele>368.0</ele><time>2026-04-25T09:44:45.999Z</time></trkpt><trkpt lat="45.3482367896481" lon="7.840985695012859"><ele>367.59999999999997</ele><time>2026-04-25T09:44:47.999Z</time></trkpt><trkpt lat="45.34813295107244" lon="7.841015046458617"><ele>367.2</ele><time>2026-04-25T09:44:48.999Z</time></trkpt><trkpt lat="45.34807316219365" lon="7.8410707687370955"><ele>366.8</ele><time>2026-04-25T09:44:49.999Z</time></trkpt><trkpt lat="45.34800072148951" lon="7.841097225399399"><ele>366.4</ele><time>2026-04-25T09:44:50.999Z</time></trkpt><trkpt lat="45.34787854139931" lon="7.841254285855156"><ele>366.0</ele><time>2026-04-25T09:44:52.999Z</time></trkpt><trkpt lat="45.34783353334759" lon="7.841343388834034"><ele>367.6666666666667</ele><time>2026-04-25T09:44:53.999Z</time></trkpt><trkpt lat="45.3477779358921" lon="7.8414360779407355"><ele>369.3333333333333</ele><time>2026-04-25T09:44:54.999Z</time></trkpt><trkpt lat="45.347710691909505" lon="7.8414980213993175"><ele>371.0</ele><time>2026-04-25T09:44:55.999Z</time></trkpt><trkpt lat="45.34764792592188" lon="7.841575781737423"><ele>372.66666666666663</ele><time>2026-04-25T09:44:56.999Z</time></trkpt><trkpt lat="45.347594431693324" lon="7.841655264289326"><ele>374.3333333333333</ele><time>2026-04-25T09:44:57.999Z</time></trkpt><trkpt lat="45.34755692182337" lon="7.841730044210131"><ele>376.0</ele><time>2026-04-25T09:44:58.999Z</time></trkpt><trkpt lat="45.3475039839847" lon="7.841839474781683"><ele>376.5</ele><time>2026-04-25T09:44:59.999Z</time></trkpt><trkpt lat="45.34746727631223" lon="7.841929678318124"><ele>377.0</ele><time>2026-04-25T09:45:00.999Z</time></trkpt><trkpt lat="45.347471421123366" lon="7.842019516086361"><ele>377.5</ele><time>2026-04-25T09:45:01.998Z</time></trkpt><trkpt lat="45.34748192434522" lon="7.842137571385269"><ele>378.0</ele><time>2026-04-25T09:45:02.998Z</time></trkpt><trkpt lat="45.347465780421686" lon="7.842235714828663"><ele>378.5</ele><time>2026-04-25T09:45:03.998Z</time></trkpt><trkpt lat="45.34744941487394" lon="7.842366001143398"><ele>379.0</ele><time>2026-04-25T09:45:05.998Z</time></trkpt><trkpt lat="45.347460701711704" lon="7.8424807690469"><ele>379.0</ele><time>2026-04-25T09:45:06.998Z</time></trkpt><trkpt lat="45.34747970053834" lon="7.842622893390716"><ele>379.0</ele><time>2026-04-25T09:45:08.998Z</time></trkpt><trkpt lat="45.34748876742641" lon="7.842808035689322"><ele>379.0</ele><time>2026-04-25T09:45:10.998Z</time></trkpt><trkpt lat="45.347536259651875" lon="7.84288229285801"><ele>379.0</ele><time>2026-04-25T09:45:11.998Z</time></trkpt><trkpt lat="45.34755666989495" lon="7.842980793277344"><ele>379.0</ele><time>2026-04-25T09:45:12.998Z</time></trkpt><trkpt lat="45.34758334046179" lon="7.843132904738262"><ele>379.5</ele><time>2026-04-25T09:45:14.998Z</time></trkpt><trkpt lat="45.347589552851055" lon="7.843297390351102"><ele>380.0</ele><time>2026-04-25T09:45:16.998Z</time></trkpt><trkpt lat="45.3476182504029" lon="7.843411242897395"><ele>380.5</ele><time>2026-04-25T09:45:17.998Z</time></trkpt><trkpt lat="45.34761750436755" lon="7.843511463745287"><ele>381.0</ele><time>2026-04-25T09:45:18.998Z</time></trkpt><trkpt lat="45.34759791469145" lon="7.843617197333809"><ele>381.5</ele><time>2026-04-25T09:45:19.998Z</time></trkpt><trkpt lat="45.34760579397409" lon="7.843742932166736"><ele>382.0</ele><time>2026-04-25T09:45:20.998Z</time></trkpt><trkpt lat="45.34761641645702" lon="7.8438947375276"><ele>382.8</ele><time>2026-04-25T09:45:22.998Z</time></trkpt><trkpt lat="45.34763975863877" lon="7.844048980143291"><ele>383.6</ele><time>2026-04-25T09:45:24.998Z</time></trkpt><trkpt lat="45.3476142823254" lon="7.844176534641208"><ele>384.40000000000003</ele><time>2026-04-25T09:45:26.999Z</time></trkpt><trkpt lat="45.347629622834" lon="7.8442818746540715"><ele>385.20000000000005</ele><time>2026-04-25T09:45:27.999Z</time></trkpt><trkpt lat="45.347635713244124" lon="7.844418423997868"><ele>386.0</ele><time>2026-04-25T09:45:28.999Z</time></trkpt><trkpt lat="45.34761799296201" lon="7.84452834476761"><ele>386.4</ele><time>2026-04-25T09:45:29.999Z</time></trkpt><trkpt lat="45.34761481144047" lon="7.84466034431029"><ele>386.8</ele><time>2026-04-25T09:45:30.999Z</time></trkpt><trkpt lat="45.3476152883888" lon="7.844801801078641"><ele>387.2</ele><time>2026-04-25T09:45:31.999Z</time></trkpt><trkpt lat="45.3476214207567" lon="7.844935676668886"><ele>387.59999999999997</ele><time>2026-04-25T09:45:32.999Z</time></trkpt><trkpt lat="45.347603207528095" lon="7.8450545484888465"><ele>388.0</ele><time>2026-04-25T09:45:33.999Z</time></trkpt><trkpt lat="45.34758976517867" lon="7.845192524312848"><ele>388.83333333333337</ele><time>2026-04-25T09:45:34.999Z</time></trkpt><trkpt lat="45.34759146555965" lon="7.845320715274174"><ele>389.6666666666667</ele><time>2026-04-25T09:45:35.999Z</time></trkpt><trkpt lat="45.34760217868509" lon="7.845418742330407"><ele>390.5</ele><time>2026-04-25T09:45:36.999Z</time></trkpt><trkpt lat="45.34760416416741" lon="7.845525747757708"><ele>391.33333333333337</ele><time>2026-04-25T09:45:37.999Z</time></trkpt><trkpt lat="45.347614830470526" lon="7.8456431718908926"><ele>392.1666666666667</ele><time>2026-04-25T09:45:38.999Z</time></trkpt><trkpt lat="45.347630393085126" lon="7.8457486771568865"><ele>393.0</ele><time>2026-04-25T09:45:39.999Z</time></trkpt><trkpt lat="45.347631825211465" lon="7.84586020342928"><ele>393.0</ele><time>2026-04-25T09:45:40.999Z</time></trkpt><trkpt lat="45.34764820265467" lon="7.845950105011969"><ele>393.0</ele><time>2026-04-25T09:45:41.999Z</time></trkpt><trkpt lat="45.34767257721502" lon="7.846042624402885"><ele>393.0</ele><time>2026-04-25T09:45:42.999Z</time></trkpt><trkpt lat="45.34768606969799" lon="7.8461404376000345"><ele>393.0</ele><time>2026-04-25T09:45:43.999Z</time></trkpt><trkpt lat="45.34770700567578" lon="7.846245928059317"><ele>393.0</ele><time>2026-04-25T09:45:45.999Z</time></trkpt><trkpt lat="45.347667083817804" lon="7.846341203307391"><ele>393.0</ele><time>2026-04-25T09:45:47.999Z</time></trkpt><trkpt lat="45.34766637604805" lon="7.846501061282502"><ele>393.4</ele><time>2026-04-25T09:45:49.999Z</time></trkpt><trkpt lat="45.34762412190309" lon="7.8465945719598915"><ele>393.79999999999995</ele><time>2026-04-25T09:45:51.999Z</time></trkpt><trkpt lat="45.34760118347611" lon="7.846746734248604"><ele>394.2</ele><time>2026-04-25T09:45:53.999Z</time></trkpt><trkpt lat="45.34753226807415" lon="7.84686708771671"><ele>394.6</ele><time>2026-04-25T09:45:56.999Z</time></trkpt><trkpt lat="45.34747970398619" lon="7.846985728406458"><ele>395.0</ele><time>2026-04-25T09:45:58.999Z</time></trkpt><trkpt lat="45.34746401514394" lon="7.8470775074065555"><ele>395.0</ele><time>2026-04-25T09:45:59.999Z</time></trkpt><trkpt lat="45.3474728777295" lon="7.847196366387355"><ele>395.0</ele><time>2026-04-25T09:46:01.999Z</time></trkpt><trkpt lat="45.34740870217825" lon="7.847312177082939"><ele>395.0</ele><time>2026-04-25T09:46:03.999Z</time></trkpt><trkpt lat="45.34743709599989" lon="7.847487423400042"><ele>395.0</ele><time>2026-04-25T09:46:05.999Z</time></trkpt><trkpt lat="45.34744685171194" lon="7.847596064293761"><ele>395.0</ele><time>2026-04-25T09:46:06.999Z</time></trkpt><trkpt lat="45.347387575755924" lon="7.847673539949884"><ele>393.6</ele><time>2026-04-25T09:46:08.999Z</time></trkpt><trkpt lat="45.34733976751902" lon="7.847855304776224"><ele>392.2</ele><time>2026-04-25T09:46:10.999Z</time></trkpt><trkpt lat="45.34733921185064" lon="7.847957774627326"><ele>390.79999999999995</ele><time>2026-04-25T09:46:11.999Z</time></trkpt><trkpt lat="45.34730038219963" lon="7.8480597228665605"><ele>389.4</ele><time>2026-04-25T09:46:12.999Z</time></trkpt><trkpt lat="45.34726104514682" lon="7.848217818437904"><ele>388.0</ele><time>2026-04-25T09:46:14.999Z</time></trkpt><trkpt lat="45.34718698723455" lon="7.848323916265278"><ele>388.59999999999997</ele><time>2026-04-25T09:46:16.999Z</time></trkpt><trkpt lat="45.34716145708299" lon="7.848464459648594"><ele>389.2</ele><time>2026-04-25T09:46:18.999Z</time></trkpt><trkpt lat="45.34708284638162" lon="7.848582159169311"><ele>389.8</ele><time>2026-04-25T09:46:20.999Z</time></trkpt><trkpt lat="45.34707925009849" lon="7.848733479675683"><ele>390.4</ele><time>2026-04-25T09:46:22.999Z</time></trkpt><trkpt lat="45.34702312481723" lon="7.848842828554024"><ele>391.0</ele><time>2026-04-25T09:46:24.999Z</time></trkpt><trkpt lat="45.34698746415654" lon="7.848949126452918"><ele>391.00000000000006</ele><time>2026-04-25T09:46:25.999Z</time></trkpt><trkpt lat="45.34696061699804" lon="7.849071543606611"><ele>391.0</ele><time>2026-04-25T09:46:26.999Z</time></trkpt><trkpt lat="45.34694742508244" lon="7.849167659307004"><ele>391.0</ele><time>2026-04-25T09:46:27.999Z</time></trkpt><trkpt lat="45.34688523740337" lon="7.849311652388581"><ele>391.0</ele><time>2026-04-25T09:46:29.999Z</time></trkpt><trkpt lat="45.34686054794679" lon="7.849401746932731"><ele>391.00000000000006</ele><time>2026-04-25T09:46:30.999Z</time></trkpt><trkpt lat="45.34683478503817" lon="7.849518684425603"><ele>391.0</ele><time>2026-04-25T09:46:31.999Z</time></trkpt><trkpt lat="45.34682139743009" lon="7.84966789651435"><ele>390.8</ele><time>2026-04-25T09:46:32.999Z</time></trkpt><trkpt lat="45.34680298175231" lon="7.849858757886552"><ele>390.6</ele><time>2026-04-25T09:46:34.999Z</time></trkpt><trkpt lat="45.34674027477394" lon="7.849952736821692"><ele>390.4</ele><time>2026-04-25T09:46:37.999Z</time></trkpt><trkpt lat="45.3467148671945" lon="7.85007808925024"><ele>390.2</ele><time>2026-04-25T09:46:38.999Z</time></trkpt><trkpt lat="45.34667823881051" lon="7.8501999823732085"><ele>390.0</ele><time>2026-04-25T09:46:39.999Z</time></trkpt><trkpt lat="45.346649101075656" lon="7.8503928589826115"><ele>390.0</ele><time>2026-04-25T09:46:41.999Z</time></trkpt><trkpt lat="45.34665405679221" lon="7.850499031342842"><ele>390.0</ele><time>2026-04-25T09:46:42.999Z</time></trkpt><trkpt lat="45.34668370188126" lon="7.850665003459116"><ele>390.0</ele><time>2026-04-25T09:46:44.999Z</time></trkpt><trkpt lat="45.346693981051104" lon="7.8507604700451905"><ele>390.0</ele><time>2026-04-25T09:46:45.999Z</time></trkpt><trkpt lat="45.34665191222763" lon="7.850924964718625"><ele>390.0</ele><time>2026-04-25T09:46:47.999Z</time></trkpt><trkpt lat="45.34663770535619" lon="7.851028060966179"><ele>389.2</ele><time>2026-04-25T09:46:48.999Z</time></trkpt><trkpt lat="45.34662820822782" lon="7.85112959640566"><ele>388.4</ele><time>2026-04-25T09:46:49.999Z</time></trkpt><trkpt lat="45.3465806882361" lon="7.851256270269152"><ele>387.6</ele><time>2026-04-25T09:46:51.999Z</time></trkpt><trkpt lat="45.346554515918136" lon="7.851382353355985"><ele>386.8</ele><time>2026-04-25T09:46:54.999Z</time></trkpt><trkpt lat="45.34653489358278" lon="7.851527833594712"><ele>386.0</ele><time>2026-04-25T09:46:57.998Z</time></trkpt><trkpt lat="45.346471215896635" lon="7.851640102551373"><ele>385.8333333333333</ele><time>2026-04-25T09:46:59.998Z</time></trkpt><trkpt lat="45.34645351391109" lon="7.8518194146210485"><ele>385.66666666666663</ele><time>2026-04-25T09:47:01.998Z</time></trkpt><trkpt lat="45.346444621113974" lon="7.851911522753819"><ele>385.5</ele><time>2026-04-25T09:47:02.998Z</time></trkpt><trkpt lat="45.34644304811169" lon="7.852016363252953"><ele>385.33333333333337</ele><time>2026-04-25T09:47:03.998Z</time></trkpt><trkpt lat="45.3464651626216" lon="7.852131700635543"><ele>385.1666666666667</ele><time>2026-04-25T09:47:05.998Z</time></trkpt><trkpt lat="45.3464705127225" lon="7.852229867495456"><ele>385.0</ele><time>2026-04-25T09:47:07.998Z</time></trkpt><trkpt lat="45.346472877446544" lon="7.852343281866284"><ele>385.0</ele><time>2026-04-25T09:47:10.998Z</time></trkpt><trkpt lat="45.346460176940234" lon="7.8524868530084"><ele>385.0</ele><time>2026-04-25T09:47:12.998Z</time></trkpt><trkpt lat="45.346498275325985" lon="7.8526293658864725"><ele>385.0</ele><time>2026-04-25T09:47:14.998Z</time></trkpt><trkpt lat="45.3464685213597" lon="7.852756311792867"><ele>385.0</ele><time>2026-04-25T09:47:16.998Z</time></trkpt><trkpt lat="45.34649487207231" lon="7.852874928617434"><ele>385.0</ele><time>2026-04-25T09:47:21.998Z</time></trkpt><trkpt lat="45.34639196199431" lon="7.85292548259578"><ele>385.33333333333337</ele><time>2026-04-25T09:47:23.998Z</time></trkpt><trkpt lat="45.346325453818736" lon="7.852943989338935"><ele>385.6666666666667</ele><time>2026-04-25T09:47:24.998Z</time></trkpt><trkpt lat="45.346235861043915" lon="7.852967061781726"><ele>386.0</ele><time>2026-04-25T09:47:25.998Z</time></trkpt><trkpt lat="45.346151030344004" lon="7.85300415143856"><ele>386.33333333333337</ele><time>2026-04-25T09:47:26.998Z</time></trkpt><trkpt lat="45.34606336875805" lon="7.853036771758026"><ele>386.6666666666667</ele><time>2026-04-25T09:47:27.998Z</time></trkpt><trkpt lat="45.34601611673483" lon="7.8531481819761835"><ele>387.0</ele><time>2026-04-25T09:47:29.998Z</time></trkpt><trkpt lat="45.345993917089565" lon="7.853280460511207"><ele>387.0</ele><time>2026-04-25T09:47:31.999Z</time></trkpt><trkpt lat="45.34595018082889" lon="7.853369820852435"><ele>387.0</ele><time>2026-04-25T09:47:33.999Z</time></trkpt><trkpt lat="45.34591011508646" lon="7.853478839689733"><ele>387.0</ele><time>2026-04-25T09:47:35.999Z</time></trkpt><trkpt lat="45.34588032740541" lon="7.853572769868478"><ele>387.0</ele><time>2026-04-25T09:47:37.999Z</time></trkpt><trkpt lat="45.34585492186191" lon="7.853712138032327"><ele>387.0</ele><time>2026-04-25T09:47:39.999Z</time></trkpt><trkpt lat="45.34581784774188" lon="7.853863103129185"><ele>387.0</ele><time>2026-04-25T09:47:41.999Z</time></trkpt><trkpt lat="45.345785569539494" lon="7.853947283527746"><ele>386.8</ele><time>2026-04-25T09:47:42.999Z</time></trkpt><trkpt lat="45.34574624556287" lon="7.854049279776482"><ele>386.6</ele><time>2026-04-25T09:47:43.999Z</time></trkpt><trkpt lat="45.3457066743328" lon="7.854172225027491"><ele>386.40000000000003</ele><time>2026-04-25T09:47:44.999Z</time></trkpt><trkpt lat="45.34566424527071" lon="7.854293710245163"><ele>386.20000000000005</ele><time>2026-04-25T09:47:46.999Z</time></trkpt><trkpt lat="45.34567463234235" lon="7.854439122536096"><ele>386.0</ele><time>2026-04-25T09:47:48.999Z</time></trkpt><trkpt lat="45.3456266221596" lon="7.8545883421814855"><ele>385.99999999999994</ele><time>2026-04-25T09:47:50.999Z</time></trkpt><trkpt lat="45.34561221000243" lon="7.854692253483607"><ele>386.0</ele><time>2026-04-25T09:47:51.999Z</time></trkpt><trkpt lat="45.34556396837119" lon="7.854773789500753"><ele>386.0</ele><time>2026-04-25T09:47:54.999Z</time></trkpt><trkpt lat="45.345541296024024" lon="7.854907978180024"><ele>386.0</ele><time>2026-04-25T09:47:56.999Z</time></trkpt><trkpt lat="45.345533424558354" lon="7.855010095027889"><ele>385.99999999999994</ele><time>2026-04-25T09:47:57.999Z</time></trkpt><trkpt lat="45.345502694991886" lon="7.855123596072623"><ele>386.0</ele><time>2026-04-25T09:47:59.999Z</time></trkpt><trkpt lat="45.34550034620484" lon="7.855233645955211"><ele>384.49999999999994</ele><time>2026-04-25T09:48:01.999Z</time></trkpt><trkpt lat="45.34551863506377" lon="7.855390152041906"><ele>383.0</ele><time>2026-04-25T09:48:03.999Z</time></trkpt><trkpt lat="45.34546645802202" lon="7.855455903237956"><ele>381.5</ele><time>2026-04-25T09:48:06.999Z</time></trkpt><trkpt lat="45.34541415605979" lon="7.855526842355689"><ele>380.0</ele><time>2026-04-25T09:48:10.999Z</time></trkpt><trkpt lat="45.34536558064189" lon="7.855648126663429"><ele>378.5</ele><time>2026-04-25T09:48:12.999Z</time></trkpt><trkpt lat="45.34528817120566" lon="7.855704648787825"><ele>377.0</ele><time>2026-04-25T09:48:14.999Z</time></trkpt><trkpt lat="45.34525783999583" lon="7.855841371566909"><ele>377.0</ele><time>2026-04-25T09:48:17.999Z</time></trkpt><trkpt lat="45.34520532583253" lon="7.85593241816031"><ele>377.0</ele><time>2026-04-25T09:48:18.999Z</time></trkpt><trkpt lat="45.345132552457635" lon="7.855983431761341"><ele>377.0</ele><time>2026-04-25T09:48:20.999Z</time></trkpt><trkpt lat="45.34506155708879" lon="7.85611108541275"><ele>377.0</ele><time>2026-04-25T09:48:22.999Z</time></trkpt><trkpt lat="45.34499023556213" lon="7.856205693354847"><ele>377.0</ele><time>2026-04-25T09:48:24.999Z</time></trkpt><trkpt lat="45.345004895028154" lon="7.8563018970087635"><ele>377.0</ele><time>2026-04-25T09:48:25.999Z</time></trkpt><trkpt lat="45.34499472390193" lon="7.856462550393938"><ele>377.6</ele><time>2026-04-25T09:48:27.999Z</time></trkpt><trkpt lat="45.345021050919826" lon="7.856552961737905"><ele>378.20000000000005</ele><time>2026-04-25T09:48:28.999Z</time></trkpt><trkpt lat="45.345009380107584" lon="7.856641476524874"><ele>378.8</ele><time>2026-04-25T09:48:29.999Z</time></trkpt><trkpt lat="45.344996042813065" lon="7.856805712925084"><ele>379.4</ele><time>2026-04-25T09:48:31.999Z</time></trkpt><trkpt lat="45.34498235378463" lon="7.856964828158882"><ele>380.0</ele><time>2026-04-25T09:48:33.999Z</time></trkpt><trkpt lat="45.34499875257321" lon="7.857126826662916"><ele>380.0</ele><time>2026-04-25T09:48:35.999Z</time></trkpt><trkpt lat="45.34502897202236" lon="7.857215915377008"><ele>380.0</ele><time>2026-04-25T09:48:37.999Z</time></trkpt><trkpt lat="45.34506552052757" lon="7.857302878217375"><ele>380.0</ele><time>2026-04-25T09:48:38.999Z</time></trkpt><trkpt lat="45.345077947473854" lon="7.857426807821299"><ele>380.0</ele><time>2026-04-25T09:48:40.999Z</time></trkpt><trkpt lat="45.345113381143314" lon="7.857523807997819"><ele>380.0</ele><time>2026-04-25T09:48:42.999Z</time></trkpt><trkpt lat="45.34509637326903" lon="7.85764529371108"><ele>380.0</ele><time>2026-04-25T09:48:45.999Z</time></trkpt><trkpt lat="45.34511254356104" lon="7.857751808590415"><ele>378.83333333333337</ele><time>2026-04-25T09:48:47.999Z</time></trkpt><trkpt lat="45.34513389925762" lon="7.857870132585144"><ele>377.6666666666667</ele><time>2026-04-25T09:48:49.999Z</time></trkpt><trkpt lat="45.345165329206345" lon="7.857953290990098"><ele>376.5</ele><time>2026-04-25T09:49:04.999Z</time></trkpt><trkpt lat="45.34517537104822" lon="7.858068655042172"><ele>375.3333333333333</ele><time>2026-04-25T09:49:21.998Z</time></trkpt><trkpt lat="45.34523455429547" lon="7.858150594876991"><ele>374.16666666666663</ele><time>2026-04-25T09:49:24.998Z</time></trkpt><trkpt lat="45.34521300345403" lon="7.858242933103486"><ele>373.0</ele><time>2026-04-25T09:49:27.998Z</time></trkpt><trkpt lat="45.34515849692444" lon="7.858318508924994"><ele>373.0</ele><time>2026-04-25T09:49:31.998Z</time></trkpt><trkpt lat="45.34506309024894" lon="7.858354492302559"><ele>373.0</ele><time>2026-04-25T09:49:34.998Z</time></trkpt><trkpt lat="45.34499182475205" lon="7.858376433038351"><ele>373.0</ele><time>2026-04-25T09:49:36.998Z</time></trkpt><trkpt lat="45.34489990055289" lon="7.858360912626237"><ele>373.0</ele><time>2026-04-25T09:49:39.999Z</time></trkpt><trkpt lat="45.344836818903445" lon="7.858406285404101"><ele>373.0</ele><time>2026-04-25T09:49:43Z</time></trkpt><trkpt lat="45.344925721894036" lon="7.858456580154441"><ele>373.0</ele><time>2026-04-25T09:50:01Z</time></trkpt><trkpt lat="45.344997718726475" lon="7.858473306039558"><ele>373.0</ele><time>2026-04-25T09:50:03Z</time></trkpt><trkpt lat="45.34508745845577" lon="7.858506827244872"><ele>373.0</ele><time>2026-04-25T09:50:04Z</time></trkpt><trkpt lat="45.345166593052575" lon="7.858510482887975"><ele>373.0</ele><time>2026-04-25T09:50:05Z</time></trkpt><trkpt lat="45.345257517967724" lon="7.858488381492442"><ele>373.0</ele><time>2026-04-25T09:50:06Z</time></trkpt><trkpt lat="45.34536122172607" lon="7.858446067606148"><ele>373.0</ele><time>2026-04-25T09:50:07Z</time></trkpt><trkpt lat="45.3454418433827" lon="7.858463210520441"><ele>373.16666666666663</ele><time>2026-04-25T09:50:08Z</time></trkpt><trkpt lat="45.34552605700782" lon="7.858478138661052"><ele>373.3333333333333</ele><time>2026-04-25T09:50:09Z</time></trkpt><trkpt lat="45.345593058323885" lon="7.858485465059336"><ele>373.5</ele><time>2026-04-25T09:50:10Z</time></trkpt><trkpt lat="45.345655676401385" lon="7.858537549349062"><ele>373.6666666666667</ele><time>2026-04-25T09:50:11Z</time></trkpt><trkpt lat="45.34573627731799" lon="7.8586176538349"><ele>373.83333333333337</ele><time>2026-04-25T09:50:13Z</time></trkpt><trkpt lat="45.345736072916836" lon="7.85876235253815"><ele>374.0</ele><time>2026-04-25T09:50:15Z</time></trkpt><trkpt lat="45.34572473472484" lon="7.858872565183389"><ele>374.4</ele><time>2026-04-25T09:50:16Z</time></trkpt><trkpt lat="45.34570647769875" lon="7.859027495804169"><ele>374.79999999999995</ele><time>2026-04-25T09:50:17Z</time></trkpt><trkpt lat="45.34567042228341" lon="7.859159847089049"><ele>375.20000000000005</ele><time>2026-04-25T09:50:18Z</time></trkpt><trkpt lat="45.34561312358062" lon="7.859311006787637"><ele>375.6</ele><time>2026-04-25T09:50:19Z</time></trkpt><trkpt lat="45.34556790167877" lon="7.859466343709674"><ele>376.0</ele><time>2026-04-25T09:50:20Z</time></trkpt><trkpt lat="45.34553413197029" lon="7.859633427897796"><ele>376.0</ele><time>2026-04-25T09:50:20.999Z</time></trkpt><trkpt lat="45.345493321455756" lon="7.859781065242114"><ele>376.0</ele><time>2026-04-25T09:50:21.999Z</time></trkpt><trkpt lat="45.34543964952374" lon="7.859959380654921"><ele>376.0</ele><time>2026-04-25T09:50:22.999Z</time></trkpt><trkpt lat="45.34539691368788" lon="7.86013041307333"><ele>376.0</ele><time>2026-04-25T09:50:23.999Z</time></trkpt><trkpt lat="45.34535379717682" lon="7.860306589396562"><ele>375.25</ele><time>2026-04-25T09:50:24.999Z</time></trkpt><trkpt lat="45.34530575564728" lon="7.860473986318134"><ele>374.5</ele><time>2026-04-25T09:50:25.999Z</time></trkpt><trkpt lat="45.3452628049418" lon="7.860638623153881"><ele>373.75</ele><time>2026-04-25T09:50:26.999Z</time></trkpt><trkpt lat="45.34521807621963" lon="7.860771318737262"><ele>373.0</ele><time>2026-04-25T09:50:27.999Z</time></trkpt><trkpt lat="45.34517473398989" lon="7.860935320131747"><ele>372.2</ele><time>2026-04-25T09:50:28.999Z</time></trkpt><trkpt lat="45.3451359526343" lon="7.861084589868942"><ele>371.4</ele><time>2026-04-25T09:50:29.999Z</time></trkpt><trkpt lat="45.34509287169591" lon="7.8612271912221905"><ele>370.59999999999997</ele><time>2026-04-25T09:50:30.999Z</time></trkpt><trkpt lat="45.345047559251654" lon="7.861336717780277"><ele>369.79999999999995</ele><time>2026-04-25T09:50:31.999Z</time></trkpt><trkpt lat="45.34501383410338" lon="7.861464718324924"><ele>369.0</ele><time>2026-04-25T09:50:32.999Z</time></trkpt><trkpt lat="45.34496336571934" lon="7.861597449879342"><ele>369.0</ele><time>2026-04-25T09:50:33.999Z</time></trkpt><trkpt lat="45.34491270163244" lon="7.861732069772402"><ele>369.0</ele><time>2026-04-25T09:50:34.999Z</time></trkpt><trkpt lat="45.34487708896601" lon="7.8618703977236395"><ele>369.0</ele><time>2026-04-25T09:50:35.999Z</time></trkpt><trkpt lat="45.34487135426234" lon="7.861961982860304"><ele>369.0</ele><time>2026-04-25T09:50:36.999Z</time></trkpt><trkpt lat="45.3447847154106" lon="7.861959992700471"><ele>369.0</ele><time>2026-04-25T09:50:38.999Z</time></trkpt><trkpt lat="45.344720473079825" lon="7.861792001258546"><ele>371.4</ele><time>2026-04-25T09:50:40.999Z</time></trkpt><trkpt lat="45.34468452283614" lon="7.86163988958544"><ele>373.79999999999995</ele><time>2026-04-25T09:50:41.999Z</time></trkpt><trkpt lat="45.34464766412087" lon="7.861516091598753"><ele>376.20000000000005</ele><time>2026-04-25T09:50:42.999Z</time></trkpt><trkpt lat="45.34458594948523" lon="7.861413538887879"><ele>378.6</ele><time>2026-04-25T09:50:43.999Z</time></trkpt><trkpt lat="45.344527735696296" lon="7.861308130744916"><ele>381.0</ele><time>2026-04-25T09:50:44.999Z</time></trkpt><trkpt lat="45.34452592123039" lon="7.8611908284198995"><ele>381.0</ele><time>2026-04-25T09:50:46.999Z</time></trkpt><trkpt lat="45.34459262655223" lon="7.861091863433353"><ele>381.0</ele><time>2026-04-25T09:50:48.999Z</time></trkpt><trkpt lat="45.344631965702455" lon="7.860994730357363"><ele>381.0</ele><time>2026-04-25T09:50:50.999Z</time></trkpt><trkpt lat="45.34461330396628" lon="7.86086219111607"><ele>381.0</ele><time>2026-04-25T09:50:53.999Z</time></trkpt><trkpt lat="45.344542307954484" lon="7.860804906279223"><ele>381.0</ele><time>2026-04-25T09:50:56.999Z</time></trkpt><trkpt lat="45.34449806539539" lon="7.86089963591603"><ele>381.0</ele><time>2026-04-25T09:50:59.999Z</time></trkpt><trkpt lat="45.34453905334267" lon="7.86107980486746"><ele>381.0</ele><time>2026-04-25T09:51:01.999Z</time></trkpt><trkpt lat="45.34455013152944" lon="7.861236094431343"><ele>381.0</ele><time>2026-04-25T09:51:03.999Z</time></trkpt><trkpt lat="45.34452905689874" lon="7.861336610190106"><ele>381.0</ele><time>2026-04-25T09:51:04.999Z</time></trkpt><trkpt lat="45.34457415246647" lon="7.861478542098132"><ele>381.0</ele><time>2026-04-25T09:51:06.999Z</time></trkpt><trkpt lat="45.3446307152657" lon="7.861553868411492"><ele>381.0</ele><time>2026-04-25T09:51:07.999Z</time></trkpt><trkpt lat="45.34468362882548" lon="7.861661621262192"><ele>381.0</ele><time>2026-04-25T09:51:09.999Z</time></trkpt><trkpt lat="45.344739746233444" lon="7.861720819697147"><ele>381.0</ele><time>2026-04-25T09:51:15.999Z</time></trkpt><trkpt lat="45.34468526625535" lon="7.861776401646524"><ele>381.0</ele><time>2026-04-25T09:51:23.999Z</time></trkpt><trkpt lat="45.34457490636698" lon="7.861775536902053"><ele>381.0</ele><time>2026-04-25T09:51:25.999Z</time></trkpt><trkpt lat="45.344496448407284" lon="7.861751187826213"><ele>381.0</ele><time>2026-04-25T09:51:26.999Z</time></trkpt><trkpt lat="45.34442254264072" lon="7.861746801491979"><ele>381.0</ele><time>2026-04-25T09:51:27.999Z</time></trkpt><trkpt lat="45.34433487844328" lon="7.861727753613016"><ele>381.0</ele><time>2026-04-25T09:51:29.999Z</time></trkpt><trkpt lat="45.34424203668526" lon="7.861697232939481"><ele>381.0</ele><time>2026-04-25T09:51:31.999Z</time></trkpt><trkpt lat="45.34415870383302" lon="7.861683530849003"><ele>381.0</ele><time>2026-04-25T09:54:42Z</time></trkpt><trkpt lat="45.3440946960836" lon="7.861683848610803"><ele>381.0</ele><time>2026-04-25T09:54:46Z</time></trkpt><trkpt lat="45.34416217509229" lon="7.861648065615126"><ele>381.0</ele><time>2026-04-25T09:55:09.999Z</time></trkpt><trkpt lat="45.3443467404198" lon="7.861756833140835"><ele>381.0</ele><time>2026-04-25T09:55:18.999Z</time></trkpt><trkpt lat="45.34442584488614" lon="7.861781652970043"><ele>381.0</ele><time>2026-04-25T09:55:20.999Z</time></trkpt><trkpt lat="45.34455392200274" lon="7.8617981863459745"><ele>381.0</ele><time>2026-04-25T09:55:22.999Z</time></trkpt><trkpt lat="45.344628656540316" lon="7.8617876304313"><ele>381.0</ele><time>2026-04-25T09:55:23.999Z</time></trkpt><trkpt lat="45.344717044674105" lon="7.861780510353171"><ele>381.0</ele><time>2026-04-25T09:55:25.999Z</time></trkpt><trkpt lat="45.344742423364664" lon="7.8618750811381535"><ele>381.0</ele><time>2026-04-25T09:55:29.999Z</time></trkpt><trkpt lat="45.34461593496236" lon="7.861809597684789"><ele>381.0</ele><time>2026-04-25T09:56:11.001Z</time></trkpt><trkpt lat="45.34454684428009" lon="7.861826739429786"><ele>381.0</ele><time>2026-04-25T09:56:12.001Z</time></trkpt><trkpt lat="45.344471567631615" lon="7.861808847186769"><ele>381.0</ele><time>2026-04-25T09:56:13.001Z</time></trkpt><trkpt lat="45.34439362224704" lon="7.861792274505402"><ele>381.0</ele><time>2026-04-25T09:56:14Z</time></trkpt><trkpt lat="45.34430960817299" lon="7.861768166429889"><ele>381.0</ele><time>2026-04-25T09:56:15Z</time></trkpt><trkpt lat="45.34424446386304" lon="7.861737777520136"><ele>381.0</ele><time>2026-04-25T09:56:16Z</time></trkpt><trkpt lat="45.34414753551432" lon="7.8617193714743365"><ele>381.0</ele><time>2026-04-25T09:56:17Z</time></trkpt><trkpt lat="45.344056045501944" lon="7.861681287445624"><ele>381.0</ele><time>2026-04-25T09:56:18Z</time></trkpt><trkpt lat="45.343984138453195" lon="7.86168113077022"><ele>381.0</ele><time>2026-04-25T09:56:19Z</time></trkpt><trkpt lat="45.34390976186499" lon="7.861664834903888"><ele>381.0</ele><time>2026-04-25T09:56:20Z</time></trkpt><trkpt lat="45.343841824138025" lon="7.861694807101325"><ele>381.0</ele><time>2026-04-25T09:56:22Z</time></trkpt><trkpt lat="45.3438518944507" lon="7.861824018493163"><ele>381.0</ele><time>2026-04-25T09:56:24Z</time></trkpt><trkpt lat="45.34381979365429" lon="7.861911472610945"><ele>382.6</ele><time>2026-04-25T09:56:27Z</time></trkpt><trkpt lat="45.34370489282525" lon="7.862052446374908"><ele>384.20000000000005</ele><time>2026-04-25T09:57:53.999Z</time></trkpt><trkpt lat="45.343652512451854" lon="7.862112909232323"><ele>385.79999999999995</ele><time>2026-04-25T09:57:54.999Z</time></trkpt><trkpt lat="45.343605753546754" lon="7.862187847650398"><ele>387.4</ele><time>2026-04-25T09:57:55.999Z</time></trkpt><trkpt lat="45.34357010493766" lon="7.862311931162315"><ele>389.0</ele><time>2026-04-25T09:57:57.999Z</time></trkpt><trkpt lat="45.34354571162003" lon="7.862425944673614"><ele>388.99999999999994</ele><time>2026-04-25T09:57:59.999Z</time></trkpt><trkpt lat="45.343542037639374" lon="7.8625587813186035"><ele>389.0</ele><time>2026-04-25T09:58:02.001Z</time></trkpt><trkpt lat="45.34353175506267" lon="7.862675009147437"><ele>389.0</ele><time>2026-04-25T09:58:04.001Z</time></trkpt><trkpt lat="45.3435290622746" lon="7.862771784181689"><ele>389.0</ele><time>2026-04-25T09:58:06.001Z</time></trkpt><trkpt lat="45.343514174274766" lon="7.862865856732435"><ele>388.99999999999994</ele><time>2026-04-25T09:58:09.001Z</time></trkpt><trkpt lat="45.34348267592773" lon="7.862978540455357"><ele>389.0</ele><time>2026-04-25T09:58:54Z</time></trkpt><trkpt lat="45.343458749604" lon="7.863137906089565"><ele>389.16666666666663</ele><time>2026-04-25T09:58:56Z</time></trkpt><trkpt lat="45.34345034152446" lon="7.8632429634129855"><ele>389.3333333333333</ele><time>2026-04-25T09:58:57Z</time></trkpt><trkpt lat="45.34344513458347" lon="7.863337941225533"><ele>389.5</ele><time>2026-04-25T09:58:57.999Z</time></trkpt><trkpt lat="45.34343059072835" lon="7.863485980139367"><ele>389.66666666666663</ele><time>2026-04-25T09:58:59.999Z</time></trkpt><trkpt lat="45.34342634520775" lon="7.863575344378135"><ele>389.8333333333333</ele><time>2026-04-25T09:59:00.999Z</time></trkpt><trkpt lat="45.34342051446273" lon="7.863671073444124"><ele>390.0</ele><time>2026-04-25T09:59:01.999Z</time></trkpt><trkpt lat="45.34340773032251" lon="7.8637827407061405"><ele>389.8333333333333</ele><time>2026-04-25T09:59:02.999Z</time></trkpt><trkpt lat="45.34341423782607" lon="7.863876885532976"><ele>389.66666666666663</ele><time>2026-04-25T09:59:03.999Z</time></trkpt><trkpt lat="45.343413151511825" lon="7.864002634377236"><ele>389.5</ele><time>2026-04-25T09:59:04.999Z</time></trkpt><trkpt lat="45.34342216230969" lon="7.864115591406416"><ele>389.3333333333333</ele><time>2026-04-25T09:59:05.999Z</time></trkpt><trkpt lat="45.34344187543402" lon="7.864202488763255"><ele>389.16666666666663</ele><time>2026-04-25T09:59:06.999Z</time></trkpt><trkpt lat="45.343449947911395" lon="7.8643011537487535"><ele>389.0</ele><time>2026-04-25T09:59:07.999Z</time></trkpt><trkpt lat="45.34342383826873" lon="7.864468710100267"><ele>388.99999999999994</ele><time>2026-04-25T09:59:09.999Z</time></trkpt><trkpt lat="45.34341235321968" lon="7.864577486528525"><ele>389.0</ele><time>2026-04-25T09:59:10.999Z</time></trkpt><trkpt lat="45.343420409901086" lon="7.864691706204756"><ele>389.0</ele><time>2026-04-25T09:59:11.999Z</time></trkpt><trkpt lat="45.34342688228737" lon="7.864794518729177"><ele>389.0</ele><time>2026-04-25T09:59:12.999Z</time></trkpt><trkpt lat="45.343440643704874" lon="7.864910747388115"><ele>388.99999999999994</ele><time>2026-04-25T09:59:13.999Z</time></trkpt><trkpt lat="45.34345600738566" lon="7.865022021292367"><ele>389.0</ele><time>2026-04-25T09:59:14.999Z</time></trkpt><trkpt lat="45.34346008618485" lon="7.8651931859692175"><ele>389.2</ele><time>2026-04-25T09:59:16.999Z</time></trkpt><trkpt lat="45.34341213637886" lon="7.865312535948726"><ele>389.4</ele><time>2026-04-25T09:59:18.999Z</time></trkpt><trkpt lat="45.343368457033876" lon="7.865414484724303"><ele>389.6</ele><time>2026-04-25T09:59:21.999Z</time></trkpt><trkpt lat="45.34332448246257" lon="7.865557492535237"><ele>389.8</ele><time>2026-04-25T09:59:24.999Z</time></trkpt><trkpt lat="45.34321807370419" lon="7.865645402033294"><ele>390.0</ele><time>2026-04-25T09:59:26.999Z</time></trkpt><trkpt lat="45.34314803292956" lon="7.865691711400694"><ele>389.8</ele><time>2026-04-25T09:59:27.999Z</time></trkpt><trkpt lat="45.3430421332217" lon="7.865820884659175"><ele>389.6</ele><time>2026-04-25T09:59:29.999Z</time></trkpt><trkpt lat="45.34302504499266" lon="7.86592877248495"><ele>389.4</ele><time>2026-04-25T09:59:30.999Z</time></trkpt><trkpt lat="45.34296204592183" lon="7.8661072955979545"><ele>389.2</ele><time>2026-04-25T09:59:32.999Z</time></trkpt><trkpt lat="45.34294760564203" lon="7.866224266228792"><ele>389.0</ele><time>2026-04-25T09:59:33.999Z</time></trkpt><trkpt lat="45.34293492444119" lon="7.8663301045987355"><ele>390.0</ele><time>2026-04-25T09:59:34.999Z</time></trkpt><trkpt lat="45.342938627369435" lon="7.86643482283473"><ele>391.0</ele><time>2026-04-25T09:59:35.999Z</time></trkpt><trkpt lat="45.34293638935018" lon="7.8665427988837004"><ele>392.0</ele><time>2026-04-25T09:59:36.999Z</time></trkpt><trkpt lat="45.34294011879527" lon="7.866670050768846"><ele>393.0</ele><time>2026-04-25T09:59:37.999Z</time></trkpt><trkpt lat="45.34289653478494" lon="7.866875127010165"><ele>394.0</ele><time>2026-04-25T09:59:39.999Z</time></trkpt><trkpt lat="45.34287587812985" lon="7.866999586432626"><ele>395.00000000000006</ele><time>2026-04-25T09:59:40.999Z</time></trkpt><trkpt lat="45.34285515226009" lon="7.867122199160992"><ele>396.0</ele><time>2026-04-25T09:59:41.999Z</time></trkpt><trkpt lat="45.34282794187813" lon="7.867219931219082"><ele>397.0</ele><time>2026-04-25T09:59:42.999Z</time></trkpt><trkpt lat="45.34279885143091" lon="7.867317867943662"><ele>398.0</ele><time>2026-04-25T09:59:43.999Z</time></trkpt><trkpt lat="45.34275153507189" lon="7.867408196579111"><ele>399.00000000000006</ele><time>2026-04-25T09:59:44.999Z</time></trkpt><trkpt lat="45.3426988619491" lon="7.867502621765503"><ele>400.0</ele><time>2026-04-25T09:59:45.999Z</time></trkpt><trkpt lat="45.34266018055194" lon="7.867588041219246"><ele>400.4</ele><time>2026-04-25T09:59:46.999Z</time></trkpt><trkpt lat="45.34260620380759" lon="7.867720373267381"><ele>400.8</ele><time>2026-04-25T09:59:47.999Z</time></trkpt><trkpt lat="45.34256377365361" lon="7.867847581441562"><ele>401.20000000000005</ele><time>2026-04-25T09:59:48.999Z</time></trkpt><trkpt lat="45.34252444886318" lon="7.867967483786542"><ele>401.6</ele><time>2026-04-25T09:59:49.999Z</time></trkpt><trkpt lat="45.342459052243974" lon="7.86807051224889"><ele>402.0</ele><time>2026-04-25T09:59:50.999Z</time></trkpt><trkpt lat="45.342402707510644" lon="7.868231776972238"><ele>402.0</ele><time>2026-04-25T09:59:52.999Z</time></trkpt><trkpt lat="45.34234057635465" lon="7.868346041024631"><ele>402.0</ele><time>2026-04-25T09:59:53.999Z</time></trkpt><trkpt lat="45.34228723271263" lon="7.868436101351058"><ele>402.0</ele><time>2026-04-25T09:59:54.998Z</time></trkpt><trkpt lat="45.34223672125752" lon="7.868514241533807"><ele>402.0</ele><time>2026-04-25T09:59:55.998Z</time></trkpt><trkpt lat="45.34216080507347" lon="7.868645265077871"><ele>402.0</ele><time>2026-04-25T09:59:57.998Z</time></trkpt><trkpt lat="45.34213635539656" lon="7.868738013374187"><ele>402.0</ele><time>2026-04-25T09:59:58.998Z</time></trkpt><trkpt lat="45.34212972077637" lon="7.868839334727008"><ele>401.6</ele><time>2026-04-25T09:59:59.998Z</time></trkpt><trkpt lat="45.34212895309247" lon="7.868944905859096"><ele>401.20000000000005</ele><time>2026-04-25T10:00:00.998Z</time></trkpt><trkpt lat="45.34214226221753" lon="7.869094459492606"><ele>400.8</ele><time>2026-04-25T10:00:02.998Z</time></trkpt><trkpt lat="45.342134530766" lon="7.869215074989342"><ele>400.4</ele><time>2026-04-25T10:00:03.998Z</time></trkpt><trkpt lat="45.34211363628614" lon="7.869304082183813"><ele>400.0</ele><time>2026-04-25T10:00:04.998Z</time></trkpt><trkpt lat="45.342018027425404" lon="7.869463892511524"><ele>400.0</ele><time>2026-04-25T10:00:06.998Z</time></trkpt><trkpt lat="45.341957727296936" lon="7.869577102939389"><ele>400.0</ele><time>2026-04-25T10:00:08Z</time></trkpt><trkpt lat="45.341914369524275" lon="7.869659074817488"><ele>400.0</ele><time>2026-04-25T10:00:09Z</time></trkpt><trkpt lat="45.34185508396758" lon="7.86977716572107"><ele>400.0</ele><time>2026-04-25T10:00:10Z</time></trkpt><trkpt lat="45.34180757588528" lon="7.869892248048402"><ele>400.0</ele><time>2026-04-25T10:00:11Z</time></trkpt><trkpt lat="45.34174362528544" lon="7.869982923254095"><ele>400.0</ele><time>2026-04-25T10:00:12Z</time></trkpt><trkpt lat="45.34168984376498" lon="7.870100780347182"><ele>400.0</ele><time>2026-04-25T10:00:13Z</time></trkpt><trkpt lat="45.341636458738805" lon="7.870204518949506"><ele>400.0</ele><time>2026-04-25T10:00:14Z</time></trkpt><trkpt lat="45.3415966785459" lon="7.870350674092359"><ele>400.0</ele><time>2026-04-25T10:00:15Z</time></trkpt><trkpt lat="45.34158442438713" lon="7.870498226298802"><ele>400.0</ele><time>2026-04-25T10:00:16Z</time></trkpt><trkpt lat="45.341582952939376" lon="7.870636487241014"><ele>399.8</ele><time>2026-04-25T10:00:17Z</time></trkpt><trkpt lat="45.34155121762685" lon="7.870785926686997"><ele>399.6</ele><time>2026-04-25T10:00:18Z</time></trkpt><trkpt lat="45.34152590477334" lon="7.8709199151598535"><ele>399.4</ele><time>2026-04-25T10:00:19Z</time></trkpt><trkpt lat="45.341534079196265" lon="7.871055784376376"><ele>399.2</ele><time>2026-04-25T10:00:20Z</time></trkpt><trkpt lat="45.34153192055152" lon="7.871216205032674"><ele>399.0</ele><time>2026-04-25T10:00:21Z</time></trkpt><trkpt lat="45.341535084348386" lon="7.8713759770690395"><ele>398.2</ele><time>2026-04-25T10:00:22Z</time></trkpt><trkpt lat="45.34154202322327" lon="7.871532887484599"><ele>397.4</ele><time>2026-04-25T10:00:23Z</time></trkpt><trkpt lat="45.34154173940953" lon="7.871690913077189"><ele>396.6</ele><time>2026-04-25T10:00:24Z</time></trkpt><trkpt lat="45.34152710904358" lon="7.871858109453535"><ele>395.8</ele><time>2026-04-25T10:00:25Z</time></trkpt><trkpt lat="45.341504766847045" lon="7.871994988000946"><ele>395.0</ele><time>2026-04-25T10:00:26Z</time></trkpt><trkpt lat="45.341489095235445" lon="7.872133125398276"><ele>394.0</ele><time>2026-04-25T10:00:27Z</time></trkpt><trkpt lat="45.3414686653771" lon="7.872296287519374"><ele>393.0</ele><time>2026-04-25T10:00:28Z</time></trkpt><trkpt lat="45.34145314449824" lon="7.872441899597897"><ele>392.0</ele><time>2026-04-25T10:00:29Z</time></trkpt><trkpt lat="45.34144323048616" lon="7.872541793774764"><ele>391.0</ele><time>2026-04-25T10:00:30Z</time></trkpt><trkpt lat="45.34142153985933" lon="7.872638544244051"><ele>390.0</ele><time>2026-04-25T10:00:31Z</time></trkpt><trkpt lat="45.341379913345044" lon="7.872809682474364"><ele>390.0</ele><time>2026-04-25T10:00:33Z</time></trkpt><trkpt lat="45.3413720115706" lon="7.872947040828113"><ele>390.0</ele><time>2026-04-25T10:00:35Z</time></trkpt><trkpt lat="45.341334564233264" lon="7.873059069190825"><ele>390.0</ele><time>2026-04-25T10:00:37Z</time></trkpt><trkpt lat="45.34129385471527" lon="7.873139691269863"><ele>390.0</ele><time>2026-04-25T10:00:49Z</time></trkpt><trkpt lat="45.34122015561448" lon="7.873205589631285"><ele>390.0</ele><time>2026-04-25T10:00:50.999Z</time></trkpt><trkpt lat="45.34112548663654" lon="7.873226849265331"><ele>390.0</ele><time>2026-04-25T10:00:52.999Z</time></trkpt><trkpt lat="45.34105991106553" lon="7.873203272977301"><ele>390.0</ele><time>2026-04-25T10:00:53.999Z</time></trkpt><trkpt lat="45.34098950346187" lon="7.873174217030051"><ele>390.0</ele><time>2026-04-25T10:00:54.999Z</time></trkpt><trkpt lat="45.340892117943284" lon="7.873137945036673"><ele>390.0</ele><time>2026-04-25T10:00:55.999Z</time></trkpt><trkpt lat="45.34080077212714" lon="7.873123220729551"><ele>390.0</ele><time>2026-04-25T10:00:56.999Z</time></trkpt><trkpt lat="45.340719765080905" lon="7.873140779438195"><ele>390.0</ele><time>2026-04-25T10:00:57.999Z</time></trkpt><trkpt lat="45.340631332981836" lon="7.873184872293927"><ele>390.0</ele><time>2026-04-25T10:00:58.999Z</time></trkpt><trkpt lat="45.34049749940002" lon="7.8732148151726475"><ele>389.1666666666667</ele><time>2026-04-25T10:01:00.999Z</time></trkpt><trkpt lat="45.34040377317704" lon="7.873251019141738"><ele>388.33333333333337</ele><time>2026-04-25T10:01:01.999Z</time></trkpt><trkpt lat="45.340332614528876" lon="7.8732226843299475"><ele>387.5</ele><time>2026-04-25T10:01:02.999Z</time></trkpt><trkpt lat="45.340265825921385" lon="7.87318239423376"><ele>386.6666666666667</ele><time>2026-04-25T10:01:03.999Z</time></trkpt><trkpt lat="45.340182350280315" lon="7.873160237254898"><ele>385.83333333333337</ele><time>2026-04-25T10:01:04.999Z</time></trkpt><trkpt lat="45.34008768457373" lon="7.873154574042795"><ele>385.0</ele><time>2026-04-25T10:01:05.999Z</time></trkpt><trkpt lat="45.339987248282284" lon="7.873147924891324"><ele>385.00000000000006</ele><time>2026-04-25T10:01:06.999Z</time></trkpt><trkpt lat="45.339891918162955" lon="7.873150428033048"><ele>385.0</ele><time>2026-04-25T10:01:07.999Z</time></trkpt><trkpt lat="45.3398161222902" lon="7.873121654296632"><ele>385.0</ele><time>2026-04-25T10:01:09.999Z</time></trkpt><trkpt lat="45.33970655906355" lon="7.873155093472694"><ele>385.0</ele><time>2026-04-25T10:01:11.999Z</time></trkpt><trkpt lat="45.33964079511348" lon="7.873145156041161"><ele>385.00000000000006</ele><time>2026-04-25T10:01:12.999Z</time></trkpt><trkpt lat="45.3395687707916" lon="7.873133007449792"><ele>385.0</ele><time>2026-04-25T10:01:13.999Z</time></trkpt><trkpt lat="45.33949919029161" lon="7.873143808931707"><ele>383.6666666666667</ele><time>2026-04-25T10:01:14.999Z</time></trkpt><trkpt lat="45.33942524439419" lon="7.873163798375824"><ele>382.33333333333337</ele><time>2026-04-25T10:01:15.999Z</time></trkpt><trkpt lat="45.339367482695714" lon="7.873213619848294"><ele>381.0</ele><time>2026-04-25T10:01:16.999Z</time></trkpt><trkpt lat="45.33926266321598" lon="7.8732441372986"><ele>379.6666666666667</ele><time>2026-04-25T10:01:18.999Z</time></trkpt><trkpt lat="45.339200498449735" lon="7.873200182575968"><ele>378.33333333333337</ele><time>2026-04-25T10:01:19.999Z</time></trkpt><trkpt lat="45.33913695966657" lon="7.873217275676154"><ele>377.0</ele><time>2026-04-25T10:01:20.999Z</time></trkpt><trkpt lat="45.33903693113358" lon="7.873363027026418"><ele>377.0</ele><time>2026-04-25T10:01:22.999Z</time></trkpt><trkpt lat="45.338917869507625" lon="7.8733632393432895"><ele>377.0</ele><time>2026-04-25T10:01:24.999Z</time></trkpt><trkpt lat="45.338848438533915" lon="7.873435468044753"><ele>377.0</ele><time>2026-04-25T10:01:27.999Z</time></trkpt><trkpt lat="45.33875060199263" lon="7.873441838894363"><ele>377.0</ele><time>2026-04-25T10:01:29.999Z</time></trkpt><trkpt lat="45.338669424265866" lon="7.873423033139234"><ele>377.0</ele><time>2026-04-25T10:01:30.999Z</time></trkpt><trkpt lat="45.33858319505899" lon="7.873400075389505"><ele>376.40000000000003</ele><time>2026-04-25T10:01:31.999Z</time></trkpt><trkpt lat="45.338468806461904" lon="7.873326971889522"><ele>375.8</ele><time>2026-04-25T10:01:32.999Z</time></trkpt><trkpt lat="45.33836816668051" lon="7.873277593050846"><ele>375.2</ele><time>2026-04-25T10:01:33.999Z</time></trkpt><trkpt lat="45.338283129520214" lon="7.873240314451683"><ele>374.6</ele><time>2026-04-25T10:01:34.999Z</time></trkpt><trkpt lat="45.338217192960464" lon="7.873219789435319"><ele>374.0</ele><time>2026-04-25T10:01:35.999Z</time></trkpt><trkpt lat="45.3381435014938" lon="7.873214976719815"><ele>374.0</ele><time>2026-04-25T10:01:36.999Z</time></trkpt><trkpt lat="45.33806961623297" lon="7.873233886262144"><ele>374.0</ele><time>2026-04-25T10:01:37.999Z</time></trkpt><trkpt lat="45.33797325457829" lon="7.873281864350706"><ele>374.0</ele><time>2026-04-25T10:01:38.999Z</time></trkpt><trkpt lat="45.33788121557889" lon="7.873343375169977"><ele>374.0</ele><time>2026-04-25T10:01:39.999Z</time></trkpt><trkpt lat="45.337800754764686" lon="7.873404367720214"><ele>374.0</ele><time>2026-04-25T10:01:40.999Z</time></trkpt><trkpt lat="45.33773474418505" lon="7.873464021126699"><ele>374.0</ele><time>2026-04-25T10:01:41.999Z</time></trkpt><trkpt lat="45.33767819277186" lon="7.873509711278299"><ele>372.7142857142857</ele><time>2026-04-25T10:01:42.999Z</time></trkpt><trkpt lat="45.337622050455394" lon="7.873560302046376"><ele>371.42857142857144</ele><time>2026-04-25T10:01:43.999Z</time></trkpt><trkpt lat="45.3375563170668" lon="7.87359583910705"><ele>370.14285714285717</ele><time>2026-04-25T10:01:44.999Z</time></trkpt><trkpt lat="45.337493205234075" lon="7.8736086423254825"><ele>368.8571428571429</ele><time>2026-04-25T10:01:45.998Z</time></trkpt><trkpt lat="45.3374282131825" lon="7.873620979354085"><ele>367.57142857142856</ele><time>2026-04-25T10:01:46.998Z</time></trkpt><trkpt lat="45.337359972598016" lon="7.87363447231042"><ele>366.28571428571433</ele><time>2026-04-25T10:01:47.998Z</time></trkpt><trkpt lat="45.3372863151273" lon="7.87364293260287"><ele>365.0</ele><time>2026-04-25T10:01:48.998Z</time></trkpt><trkpt lat="45.33719514661642" lon="7.873680833384567"><ele>363.2</ele><time>2026-04-25T10:01:49.998Z</time></trkpt><trkpt lat="45.33710157917527" lon="7.873719399911081"><ele>361.4</ele><time>2026-04-25T10:01:50.998Z</time></trkpt><trkpt lat="45.337014151146796" lon="7.873739775253504"><ele>359.6</ele><time>2026-04-25T10:01:51.998Z</time></trkpt><trkpt lat="45.33691461726919" lon="7.87374836598457"><ele>357.8</ele><time>2026-04-25T10:01:52.998Z</time></trkpt><trkpt lat="45.33679905715119" lon="7.873753931946641"><ele>356.0</ele><time>2026-04-25T10:01:53.998Z</time></trkpt><trkpt lat="45.33667525013894" lon="7.873759028942951"><ele>356.0</ele><time>2026-04-25T10:01:54.998Z</time></trkpt><trkpt lat="45.33655482031023" lon="7.873776975354869"><ele>356.0</ele><time>2026-04-25T10:01:55.998Z</time></trkpt><trkpt lat="45.33643147232815" lon="7.873797812950826"><ele>356.0</ele><time>2026-04-25T10:01:56.998Z</time></trkpt><trkpt lat="45.336304440645044" lon="7.8738242012984445"><ele>356.0</ele><time>2026-04-25T10:01:57.998Z</time></trkpt><trkpt lat="45.33617385569621" lon="7.873855581004099"><ele>355.25</ele><time>2026-04-25T10:01:58.998Z</time></trkpt><trkpt lat="45.33604429779804" lon="7.873896149678309"><ele>354.5</ele><time>2026-04-25T10:01:59.998Z</time></trkpt><trkpt lat="45.33590423218991" lon="7.873937289281145"><ele>353.75</ele><time>2026-04-25T10:02:00.998Z</time></trkpt><trkpt lat="45.33576538459593" lon="7.873971154354005"><ele>353.0</ele><time>2026-04-25T10:02:01.998Z</time></trkpt><trkpt lat="45.33563176760443" lon="7.8739838391015775"><ele>353.0</ele><time>2026-04-25T10:02:02.998Z</time></trkpt><trkpt lat="45.33549954574755" lon="7.873998080974153"><ele>353.0</ele><time>2026-04-25T10:02:03.998Z</time></trkpt><trkpt lat="45.33538157237882" lon="7.874012480822696"><ele>353.0</ele><time>2026-04-25T10:02:04.998Z</time></trkpt><trkpt lat="45.33525888394848" lon="7.874029049310499"><ele>353.0</ele><time>2026-04-25T10:02:05.998Z</time></trkpt><trkpt lat="45.3351463044502" lon="7.874043858310098"><ele>353.0</ele><time>2026-04-25T10:02:06.998Z</time></trkpt><trkpt lat="45.33503570645416" lon="7.874042245934874"><ele>353.0</ele><time>2026-04-25T10:02:07.998Z</time></trkpt><trkpt lat="45.33492608491887" lon="7.874021215391913"><ele>353.0</ele><time>2026-04-25T10:02:08.998Z</time></trkpt><trkpt lat="45.33481047596887" lon="7.873987502039139"><ele>353.0</ele><time>2026-04-25T10:02:09.998Z</time></trkpt><trkpt lat="45.334692528110786" lon="7.873979884520421"><ele>354.4</ele><time>2026-04-25T10:02:10.998Z</time></trkpt><trkpt lat="45.33458139302753" lon="7.873986712243835"><ele>355.79999999999995</ele><time>2026-04-25T10:02:11.998Z</time></trkpt><trkpt lat="45.33449299809456" lon="7.873988681339094"><ele>357.2</ele><time>2026-04-25T10:02:12.998Z</time></trkpt><trkpt lat="45.334408471381465" lon="7.873989515595011"><ele>358.6</ele><time>2026-04-25T10:02:14Z</time></trkpt><trkpt lat="45.33429342774627" lon="7.873985669092793"><ele>360.0</ele><time>2026-04-25T10:02:16Z</time></trkpt><trkpt lat="45.334171364642444" lon="7.873971826663243"><ele>360.0</ele><time>2026-04-25T10:02:18Z</time></trkpt><trkpt lat="45.3340992707158" lon="7.8739699666942045"><ele>360.0</ele><time>2026-04-25T10:02:19Z</time></trkpt><trkpt lat="45.334023117700966" lon="7.873963655372246"><ele>360.0</ele><time>2026-04-25T10:02:20Z</time></trkpt><trkpt lat="45.333944490696254" lon="7.873965773231596"><ele>360.0</ele><time>2026-04-25T10:02:21Z</time></trkpt><trkpt lat="45.33383170389046" lon="7.873969518369053"><ele>360.0</ele><time>2026-04-25T10:02:23Z</time></trkpt><trkpt lat="45.33377142766172" lon="7.873930605926643"><ele>360.0</ele><time>2026-04-25T10:02:24Z</time></trkpt><trkpt lat="45.333708152821224" lon="7.873874851878155"><ele>361.0</ele><time>2026-04-25T10:02:25Z</time></trkpt><trkpt lat="45.33364314372419" lon="7.87380235029127"><ele>362.0</ele><time>2026-04-25T10:02:26Z</time></trkpt><trkpt lat="45.33357748276402" lon="7.873711512162613"><ele>363.0</ele><time>2026-04-25T10:02:27Z</time></trkpt><trkpt lat="45.33352722776529" lon="7.873577724148846"><ele>364.0</ele><time>2026-04-25T10:02:28Z</time></trkpt><trkpt lat="45.33344722410562" lon="7.87350636264206"><ele>365.0</ele><time>2026-04-25T10:02:29Z</time></trkpt><trkpt lat="45.333364799336046" lon="7.873440959135314"><ele>365.0</ele><time>2026-04-25T10:02:30Z</time></trkpt><trkpt lat="45.333272625811475" lon="7.873378511537139"><ele>365.0</ele><time>2026-04-25T10:02:31Z</time></trkpt><trkpt lat="45.33319157100616" lon="7.873307011160074"><ele>365.0</ele><time>2026-04-25T10:02:32Z</time></trkpt><trkpt lat="45.33309976184818" lon="7.8732396944926295"><ele>365.0</ele><time>2026-04-25T10:02:33Z</time></trkpt><trkpt lat="45.33300209923963" lon="7.873186715707688"><ele>365.0</ele><time>2026-04-25T10:02:34Z</time></trkpt><trkpt lat="45.332885293914444" lon="7.873120544440089"><ele>365.0</ele><time>2026-04-25T10:02:35Z</time></trkpt><trkpt lat="45.33279074530796" lon="7.873082646226913"><ele>365.0</ele><time>2026-04-25T10:02:36Z</time></trkpt><trkpt lat="45.332692198395065" lon="7.873029850739086"><ele>365.0</ele><time>2026-04-25T10:02:37Z</time></trkpt><trkpt lat="45.33259574283724" lon="7.872985025772217"><ele>365.0</ele><time>2026-04-25T10:02:38Z</time></trkpt><trkpt lat="45.33249292237361" lon="7.872932650552254"><ele>365.0</ele><time>2026-04-25T10:02:39Z</time></trkpt><trkpt lat="45.33239610518953" lon="7.872857953929905"><ele>365.0</ele><time>2026-04-25T10:02:40Z</time></trkpt><trkpt lat="45.33229115562346" lon="7.8727886049268285"><ele>365.0</ele><time>2026-04-25T10:02:41Z</time></trkpt><trkpt lat="45.33219541845615" lon="7.872690502628289"><ele>365.0</ele><time>2026-04-25T10:02:42Z</time></trkpt><trkpt lat="45.33211279833281" lon="7.872611955818439"><ele>365.0</ele><time>2026-04-25T10:02:43Z</time></trkpt><trkpt lat="45.33201505577303" lon="7.872486698952423"><ele>365.25</ele><time>2026-04-25T10:02:44Z</time></trkpt><trkpt lat="45.33192706229434" lon="7.872365965972002"><ele>365.5</ele><time>2026-04-25T10:02:45Z</time></trkpt><trkpt lat="45.33182984068583" lon="7.872263340613843"><ele>365.75</ele><time>2026-04-25T10:02:46Z</time></trkpt><trkpt lat="45.33173250132237" lon="7.8721617504968755"><ele>366.0</ele><time>2026-04-25T10:02:47Z</time></trkpt><trkpt lat="45.33166432864767" lon="7.872051781075745"><ele>366.0</ele><time>2026-04-25T10:02:48Z</time></trkpt><trkpt lat="45.331595293809706" lon="7.871972370450393"><ele>366.0</ele><time>2026-04-25T10:02:49Z</time></trkpt><trkpt lat="45.331502432169565" lon="7.871899983757817"><ele>366.0</ele><time>2026-04-25T10:02:50Z</time></trkpt><trkpt lat="45.33139990762322" lon="7.871869854706417"><ele>366.0</ele><time>2026-04-25T10:02:51Z</time></trkpt><trkpt lat="45.33128636911741" lon="7.87185284942377"><ele>366.0</ele><time>2026-04-25T10:02:51.999Z</time></trkpt><trkpt lat="45.33116081508584" lon="7.871796629223074"><ele>364.25</ele><time>2026-04-25T10:02:52.999Z</time></trkpt><trkpt lat="45.33103346650963" lon="7.871768687219285"><ele>362.5</ele><time>2026-04-25T10:02:53.999Z</time></trkpt><trkpt lat="45.33090418923332" lon="7.871755319387323"><ele>360.75</ele><time>2026-04-25T10:02:54.999Z</time></trkpt><trkpt lat="45.330782383499056" lon="7.871775166964504"><ele>359.0</ele><time>2026-04-25T10:02:55.999Z</time></trkpt><trkpt lat="45.33070664166203" lon="7.871867628534574"><ele>361.0</ele><time>2026-04-25T10:02:56.999Z</time></trkpt><trkpt lat="45.33059991651741" lon="7.871894042563358"><ele>363.0</ele><time>2026-04-25T10:02:57.999Z</time></trkpt><trkpt lat="45.33049504753299" lon="7.871896468243217"><ele>365.0</ele><time>2026-04-25T10:02:58.999Z</time></trkpt><trkpt lat="45.330377072209146" lon="7.871867677652509"><ele>367.0</ele><time>2026-04-25T10:02:59.999Z</time></trkpt><trkpt lat="45.33024508060662" lon="7.871844384935283"><ele>367.0</ele><time>2026-04-25T10:03:00.999Z</time></trkpt><trkpt lat="45.330133969454806" lon="7.871829263773626"><ele>367.0</ele><time>2026-04-25T10:03:01.999Z</time></trkpt><trkpt lat="45.3300367400417" lon="7.871831163292627"><ele>367.0</ele><time>2026-04-25T10:03:02.999Z</time></trkpt><trkpt lat="45.32994170886708" lon="7.871823151680839"><ele>367.0</ele><time>2026-04-25T10:03:03.999Z</time></trkpt><trkpt lat="45.32985666396822" lon="7.871841698823611"><ele>367.0</ele><time>2026-04-25T10:03:04.999Z</time></trkpt><trkpt lat="45.32978243169225" lon="7.87187669330724"><ele>364.5</ele><time>2026-04-25T10:03:05.999Z</time></trkpt><trkpt lat="45.32970841824765" lon="7.871950125134545"><ele>362.0</ele><time>2026-04-25T10:03:06.999Z</time></trkpt><trkpt lat="45.329633925355914" lon="7.872067741768824"><ele>359.5</ele><time>2026-04-25T10:03:07.999Z</time></trkpt><trkpt lat="45.32956458280687" lon="7.8721536186933605"><ele>357.0</ele><time>2026-04-25T10:03:08.999Z</time></trkpt><trkpt lat="45.32950505781319" lon="7.872233439677617"><ele>354.5</ele><time>2026-04-25T10:03:09.999Z</time></trkpt><trkpt lat="45.329446025499045" lon="7.87228951401766"><ele>352.0</ele><time>2026-04-25T10:03:10.999Z</time></trkpt><trkpt lat="45.329380244861206" lon="7.872321606969936"><ele>352.0</ele><time>2026-04-25T10:03:11.999Z</time></trkpt><trkpt lat="45.32930420231323" lon="7.8723472494601605"><ele>352.0</ele><time>2026-04-25T10:03:12.999Z</time></trkpt><trkpt lat="45.329232270162855" lon="7.8723533806694"><ele>352.0</ele><time>2026-04-25T10:03:13.999Z</time></trkpt><trkpt lat="45.32915166976854" lon="7.872368875315234"><ele>352.0</ele><time>2026-04-25T10:03:15.999Z</time></trkpt><trkpt lat="45.32907591279214" lon="7.87236816498861"><ele>352.0</ele><time>2026-04-25T10:03:20.999Z</time></trkpt><trkpt lat="45.329052601630764" lon="7.872461083717098"><ele>352.0</ele><time>2026-04-25T10:03:24.999Z</time></trkpt><trkpt lat="45.329083191712755" lon="7.872573083355373"><ele>352.8333333333333</ele><time>2026-04-25T10:03:26.999Z</time></trkpt><trkpt lat="45.329128787970625" lon="7.8726573497522105"><ele>353.66666666666663</ele><time>2026-04-25T10:03:27.999Z</time></trkpt><trkpt lat="45.32915619596999" lon="7.872762646091802"><ele>354.5</ele><time>2026-04-25T10:03:28.999Z</time></trkpt><trkpt lat="45.32918627136728" lon="7.872885509123186"><ele>355.3333333333333</ele><time>2026-04-25T10:03:29.999Z</time></trkpt><trkpt lat="45.329210646949505" lon="7.873000831845549"><ele>356.1666666666667</ele><time>2026-04-25T10:03:30.999Z</time></trkpt><trkpt lat="45.32922543156725" lon="7.873137653135337"><ele>357.0</ele><time>2026-04-25T10:03:31.999Z</time></trkpt><trkpt lat="45.329245154619066" lon="7.873286039754105"><ele>357.25</ele><time>2026-04-25T10:03:32.999Z</time></trkpt><trkpt lat="45.32925295969822" lon="7.873444600114183"><ele>357.5</ele><time>2026-04-25T10:03:33.999Z</time></trkpt><trkpt lat="45.329258739562285" lon="7.873611877066808"><ele>357.75</ele><time>2026-04-25T10:03:34.999Z</time></trkpt><trkpt lat="45.329268209865795" lon="7.8738014646189995"><ele>358.0</ele><time>2026-04-25T10:03:35.999Z</time></trkpt><trkpt lat="45.32927443474429" lon="7.873990293734655"><ele>358.0</ele><time>2026-04-25T10:03:36.999Z</time></trkpt><trkpt lat="45.32927637380877" lon="7.874157505621283"><ele>358.0</ele><time>2026-04-25T10:03:37.999Z</time></trkpt><trkpt lat="45.32927394716094" lon="7.874329294414309"><ele>358.0</ele><time>2026-04-25T10:03:38.999Z</time></trkpt><trkpt lat="45.32926660191295" lon="7.8744842529043435"><ele>358.0</ele><time>2026-04-25T10:03:39.999Z</time></trkpt><trkpt lat="45.32926304865441" lon="7.874606985969266"><ele>358.0</ele><time>2026-04-25T10:03:40.999Z</time></trkpt><trkpt lat="45.32925676794892" lon="7.874703900723723"><ele>358.2</ele><time>2026-04-25T10:03:41.999Z</time></trkpt><trkpt lat="45.329255651379995" lon="7.874807985692892"><ele>358.4</ele><time>2026-04-25T10:03:42.999Z</time></trkpt><trkpt lat="45.32927280524665" lon="7.874914703264457"><ele>358.59999999999997</ele><time>2026-04-25T10:03:43.999Z</time></trkpt><trkpt lat="45.3292983477128" lon="7.875060531908041"><ele>358.79999999999995</ele><time>2026-04-25T10:03:44.999Z</time></trkpt><trkpt lat="45.32932274380489" lon="7.875213476035151"><ele>359.0</ele><time>2026-04-25T10:03:45.999Z</time></trkpt><trkpt lat="45.3293468639635" lon="7.875355043018102"><ele>358.6</ele><time>2026-04-25T10:03:46.999Z</time></trkpt><trkpt lat="45.32934967406841" lon="7.8755138902505335"><ele>358.2</ele><time>2026-04-25T10:03:47.999Z</time></trkpt><trkpt lat="45.32937020928642" lon="7.875675133396333"><ele>357.8</ele><time>2026-04-25T10:03:48.999Z</time></trkpt><trkpt lat="45.32940194642932" lon="7.875806826673843"><ele>357.40000000000003</ele><time>2026-04-25T10:03:49.999Z</time></trkpt><trkpt lat="45.329426936221076" lon="7.875965477493951"><ele>357.0</ele><time>2026-04-25T10:03:50.999Z</time></trkpt><trkpt lat="45.32945915350659" lon="7.876082486061266"><ele>356.40000000000003</ele><time>2026-04-25T10:03:51.998Z</time></trkpt><trkpt lat="45.329482439804075" lon="7.876191182410485"><ele>355.8</ele><time>2026-04-25T10:03:52.998Z</time></trkpt><trkpt lat="45.329521025531335" lon="7.876304718041377"><ele>355.2</ele><time>2026-04-25T10:03:53.998Z</time></trkpt><trkpt lat="45.3295611120387" lon="7.876427835834833"><ele>354.6</ele><time>2026-04-25T10:03:54.998Z</time></trkpt><trkpt lat="45.329618037925286" lon="7.8765524187316975"><ele>354.0</ele><time>2026-04-25T10:03:55.998Z</time></trkpt><trkpt lat="45.3296833418453" lon="7.87667549849884"><ele>356.2</ele><time>2026-04-25T10:03:56.998Z</time></trkpt><trkpt lat="45.32974161380673" lon="7.876770021714068"><ele>358.4</ele><time>2026-04-25T10:03:57.998Z</time></trkpt><trkpt lat="45.32980540931567" lon="7.876954029059431"><ele>360.6</ele><time>2026-04-25T10:03:59.998Z</time></trkpt><trkpt lat="45.32983526482073" lon="7.877079311793968"><ele>362.8</ele><time>2026-04-25T10:04:00.998Z</time></trkpt><trkpt lat="45.32987397765566" lon="7.877186801137911"><ele>365.0</ele><time>2026-04-25T10:04:01.998Z</time></trkpt><trkpt lat="45.32991251134938" lon="7.877303481349338"><ele>365.0</ele><time>2026-04-25T10:04:02.998Z</time></trkpt><trkpt lat="45.32994399541922" lon="7.877416750656107"><ele>365.0</ele><time>2026-04-25T10:04:03.998Z</time></trkpt><trkpt lat="45.329973376032704" lon="7.87750458241454"><ele>365.0</ele><time>2026-04-25T10:04:04.998Z</time></trkpt><trkpt lat="45.32999103820196" lon="7.877598095429874"><ele>365.0</ele><time>2026-04-25T10:04:05.998Z</time></trkpt><trkpt lat="45.330017409083894" lon="7.877697092440306"><ele>365.0</ele><time>2026-04-25T10:04:06.998Z</time></trkpt><trkpt lat="45.33001917588225" lon="7.877811396682829"><ele>365.0</ele><time>2026-04-25T10:04:07.998Z</time></trkpt><trkpt lat="45.33002839415657" lon="7.877931778110487"><ele>364.5</ele><time>2026-04-25T10:04:08.998Z</time></trkpt><trkpt lat="45.33002480430634" lon="7.878039650939226"><ele>364.0</ele><time>2026-04-25T10:04:09.998Z</time></trkpt><trkpt lat="45.33000949466228" lon="7.87816529698631"><ele>363.5</ele><time>2026-04-25T10:04:10.998Z</time></trkpt><trkpt lat="45.32998516198232" lon="7.878307462501492"><ele>363.0</ele><time>2026-04-25T10:04:11.998Z</time></trkpt><trkpt lat="45.32997145958757" lon="7.878428880528129"><ele>362.5</ele><time>2026-04-25T10:04:12.998Z</time></trkpt><trkpt lat="45.32995587007442" lon="7.87855524629184"><ele>362.0</ele><time>2026-04-25T10:04:13.998Z</time></trkpt><trkpt lat="45.329942220302414" lon="7.878669458951239"><ele>361.5</ele><time>2026-04-25T10:04:14.998Z</time></trkpt><trkpt lat="45.32992661995425" lon="7.878786737357103"><ele>361.0</ele><time>2026-04-25T10:04:15.998Z</time></trkpt><trkpt lat="45.32993772399339" lon="7.8788932379283"><ele>360.5</ele><time>2026-04-25T10:04:16.998Z</time></trkpt><trkpt lat="45.32994069915797" lon="7.879008963807717"><ele>360.0</ele><time>2026-04-25T10:04:17.998Z</time></trkpt><trkpt lat="45.32993523585885" lon="7.879110369344695"><ele>359.5</ele><time>2026-04-25T10:04:18.998Z</time></trkpt><trkpt lat="45.329920124903765" lon="7.8792911164065105"><ele>359.0</ele><time>2026-04-25T10:04:21Z</time></trkpt><trkpt lat="45.32996910558095" lon="7.87940689599571"><ele>359.0</ele><time>2026-04-25T10:04:23Z</time></trkpt><trkpt lat="45.33002079625537" lon="7.879459251127557"><ele>359.0</ele><time>2026-04-25T10:04:24Z</time></trkpt><trkpt lat="45.33005794570396" lon="7.879549168072682"><ele>359.0</ele><time>2026-04-25T10:04:25Z</time></trkpt><trkpt lat="45.3300561212016" lon="7.87965682488525"><ele>359.0</ele><time>2026-04-25T10:04:26Z</time></trkpt><trkpt lat="45.33004117283833" lon="7.879792551648025"><ele>359.0</ele><time>2026-04-25T10:04:27Z</time></trkpt><trkpt lat="45.330014876596124" lon="7.879922429008214"><ele>359.0</ele><time>2026-04-25T10:04:28Z</time></trkpt><trkpt lat="45.32999760624184" lon="7.880079623601897"><ele>358.75</ele><time>2026-04-25T10:04:29Z</time></trkpt><trkpt lat="45.32999236419401" lon="7.880257999490111"><ele>358.5</ele><time>2026-04-25T10:04:30Z</time></trkpt><trkpt lat="45.329979632115304" lon="7.880418810191877"><ele>358.25</ele><time>2026-04-25T10:04:31Z</time></trkpt><trkpt lat="45.32997878309963" lon="7.880573677142605"><ele>358.0</ele><time>2026-04-25T10:04:32Z</time></trkpt><trkpt lat="45.32997897208072" lon="7.880728294792859"><ele>358.0</ele><time>2026-04-25T10:04:33Z</time></trkpt><trkpt lat="45.3300009823891" lon="7.880880367975466"><ele>358.0</ele><time>2026-04-25T10:04:34Z</time></trkpt><trkpt lat="45.33003035644322" lon="7.88102641598707"><ele>358.0</ele><time>2026-04-25T10:04:35Z</time></trkpt><trkpt lat="45.33006588865939" lon="7.881177540428216"><ele>358.0</ele><time>2026-04-25T10:04:36Z</time></trkpt><trkpt lat="45.33008385878982" lon="7.881320274277823"><ele>358.0</ele><time>2026-04-25T10:04:37Z</time></trkpt><trkpt lat="45.33008743214158" lon="7.881457599120956"><ele>358.2</ele><time>2026-04-25T10:04:38Z</time></trkpt><trkpt lat="45.33008018090522" lon="7.881591542250811"><ele>358.4</ele><time>2026-04-25T10:04:39Z</time></trkpt><trkpt lat="45.33006382895629" lon="7.881721500169185"><ele>358.59999999999997</ele><time>2026-04-25T10:04:40Z</time></trkpt><trkpt lat="45.330042512694185" lon="7.881892773926797"><ele>358.79999999999995</ele><time>2026-04-25T10:04:41Z</time></trkpt><trkpt lat="45.330039248247324" lon="7.882045799662876"><ele>359.0</ele><time>2026-04-25T10:04:42Z</time></trkpt><trkpt lat="45.33002487330488" lon="7.882194976810537"><ele>359.2</ele><time>2026-04-25T10:04:43Z</time></trkpt><trkpt lat="45.330047516690925" lon="7.8823344314148995"><ele>359.4</ele><time>2026-04-25T10:04:44Z</time></trkpt><trkpt lat="45.33006006744279" lon="7.882437277019225"><ele>359.6</ele><time>2026-04-25T10:04:45Z</time></trkpt><trkpt lat="45.33008899014914" lon="7.88251852821058"><ele>359.8</ele><time>2026-04-25T10:04:46Z</time></trkpt><trkpt lat="45.3302186772712" lon="7.882621986234947"><ele>360.0</ele><time>2026-04-25T10:04:48Z</time></trkpt><trkpt lat="45.33030690329604" lon="7.882654773770441"><ele>357.5</ele><time>2026-04-25T10:04:49Z</time></trkpt><trkpt lat="45.330419660836064" lon="7.882715495398807"><ele>355.0</ele><time>2026-04-25T10:04:50Z</time></trkpt><trkpt lat="45.33053310333035" lon="7.882772996431899"><ele>352.5</ele><time>2026-04-25T10:04:51Z</time></trkpt><trkpt lat="45.33065151216831" lon="7.882798698377055"><ele>350.0</ele><time>2026-04-25T10:04:52Z</time></trkpt><trkpt lat="45.33077678013866" lon="7.882807912198365"><ele>355.0</ele><time>2026-04-25T10:04:53Z</time></trkpt><trkpt lat="45.33089257176446" lon="7.882805826943089"><ele>360.0</ele><time>2026-04-25T10:04:54Z</time></trkpt><trkpt lat="45.33099325014827" lon="7.882842927363748"><ele>365.0</ele><time>2026-04-25T10:04:55Z</time></trkpt><trkpt lat="45.33108005623782" lon="7.882930197987067"><ele>370.0</ele><time>2026-04-25T10:04:56Z</time></trkpt><trkpt lat="45.331189277252655" lon="7.883023637279225"><ele>370.0</ele><time>2026-04-25T10:04:57Z</time></trkpt><trkpt lat="45.33131030916348" lon="7.883092895679482"><ele>370.0</ele><time>2026-04-25T10:04:57.999Z</time></trkpt><trkpt lat="45.33143081871315" lon="7.883119676700996"><ele>370.0</ele><time>2026-04-25T10:04:58.999Z</time></trkpt><trkpt lat="45.331523317668356" lon="7.883162281463191"><ele>370.0</ele><time>2026-04-25T10:04:59.999Z</time></trkpt><trkpt lat="45.3316258179213" lon="7.883186442954326"><ele>374.2</ele><time>2026-04-25T10:05:01.999Z</time></trkpt><trkpt lat="45.331662844914206" lon="7.883054806796733"><ele>378.4</ele><time>2026-04-25T10:05:03.999Z</time></trkpt><trkpt lat="45.331542751838164" lon="7.88297480876715"><ele>382.6</ele><time>2026-04-25T10:05:04.999Z</time></trkpt><trkpt lat="45.33147613093693" lon="7.882863162143639"><ele>386.8</ele><time>2026-04-25T10:05:05.999Z</time></trkpt><trkpt lat="45.331417084553614" lon="7.882770107270749"><ele>391.0</ele><time>2026-04-25T10:05:06.999Z</time></trkpt><trkpt lat="45.33147662525595" lon="7.882666647104329"><ele>391.0</ele><time>2026-04-25T10:05:09.999Z</time></trkpt><trkpt lat="45.33157670331329" lon="7.88272605846057"><ele>391.0</ele><time>2026-04-25T10:05:10.999Z</time></trkpt><trkpt lat="45.33164370268957" lon="7.882859219603639"><ele>391.0</ele><time>2026-04-25T10:05:11.999Z</time></trkpt><trkpt lat="45.33170494536009" lon="7.882919640767616"><ele>391.0</ele><time>2026-04-25T10:05:12.999Z</time></trkpt><trkpt lat="45.331779884643616" lon="7.882917835665116"><ele>391.0</ele><time>2026-04-25T10:05:13.999Z</time></trkpt><trkpt lat="45.33184829700874" lon="7.882850019211447"><ele>391.0</ele><time>2026-04-25T10:05:14.999Z</time></trkpt><trkpt lat="45.331902666250386" lon="7.88272585332933"><ele>391.0</ele><time>2026-04-25T10:05:15.999Z</time></trkpt><trkpt lat="45.331966141359175" lon="7.882608523009883"><ele>391.0</ele><time>2026-04-25T10:05:16.999Z</time></trkpt><trkpt lat="45.3320457771928" lon="7.882526763008415"><ele>391.0</ele><time>2026-04-25T10:05:17.999Z</time></trkpt><trkpt lat="45.33211934234917" lon="7.882480973327668"><ele>391.0</ele><time>2026-04-25T10:05:18.999Z</time></trkpt><trkpt lat="45.332193499588435" lon="7.882486238777601"><ele>394.33333333333337</ele><time>2026-04-25T10:05:19.999Z</time></trkpt><trkpt lat="45.332261963059025" lon="7.882510529222335"><ele>397.6666666666667</ele><time>2026-04-25T10:05:20.999Z</time></trkpt><trkpt lat="45.33233699659794" lon="7.882550974673385"><ele>401.0</ele><time>2026-04-25T10:05:21.999Z</time></trkpt><trkpt lat="45.332454981974074" lon="7.882603778692302"><ele>404.33333333333337</ele><time>2026-04-25T10:05:22.999Z</time></trkpt><trkpt lat="45.332552442733714" lon="7.8826365114839625"><ele>407.6666666666667</ele><time>2026-04-25T10:05:23.999Z</time></trkpt><trkpt lat="45.33261411870346" lon="7.882667583120892"><ele>411.0</ele><time>2026-04-25T10:05:24.999Z</time></trkpt><trkpt lat="45.33270686375736" lon="7.8827075272214016"><ele>411.0</ele><time>2026-04-25T10:05:26.999Z</time></trkpt><trkpt lat="45.33276023634255" lon="7.882769132061331"><ele>411.0</ele><time>2026-04-25T10:05:28.999Z</time></trkpt><trkpt lat="45.33282048706153" lon="7.882799299669969"><ele>411.0</ele><time>2026-04-25T10:05:33.999Z</time></trkpt><trkpt lat="45.33274363775419" lon="7.882734842184269"><ele>411.0</ele><time>2026-04-25T10:06:41Z</time></trkpt><trkpt lat="45.33283119315613" lon="7.882462687516095"><ele>411.0</ele><time>2026-04-25T10:06:43Z</time></trkpt><trkpt lat="45.33285693273847" lon="7.882370014477553"><ele>413.8</ele><time>2026-04-25T10:06:44Z</time></trkpt><trkpt lat="45.33286188837786" lon="7.882205887149207"><ele>416.6</ele><time>2026-04-25T10:06:46Z</time></trkpt><trkpt lat="45.33285807212868" lon="7.8820897792180284"><ele>419.4</ele><time>2026-04-25T10:06:47Z</time></trkpt><trkpt lat="45.33285816983034" lon="7.881931189510763"><ele>422.2</ele><time>2026-04-25T10:06:48Z</time></trkpt><trkpt lat="45.33283978452904" lon="7.8817640595304175"><ele>425.0</ele><time>2026-04-25T10:06:49Z</time></trkpt><trkpt lat="45.33280543323343" lon="7.88158937464834"><ele>425.0</ele><time>2026-04-25T10:06:50Z</time></trkpt><trkpt lat="45.3327823915904" lon="7.881402862411279"><ele>425.0</ele><time>2026-04-25T10:06:51Z</time></trkpt><trkpt lat="45.33275976619259" lon="7.881220940236069"><ele>425.0</ele><time>2026-04-25T10:06:52Z</time></trkpt><trkpt lat="45.33273658497466" lon="7.881065781288151"><ele>425.0</ele><time>2026-04-25T10:06:53Z</time></trkpt><trkpt lat="45.33272942674255" lon="7.880923590820814"><ele>424.2</ele><time>2026-04-25T10:06:54Z</time></trkpt><trkpt lat="45.33271963348216" lon="7.880774716209534"><ele>423.4</ele><time>2026-04-25T10:06:55Z</time></trkpt><trkpt lat="45.33270949590191" lon="7.880610253137323"><ele>422.6</ele><time>2026-04-25T10:06:56Z</time></trkpt><trkpt lat="45.33269380284393" lon="7.880457846267774"><ele>421.8</ele><time>2026-04-25T10:06:57Z</time></trkpt><trkpt lat="45.3326751049992" lon="7.8803141827453285"><ele>421.0</ele><time>2026-04-25T10:06:58Z</time></trkpt><trkpt lat="45.332667297109374" lon="7.880208124723475"><ele>420.50000000000006</ele><time>2026-04-25T10:06:59Z</time></trkpt><trkpt lat="45.332621623036324" lon="7.8800346305181"><ele>420.0</ele><time>2026-04-25T10:07:01Z</time></trkpt><trkpt lat="45.33261418384247" lon="7.879932121614411"><ele>419.5</ele><time>2026-04-25T10:07:02Z</time></trkpt><trkpt lat="45.33260295309431" lon="7.879835593096963"><ele>419.0</ele><time>2026-04-25T10:07:03Z</time></trkpt><trkpt lat="45.33259750594513" lon="7.879718754695004"><ele>418.50000000000006</ele><time>2026-04-25T10:07:04Z</time></trkpt><trkpt lat="45.33259148991567" lon="7.8796095471124925"><ele>418.0</ele><time>2026-04-25T10:07:05Z</time></trkpt><trkpt lat="45.33259988798241" lon="7.879515899091695"><ele>418.00000000000006</ele><time>2026-04-25T10:07:06Z</time></trkpt><trkpt lat="45.332594868967355" lon="7.879403227895094"><ele>418.0</ele><time>2026-04-25T10:07:07Z</time></trkpt><trkpt lat="45.33257869153951" lon="7.879301652225507"><ele>418.0</ele><time>2026-04-25T10:07:08Z</time></trkpt><trkpt lat="45.33253828306983" lon="7.879184990920862"><ele>418.0</ele><time>2026-04-25T10:07:09.999Z</time></trkpt><trkpt lat="45.33246501146253" lon="7.879116843431047"><ele>418.00000000000006</ele><time>2026-04-25T10:07:13.999Z</time></trkpt><trkpt lat="45.33245759450924" lon="7.879010624850711"><ele>418.0</ele><time>2026-04-25T10:07:16.999Z</time></trkpt><trkpt lat="45.33247053571339" lon="7.878900500531045"><ele>417.50000000000006</ele><time>2026-04-25T10:07:18.999Z</time></trkpt><trkpt lat="45.33243021840403" lon="7.878787539950154"><ele>417.0</ele><time>2026-04-25T10:07:20.999Z</time></trkpt><trkpt lat="45.332364475509046" lon="7.878745355238879"><ele>416.5</ele><time>2026-04-25T10:07:22.999Z</time></trkpt><trkpt lat="45.332338563578396" lon="7.878645901276508"><ele>416.0</ele><time>2026-04-25T10:07:26.999Z</time></trkpt><trkpt lat="45.3323419778822" lon="7.878540030876859"><ele>415.50000000000006</ele><time>2026-04-25T10:07:29.999Z</time></trkpt><trkpt lat="45.332333186534214" lon="7.8784186158137075"><ele>415.0</ele><time>2026-04-25T10:07:31.999Z</time></trkpt><trkpt lat="45.33234153407989" lon="7.878320723694459"><ele>414.6666666666667</ele><time>2026-04-25T10:07:33.999Z</time></trkpt><trkpt lat="45.332327041952475" lon="7.8782035684698375"><ele>414.33333333333337</ele><time>2026-04-25T10:07:35.999Z</time></trkpt><trkpt lat="45.33233539164693" lon="7.87803152285574"><ele>414.0</ele><time>2026-04-25T10:07:37.999Z</time></trkpt><trkpt lat="45.33231859575915" lon="7.877894622457026"><ele>413.66666666666663</ele><time>2026-04-25T10:07:39.999Z</time></trkpt><trkpt lat="45.332329218199014" lon="7.877800359972559"><ele>413.3333333333333</ele><time>2026-04-25T10:07:41.999Z</time></trkpt><trkpt lat="45.33230340286975" lon="7.877704379520289"><ele>413.0</ele><time>2026-04-25T10:07:45.999Z</time></trkpt><trkpt lat="45.33228365098624" lon="7.877606146239981"><ele>411.2</ele><time>2026-04-25T10:07:47.999Z</time></trkpt><trkpt lat="45.33221653943686" lon="7.877486666286209"><ele>409.4</ele><time>2026-04-25T10:07:49.999Z</time></trkpt><trkpt lat="45.33217632581191" lon="7.8774174211435435"><ele>407.59999999999997</ele><time>2026-04-25T10:07:50.999Z</time></trkpt><trkpt lat="45.332115952726745" lon="7.877308925294401"><ele>405.79999999999995</ele><time>2026-04-25T10:07:52.999Z</time></trkpt><trkpt lat="45.33207004432436" lon="7.877191356128764"><ele>404.0</ele><time>2026-04-25T10:07:54.999Z</time></trkpt><trkpt lat="45.3319996663662" lon="7.877057720573556"><ele>404.0</ele><time>2026-04-25T10:07:56.999Z</time></trkpt><trkpt lat="45.331976168033165" lon="7.876892566714032"><ele>404.0</ele><time>2026-04-25T10:07:58.999Z</time></trkpt><trkpt lat="45.331973172595575" lon="7.876795565942874"><ele>404.0</ele><time>2026-04-25T10:07:59.999Z</time></trkpt><trkpt lat="45.33190749635613" lon="7.876662065004767"><ele>404.0</ele><time>2026-04-25T10:08:01.999Z</time></trkpt><trkpt lat="45.33185694605451" lon="7.87654880251397"><ele>404.0</ele><time>2026-04-25T10:08:02.999Z</time></trkpt><trkpt lat="45.33181646735498" lon="7.8764559183255995"><ele>403.8333333333333</ele><time>2026-04-25T10:08:03.999Z</time></trkpt><trkpt lat="45.331770471541155" lon="7.876301886969373"><ele>403.66666666666663</ele><time>2026-04-25T10:08:05.999Z</time></trkpt><trkpt lat="45.33174283644744" lon="7.876178053159823"><ele>403.5</ele><time>2026-04-25T10:08:07.999Z</time></trkpt><trkpt lat="45.33171316186259" lon="7.8760910349553175"><ele>403.33333333333337</ele><time>2026-04-25T10:08:08.998Z</time></trkpt><trkpt lat="45.33168113128865" lon="7.875989158467381"><ele>403.1666666666667</ele><time>2026-04-25T10:08:09.998Z</time></trkpt><trkpt lat="45.33165094539917" lon="7.875887444051633"><ele>403.0</ele><time>2026-04-25T10:08:10.998Z</time></trkpt><trkpt lat="45.3316217516998" lon="7.875776136064438"><ele>402.00000000000006</ele><time>2026-04-25T10:08:11.998Z</time></trkpt><trkpt lat="45.331571363226445" lon="7.875664306604779"><ele>401.0</ele><time>2026-04-25T10:08:12.998Z</time></trkpt><trkpt lat="45.33149023861256" lon="7.875602256141917"><ele>400.0</ele><time>2026-04-25T10:08:18.998Z</time></trkpt><trkpt lat="45.33143784846511" lon="7.875538699263505"><ele>399.0</ele><time>2026-04-25T10:08:19.998Z</time></trkpt><trkpt lat="45.331391253868325" lon="7.875456650006523"><ele>398.00000000000006</ele><time>2026-04-25T10:08:20.998Z</time></trkpt><trkpt lat="45.33134907720834" lon="7.875381424942836"><ele>397.0</ele><time>2026-04-25T10:08:21.998Z</time></trkpt><trkpt lat="45.3313040342724" lon="7.875317906646526"><ele>396.40000000000003</ele><time>2026-04-25T10:08:22.998Z</time></trkpt><trkpt lat="45.33124449199411" lon="7.8752708973750245"><ele>395.8</ele><time>2026-04-25T10:08:23.998Z</time></trkpt><trkpt lat="45.33116200933171" lon="7.875195753442808"><ele>395.2</ele><time>2026-04-25T10:08:25.998Z</time></trkpt><trkpt lat="45.33112420034436" lon="7.87498146623005"><ele>394.6</ele><time>2026-04-25T10:08:27.998Z</time></trkpt><trkpt lat="45.33110068647991" lon="7.874847569084309"><ele>394.0</ele><time>2026-04-25T10:08:28.998Z</time></trkpt><trkpt lat="45.331090888833145" lon="7.874742368037261"><ele>394.0</ele><time>2026-04-25T10:08:29.998Z</time></trkpt><trkpt lat="45.330993191183346" lon="7.874707336438585"><ele>394.0</ele><time>2026-04-25T10:08:33Z</time></trkpt><trkpt lat="45.33092761028822" lon="7.874698736105903"><ele>394.0</ele><time>2026-04-25T10:08:34Z</time></trkpt><trkpt lat="45.3308590604964" lon="7.874686797038016"><ele>394.0</ele><time>2026-04-25T10:08:35Z</time></trkpt><trkpt lat="45.33078459369202" lon="7.874705515135219"><ele>394.0</ele><time>2026-04-25T10:08:36Z</time></trkpt><trkpt lat="45.33064234871208" lon="7.874801963339543"><ele>394.0</ele><time>2026-04-25T10:08:38Z</time></trkpt><trkpt lat="45.33057534911173" lon="7.8748289742544735"><ele>394.0</ele><time>2026-04-25T10:08:39Z</time></trkpt><trkpt lat="45.33045558345036" lon="7.87488833817174"><ele>394.0</ele><time>2026-04-25T10:08:41Z</time></trkpt><trkpt lat="45.330364773601566" lon="7.874924050053805"><ele>394.0</ele><time>2026-04-25T10:08:42Z</time></trkpt><trkpt lat="45.33028694880436" lon="7.874936172132772"><ele>394.0</ele><time>2026-04-25T10:08:43Z</time></trkpt><trkpt lat="45.3301626481052" lon="7.8749857163492125"><ele>390.50000000000006</ele><time>2026-04-25T10:08:45Z</time></trkpt><trkpt lat="45.33009928106319" lon="7.875007038222113"><ele>387.0</ele><time>2026-04-25T10:08:46Z</time></trkpt><trkpt lat="45.33001971860652" lon="7.875030871982224"><ele>383.5</ele><time>2026-04-25T10:08:47Z</time></trkpt><trkpt lat="45.32994705906706" lon="7.87504022673825"><ele>380.0</ele><time>2026-04-25T10:08:48Z</time></trkpt><trkpt lat="45.32983506698048" lon="7.874985022556284"><ele>376.5</ele><time>2026-04-25T10:08:50Z</time></trkpt><trkpt lat="45.329769794281816" lon="7.8749673338902095"><ele>373.0</ele><time>2026-04-25T10:08:51Z</time></trkpt><trkpt lat="45.32970629465314" lon="7.874965676833827"><ele>370.2</ele><time>2026-04-25T10:08:52Z</time></trkpt><trkpt lat="45.32958481393567" lon="7.874996104075161"><ele>367.4</ele><time>2026-04-25T10:08:54Z</time></trkpt><trkpt lat="45.32950458245072" lon="7.87499205381849"><ele>364.59999999999997</ele><time>2026-04-25T10:08:55.999Z</time></trkpt><trkpt lat="45.32940038012133" lon="7.874936397370965"><ele>361.79999999999995</ele><time>2026-04-25T10:08:57.999Z</time></trkpt><trkpt lat="45.329321028836574" lon="7.87486074571649"><ele>359.0</ele><time>2026-04-25T10:08:59.999Z</time></trkpt><trkpt lat="45.32925385613233" lon="7.874764083934398"><ele>359.0</ele><time>2026-04-25T10:09:01.999Z</time></trkpt><trkpt lat="45.32928080068388" lon="7.8745830637265835"><ele>359.0</ele><time>2026-04-25T10:09:03.999Z</time></trkpt><trkpt lat="45.329283105754584" lon="7.874463051498332"><ele>359.0</ele><time>2026-04-25T10:09:04.999Z</time></trkpt><trkpt lat="45.32928531530804" lon="7.874345765569536"><ele>359.0</ele><time>2026-04-25T10:09:05.999Z</time></trkpt><trkpt lat="45.329298470981556" lon="7.874241936142742"><ele>359.0</ele><time>2026-04-25T10:09:06.999Z</time></trkpt><trkpt lat="45.32929491746524" lon="7.8741261664902265"><ele>358.8571428571429</ele><time>2026-04-25T10:09:07.999Z</time></trkpt><trkpt lat="45.32929305867006" lon="7.87401299655741"><ele>358.7142857142857</ele><time>2026-04-25T10:09:08.999Z</time></trkpt><trkpt lat="45.329289054514696" lon="7.873922965620928"><ele>358.57142857142856</ele><time>2026-04-25T10:09:09.999Z</time></trkpt><trkpt lat="45.32928111146254" lon="7.873820248807764"><ele>358.42857142857144</ele><time>2026-04-25T10:09:10.999Z</time></trkpt><trkpt lat="45.32927388884787" lon="7.873710374750526"><ele>358.2857142857143</ele><time>2026-04-25T10:09:11.999Z</time></trkpt><trkpt lat="45.32926923779357" lon="7.873596230542848"><ele>358.14285714285717</ele><time>2026-04-25T10:09:12.999Z</time></trkpt><trkpt lat="45.32926271289188" lon="7.873489856270336"><ele>358.0</ele><time>2026-04-25T10:09:13.999Z</time></trkpt><trkpt lat="45.32925534461992" lon="7.873360746277903"><ele>357.79999999999995</ele><time>2026-04-25T10:09:14.999Z</time></trkpt><trkpt lat="45.32924411824308" lon="7.873211604591388"><ele>357.6</ele><time>2026-04-25T10:09:15.999Z</time></trkpt><trkpt lat="45.329229199401695" lon="7.873087993372523"><ele>357.4</ele><time>2026-04-25T10:09:16.999Z</time></trkpt><trkpt lat="45.32922048316591" lon="7.872987960396056"><ele>357.20000000000005</ele><time>2026-04-25T10:09:17.999Z</time></trkpt><trkpt lat="45.32919621128659" lon="7.87288961138097"><ele>357.0</ele><time>2026-04-25T10:09:18.999Z</time></trkpt><trkpt lat="45.329136388398325" lon="7.872712631758692"><ele>356.1666666666667</ele><time>2026-04-25T10:09:20.999Z</time></trkpt><trkpt lat="45.32909422434802" lon="7.872561045324033"><ele>355.3333333333333</ele><time>2026-04-25T10:09:22.999Z</time></trkpt><trkpt lat="45.32905739244562" lon="7.872477261757868"><ele>354.5</ele><time>2026-04-25T10:09:24.999Z</time></trkpt><trkpt lat="45.32903767737313" lon="7.87238536670439"><ele>353.66666666666663</ele><time>2026-04-25T10:09:27.999Z</time></trkpt><trkpt lat="45.329103482463886" lon="7.872365776548802"><ele>352.8333333333333</ele><time>2026-04-25T10:09:29.999Z</time></trkpt><trkpt lat="45.32918050878198" lon="7.872368536834473"><ele>352.0</ele><time>2026-04-25T10:09:30.999Z</time></trkpt><trkpt lat="45.32926779248201" lon="7.872355650235002"><ele>352.0</ele><time>2026-04-25T10:09:31.999Z</time></trkpt><trkpt lat="45.32934312879304" lon="7.872355775494996"><ele>352.0</ele><time>2026-04-25T10:09:32.999Z</time></trkpt><trkpt lat="45.32944775698802" lon="7.872303596865377"><ele>352.0</ele><time>2026-04-25T10:09:33.999Z</time></trkpt><trkpt lat="45.329542404322154" lon="7.872224949894201"><ele>352.0</ele><time>2026-04-25T10:09:34.999Z</time></trkpt><trkpt lat="45.32962581146621" lon="7.872126184050385"><ele>352.0</ele><time>2026-04-25T10:09:35.999Z</time></trkpt><trkpt lat="45.329701352026596" lon="7.872014023067218"><ele>355.0</ele><time>2026-04-25T10:09:36.999Z</time></trkpt><trkpt lat="45.32978355765614" lon="7.87191034740275"><ele>358.0</ele><time>2026-04-25T10:09:37.999Z</time></trkpt><trkpt lat="45.329861815980045" lon="7.871855528465293"><ele>361.0</ele><time>2026-04-25T10:09:38.999Z</time></trkpt><trkpt lat="45.329939329341364" lon="7.87182300108433"><ele>364.0</ele><time>2026-04-25T10:09:39.999Z</time></trkpt><trkpt lat="45.33006684783071" lon="7.871822834495922"><ele>367.0</ele><time>2026-04-25T10:09:40.999Z</time></trkpt><trkpt lat="45.33021576339553" lon="7.871843444625984"><ele>367.0</ele><time>2026-04-25T10:09:41.999Z</time></trkpt><trkpt lat="45.33037932940183" lon="7.871869299922746"><ele>367.0</ele><time>2026-04-25T10:09:42.999Z</time></trkpt><trkpt lat="45.330550465393884" lon="7.871883381908936"><ele>367.0</ele><time>2026-04-25T10:09:43.999Z</time></trkpt><trkpt lat="45.33067702855524" lon="7.871890962312315"><ele>368.75</ele><time>2026-04-25T10:09:44.999Z</time></trkpt><trkpt lat="45.33078797171016" lon="7.871864488745641"><ele>370.5</ele><time>2026-04-25T10:09:45.999Z</time></trkpt><trkpt lat="45.330920927605405" lon="7.871808818721463"><ele>372.25</ele><time>2026-04-25T10:09:46.999Z</time></trkpt><trkpt lat="45.33106038647303" lon="7.871781283023788"><ele>374.0</ele><time>2026-04-25T10:09:47.999Z</time></trkpt><trkpt lat="45.33118156021792" lon="7.87178450746555"><ele>374.0</ele><time>2026-04-25T10:09:48.999Z</time></trkpt><trkpt lat="45.33129938484588" lon="7.8718073172874465"><ele>374.0</ele><time>2026-04-25T10:09:49.999Z</time></trkpt><trkpt lat="45.33139411803032" lon="7.871861109729983"><ele>374.0</ele><time>2026-04-25T10:09:50.999Z</time></trkpt><trkpt lat="45.331512778888275" lon="7.87193270940016"><ele>374.0</ele><time>2026-04-25T10:09:51.999Z</time></trkpt><trkpt lat="45.331584903939095" lon="7.8720103928586935"><ele>374.0</ele><time>2026-04-25T10:09:52.999Z</time></trkpt><trkpt lat="45.33168227962448" lon="7.872090687036626"><ele>372.0</ele><time>2026-04-25T10:09:53.999Z</time></trkpt><trkpt lat="45.33176416623258" lon="7.872190599957776"><ele>370.0</ele><time>2026-04-25T10:09:54.999Z</time></trkpt><trkpt lat="45.331850386583746" lon="7.87229785618577"><ele>368.0</ele><time>2026-04-25T10:09:55.999Z</time></trkpt><trkpt lat="45.33193673235868" lon="7.872407736805486"><ele>366.0</ele><time>2026-04-25T10:09:56.999Z</time></trkpt><trkpt lat="45.332039961450334" lon="7.872519006332371"><ele>365.75</ele><time>2026-04-25T10:09:57.999Z</time></trkpt><trkpt lat="45.332133125964454" lon="7.872623295598376"><ele>365.5</ele><time>2026-04-25T10:09:58.999Z</time></trkpt><trkpt lat="45.33221415728724" lon="7.872721402688725"><ele>365.25</ele><time>2026-04-25T10:09:59.999Z</time></trkpt><trkpt lat="45.33231810740768" lon="7.872816123616199"><ele>365.0</ele><time>2026-04-25T10:10:00.999Z</time></trkpt><trkpt lat="45.33242337153779" lon="7.872864476211185"><ele>365.0</ele><time>2026-04-25T10:10:01.999Z</time></trkpt><trkpt lat="45.332520434976985" lon="7.872933582669626"><ele>365.0</ele><time>2026-04-25T10:10:02.998Z</time></trkpt><trkpt lat="45.33263184789249" lon="7.872999879075146"><ele>365.0</ele><time>2026-04-25T10:10:03.998Z</time></trkpt><trkpt lat="45.33273437164248" lon="7.873047184141457"><ele>365.0</ele><time>2026-04-25T10:10:04.998Z</time></trkpt><trkpt lat="45.33283718898635" lon="7.87309513279775"><ele>365.0</ele><time>2026-04-25T10:10:05.998Z</time></trkpt><trkpt lat="45.33293851713679" lon="7.8731507846754125"><ele>365.0</ele><time>2026-04-25T10:10:06.998Z</time></trkpt><trkpt lat="45.33304113116188" lon="7.873184633432982"><ele>365.0</ele><time>2026-04-25T10:10:07.998Z</time></trkpt><trkpt lat="45.33313668908161" lon="7.873250652165928"><ele>365.0</ele><time>2026-04-25T10:10:08.998Z</time></trkpt><trkpt lat="45.333222298232165" lon="7.873323093945092"><ele>365.0</ele><time>2026-04-25T10:10:09.998Z</time></trkpt><trkpt lat="45.33330783762083" lon="7.873381042037785"><ele>365.0</ele><time>2026-04-25T10:10:10.998Z</time></trkpt><trkpt lat="45.33337635991661" lon="7.87343507878243"><ele>365.0</ele><time>2026-04-25T10:10:11.998Z</time></trkpt><trkpt lat="45.333443425258814" lon="7.873509352741632"><ele>365.0</ele><time>2026-04-25T10:10:12.998Z</time></trkpt><trkpt lat="45.333497531660534" lon="7.873575497001402"><ele>365.0</ele><time>2026-04-25T10:10:13.998Z</time></trkpt><trkpt lat="45.33352395005467" lon="7.873661158688507"><ele>365.0</ele><time>2026-04-25T10:10:14.998Z</time></trkpt><trkpt lat="45.33359331621559" lon="7.873708126589021"><ele>365.0</ele><time>2026-04-25T10:10:15.998Z</time></trkpt><trkpt lat="45.33364290502316" lon="7.873781937287708"><ele>365.0</ele><time>2026-04-25T10:10:16.998Z</time></trkpt><trkpt lat="45.33371533316647" lon="7.873863556556566"><ele>365.0</ele><time>2026-04-25T10:10:17.998Z</time></trkpt><trkpt lat="45.33378407100999" lon="7.873905167338575"><ele>365.0</ele><time>2026-04-25T10:10:18.998Z</time></trkpt><trkpt lat="45.333892380965736" lon="7.873943806257994"><ele>365.0</ele><time>2026-04-25T10:10:19.998Z</time></trkpt><trkpt lat="45.33396748435458" lon="7.873962139666051"><ele>365.0</ele><time>2026-04-25T10:10:20.998Z</time></trkpt><trkpt lat="45.33404515497531" lon="7.873957353016772"><ele>365.0</ele><time>2026-04-25T10:10:21.998Z</time></trkpt><trkpt lat="45.33413463058111" lon="7.873944883133477"><ele>365.0</ele><time>2026-04-25T10:10:22.998Z</time></trkpt><trkpt lat="45.33420657780543" lon="7.873951717261257"><ele>364.0</ele><time>2026-04-25T10:10:23.998Z</time></trkpt><trkpt lat="45.334287651311335" lon="7.8739200976796315"><ele>363.0</ele><time>2026-04-25T10:10:25.998Z</time></trkpt><trkpt lat="45.33437422183699" lon="7.873759303713887"><ele>362.0</ele><time>2026-04-25T10:10:27.998Z</time></trkpt><trkpt lat="45.33442850456107" lon="7.8736644829521305"><ele>361.0</ele><time>2026-04-25T10:10:28.998Z</time></trkpt><trkpt lat="45.334467880730365" lon="7.873511674311578"><ele>360.0</ele><time>2026-04-25T10:10:29.998Z</time></trkpt><trkpt lat="45.334497511312385" lon="7.87334691860991"><ele>359.8</ele><time>2026-04-25T10:10:30.998Z</time></trkpt><trkpt lat="45.33452513690453" lon="7.873232603334147"><ele>359.6</ele><time>2026-04-25T10:10:31.998Z</time></trkpt><trkpt lat="45.33453227536219" lon="7.873109081529253"><ele>359.4</ele><time>2026-04-25T10:10:32.998Z</time></trkpt><trkpt lat="45.33453659933221" lon="7.872975948405137"><ele>359.2</ele><time>2026-04-25T10:10:33.998Z</time></trkpt><trkpt lat="45.334519911288616" lon="7.872804940866535"><ele>359.0</ele><time>2026-04-25T10:10:34.998Z</time></trkpt><trkpt lat="45.33448041230342" lon="7.872627416194247"><ele>358.25</ele><time>2026-04-25T10:10:35.998Z</time></trkpt><trkpt lat="45.3344157521233" lon="7.872449872956955"><ele>357.5</ele><time>2026-04-25T10:10:36.998Z</time></trkpt><trkpt lat="45.33439077362514" lon="7.872261058095935"><ele>356.75</ele><time>2026-04-25T10:10:37.999Z</time></trkpt><trkpt lat="45.33435819071753" lon="7.872059587191896"><ele>356.0</ele><time>2026-04-25T10:10:38.999Z</time></trkpt><trkpt lat="45.33431548855569" lon="7.871888659384099"><ele>354.0</ele><time>2026-04-25T10:10:39.999Z</time></trkpt><trkpt lat="45.33426467384849" lon="7.871684951809469"><ele>352.0</ele><time>2026-04-25T10:10:40.999Z</time></trkpt><trkpt lat="45.3342186736033" lon="7.871487450484671"><ele>350.0</ele><time>2026-04-25T10:10:41.999Z</time></trkpt><trkpt lat="45.33417469118962" lon="7.871284734742589"><ele>348.0</ele><time>2026-04-25T10:10:42.999Z</time></trkpt><trkpt lat="45.3341168593057" lon="7.871081316472185"><ele>346.25</ele><time>2026-04-25T10:10:43.999Z</time></trkpt><trkpt lat="45.33405131921777" lon="7.870888233816162"><ele>344.5</ele><time>2026-04-25T10:10:44.999Z</time></trkpt><trkpt lat="45.333985927810645" lon="7.870713185800336"><ele>342.75</ele><time>2026-04-25T10:10:45.999Z</time></trkpt><trkpt lat="45.33392531040536" lon="7.8705684707906185"><ele>341.0</ele><time>2026-04-25T10:10:46.999Z</time></trkpt><trkpt lat="45.33386478574042" lon="7.870475598901715"><ele>341.5</ele><time>2026-04-25T10:10:47.999Z</time></trkpt><trkpt lat="45.33378109557986" lon="7.8703780596708635"><ele>342.0</ele><time>2026-04-25T10:10:48.999Z</time></trkpt><trkpt lat="45.33367279191576" lon="7.870236487930196"><ele>342.5</ele><time>2026-04-25T10:10:49.999Z</time></trkpt><trkpt lat="45.333566848136215" lon="7.8700800034985035"><ele>343.0</ele><time>2026-04-25T10:10:51Z</time></trkpt><trkpt lat="45.333481978942594" lon="7.869957834818183"><ele>343.0</ele><time>2026-04-25T10:10:52Z</time></trkpt><trkpt lat="45.33339934862378" lon="7.869857649380496"><ele>343.0</ele><time>2026-04-25T10:10:53Z</time></trkpt><trkpt lat="45.333343458138295" lon="7.869795047582568"><ele>343.0</ele><time>2026-04-25T10:10:54Z</time></trkpt><trkpt lat="45.33327036328083" lon="7.8697935527899"><ele>343.0</ele><time>2026-04-25T10:10:55Z</time></trkpt><trkpt lat="45.33315033848438" lon="7.869781030407352"><ele>343.0</ele><time>2026-04-25T10:10:56Z</time></trkpt><trkpt lat="45.333045922024354" lon="7.869774036167755"><ele>341.0</ele><time>2026-04-25T10:10:57Z</time></trkpt><trkpt lat="45.332945564722266" lon="7.869813830436982"><ele>339.0</ele><time>2026-04-25T10:10:57.999Z</time></trkpt><trkpt lat="45.332800832855725" lon="7.869861182712927"><ele>337.0</ele><time>2026-04-25T10:10:58.999Z</time></trkpt><trkpt lat="45.33267293996694" lon="7.869925252947381"><ele>335.0</ele><time>2026-04-25T10:10:59.999Z</time></trkpt><trkpt lat="45.33253821057096" lon="7.870008348696964"><ele>335.0</ele><time>2026-04-25T10:11:00.999Z</time></trkpt><trkpt lat="45.332404140678904" lon="7.870000395880783"><ele>335.0</ele><time>2026-04-25T10:11:01.999Z</time></trkpt><trkpt lat="45.33227750721842" lon="7.870011263877312"><ele>335.0</ele><time>2026-04-25T10:11:02.999Z</time></trkpt><trkpt lat="45.33216395286153" lon="7.87004476999899"><ele>335.0</ele><time>2026-04-25T10:11:03.999Z</time></trkpt><trkpt lat="45.332043273847006" lon="7.870059343759919"><ele>334.25</ele><time>2026-04-25T10:11:04.999Z</time></trkpt><trkpt lat="45.331907523873724" lon="7.870082499613973"><ele>333.5</ele><time>2026-04-25T10:11:05.999Z</time></trkpt><trkpt lat="45.33177717093664" lon="7.870113137650446"><ele>332.75</ele><time>2026-04-25T10:11:06.999Z</time></trkpt><trkpt lat="45.331650454732966" lon="7.870129793155752"><ele>332.0</ele><time>2026-04-25T10:11:07.999Z</time></trkpt><trkpt lat="45.331521367681205" lon="7.870141220696289"><ele>332.0</ele><time>2026-04-25T10:11:08.999Z</time></trkpt><trkpt lat="45.331415479758036" lon="7.870116317680792"><ele>332.0</ele><time>2026-04-25T10:11:09.999Z</time></trkpt><trkpt lat="45.33130804728421" lon="7.8700728494014465"><ele>332.0</ele><time>2026-04-25T10:11:10.999Z</time></trkpt><trkpt lat="45.331204122159875" lon="7.870055939289028"><ele>332.0</ele><time>2026-04-25T10:11:11.999Z</time></trkpt><trkpt lat="45.331081025292825" lon="7.870038875219228"><ele>332.0</ele><time>2026-04-25T10:11:12.999Z</time></trkpt><trkpt lat="45.330953391136724" lon="7.869995964582838"><ele>332.0</ele><time>2026-04-25T10:11:13.999Z</time></trkpt><trkpt lat="45.33083945646342" lon="7.869928901432781"><ele>332.0</ele><time>2026-04-25T10:11:14.999Z</time></trkpt><trkpt lat="45.330740253587" lon="7.869829355400131"><ele>332.0</ele><time>2026-04-25T10:11:15.999Z</time></trkpt><trkpt lat="45.330657550199284" lon="7.869740281891254"><ele>332.0</ele><time>2026-04-25T10:11:16.999Z</time></trkpt><trkpt lat="45.330573698232776" lon="7.869652376157353"><ele>332.6</ele><time>2026-04-25T10:11:17.999Z</time></trkpt><trkpt lat="45.330483290004786" lon="7.8696059829696905"><ele>333.20000000000005</ele><time>2026-04-25T10:11:18.999Z</time></trkpt><trkpt lat="45.33037824002791" lon="7.869561763374356"><ele>333.8</ele><time>2026-04-25T10:11:19.999Z</time></trkpt><trkpt lat="45.33027396894644" lon="7.869542197232394"><ele>334.4</ele><time>2026-04-25T10:11:20.999Z</time></trkpt><trkpt lat="45.330146424877505" lon="7.869527037956603"><ele>335.0</ele><time>2026-04-25T10:11:21.999Z</time></trkpt><trkpt lat="45.33000147805041" lon="7.869509742705497"><ele>335.0</ele><time>2026-04-25T10:11:22.999Z</time></trkpt><trkpt lat="45.329856763386054" lon="7.869482913412549"><ele>335.0</ele><time>2026-04-25T10:11:23.999Z</time></trkpt><trkpt lat="45.32971116350775" lon="7.8694661546250835"><ele>335.0</ele><time>2026-04-25T10:11:24.999Z</time></trkpt><trkpt lat="45.3295520396288" lon="7.869423452711034"><ele>335.5</ele><time>2026-04-25T10:11:25.999Z</time></trkpt><trkpt lat="45.32940244685507" lon="7.86938095753751"><ele>336.0</ele><time>2026-04-25T10:11:26.999Z</time></trkpt><trkpt lat="45.32927230049563" lon="7.869331012547482"><ele>336.5</ele><time>2026-04-25T10:11:27.999Z</time></trkpt><trkpt lat="45.329136939103044" lon="7.869254396585726"><ele>337.0</ele><time>2026-04-25T10:11:28.999Z</time></trkpt><trkpt lat="45.328998325348316" lon="7.8691667902716835"><ele>335.40000000000003</ele><time>2026-04-25T10:11:29.999Z</time></trkpt><trkpt lat="45.328906488728606" lon="7.869103658705152"><ele>333.8</ele><time>2026-04-25T10:11:30.999Z</time></trkpt><trkpt lat="45.328828044624196" lon="7.869052016299901"><ele>332.2</ele><time>2026-04-25T10:11:31.999Z</time></trkpt><trkpt lat="45.328714519929704" lon="7.869023804361897"><ele>330.6</ele><time>2026-04-25T10:11:32.999Z</time></trkpt><trkpt lat="45.3285858368499" lon="7.868998613622594"><ele>329.0</ele><time>2026-04-25T10:11:33.999Z</time></trkpt><trkpt lat="45.328439148072356" lon="7.869012362543145"><ele>329.0</ele><time>2026-04-25T10:11:34.999Z</time></trkpt><trkpt lat="45.328284489463265" lon="7.869035064381499"><ele>329.0</ele><time>2026-04-25T10:11:35.999Z</time></trkpt><trkpt lat="45.32816396669012" lon="7.869051459095933"><ele>329.0</ele><time>2026-04-25T10:11:36.999Z</time></trkpt><trkpt lat="45.328049019887835" lon="7.86906748350417"><ele>329.0</ele><time>2026-04-25T10:11:37.999Z</time></trkpt><trkpt lat="45.327930697292075" lon="7.869106890023843"><ele>327.79999999999995</ele><time>2026-04-25T10:11:38.999Z</time></trkpt><trkpt lat="45.32784134238004" lon="7.869164489667147"><ele>326.59999999999997</ele><time>2026-04-25T10:11:39.999Z</time></trkpt><trkpt lat="45.327772032328" lon="7.869187118756182"><ele>325.4</ele><time>2026-04-25T10:11:40.999Z</time></trkpt><trkpt lat="45.32771545529966" lon="7.869140435470186"><ele>324.2</ele><time>2026-04-25T10:11:50.999Z</time></trkpt><trkpt lat="45.327733179058654" lon="7.868952891472317"><ele>323.0</ele><time>2026-04-25T10:11:52.999Z</time></trkpt><trkpt lat="45.32777352799807" lon="7.868836160930903"><ele>323.0</ele><time>2026-04-25T10:11:53.999Z</time></trkpt><trkpt lat="45.32778047994366" lon="7.868672875596578"><ele>323.0</ele><time>2026-04-25T10:11:54.999Z</time></trkpt><trkpt lat="45.32774719945329" lon="7.868503892736548"><ele>323.0</ele><time>2026-04-25T10:11:55.999Z</time></trkpt><trkpt lat="45.32767172704901" lon="7.8683485746328286"><ele>323.0</ele><time>2026-04-25T10:11:56.999Z</time></trkpt><trkpt lat="45.32755410525768" lon="7.86823680993739"><ele>322.6666666666667</ele><time>2026-04-25T10:11:57.999Z</time></trkpt><trkpt lat="45.327406596184915" lon="7.868176765485736"><ele>322.3333333333333</ele><time>2026-04-25T10:11:58.999Z</time></trkpt><trkpt lat="45.32724807911241" lon="7.868160394863388"><ele>322.0</ele><time>2026-04-25T10:11:59.999Z</time></trkpt><trkpt lat="45.327086402426595" lon="7.868155287155742"><ele>321.0</ele><time>2026-04-25T10:12:00.999Z</time></trkpt><trkpt lat="45.32692347849328" lon="7.868149746322868"><ele>320.0</ele><time>2026-04-25T10:12:01.999Z</time></trkpt><trkpt lat="45.32676009283316" lon="7.8681390201658825"><ele>319.0</ele><time>2026-04-25T10:12:02.999Z</time></trkpt><trkpt lat="45.32660995253359" lon="7.868122630037377"><ele>319.0</ele><time>2026-04-25T10:12:03.999Z</time></trkpt><trkpt lat="45.32647522198459" lon="7.868105198462869"><ele>319.0</ele><time>2026-04-25T10:12:04.999Z</time></trkpt><trkpt lat="45.32636838653404" lon="7.868074575822445"><ele>319.0</ele><time>2026-04-25T10:12:05.999Z</time></trkpt><trkpt lat="45.32627934332653" lon="7.868008636438273"><ele>319.0</ele><time>2026-04-25T10:12:06.999Z</time></trkpt><trkpt lat="45.32623319053828" lon="7.867883871093997"><ele>319.0</ele><time>2026-04-25T10:12:07.999Z</time></trkpt><trkpt lat="45.326208935743836" lon="7.867747414723594"><ele>319.75</ele><time>2026-04-25T10:12:08.999Z</time></trkpt><trkpt lat="45.32623481001325" lon="7.86759721058876"><ele>320.5</ele><time>2026-04-25T10:12:09.999Z</time></trkpt><trkpt lat="45.326271195721255" lon="7.867413762229814"><ele>321.25</ele><time>2026-04-25T10:12:10.999Z</time></trkpt><trkpt lat="45.32631397777154" lon="7.8672269731992035"><ele>322.0</ele><time>2026-04-25T10:12:11.999Z</time></trkpt><trkpt lat="45.32635289652968" lon="7.867038223701193"><ele>322.0</ele><time>2026-04-25T10:12:12.999Z</time></trkpt><trkpt lat="45.326381393817464" lon="7.86685918188523"><ele>322.0</ele><time>2026-04-25T10:12:13.999Z</time></trkpt><trkpt lat="45.32641550898574" lon="7.866675168225723"><ele>322.0</ele><time>2026-04-25T10:12:14.999Z</time></trkpt><trkpt lat="45.326453816339246" lon="7.8664879948873585"><ele>322.0</ele><time>2026-04-25T10:12:15.999Z</time></trkpt><trkpt lat="45.32648584655091" lon="7.866322370370856"><ele>322.8</ele><time>2026-04-25T10:12:16.999Z</time></trkpt><trkpt lat="45.32651744840155" lon="7.866176182972848"><ele>323.6</ele><time>2026-04-25T10:12:17.998Z</time></trkpt><trkpt lat="45.326547105164884" lon="7.866042580973496"><ele>324.40000000000003</ele><time>2026-04-25T10:12:18.998Z</time></trkpt><trkpt lat="45.326575311475835" lon="7.865903099859728"><ele>325.20000000000005</ele><time>2026-04-25T10:12:19.998Z</time></trkpt><trkpt lat="45.32660307531306" lon="7.86576829968116"><ele>326.0</ele><time>2026-04-25T10:12:20.998Z</time></trkpt><trkpt lat="45.326624654033914" lon="7.865655759013013"><ele>326.1666666666667</ele><time>2026-04-25T10:12:21.998Z</time></trkpt><trkpt lat="45.32664521006182" lon="7.865551859817292"><ele>326.33333333333337</ele><time>2026-04-25T10:12:22.998Z</time></trkpt><trkpt lat="45.32667007649417" lon="7.865429957467367"><ele>326.5</ele><time>2026-04-25T10:12:23.998Z</time></trkpt><trkpt lat="45.32669455581587" lon="7.865310520073215"><ele>326.6666666666667</ele><time>2026-04-25T10:12:24.998Z</time></trkpt><trkpt lat="45.32672146905626" lon="7.865194113384729"><ele>326.8333333333333</ele><time>2026-04-25T10:12:25.998Z</time></trkpt><trkpt lat="45.32674741252073" lon="7.865069098144163"><ele>327.0</ele><time>2026-04-25T10:12:26.998Z</time></trkpt><trkpt lat="45.32677314355512" lon="7.864939949166817"><ele>327.5</ele><time>2026-04-25T10:12:27.998Z</time></trkpt><trkpt lat="45.32680444770768" lon="7.86479423169829"><ele>328.0</ele><time>2026-04-25T10:12:28.998Z</time></trkpt><trkpt lat="45.32684437676971" lon="7.8646440955001315"><ele>328.5</ele><time>2026-04-25T10:12:29.998Z</time></trkpt><trkpt lat="45.326883699934044" lon="7.864485065484032"><ele>329.0</ele><time>2026-04-25T10:12:30.998Z</time></trkpt><trkpt lat="45.3269365165439" lon="7.864335901001273"><ele>329.2</ele><time>2026-04-25T10:12:31.998Z</time></trkpt><trkpt lat="45.32700210171683" lon="7.864199451874048"><ele>329.4</ele><time>2026-04-25T10:12:32.998Z</time></trkpt><trkpt lat="45.32708282452753" lon="7.864090427300069"><ele>329.6</ele><time>2026-04-25T10:12:33.998Z</time></trkpt><trkpt lat="45.327160072444904" lon="7.864013063062467"><ele>329.8</ele><time>2026-04-25T10:12:34.998Z</time></trkpt><trkpt lat="45.32722920640958" lon="7.863942984073489"><ele>330.0</ele><time>2026-04-25T10:12:35.998Z</time></trkpt><trkpt lat="45.327305119413055" lon="7.863898094762956"><ele>330.6</ele><time>2026-04-25T10:12:36.998Z</time></trkpt><trkpt lat="45.32739757461642" lon="7.863849404825543"><ele>331.2</ele><time>2026-04-25T10:12:37.998Z</time></trkpt><trkpt lat="45.32750378192475" lon="7.863833334142516"><ele>331.79999999999995</ele><time>2026-04-25T10:12:38.998Z</time></trkpt><trkpt lat="45.327600566357326" lon="7.863834472519736"><ele>332.4</ele><time>2026-04-25T10:12:39.998Z</time></trkpt><trkpt lat="45.32768475143832" lon="7.863840784204682"><ele>333.0</ele><time>2026-04-25T10:12:40.998Z</time></trkpt><trkpt lat="45.32778992429891" lon="7.863794050516985"><ele>333.0</ele><time>2026-04-25T10:12:42.998Z</time></trkpt><trkpt lat="45.32783813384605" lon="7.8635749800693535"><ele>333.0</ele><time>2026-04-25T10:12:45Z</time></trkpt><trkpt lat="45.32786243209891" lon="7.863430924741965"><ele>333.0</ele><time>2026-04-25T10:12:46Z</time></trkpt><trkpt lat="45.32789150309673" lon="7.863269061957694"><ele>333.0</ele><time>2026-04-25T10:12:47Z</time></trkpt><trkpt lat="45.327948430192436" lon="7.863100700213639"><ele>333.4</ele><time>2026-04-25T10:12:48Z</time></trkpt><trkpt lat="45.3279980658445" lon="7.8629592733926295"><ele>333.79999999999995</ele><time>2026-04-25T10:12:49Z</time></trkpt><trkpt lat="45.32803005819034" lon="7.862827718112154"><ele>334.2</ele><time>2026-04-25T10:12:50Z</time></trkpt><trkpt lat="45.32805759147115" lon="7.8627146914859525"><ele>334.6</ele><time>2026-04-25T10:12:51Z</time></trkpt><trkpt lat="45.32803802734973" lon="7.862565704682857"><ele>335.0</ele><time>2026-04-25T10:12:52Z</time></trkpt><trkpt lat="45.32798942689218" lon="7.86243907090346"><ele>335.0</ele><time>2026-04-25T10:12:53Z</time></trkpt><trkpt lat="45.327939899887745" lon="7.862294440344488"><ele>335.0</ele><time>2026-04-25T10:12:54Z</time></trkpt><trkpt lat="45.327897425334776" lon="7.862155434234311"><ele>335.0</ele><time>2026-04-25T10:12:55Z</time></trkpt><trkpt lat="45.327868055750876" lon="7.86204360157321"><ele>335.0</ele><time>2026-04-25T10:12:56Z</time></trkpt><trkpt lat="45.327845063130944" lon="7.8618879397276995"><ele>335.0</ele><time>2026-04-25T10:12:57Z</time></trkpt><trkpt lat="45.32781817668248" lon="7.861784496190902"><ele>334.6666666666667</ele><time>2026-04-25T10:12:58Z</time></trkpt><trkpt lat="45.32779733900792" lon="7.861672415613253"><ele>334.33333333333337</ele><time>2026-04-25T10:12:59Z</time></trkpt><trkpt lat="45.32777889888445" lon="7.861564613136663"><ele>334.0</ele><time>2026-04-25T10:13:00Z</time></trkpt><trkpt lat="45.327756684639766" lon="7.861453856126543"><ele>333.6666666666667</ele><time>2026-04-25T10:13:01Z</time></trkpt><trkpt lat="45.32774001956374" lon="7.861364702762055"><ele>333.3333333333333</ele><time>2026-04-25T10:13:02Z</time></trkpt><trkpt lat="45.327702773328475" lon="7.861214588164103"><ele>333.0</ele><time>2026-04-25T10:13:04Z</time></trkpt><trkpt lat="45.32757866584757" lon="7.86120808175001"><ele>333.0</ele><time>2026-04-25T10:13:05Z</time></trkpt><trkpt lat="45.32748814727228" lon="7.861175559919344"><ele>333.0</ele><time>2026-04-25T10:13:06Z</time></trkpt><trkpt lat="45.327419585454784" lon="7.86115976510543"><ele>333.0</ele><time>2026-04-25T10:13:07Z</time></trkpt><trkpt lat="45.327349033523994" lon="7.861139904560714"><ele>333.0</ele><time>2026-04-25T10:13:08Z</time></trkpt><trkpt lat="45.327271218462826" lon="7.861107342321755"><ele>333.0</ele><time>2026-04-25T10:13:09Z</time></trkpt><trkpt lat="45.327184076314296" lon="7.86105418105473"><ele>333.0</ele><time>2026-04-25T10:13:10Z</time></trkpt><trkpt lat="45.327105224386905" lon="7.86100273556266"><ele>332.14285714285717</ele><time>2026-04-25T10:13:11Z</time></trkpt><trkpt lat="45.32703305477015" lon="7.860952823466783"><ele>331.2857142857143</ele><time>2026-04-25T10:13:12Z</time></trkpt><trkpt lat="45.32695313774041" lon="7.860920319181992"><ele>330.42857142857144</ele><time>2026-04-25T10:13:13Z</time></trkpt><trkpt lat="45.32688419134698" lon="7.860864590067042"><ele>329.57142857142856</ele><time>2026-04-25T10:13:14Z</time></trkpt><trkpt lat="45.3268200072414" lon="7.86081977417441"><ele>328.7142857142857</ele><time>2026-04-25T10:13:15Z</time></trkpt><trkpt lat="45.3267603592514" lon="7.8607736285519465"><ele>327.85714285714283</ele><time>2026-04-25T10:13:16Z</time></trkpt><trkpt lat="45.32670300050526" lon="7.86072796020286"><ele>327.0</ele><time>2026-04-25T10:13:17Z</time></trkpt><trkpt lat="45.32660564283539" lon="7.860628974456937"><ele>327.0</ele><time>2026-04-25T10:13:18.999Z</time></trkpt><trkpt lat="45.32654538440419" lon="7.860578144395413"><ele>327.0</ele><time>2026-04-25T10:13:19.999Z</time></trkpt><trkpt lat="45.32652378058771" lon="7.860458244996633"><ele>327.0</ele><time>2026-04-25T10:13:20.999Z</time></trkpt><trkpt lat="45.326489366881916" lon="7.860333254206056"><ele>327.0</ele><time>2026-04-25T10:13:21.999Z</time></trkpt><trkpt lat="45.32644564386265" lon="7.860236324284006"><ele>327.0</ele><time>2026-04-25T10:13:22.999Z</time></trkpt><trkpt lat="45.32639962115604" lon="7.860146205603059"><ele>327.0</ele><time>2026-04-25T10:13:23.999Z</time></trkpt><trkpt lat="45.326288319118476" lon="7.860131606271545"><ele>326.0</ele><time>2026-04-25T10:13:24.999Z</time></trkpt><trkpt lat="45.32618029526171" lon="7.8600873786063"><ele>325.0</ele><time>2026-04-25T10:13:25.999Z</time></trkpt><trkpt lat="45.32605188732314" lon="7.860067345887944"><ele>324.0</ele><time>2026-04-25T10:13:26.999Z</time></trkpt><trkpt lat="45.32591895246081" lon="7.860056647507009"><ele>323.0</ele><time>2026-04-25T10:13:27.999Z</time></trkpt><trkpt lat="45.32580581347019" lon="7.860045919136385"><ele>323.0</ele><time>2026-04-25T10:13:28.999Z</time></trkpt><trkpt lat="45.32570654883583" lon="7.860031832127674"><ele>323.0</ele><time>2026-04-25T10:13:29.999Z</time></trkpt><trkpt lat="45.32561596915788" lon="7.860010350231175"><ele>323.0</ele><time>2026-04-25T10:13:30.999Z</time></trkpt><trkpt lat="45.32554379187917" lon="7.859980509474998"><ele>323.0</ele><time>2026-04-25T10:13:31.999Z</time></trkpt><trkpt lat="45.325497201953375" lon="7.859887774019131"><ele>323.0</ele><time>2026-04-25T10:13:32.999Z</time></trkpt><trkpt lat="45.3254837533635" lon="7.859766598419321"><ele>323.0</ele><time>2026-04-25T10:13:33.999Z</time></trkpt><trkpt lat="45.32549120395926" lon="7.859621544637521"><ele>322.4</ele><time>2026-04-25T10:13:34.999Z</time></trkpt><trkpt lat="45.325498096106166" lon="7.859497024123682"><ele>321.79999999999995</ele><time>2026-04-25T10:13:35.999Z</time></trkpt><trkpt lat="45.325454691089334" lon="7.859395493654109"><ele>321.2</ele><time>2026-04-25T10:13:36.999Z</time></trkpt><trkpt lat="45.3253927913511" lon="7.8592936088534895"><ele>320.6</ele><time>2026-04-25T10:13:37.999Z</time></trkpt><trkpt lat="45.32526711539207" lon="7.859272227799231"><ele>320.0</ele><time>2026-04-25T10:13:38.999Z</time></trkpt><trkpt lat="45.32514767543345" lon="7.859211163286528"><ele>319.6</ele><time>2026-04-25T10:13:39.999Z</time></trkpt><trkpt lat="45.32504303544283" lon="7.859164916695133"><ele>319.2</ele><time>2026-04-25T10:13:40.999Z</time></trkpt><trkpt lat="45.32494890915254" lon="7.85910334552012"><ele>318.8</ele><time>2026-04-25T10:13:41.999Z</time></trkpt><trkpt lat="45.32485136275146" lon="7.859034822218913"><ele>318.4</ele><time>2026-04-25T10:13:42.999Z</time></trkpt><trkpt lat="45.32477869490083" lon="7.858913402865275"><ele>318.0</ele><time>2026-04-25T10:13:43.999Z</time></trkpt><trkpt lat="45.32469778695162" lon="7.858808531446747"><ele>316.5</ele><time>2026-04-25T10:13:44.999Z</time></trkpt><trkpt lat="45.32464179906005" lon="7.858659623983725"><ele>315.0</ele><time>2026-04-25T10:13:45.999Z</time></trkpt><trkpt lat="45.3245870259375" lon="7.858497275238675"><ele>313.5</ele><time>2026-04-25T10:13:46.999Z</time></trkpt><trkpt lat="45.324538488380846" lon="7.858336598834286"><ele>312.0</ele><time>2026-04-25T10:13:47.999Z</time></trkpt><trkpt lat="45.324491525385284" lon="7.8581750521010125"><ele>312.0</ele><time>2026-04-25T10:13:48.999Z</time></trkpt><trkpt lat="45.32441565200068" lon="7.858024167595893"><ele>312.0</ele><time>2026-04-25T10:13:49.999Z</time></trkpt><trkpt lat="45.32432251483489" lon="7.857873789186226"><ele>312.0</ele><time>2026-04-25T10:13:50.999Z</time></trkpt><trkpt lat="45.32421728090713" lon="7.857718846565534"><ele>312.0</ele><time>2026-04-25T10:13:51.999Z</time></trkpt><trkpt lat="45.324094020979544" lon="7.857575995127799"><ele>311.3333333333333</ele><time>2026-04-25T10:13:52.999Z</time></trkpt><trkpt lat="45.32395323806555" lon="7.857453194243645"><ele>310.66666666666663</ele><time>2026-04-25T10:13:53.999Z</time></trkpt><trkpt lat="45.32379542272796" lon="7.85737002918707"><ele>310.0</ele><time>2026-04-25T10:13:54.999Z</time></trkpt><trkpt lat="45.32362918493274" lon="7.857290363034525"><ele>310.0</ele><time>2026-04-25T10:13:55.999Z</time></trkpt><trkpt lat="45.323449298745565" lon="7.857267356110861"><ele>310.0</ele><time>2026-04-25T10:13:56.999Z</time></trkpt><trkpt lat="45.32328289429187" lon="7.857203446319155"><ele>310.0</ele><time>2026-04-25T10:13:57.999Z</time></trkpt><trkpt lat="45.3231408210714" lon="7.857103948749555"><ele>308.66666666666663</ele><time>2026-04-25T10:13:58.999Z</time></trkpt><trkpt lat="45.32302666656383" lon="7.856950062720516"><ele>307.3333333333333</ele><time>2026-04-25T10:13:59.999Z</time></trkpt><trkpt lat="45.32289928553659" lon="7.856819362336948"><ele>306.0</ele><time>2026-04-25T10:14:00.999Z</time></trkpt><trkpt lat="45.32276900396836" lon="7.856703795648819"><ele>306.0</ele><time>2026-04-25T10:14:01.999Z</time></trkpt><trkpt lat="45.32260302261724" lon="7.856649674081381"><ele>306.0</ele><time>2026-04-25T10:14:02.999Z</time></trkpt><trkpt lat="45.322430521090716" lon="7.856638166629006"><ele>306.0</ele><time>2026-04-25T10:14:03.999Z</time></trkpt><trkpt lat="45.32225957557526" lon="7.85664456363027"><ele>304.6666666666667</ele><time>2026-04-25T10:14:04.999Z</time></trkpt><trkpt lat="45.32209779342884" lon="7.856673364159121"><ele>303.33333333333337</ele><time>2026-04-25T10:14:05.999Z</time></trkpt><trkpt lat="45.3219331463904" lon="7.85667922373979"><ele>302.0</ele><time>2026-04-25T10:14:06.999Z</time></trkpt><trkpt lat="45.32176675321077" lon="7.8566704921485595"><ele>302.0</ele><time>2026-04-25T10:14:07.999Z</time></trkpt><trkpt lat="45.32159610031523" lon="7.8566519149255045"><ele>302.0</ele><time>2026-04-25T10:14:08.999Z</time></trkpt><trkpt lat="45.321426244445966" lon="7.856629988071965"><ele>302.0</ele><time>2026-04-25T10:14:09.999Z</time></trkpt><trkpt lat="45.32125885770647" lon="7.856608726078296"><ele>301.0</ele><time>2026-04-25T10:14:10.999Z</time></trkpt><trkpt lat="45.321084418117195" lon="7.856591014630098"><ele>300.0</ele><time>2026-04-25T10:14:11.999Z</time></trkpt><trkpt lat="45.320913805552244" lon="7.856575774479803"><ele>299.0</ele><time>2026-04-25T10:14:12.999Z</time></trkpt><trkpt lat="45.32075319951025" lon="7.856556504514724"><ele>299.0</ele><time>2026-04-25T10:14:13.999Z</time></trkpt><trkpt lat="45.32059792859448" lon="7.856535985664452"><ele>299.0</ele><time>2026-04-25T10:14:14.999Z</time></trkpt><trkpt lat="45.32044660906272" lon="7.856517277729307"><ele>299.0</ele><time>2026-04-25T10:14:15.999Z</time></trkpt><trkpt lat="45.32029601463833" lon="7.8564904911993425"><ele>299.0</ele><time>2026-04-25T10:14:16.999Z</time></trkpt><trkpt lat="45.320146606597326" lon="7.856454203892024"><ele>299.0</ele><time>2026-04-25T10:14:17.999Z</time></trkpt><trkpt lat="45.319997448571684" lon="7.856398009786293"><ele>299.0</ele><time>2026-04-25T10:14:18.999Z</time></trkpt><trkpt lat="45.31985649557142" lon="7.856310543272409"><ele>297.6666666666667</ele><time>2026-04-25T10:14:19.999Z</time></trkpt><trkpt lat="45.31972141958207" lon="7.856211627926516"><ele>296.3333333333333</ele><time>2026-04-25T10:14:20.999Z</time></trkpt><trkpt lat="45.31957650976838" lon="7.856118074459526"><ele>295.0</ele><time>2026-04-25T10:14:21.999Z</time></trkpt><trkpt lat="45.31942541787022" lon="7.856036739942226"><ele>295.0</ele><time>2026-04-25T10:14:22.999Z</time></trkpt><trkpt lat="45.31926693593246" lon="7.855970963012226"><ele>295.0</ele><time>2026-04-25T10:14:23.999Z</time></trkpt><trkpt lat="45.31911176228366" lon="7.85591697058355"><ele>295.0</ele><time>2026-04-25T10:14:24.999Z</time></trkpt><trkpt lat="45.31896161366896" lon="7.855866054911141"><ele>294.5</ele><time>2026-04-25T10:14:25.999Z</time></trkpt><trkpt lat="45.318819504146035" lon="7.8557968423805145"><ele>294.0</ele><time>2026-04-25T10:14:26.999Z</time></trkpt><trkpt lat="45.31868339204804" lon="7.855726186628353"><ele>293.5</ele><time>2026-04-25T10:14:27.999Z</time></trkpt><trkpt lat="45.318542596160626" lon="7.8556409769496005"><ele>293.0</ele><time>2026-04-25T10:14:28.999Z</time></trkpt><trkpt lat="45.318406870820795" lon="7.855527762128046"><ele>293.0</ele><time>2026-04-25T10:14:29.999Z</time></trkpt><trkpt lat="45.318281899750374" lon="7.855393116357363"><ele>293.0</ele><time>2026-04-25T10:14:30.999Z</time></trkpt><trkpt lat="45.318164563095415" lon="7.855240369352083"><ele>293.0</ele><time>2026-04-25T10:14:31.999Z</time></trkpt><trkpt lat="45.31804806829963" lon="7.8550857191292405"><ele>293.0</ele><time>2026-04-25T10:14:32.999Z</time></trkpt><trkpt lat="45.31792544755491" lon="7.8549389548257835"><ele>293.0</ele><time>2026-04-25T10:14:33.999Z</time></trkpt><trkpt lat="45.31780360904177" lon="7.854795258162764"><ele>293.0</ele><time>2026-04-25T10:14:34.999Z</time></trkpt><trkpt lat="45.31767752194153" lon="7.8546465605220686"><ele>293.0</ele><time>2026-04-25T10:14:35.999Z</time></trkpt><trkpt lat="45.31755313717396" lon="7.854497087083185"><ele>293.0</ele><time>2026-04-25T10:14:36.998Z</time></trkpt><trkpt lat="45.317429614099154" lon="7.854343684704198"><ele>293.0</ele><time>2026-04-25T10:14:37.998Z</time></trkpt><trkpt lat="45.31730372333626" lon="7.854181839312032"><ele>293.0</ele><time>2026-04-25T10:14:38.998Z</time></trkpt><trkpt lat="45.31718022381885" lon="7.854029662581848"><ele>293.0</ele><time>2026-04-25T10:14:39.998Z</time></trkpt><trkpt lat="45.317054373121536" lon="7.853881111417161"><ele>293.0</ele><time>2026-04-25T10:14:40.998Z</time></trkpt><trkpt lat="45.316933524162636" lon="7.853738781227318"><ele>293.0</ele><time>2026-04-25T10:14:41.998Z</time></trkpt><trkpt lat="45.31681650765625" lon="7.853582241913815"><ele>293.0</ele><time>2026-04-25T10:14:42.998Z</time></trkpt><trkpt lat="45.316712624215015" lon="7.853408529753948"><ele>293.0</ele><time>2026-04-25T10:14:43.998Z</time></trkpt><trkpt lat="45.316627350822564" lon="7.853213933822359"><ele>293.0</ele><time>2026-04-25T10:14:44.998Z</time></trkpt><trkpt lat="45.31655917117478" lon="7.853007078359144"><ele>293.0</ele><time>2026-04-25T10:14:45.998Z</time></trkpt><trkpt lat="45.31649669963856" lon="7.852802853520453"><ele>293.0</ele><time>2026-04-25T10:14:46.998Z</time></trkpt><trkpt lat="45.31641973489211" lon="7.8526105870320055"><ele>292.0</ele><time>2026-04-25T10:14:47.998Z</time></trkpt><trkpt lat="45.31632263588989" lon="7.852457251422813"><ele>291.0</ele><time>2026-04-25T10:14:48.998Z</time></trkpt><trkpt lat="45.31620312411819" lon="7.852343610468319"><ele>290.0</ele><time>2026-04-25T10:14:50Z</time></trkpt><trkpt lat="45.316060445850034" lon="7.852265451860163"><ele>289.0</ele><time>2026-04-25T10:14:51Z</time></trkpt><trkpt lat="45.315920989869795" lon="7.852191760779428"><ele>289.0</ele><time>2026-04-25T10:14:52Z</time></trkpt><trkpt lat="45.31578443739752" lon="7.85210348909599"><ele>289.0</ele><time>2026-04-25T10:14:53Z</time></trkpt><trkpt lat="45.31564085330675" lon="7.852026254538757"><ele>289.0</ele><time>2026-04-25T10:14:54Z</time></trkpt><trkpt lat="45.31549185265029" lon="7.851953182621747"><ele>289.0</ele><time>2026-04-25T10:14:55Z</time></trkpt><trkpt lat="45.31534653297786" lon="7.851868013779428"><ele>289.0</ele><time>2026-04-25T10:14:56Z</time></trkpt><trkpt lat="45.31520175850866" lon="7.85177227657468"><ele>289.0</ele><time>2026-04-25T10:14:57Z</time></trkpt><trkpt lat="45.31505157451341" lon="7.851670667009009"><ele>289.0</ele><time>2026-04-25T10:14:58Z</time></trkpt><trkpt lat="45.31490257208627" lon="7.851573243560599"><ele>289.0</ele><time>2026-04-25T10:14:59Z</time></trkpt><trkpt lat="45.314756098859554" lon="7.851471807681592"><ele>289.0</ele><time>2026-04-25T10:15:00Z</time></trkpt><trkpt lat="45.31461537543001" lon="7.8513645417328854"><ele>289.0</ele><time>2026-04-25T10:15:01Z</time></trkpt><trkpt lat="45.31447417642037" lon="7.851258470331218"><ele>289.0</ele><time>2026-04-25T10:15:02Z</time></trkpt><trkpt lat="45.314337042147194" lon="7.851156921799741"><ele>289.0</ele><time>2026-04-25T10:15:03Z</time></trkpt><trkpt lat="45.31420447700087" lon="7.851048389913032"><ele>288.66666666666663</ele><time>2026-04-25T10:15:04Z</time></trkpt><trkpt lat="45.314071505652436" lon="7.850937523215969"><ele>288.3333333333333</ele><time>2026-04-25T10:15:05Z</time></trkpt><trkpt lat="45.313942193092174" lon="7.850813575584175"><ele>288.0</ele><time>2026-04-25T10:15:06Z</time></trkpt><trkpt lat="45.31382082766584" lon="7.850663643120035"><ele>287.0</ele><time>2026-04-25T10:15:07Z</time></trkpt><trkpt lat="45.31371852818076" lon="7.850482874831174"><ele>286.0</ele><time>2026-04-25T10:15:08Z</time></trkpt><trkpt lat="45.313618755067225" lon="7.850295155082954"><ele>285.0</ele><time>2026-04-25T10:15:09Z</time></trkpt><trkpt lat="45.31351513993617" lon="7.850098925912549"><ele>285.0</ele><time>2026-04-25T10:15:10Z</time></trkpt><trkpt lat="45.313411168851914" lon="7.849913407081533"><ele>285.0</ele><time>2026-04-25T10:15:11Z</time></trkpt><trkpt lat="45.31330300276732" lon="7.84973069104136"><ele>285.0</ele><time>2026-04-25T10:15:12Z</time></trkpt><trkpt lat="45.31319622868744" lon="7.849554034654715"><ele>285.0</ele><time>2026-04-25T10:15:13Z</time></trkpt><trkpt lat="45.31308615284463" lon="7.849406929467793"><ele>285.0</ele><time>2026-04-25T10:15:14Z</time></trkpt><trkpt lat="45.31296481246375" lon="7.849288069546541"><ele>285.0</ele><time>2026-04-25T10:15:15Z</time></trkpt><trkpt lat="45.31283079519179" lon="7.849202316753488"><ele>285.0</ele><time>2026-04-25T10:15:16Z</time></trkpt><trkpt lat="45.31268488873883" lon="7.849120257327999"><ele>284.6666666666667</ele><time>2026-04-25T10:15:17Z</time></trkpt><trkpt lat="45.31253355003597" lon="7.849054940570917"><ele>284.33333333333337</ele><time>2026-04-25T10:15:18Z</time></trkpt><trkpt lat="45.312384176576174" lon="7.848998449604486"><ele>284.0</ele><time>2026-04-25T10:15:19Z</time></trkpt><trkpt lat="45.3122250988045" lon="7.848939950176341"><ele>283.6666666666667</ele><time>2026-04-25T10:15:20Z</time></trkpt><trkpt lat="45.31206953097132" lon="7.848883696982393"><ele>283.3333333333333</ele><time>2026-04-25T10:15:21Z</time></trkpt><trkpt lat="45.31191444037091" lon="7.848816135004601"><ele>283.0</ele><time>2026-04-25T10:15:22Z</time></trkpt><trkpt lat="45.31175982833422" lon="7.8487509813596255"><ele>283.0</ele><time>2026-04-25T10:15:23Z</time></trkpt><trkpt lat="45.31161142858632" lon="7.84869154816395"><ele>283.0</ele><time>2026-04-25T10:15:24Z</time></trkpt><trkpt lat="45.31145804029383" lon="7.848629676558429"><ele>283.0</ele><time>2026-04-25T10:15:25Z</time></trkpt><trkpt lat="45.311306136510495" lon="7.848567814554998"><ele>283.0</ele><time>2026-04-25T10:15:26Z</time></trkpt><trkpt lat="45.31115677590853" lon="7.848508189616296"><ele>283.0</ele><time>2026-04-25T10:15:27Z</time></trkpt><trkpt lat="45.311018148628314" lon="7.848461147174202"><ele>283.0</ele><time>2026-04-25T10:15:28Z</time></trkpt><trkpt lat="45.31088452579457" lon="7.848408441662799"><ele>283.0</ele><time>2026-04-25T10:15:29Z</time></trkpt><trkpt lat="45.3107528482997" lon="7.848364519614378"><ele>283.0</ele><time>2026-04-25T10:15:30Z</time></trkpt><trkpt lat="45.310628285555495" lon="7.848319067613357"><ele>283.0</ele><time>2026-04-25T10:15:31Z</time></trkpt><trkpt lat="45.31051258632484" lon="7.848269767334985"><ele>283.0</ele><time>2026-04-25T10:15:32Z</time></trkpt><trkpt lat="45.310411216730344" lon="7.848191278906962"><ele>283.0</ele><time>2026-04-25T10:15:32.999Z</time></trkpt><trkpt lat="45.31033649322557" lon="7.848097380050149"><ele>283.0</ele><time>2026-04-25T10:15:33.999Z</time></trkpt><trkpt lat="45.3102688322137" lon="7.848015012618257"><ele>283.0</ele><time>2026-04-25T10:15:34.999Z</time></trkpt><trkpt lat="45.310190382634616" lon="7.847977047809759"><ele>283.0</ele><time>2026-04-25T10:15:35.999Z</time></trkpt><trkpt lat="45.310121483062524" lon="7.847912643436533"><ele>283.0</ele><time>2026-04-25T10:15:36.999Z</time></trkpt><trkpt lat="45.31003453943122" lon="7.847875844684727"><ele>283.0</ele><time>2026-04-25T10:15:37.999Z</time></trkpt><trkpt lat="45.309952283412926" lon="7.847665095180195"><ele>282.75</ele><time>2026-04-25T10:15:38.999Z</time></trkpt><trkpt lat="45.30987535611767" lon="7.84751401287072"><ele>282.5</ele><time>2026-04-25T10:15:39.999Z</time></trkpt><trkpt lat="45.30979445621305" lon="7.847392417391367"><ele>282.25</ele><time>2026-04-25T10:15:40.999Z</time></trkpt><trkpt lat="45.309714301183206" lon="7.847265169288359"><ele>282.0</ele><time>2026-04-25T10:15:41.999Z</time></trkpt><trkpt lat="45.30963057924484" lon="7.8471454783493115"><ele>281.75</ele><time>2026-04-25T10:15:42.999Z</time></trkpt><trkpt lat="45.30954543138857" lon="7.8470026533009865"><ele>281.5</ele><time>2026-04-25T10:15:43.999Z</time></trkpt><trkpt lat="45.30944576879737" lon="7.846849882256616"><ele>281.25</ele><time>2026-04-25T10:15:44.999Z</time></trkpt><trkpt lat="45.30934128408048" lon="7.846687475474392"><ele>281.0</ele><time>2026-04-25T10:15:45.999Z</time></trkpt><trkpt lat="45.30924890182544" lon="7.8465345211699065"><ele>281.0</ele><time>2026-04-25T10:15:46.999Z</time></trkpt><trkpt lat="45.30914911596615" lon="7.846368809364948"><ele>281.0</ele><time>2026-04-25T10:15:47.999Z</time></trkpt><trkpt lat="45.30905322428054" lon="7.846207319039761"><ele>281.0</ele><time>2026-04-25T10:15:48.999Z</time></trkpt><trkpt lat="45.30895572934283" lon="7.846072800748928"><ele>281.0</ele><time>2026-04-25T10:15:49.999Z</time></trkpt><trkpt lat="45.30884675072569" lon="7.845907782429108"><ele>280.5</ele><time>2026-04-25T10:15:50.999Z</time></trkpt><trkpt lat="45.30875845612909" lon="7.8457584413487815"><ele>280.0</ele><time>2026-04-25T10:15:51.999Z</time></trkpt><trkpt lat="45.30864872943794" lon="7.845596613527966"><ele>279.5</ele><time>2026-04-25T10:15:52.999Z</time></trkpt><trkpt lat="45.308564122357396" lon="7.845445265781014"><ele>279.0</ele><time>2026-04-25T10:15:53.999Z</time></trkpt><trkpt lat="45.308474258278444" lon="7.845288443915173"><ele>279.0</ele><time>2026-04-25T10:15:54.999Z</time></trkpt><trkpt lat="45.308372712347015" lon="7.845143953761572"><ele>279.0</ele><time>2026-04-25T10:15:55.999Z</time></trkpt><trkpt lat="45.30825450246753" lon="7.844983825828968"><ele>279.0</ele><time>2026-04-25T10:15:56.999Z</time></trkpt><trkpt lat="45.308170548862336" lon="7.8448303960932435"><ele>279.0</ele><time>2026-04-25T10:15:57.999Z</time></trkpt><trkpt lat="45.30807642333729" lon="7.844689083544945"><ele>279.0</ele><time>2026-04-25T10:15:58.999Z</time></trkpt><trkpt lat="45.30799085529614" lon="7.844554098307924"><ele>279.0</ele><time>2026-04-25T10:15:59.999Z</time></trkpt><trkpt lat="45.307892958726896" lon="7.844397887779172"><ele>279.0</ele><time>2026-04-25T10:16:00.999Z</time></trkpt><trkpt lat="45.30780391976973" lon="7.8442524837909255"><ele>279.0</ele><time>2026-04-25T10:16:01.999Z</time></trkpt><trkpt lat="45.30771988651471" lon="7.844125093788579"><ele>279.0</ele><time>2026-04-25T10:16:02.999Z</time></trkpt><trkpt lat="45.30763642898513" lon="7.844000001524222"><ele>279.0</ele><time>2026-04-25T10:16:03.999Z</time></trkpt><trkpt lat="45.30755390638621" lon="7.843862714471219"><ele>279.0</ele><time>2026-04-25T10:16:04.999Z</time></trkpt><trkpt lat="45.30747352131907" lon="7.843729010358563"><ele>279.0</ele><time>2026-04-25T10:16:05.999Z</time></trkpt><trkpt lat="45.30739636201785" lon="7.843599970625934"><ele>279.0</ele><time>2026-04-25T10:16:06.999Z</time></trkpt><trkpt lat="45.30731232481135" lon="7.843472908441642"><ele>279.0</ele><time>2026-04-25T10:16:07.999Z</time></trkpt><trkpt lat="45.30722388021585" lon="7.843344086650923"><ele>279.0</ele><time>2026-04-25T10:16:08.999Z</time></trkpt><trkpt lat="45.30714017463897" lon="7.843207825836284"><ele>279.0</ele><time>2026-04-25T10:16:09.999Z</time></trkpt><trkpt lat="45.307064048714864" lon="7.843093611019891"><ele>278.25</ele><time>2026-04-25T10:16:10.999Z</time></trkpt><trkpt lat="45.3070010489324" lon="7.84299049528935"><ele>277.5</ele><time>2026-04-25T10:16:11.999Z</time></trkpt><trkpt lat="45.306912735961646" lon="7.842858136759051"><ele>276.75</ele><time>2026-04-25T10:16:12.999Z</time></trkpt><trkpt lat="45.30682838491964" lon="7.842723050969156"><ele>276.0</ele><time>2026-04-25T10:16:13.999Z</time></trkpt><trkpt lat="45.30675574584047" lon="7.8426029648594495"><ele>276.0</ele><time>2026-04-25T10:16:14.999Z</time></trkpt><trkpt lat="45.30669306746267" lon="7.842503053888877"><ele>276.0</ele><time>2026-04-25T10:16:15.999Z</time></trkpt><trkpt lat="45.3066261285299" lon="7.842409017899764"><ele>276.0</ele><time>2026-04-25T10:16:16.999Z</time></trkpt><trkpt lat="45.30655945191987" lon="7.8422912231897834"><ele>276.0</ele><time>2026-04-25T10:16:18.999Z</time></trkpt><trkpt lat="45.30651068497702" lon="7.842218617870489"><ele>276.0</ele><time>2026-04-25T10:16:19.999Z</time></trkpt><trkpt lat="45.306463590351214" lon="7.842155556388012"><ele>276.0</ele><time>2026-04-25T10:16:20.999Z</time></trkpt><trkpt lat="45.30642282684039" lon="7.842077483367967"><ele>276.1666666666667</ele><time>2026-04-25T10:16:21.999Z</time></trkpt><trkpt lat="45.30638110781259" lon="7.842005486918205"><ele>276.3333333333333</ele><time>2026-04-25T10:16:22.999Z</time></trkpt><trkpt lat="45.306301695096884" lon="7.841896803894783"><ele>276.5</ele><time>2026-04-25T10:16:24.999Z</time></trkpt><trkpt lat="45.306242619824594" lon="7.841828143327488"><ele>276.66666666666663</ele><time>2026-04-25T10:16:25.999Z</time></trkpt><trkpt lat="45.30618175470945" lon="7.84176978997683"><ele>276.8333333333333</ele><time>2026-04-25T10:16:26.999Z</time></trkpt><trkpt lat="45.30612108157304" lon="7.841710584934617"><ele>277.0</ele><time>2026-04-25T10:16:27.999Z</time></trkpt><trkpt lat="45.30606885228419" lon="7.841655226373179"><ele>277.0</ele><time>2026-04-25T10:16:28.999Z</time></trkpt><trkpt lat="45.3060164466489" lon="7.841578921627824"><ele>277.0</ele><time>2026-04-25T10:16:30.999Z</time></trkpt><trkpt lat="45.30601726551406" lon="7.841480534449503"><ele>277.0</ele><time>2026-04-25T10:16:33.999Z</time></trkpt><trkpt lat="45.30606510460089" lon="7.841386282368041"><ele>277.0</ele><time>2026-04-25T10:16:35.999Z</time></trkpt><trkpt lat="45.30611497937957" lon="7.84128662471542"><ele>277.0</ele><time>2026-04-25T10:16:37.999Z</time></trkpt><trkpt lat="45.306145636017334" lon="7.8411989977515395"><ele>277.0</ele><time>2026-04-25T10:16:39.999Z</time></trkpt><trkpt lat="45.30607610845412" lon="7.841250753598154"><ele>277.0</ele><time>2026-04-25T10:16:48.999Z</time></trkpt><trkpt lat="45.306085231753464" lon="7.841369948329634"><ele>277.0</ele><time>2026-04-25T10:16:51.999Z</time></trkpt><trkpt lat="45.30605368011085" lon="7.8414571867519784"><ele>277.0</ele><time>2026-04-25T10:16:54.999Z</time></trkpt><trkpt lat="45.30604009669111" lon="7.841557278409485"><ele>277.0</ele><time>2026-04-25T10:16:59Z</time></trkpt><trkpt lat="45.30608843104983" lon="7.841674882949889"><ele>277.0</ele><time>2026-04-25T10:17:02Z</time></trkpt><trkpt lat="45.30615434866592" lon="7.841742884087694"><ele>277.0</ele><time>2026-04-25T10:17:04Z</time></trkpt><trkpt lat="45.306214308901495" lon="7.841802463159409"><ele>277.0</ele><time>2026-04-25T10:17:06Z</time></trkpt><trkpt lat="45.30627535476349" lon="7.841863702247958"><ele>277.0</ele><time>2026-04-25T10:17:09Z</time></trkpt><trkpt lat="45.30634180154599" lon="7.841942577754413"><ele>277.0</ele><time>2026-04-25T10:17:11Z</time></trkpt><trkpt lat="45.306402688047704" lon="7.842037948536934"><ele>277.0</ele><time>2026-04-25T10:17:13Z</time></trkpt><trkpt lat="45.30647552077853" lon="7.842152415781767"><ele>277.0</ele><time>2026-04-25T10:17:15Z</time></trkpt><trkpt lat="45.30654547232388" lon="7.842265186335453"><ele>276.8</ele><time>2026-04-25T10:17:17Z</time></trkpt><trkpt lat="45.306606219910826" lon="7.842377834322596"><ele>276.6</ele><time>2026-04-25T10:17:19Z</time></trkpt><trkpt lat="45.306665870094896" lon="7.842466809247763"><ele>276.40000000000003</ele><time>2026-04-25T10:17:21Z</time></trkpt><trkpt lat="45.306708345258706" lon="7.842543001409263"><ele>276.2</ele><time>2026-04-25T10:17:49.999Z</time></trkpt><trkpt lat="45.30679724451306" lon="7.842677035465084"><ele>276.0</ele><time>2026-04-25T10:17:51.999Z</time></trkpt><trkpt lat="45.306852531196846" lon="7.842768665171401"><ele>276.0</ele><time>2026-04-25T10:17:52.999Z</time></trkpt><trkpt lat="45.30693073173038" lon="7.842897072414254"><ele>276.0</ele><time>2026-04-25T10:17:53.999Z</time></trkpt><trkpt lat="45.3070246177005" lon="7.84304528185176"><ele>276.0</ele><time>2026-04-25T10:17:54.999Z</time></trkpt><trkpt lat="45.30712810374655" lon="7.843190753910423"><ele>276.0</ele><time>2026-04-25T10:17:55.999Z</time></trkpt><trkpt lat="45.30721469030706" lon="7.843318715858415"><ele>276.5</ele><time>2026-04-25T10:17:56.999Z</time></trkpt><trkpt lat="45.30729435553585" lon="7.843446269746632"><ele>277.0</ele><time>2026-04-25T10:17:57.999Z</time></trkpt><trkpt lat="45.30737628728981" lon="7.843575755389763"><ele>277.5</ele><time>2026-04-25T10:17:58.999Z</time></trkpt><trkpt lat="45.30746157247401" lon="7.843698430184804"><ele>278.0</ele><time>2026-04-25T10:17:59.999Z</time></trkpt><trkpt lat="45.307538015641676" lon="7.843830235217527"><ele>278.25</ele><time>2026-04-25T10:18:00.999Z</time></trkpt><trkpt lat="45.307617215735355" lon="7.843971900894432"><ele>278.5</ele><time>2026-04-25T10:18:01.999Z</time></trkpt><trkpt lat="45.30770019683621" lon="7.844101323488046"><ele>278.75</ele><time>2026-04-25T10:18:02.999Z</time></trkpt><trkpt lat="45.30778524283816" lon="7.844233585674319"><ele>279.0</ele><time>2026-04-25T10:18:03.999Z</time></trkpt><trkpt lat="45.30787335902385" lon="7.844368003390132"><ele>279.0</ele><time>2026-04-25T10:18:04.999Z</time></trkpt><trkpt lat="45.30796400061219" lon="7.844517240855669"><ele>279.0</ele><time>2026-04-25T10:18:05.999Z</time></trkpt><trkpt lat="45.308055872968666" lon="7.844666070332326"><ele>279.0</ele><time>2026-04-25T10:18:06.999Z</time></trkpt><trkpt lat="45.30815173446205" lon="7.844814497972915"><ele>279.0</ele><time>2026-04-25T10:18:07.999Z</time></trkpt><trkpt lat="45.30824420385328" lon="7.844964939793835"><ele>279.0</ele><time>2026-04-25T10:18:08.999Z</time></trkpt><trkpt lat="45.30833343233975" lon="7.84511876011425"><ele>279.0</ele><time>2026-04-25T10:18:09.999Z</time></trkpt><trkpt lat="45.3084385832501" lon="7.845273683091429"><ele>279.0</ele><time>2026-04-25T10:18:10.999Z</time></trkpt><trkpt lat="45.30854545100013" lon="7.845433800144919"><ele>279.0</ele><time>2026-04-25T10:18:11.999Z</time></trkpt><trkpt lat="45.30863035228999" lon="7.845599205619964"><ele>279.0</ele><time>2026-04-25T10:18:12.999Z</time></trkpt><trkpt lat="45.30872199968634" lon="7.84574969032626"><ele>279.0</ele><time>2026-04-25T10:18:13.999Z</time></trkpt><trkpt lat="45.308836806463134" lon="7.845913410248635"><ele>279.0</ele><time>2026-04-25T10:18:14.999Z</time></trkpt><trkpt lat="45.30894153904442" lon="7.846069085283094"><ele>279.5</ele><time>2026-04-25T10:18:15.999Z</time></trkpt><trkpt lat="45.309040733469274" lon="7.846221151129414"><ele>280.0</ele><time>2026-04-25T10:18:16.999Z</time></trkpt><trkpt lat="45.309146322731806" lon="7.846367456375767"><ele>280.5</ele><time>2026-04-25T10:18:17.999Z</time></trkpt><trkpt lat="45.30922448178526" lon="7.846540891584867"><ele>281.0</ele><time>2026-04-25T10:18:18.999Z</time></trkpt><trkpt lat="45.30931806841775" lon="7.846684289258814"><ele>281.0</ele><time>2026-04-25T10:18:19.999Z</time></trkpt><trkpt lat="45.30942455502754" lon="7.846840054353603"><ele>281.0</ele><time>2026-04-25T10:18:20.999Z</time></trkpt><trkpt lat="45.30952252078779" lon="7.846997431984644"><ele>281.0</ele><time>2026-04-25T10:18:21.999Z</time></trkpt><trkpt lat="45.3096199561852" lon="7.847155234313838"><ele>281.0</ele><time>2026-04-25T10:18:22.999Z</time></trkpt><trkpt lat="45.30971702902301" lon="7.8473124868157225"><ele>281.25</ele><time>2026-04-25T10:18:23.999Z</time></trkpt><trkpt lat="45.30982515987888" lon="7.8474680223525475"><ele>281.5</ele><time>2026-04-25T10:18:24.999Z</time></trkpt><trkpt lat="45.309915130152355" lon="7.847602312672353"><ele>281.75</ele><time>2026-04-25T10:18:25.999Z</time></trkpt><trkpt lat="45.30998764087027" lon="7.847722866695651"><ele>282.0</ele><time>2026-04-25T10:18:26.999Z</time></trkpt><trkpt lat="45.31004381958523" lon="7.847818031368519"><ele>282.1666666666667</ele><time>2026-04-25T10:18:27.999Z</time></trkpt><trkpt lat="45.310088841668176" lon="7.847884878750084"><ele>282.3333333333333</ele><time>2026-04-25T10:18:28.999Z</time></trkpt><trkpt lat="45.3101466547536" lon="7.847998705781876"><ele>282.5</ele><time>2026-04-25T10:18:30.999Z</time></trkpt><trkpt lat="45.31021422092419" lon="7.848067742755615"><ele>282.66666666666663</ele><time>2026-04-25T10:18:32.999Z</time></trkpt><trkpt lat="45.3103238712294" lon="7.848001680396041"><ele>282.8333333333333</ele><time>2026-04-25T10:18:34.999Z</time></trkpt><trkpt lat="45.31036320821561" lon="7.84791139957492"><ele>283.0</ele><time>2026-04-25T10:18:35.999Z</time></trkpt><trkpt lat="45.31037025988114" lon="7.847778767996227"><ele>282.75</ele><time>2026-04-25T10:18:36.999Z</time></trkpt><trkpt lat="45.31037575172465" lon="7.847626148842805"><ele>282.5</ele><time>2026-04-25T10:18:37.999Z</time></trkpt><trkpt lat="45.3103998227103" lon="7.847461363444258"><ele>282.25</ele><time>2026-04-25T10:18:38.999Z</time></trkpt><trkpt lat="45.31044187255926" lon="7.847291153901274"><ele>282.0</ele><time>2026-04-25T10:18:39.999Z</time></trkpt><trkpt lat="45.31049799247978" lon="7.847112207521337"><ele>282.0</ele><time>2026-04-25T10:18:40.999Z</time></trkpt><trkpt lat="45.310554487887" lon="7.846920655148915"><ele>282.0</ele><time>2026-04-25T10:18:41.999Z</time></trkpt><trkpt lat="45.31061174720707" lon="7.846719046710824"><ele>282.0</ele><time>2026-04-25T10:18:42.999Z</time></trkpt><trkpt lat="45.31066580647598" lon="7.846504777077265"><ele>282.3333333333333</ele><time>2026-04-25T10:18:43.999Z</time></trkpt><trkpt lat="45.31071733428559" lon="7.846286647260852"><ele>282.66666666666663</ele><time>2026-04-25T10:18:44.999Z</time></trkpt><trkpt lat="45.3107749097394" lon="7.846067071481277"><ele>283.0</ele><time>2026-04-25T10:18:45.999Z</time></trkpt><trkpt lat="45.310839011263106" lon="7.845835103818014"><ele>283.0</ele><time>2026-04-25T10:18:46.999Z</time></trkpt><trkpt lat="45.31090784291012" lon="7.845599881885705"><ele>283.0</ele><time>2026-04-25T10:18:47.999Z</time></trkpt><trkpt lat="45.31097722404366" lon="7.8453602045010165"><ele>283.0</ele><time>2026-04-25T10:18:48.999Z</time></trkpt><trkpt lat="45.3110459325449" lon="7.845116033217593"><ele>283.0</ele><time>2026-04-25T10:18:49.999Z</time></trkpt><trkpt lat="45.311112696091115" lon="7.844865166838695"><ele>283.0</ele><time>2026-04-25T10:18:50.999Z</time></trkpt><trkpt lat="45.311178445359424" lon="7.844618208933928"><ele>283.0</ele><time>2026-04-25T10:18:51.999Z</time></trkpt><trkpt lat="45.31124543130405" lon="7.844364562123822"><ele>283.3333333333333</ele><time>2026-04-25T10:18:52.999Z</time></trkpt><trkpt lat="45.31131325454256" lon="7.844109032826728"><ele>283.6666666666667</ele><time>2026-04-25T10:18:53.999Z</time></trkpt><trkpt lat="45.31137951251398" lon="7.843855499428058"><ele>284.0</ele><time>2026-04-25T10:18:54.999Z</time></trkpt><trkpt lat="45.3114487261035" lon="7.843606613266556"><ele>284.0</ele><time>2026-04-25T10:18:55.999Z</time></trkpt><trkpt lat="45.31151889702705" lon="7.843359601480602"><ele>284.0</ele><time>2026-04-25T10:18:56.999Z</time></trkpt><trkpt lat="45.31159396643912" lon="7.843099275181581"><ele>284.0</ele><time>2026-04-25T10:18:57.999Z</time></trkpt><trkpt lat="45.31166549001367" lon="7.842840622905871"><ele>283.33333333333337</ele><time>2026-04-25T10:18:58.999Z</time></trkpt><trkpt lat="45.311735601790254" lon="7.84257718135886"><ele>282.6666666666667</ele><time>2026-04-25T10:18:59.999Z</time></trkpt><trkpt lat="45.311805758720794" lon="7.842312406570411"><ele>282.0</ele><time>2026-04-25T10:19:00.999Z</time></trkpt><trkpt lat="45.31185856838908" lon="7.842056870235931"><ele>282.0</ele><time>2026-04-25T10:19:02Z</time></trkpt><trkpt lat="45.311940834685295" lon="7.84178259269671"><ele>282.0</ele><time>2026-04-25T10:19:03Z</time></trkpt><trkpt lat="45.31201524287035" lon="7.8415121522720765"><ele>282.0</ele><time>2026-04-25T10:19:04Z</time></trkpt><trkpt lat="45.31208785549003" lon="7.841242322039018"><ele>282.0</ele><time>2026-04-25T10:19:05Z</time></trkpt><trkpt lat="45.31216060431355" lon="7.840972325099277"><ele>282.0</ele><time>2026-04-25T10:19:06Z</time></trkpt><trkpt lat="45.31223495061511" lon="7.840701487170875"><ele>282.0</ele><time>2026-04-25T10:19:07Z</time></trkpt><trkpt lat="45.31230971503193" lon="7.840430468957217"><ele>283.0</ele><time>2026-04-25T10:19:08Z</time></trkpt><trkpt lat="45.31238674193979" lon="7.840155938264624"><ele>284.0</ele><time>2026-04-25T10:19:09Z</time></trkpt><trkpt lat="45.31246428375226" lon="7.839876249570056"><ele>285.0</ele><time>2026-04-25T10:19:10Z</time></trkpt><trkpt lat="45.31253819141862" lon="7.8396042051141395"><ele>285.0</ele><time>2026-04-25T10:19:11Z</time></trkpt><trkpt lat="45.31261336313992" lon="7.839321179456532"><ele>285.0</ele><time>2026-04-25T10:19:12Z</time></trkpt><trkpt lat="45.312691475582454" lon="7.839047858256922"><ele>285.0</ele><time>2026-04-25T10:19:13Z</time></trkpt><trkpt lat="45.31277683773568" lon="7.838772882131439"><ele>285.0</ele><time>2026-04-25T10:19:14Z</time></trkpt><trkpt lat="45.312867184665464" lon="7.838505703944234"><ele>285.0</ele><time>2026-04-25T10:19:15Z</time></trkpt><trkpt lat="45.312959165238986" lon="7.838236649813046"><ele>285.0</ele><time>2026-04-25T10:19:16Z</time></trkpt><trkpt lat="45.31305528160984" lon="7.837973737558846"><ele>285.0</ele><time>2026-04-25T10:19:17Z</time></trkpt><trkpt lat="45.313153226690645" lon="7.837711862621634"><ele>285.0</ele><time>2026-04-25T10:19:18Z</time></trkpt><trkpt lat="45.31325089424429" lon="7.837451859292385"><ele>285.0</ele><time>2026-04-25T10:19:19Z</time></trkpt><trkpt lat="45.31334972519442" lon="7.8371902247585306"><ele>285.0</ele><time>2026-04-25T10:19:20Z</time></trkpt><trkpt lat="45.31344496620863" lon="7.836920461708003"><ele>285.0</ele><time>2026-04-25T10:19:21Z</time></trkpt><trkpt lat="45.313543050839606" lon="7.836657456944898"><ele>285.0</ele><time>2026-04-25T10:19:22Z</time></trkpt><trkpt lat="45.31364200597024" lon="7.836393844705197"><ele>285.0</ele><time>2026-04-25T10:19:23Z</time></trkpt><trkpt lat="45.31373757511273" lon="7.836125882128507"><ele>285.0</ele><time>2026-04-25T10:19:24Z</time></trkpt><trkpt lat="45.3138341870393" lon="7.835859528877631"><ele>285.0</ele><time>2026-04-25T10:19:25Z</time></trkpt><trkpt lat="45.31393131093136" lon="7.835595864298117"><ele>286.0</ele><time>2026-04-25T10:19:26Z</time></trkpt><trkpt lat="45.31403246316699" lon="7.835334470138046"><ele>287.0</ele><time>2026-04-25T10:19:27Z</time></trkpt><trkpt lat="45.31413491040492" lon="7.8350765969181575"><ele>288.0</ele><time>2026-04-25T10:19:28Z</time></trkpt><trkpt lat="45.314236238606746" lon="7.834818583753267"><ele>288.0</ele><time>2026-04-25T10:19:29Z</time></trkpt><trkpt lat="45.31433170291034" lon="7.834553107130176"><ele>288.0</ele><time>2026-04-25T10:19:30Z</time></trkpt><trkpt lat="45.314418816726096" lon="7.8342856094033175"><ele>288.0</ele><time>2026-04-25T10:19:31Z</time></trkpt><trkpt lat="45.31450223597767" lon="7.834013059368661"><ele>287.3333333333333</ele><time>2026-04-25T10:19:32Z</time></trkpt><trkpt lat="45.31457843532221" lon="7.833738192947785"><ele>286.66666666666663</ele><time>2026-04-25T10:19:33Z</time></trkpt><trkpt lat="45.31465149905202" lon="7.83345901773661"><ele>286.0</ele><time>2026-04-25T10:19:34Z</time></trkpt><trkpt lat="45.31471982182807" lon="7.8331843262556875"><ele>286.0</ele><time>2026-04-25T10:19:35Z</time></trkpt><trkpt lat="45.3147905115701" lon="7.832908894579525"><ele>286.0</ele><time>2026-04-25T10:19:36Z</time></trkpt><trkpt lat="45.314865972678724" lon="7.832632338118909"><ele>286.0</ele><time>2026-04-25T10:19:37Z</time></trkpt><trkpt lat="45.3149392614538" lon="7.83235632137686"><ele>286.3333333333333</ele><time>2026-04-25T10:19:38Z</time></trkpt><trkpt lat="45.31501062917298" lon="7.832087772393862"><ele>286.6666666666667</ele><time>2026-04-25T10:19:39Z</time></trkpt><trkpt lat="45.31507147524964" lon="7.8318370089370015"><ele>287.0</ele><time>2026-04-25T10:19:40Z</time></trkpt><trkpt lat="45.31513290381611" lon="7.831600364728249"><ele>287.0</ele><time>2026-04-25T10:19:41Z</time></trkpt><trkpt lat="45.31519054789718" lon="7.831379093002009"><ele>287.0</ele><time>2026-04-25T10:19:42Z</time></trkpt><trkpt lat="45.31524714504644" lon="7.8311662506273745"><ele>287.0</ele><time>2026-04-25T10:19:43Z</time></trkpt><trkpt lat="45.31529557578153" lon="7.830968514401716"><ele>287.0</ele><time>2026-04-25T10:19:43.999Z</time></trkpt><trkpt lat="45.31534627950438" lon="7.830777723026005"><ele>287.0</ele><time>2026-04-25T10:19:44.999Z</time></trkpt><trkpt lat="45.31539589931667" lon="7.830595097121728"><ele>287.0</ele><time>2026-04-25T10:19:45.999Z</time></trkpt><trkpt lat="45.31544168188379" lon="7.83042205143396"><ele>287.0</ele><time>2026-04-25T10:19:46.999Z</time></trkpt><trkpt lat="45.3154852629586" lon="7.830258238843258"><ele>286.8</ele><time>2026-04-25T10:19:47.999Z</time></trkpt><trkpt lat="45.315525462841705" lon="7.830101926679842"><ele>286.6</ele><time>2026-04-25T10:19:48.999Z</time></trkpt><trkpt lat="45.3155663960001" lon="7.829953534913318"><ele>286.40000000000003</ele><time>2026-04-25T10:19:49.999Z</time></trkpt><trkpt lat="45.31560496381854" lon="7.829813653414236"><ele>286.2</ele><time>2026-04-25T10:19:50.999Z</time></trkpt><trkpt lat="45.31563741347855" lon="7.82967723047538"><ele>286.0</ele><time>2026-04-25T10:19:51.999Z</time></trkpt><trkpt lat="45.315671411987765" lon="7.829543682862942"><ele>286.0</ele><time>2026-04-25T10:19:52.999Z</time></trkpt><trkpt lat="45.315714542197" lon="7.829409069973219"><ele>286.0</ele><time>2026-04-25T10:19:53.999Z</time></trkpt><trkpt lat="45.31576928489966" lon="7.829281847042756"><ele>286.0</ele><time>2026-04-25T10:19:54.999Z</time></trkpt><trkpt lat="45.31581802688484" lon="7.829140565141521"><ele>286.0</ele><time>2026-04-25T10:19:55.999Z</time></trkpt><trkpt lat="45.31590128083662" lon="7.828991754029509"><ele>285.75</ele><time>2026-04-25T10:19:56.999Z</time></trkpt><trkpt lat="45.315939022662754" lon="7.828801375001573"><ele>285.5</ele><time>2026-04-25T10:19:57.999Z</time></trkpt><trkpt lat="45.315952735985704" lon="7.8285964408556445"><ele>285.25</ele><time>2026-04-25T10:19:58.999Z</time></trkpt><trkpt lat="45.31595742853282" lon="7.828375195992213"><ele>285.0</ele><time>2026-04-25T10:19:59.999Z</time></trkpt><trkpt lat="45.3159933309198" lon="7.828158384156772"><ele>285.0</ele><time>2026-04-25T10:20:00.999Z</time></trkpt><trkpt lat="45.316060664548026" lon="7.827944190872379"><ele>285.0</ele><time>2026-04-25T10:20:01.999Z</time></trkpt><trkpt lat="45.31612523845475" lon="7.82773652428855"><ele>285.0</ele><time>2026-04-25T10:20:02.999Z</time></trkpt><trkpt lat="45.31618101981638" lon="7.827524841915707"><ele>285.0</ele><time>2026-04-25T10:20:03.999Z</time></trkpt><trkpt lat="45.316226961663084" lon="7.827333161672171"><ele>285.0</ele><time>2026-04-25T10:20:04.999Z</time></trkpt><trkpt lat="45.31626913852827" lon="7.827159936632935"><ele>285.0</ele><time>2026-04-25T10:20:05.999Z</time></trkpt><trkpt lat="45.316308345321595" lon="7.827001214122346"><ele>285.0</ele><time>2026-04-25T10:20:06.999Z</time></trkpt><trkpt lat="45.31634497966402" lon="7.826867666303763"><ele>285.5</ele><time>2026-04-25T10:20:07.999Z</time></trkpt><trkpt lat="45.31636574134411" lon="7.826779361082925"><ele>286.0</ele><time>2026-04-25T10:20:08.999Z</time></trkpt><trkpt lat="45.31639065565473" lon="7.8266847003729305"><ele>286.5</ele><time>2026-04-25T10:20:10.999Z</time></trkpt><trkpt lat="45.316165808851515" lon="7.82650057063573"><ele>287.0</ele><time>2026-04-25T10:20:18.999Z</time></trkpt><trkpt lat="45.316069479452864" lon="7.826446028438447"><ele>287.0</ele><time>2026-04-25T10:20:19.999Z</time></trkpt><trkpt lat="45.3159682300257" lon="7.826392675183788"><ele>287.0</ele><time>2026-04-25T10:20:20.999Z</time></trkpt><trkpt lat="45.31585908822583" lon="7.826337592609264"><ele>287.0</ele><time>2026-04-25T10:20:21.999Z</time></trkpt><trkpt lat="45.3157498828529" lon="7.826283366555349"><ele>287.0</ele><time>2026-04-25T10:20:22.999Z</time></trkpt><trkpt lat="45.31565398203109" lon="7.826234385112133"><ele>287.0</ele><time>2026-04-25T10:20:23.999Z</time></trkpt><trkpt lat="45.31557231384717" lon="7.826195861139544"><ele>286.6</ele><time>2026-04-25T10:20:24.999Z</time></trkpt><trkpt lat="45.31550320891536" lon="7.826166559420696"><ele>286.2</ele><time>2026-04-25T10:20:25.999Z</time></trkpt><trkpt lat="45.31542864211799" lon="7.8262163938648355"><ele>285.8</ele><time>2026-04-25T10:20:27.999Z</time></trkpt><trkpt lat="45.31539662050403" lon="7.826422903851234"><ele>285.4</ele><time>2026-04-25T10:20:29.999Z</time></trkpt><trkpt lat="45.31538221873899" lon="7.826545608996172"><ele>285.0</ele><time>2026-04-25T10:20:30.999Z</time></trkpt><trkpt lat="45.31536213807436" lon="7.8266585018081125"><ele>285.0</ele><time>2026-04-25T10:20:31.999Z</time></trkpt><trkpt lat="45.31534079468319" lon="7.826751370917271"><ele>285.0</ele><time>2026-04-25T10:20:32.999Z</time></trkpt><trkpt lat="45.31526576750435" lon="7.826791336623228"><ele>285.0</ele><time>2026-04-25T10:20:34.999Z</time></trkpt><trkpt lat="45.31518827160614" lon="7.826809107684681"><ele>285.0</ele><time>2026-04-25T10:20:35.999Z</time></trkpt><trkpt lat="45.315108918468624" lon="7.826800497648895"><ele>285.0</ele><time>2026-04-25T10:20:36.999Z</time></trkpt><trkpt lat="45.31501124209706" lon="7.82678467809138"><ele>285.0</ele><time>2026-04-25T10:20:37.999Z</time></trkpt><trkpt lat="45.314915158181655" lon="7.8267680465607405"><ele>285.0</ele><time>2026-04-25T10:20:38.999Z</time></trkpt><trkpt lat="45.314806148113476" lon="7.826746346868913"><ele>285.0</ele><time>2026-04-25T10:20:39.999Z</time></trkpt><trkpt lat="45.31470074550778" lon="7.826727234436935"><ele>285.0</ele><time>2026-04-25T10:20:40.999Z</time></trkpt><trkpt lat="45.314585569843835" lon="7.826709126949738"><ele>285.0</ele><time>2026-04-25T10:20:41.999Z</time></trkpt><trkpt lat="45.31447036776237" lon="7.826685739420387"><ele>285.0</ele><time>2026-04-25T10:20:42.999Z</time></trkpt><trkpt lat="45.31435119614678" lon="7.826667134674461"><ele>284.75</ele><time>2026-04-25T10:20:43.999Z</time></trkpt><trkpt lat="45.31423254735917" lon="7.826656998122876"><ele>284.5</ele><time>2026-04-25T10:20:44.999Z</time></trkpt><trkpt lat="45.314117277799845" lon="7.82664514628204"><ele>284.25</ele><time>2026-04-25T10:20:45.999Z</time></trkpt><trkpt lat="45.31401040051386" lon="7.82662203493918"><ele>284.0</ele><time>2026-04-25T10:20:46.999Z</time></trkpt><trkpt lat="45.31390528868873" lon="7.826587662235518"><ele>284.0</ele><time>2026-04-25T10:20:47.999Z</time></trkpt><trkpt lat="45.31380096106956" lon="7.8265355747067495"><ele>284.0</ele><time>2026-04-25T10:20:48.999Z</time></trkpt><trkpt lat="45.313708645693" lon="7.826480342014366"><ele>284.0</ele><time>2026-04-25T10:20:49.999Z</time></trkpt><trkpt lat="45.313624432294546" lon="7.826440207496309"><ele>284.0</ele><time>2026-04-25T10:20:50.999Z</time></trkpt><trkpt lat="45.313552980729646" lon="7.826402175199895"><ele>284.0</ele><time>2026-04-25T10:20:51.999Z</time></trkpt><trkpt lat="45.313483293570286" lon="7.826366233926334"><ele>284.0</ele><time>2026-04-25T10:20:52.999Z</time></trkpt><trkpt lat="45.31337234249343" lon="7.826314343226446"><ele>284.0</ele><time>2026-04-25T10:20:54.999Z</time></trkpt><trkpt lat="45.31334137645089" lon="7.82623549596567"><ele>284.0</ele><time>2026-04-25T10:21:32Z</time></trkpt><trkpt lat="45.313371602020474" lon="7.826111494872258"><ele>284.0</ele><time>2026-04-25T10:21:34Z</time></trkpt><trkpt lat="45.31340081227325" lon="7.826027216149099"><ele>284.0</ele><time>2026-04-25T10:21:36Z</time></trkpt><trkpt lat="45.31341764267214" lon="7.825912360026233"><ele>284.0</ele><time>2026-04-25T10:21:38Z</time></trkpt><trkpt lat="45.313452989365665" lon="7.8257111825762316"><ele>283.83333333333337</ele><time>2026-04-25T10:21:40Z</time></trkpt><trkpt lat="45.31347739468602" lon="7.825580622878666"><ele>283.6666666666667</ele><time>2026-04-25T10:21:41Z</time></trkpt><trkpt lat="45.31349871565553" lon="7.825470236971338"><ele>283.5</ele><time>2026-04-25T10:21:42Z</time></trkpt><trkpt lat="45.313495052627474" lon="7.82537636923888"><ele>283.3333333333333</ele><time>2026-04-25T10:21:43Z</time></trkpt><trkpt lat="45.31342916697451" lon="7.825353533149701"><ele>283.16666666666663</ele><time>2026-04-25T10:21:44Z</time></trkpt><trkpt lat="45.31333447381084" lon="7.8253195166564415"><ele>283.0</ele><time>2026-04-25T10:21:45Z</time></trkpt><trkpt lat="45.31320574170587" lon="7.8252630934409035"><ele>283.0</ele><time>2026-04-25T10:21:46Z</time></trkpt><trkpt lat="45.31307214075215" lon="7.82519647306412"><ele>283.0</ele><time>2026-04-25T10:21:47Z</time></trkpt><trkpt lat="45.31292929805305" lon="7.825126448474711"><ele>283.0</ele><time>2026-04-25T10:21:48Z</time></trkpt><trkpt lat="45.31281809913834" lon="7.825067636053555"><ele>283.0</ele><time>2026-04-25T10:21:49Z</time></trkpt><trkpt lat="45.31273882425521" lon="7.825023378821882"><ele>282.4</ele><time>2026-04-25T10:21:50Z</time></trkpt><trkpt lat="45.31267498248049" lon="7.824953092097726"><ele>281.8</ele><time>2026-04-25T10:21:52Z</time></trkpt><trkpt lat="45.31270501949684" lon="7.824827676681714"><ele>281.2</ele><time>2026-04-25T10:21:54Z</time></trkpt><trkpt lat="45.312752290451606" lon="7.824701306058057"><ele>280.6</ele><time>2026-04-25T10:21:55Z</time></trkpt><trkpt lat="45.3127880071967" lon="7.824548565122067"><ele>280.0</ele><time>2026-04-25T10:21:56Z</time></trkpt><trkpt lat="45.31282739404058" lon="7.824361511238428"><ele>280.0</ele><time>2026-04-25T10:21:57Z</time></trkpt><trkpt lat="45.31285967178222" lon="7.824174911424843"><ele>280.0</ele><time>2026-04-25T10:21:58Z</time></trkpt><trkpt lat="45.31289388445458" lon="7.823983173591037"><ele>280.0</ele><time>2026-04-25T10:21:59Z</time></trkpt><trkpt lat="45.312927619220396" lon="7.823794322269114"><ele>280.0</ele><time>2026-04-25T10:22:00Z</time></trkpt><trkpt lat="45.31296122955118" lon="7.823595383726409"><ele>280.0</ele><time>2026-04-25T10:22:01Z</time></trkpt><trkpt lat="45.312990368127494" lon="7.823401831813027"><ele>280.0</ele><time>2026-04-25T10:22:02Z</time></trkpt><trkpt lat="45.31303480071687" lon="7.82322204992551"><ele>280.0</ele><time>2026-04-25T10:22:03Z</time></trkpt><trkpt lat="45.31306391478417" lon="7.823056280348142"><ele>280.0</ele><time>2026-04-25T10:22:04Z</time></trkpt><trkpt lat="45.313079632526815" lon="7.822883620317883"><ele>280.25</ele><time>2026-04-25T10:22:04.999Z</time></trkpt><trkpt lat="45.31311778725708" lon="7.822726339527802"><ele>280.5</ele><time>2026-04-25T10:22:05.999Z</time></trkpt><trkpt lat="45.3131500470062" lon="7.822555838515394"><ele>280.75</ele><time>2026-04-25T10:22:06.999Z</time></trkpt><trkpt lat="45.31318754944361" lon="7.822398443361849"><ele>281.0</ele><time>2026-04-25T10:22:07.999Z</time></trkpt><trkpt lat="45.31321828969021" lon="7.822242554676149"><ele>281.0</ele><time>2026-04-25T10:22:08.999Z</time></trkpt><trkpt lat="45.31325806773191" lon="7.822124543344259"><ele>281.0</ele><time>2026-04-25T10:22:09.999Z</time></trkpt><trkpt lat="45.313282111047776" lon="7.822036930672702"><ele>281.0</ele><time>2026-04-25T10:22:10.999Z</time></trkpt><trkpt lat="45.313337792971495" lon="7.821840934855848"><ele>281.0</ele><time>2026-04-25T10:22:12.999Z</time></trkpt><trkpt lat="45.31337617883252" lon="7.821711488723186"><ele>281.0</ele><time>2026-04-25T10:22:13.999Z</time></trkpt><trkpt lat="45.31342349805271" lon="7.821552946141325"><ele>281.0</ele><time>2026-04-25T10:22:14.999Z</time></trkpt><trkpt lat="45.313483486056235" lon="7.821360864746508"><ele>281.0</ele><time>2026-04-25T10:22:15.999Z</time></trkpt><trkpt lat="45.313541238757885" lon="7.82118727377695"><ele>281.0</ele><time>2026-04-25T10:22:16.999Z</time></trkpt><trkpt lat="45.31359573395688" lon="7.821016652116763"><ele>281.0</ele><time>2026-04-25T10:22:17.999Z</time></trkpt><trkpt lat="45.31364278058675" lon="7.820858895389745"><ele>281.40000000000003</ele><time>2026-04-25T10:22:18.999Z</time></trkpt><trkpt lat="45.31368289559057" lon="7.820714875483138"><ele>281.8</ele><time>2026-04-25T10:22:19.999Z</time></trkpt><trkpt lat="45.31371774420331" lon="7.820577624101292"><ele>282.20000000000005</ele><time>2026-04-25T10:22:20.999Z</time></trkpt><trkpt lat="45.31374419475431" lon="7.8204249948641555"><ele>282.6</ele><time>2026-04-25T10:22:21.999Z</time></trkpt><trkpt lat="45.313758442034455" lon="7.820326006437344"><ele>283.0</ele><time>2026-04-25T10:22:22.999Z</time></trkpt><trkpt lat="45.31377371971766" lon="7.820192737076966"><ele>283.0</ele><time>2026-04-25T10:22:24.999Z</time></trkpt><trkpt lat="45.313376406805894" lon="7.820089095411735"><ele>283.0</ele><time>2026-04-25T10:22:26.999Z</time></trkpt><trkpt lat="45.313270960785815" lon="7.820073079962619"><ele>283.0</ele><time>2026-04-25T10:22:27.999Z</time></trkpt><trkpt lat="45.31314253212173" lon="7.820042877392974"><ele>283.0</ele><time>2026-04-25T10:22:28.999Z</time></trkpt><trkpt lat="45.3129978765197" lon="7.820006487532743"><ele>283.0</ele><time>2026-04-25T10:22:29.999Z</time></trkpt><trkpt lat="45.31283958098306" lon="7.819962302666261"><ele>283.0</ele><time>2026-04-25T10:22:30.999Z</time></trkpt><trkpt lat="45.3126894318189" lon="7.819919828442522"><ele>281.66666666666663</ele><time>2026-04-25T10:22:31.999Z</time></trkpt><trkpt lat="45.312541587692685" lon="7.819886810568862"><ele>280.3333333333333</ele><time>2026-04-25T10:22:32.999Z</time></trkpt><trkpt lat="45.312398550576674" lon="7.819852189722313"><ele>279.0</ele><time>2026-04-25T10:22:33.999Z</time></trkpt><trkpt lat="45.31228424242892" lon="7.819625909451513"><ele>279.0</ele><time>2026-04-25T10:22:34.999Z</time></trkpt><trkpt lat="45.31213504557549" lon="7.81958739771658"><ele>279.0</ele><time>2026-04-25T10:22:35.999Z</time></trkpt><trkpt lat="45.31197173386094" lon="7.81954524259336"><ele>279.0</ele><time>2026-04-25T10:22:36.999Z</time></trkpt><trkpt lat="45.31180158552125" lon="7.819501369438917"><ele>279.0</ele><time>2026-04-25T10:22:37.999Z</time></trkpt><trkpt lat="45.31162955105041" lon="7.819457012255327"><ele>279.0</ele><time>2026-04-25T10:22:38.999Z</time></trkpt><trkpt lat="45.31146659063106" lon="7.819414994740162"><ele>279.0</ele><time>2026-04-25T10:22:39.999Z</time></trkpt><trkpt lat="45.31129176574973" lon="7.8193699181037095"><ele>279.0</ele><time>2026-04-25T10:22:40.999Z</time></trkpt><trkpt lat="45.311109582881095" lon="7.819322944303126"><ele>279.0</ele><time>2026-04-25T10:22:41.999Z</time></trkpt><trkpt lat="45.31091194707346" lon="7.819271986112896"><ele>279.0</ele><time>2026-04-25T10:22:42.999Z</time></trkpt><trkpt lat="45.31071995824858" lon="7.819222483995403"><ele>279.0</ele><time>2026-04-25T10:22:43.999Z</time></trkpt><trkpt lat="45.310538620173894" lon="7.819175727949995"><ele>279.0</ele><time>2026-04-25T10:22:44.999Z</time></trkpt><trkpt lat="45.31035054360852" lon="7.819127234569386"><ele>279.0</ele><time>2026-04-25T10:22:45.999Z</time></trkpt><trkpt lat="45.31016713538698" lon="7.819079944855389"><ele>279.0</ele><time>2026-04-25T10:22:46.999Z</time></trkpt><trkpt lat="45.309986871977195" lon="7.819033465963554"><ele>279.0</ele><time>2026-04-25T10:22:47.999Z</time></trkpt><trkpt lat="45.3097970782833" lon="7.818984529763518"><ele>279.0</ele><time>2026-04-25T10:22:48.999Z</time></trkpt><trkpt lat="45.30960079466003" lon="7.818934503412311"><ele>278.6666666666667</ele><time>2026-04-25T10:22:49.999Z</time></trkpt><trkpt lat="45.30941510689249" lon="7.818887293220922"><ele>278.33333333333337</ele><time>2026-04-25T10:22:50.999Z</time></trkpt><trkpt lat="45.309213846862974" lon="7.818836123891583"><ele>278.0</ele><time>2026-04-25T10:22:51.999Z</time></trkpt><trkpt lat="45.30900301139089" lon="7.818782520047823"><ele>277.0</ele><time>2026-04-25T10:22:52.999Z</time></trkpt><trkpt lat="45.30881261172449" lon="7.8187341119210485"><ele>276.0</ele><time>2026-04-25T10:22:53.999Z</time></trkpt><trkpt lat="45.30861392818616" lon="7.8186835974310505"><ele>275.0</ele><time>2026-04-25T10:22:54.999Z</time></trkpt><trkpt lat="45.30843254770519" lon="7.8186374825159835"><ele>275.0</ele><time>2026-04-25T10:22:55.999Z</time></trkpt><trkpt lat="45.30824942404272" lon="7.818590924319266"><ele>275.0</ele><time>2026-04-25T10:22:56.999Z</time></trkpt><trkpt lat="45.30805285910859" lon="7.818540948685832"><ele>275.0</ele><time>2026-04-25T10:22:57.999Z</time></trkpt><trkpt lat="45.30787863051141" lon="7.818496651944963"><ele>275.0</ele><time>2026-04-25T10:22:58.999Z</time></trkpt><trkpt lat="45.30772213722467" lon="7.818456864365267"><ele>275.0</ele><time>2026-04-25T10:22:59.999Z</time></trkpt><trkpt lat="45.307569861791734" lon="7.818418141296155"><ele>275.0</ele><time>2026-04-25T10:23:00.999Z</time></trkpt><trkpt lat="45.3074371721545" lon="7.818384099423052"><ele>275.0</ele><time>2026-04-25T10:23:01.999Z</time></trkpt><trkpt lat="45.307304453283905" lon="7.818349948693845"><ele>274.5</ele><time>2026-04-25T10:23:02.999Z</time></trkpt><trkpt lat="45.30717272644208" lon="7.818316053237546"><ele>274.0</ele><time>2026-04-25T10:23:03.999Z</time></trkpt><trkpt lat="45.30703957307519" lon="7.818281790706822"><ele>273.5</ele><time>2026-04-25T10:23:04.999Z</time></trkpt><trkpt lat="45.30690320217293" lon="7.818246700262143"><ele>273.0</ele><time>2026-04-25T10:23:05.999Z</time></trkpt><trkpt lat="45.306771009119934" lon="7.818212684839874"><ele>273.0</ele><time>2026-04-25T10:23:06.999Z</time></trkpt><trkpt lat="45.30664983498361" lon="7.818181504726123"><ele>273.0</ele><time>2026-04-25T10:23:07.999Z</time></trkpt><trkpt lat="45.306544698071924" lon="7.818154451303443"><ele>273.0</ele><time>2026-04-25T10:23:08.999Z</time></trkpt><trkpt lat="45.306425906968606" lon="7.818123884414638"><ele>273.0</ele><time>2026-04-25T10:23:09.999Z</time></trkpt><trkpt lat="45.30629431725895" lon="7.818090024237536"><ele>273.0</ele><time>2026-04-25T10:23:10.999Z</time></trkpt><trkpt lat="45.30615385273786" lon="7.818053880435412"><ele>273.0</ele><time>2026-04-25T10:23:11.999Z</time></trkpt><trkpt lat="45.306008022974055" lon="7.8180163560414675"><ele>273.0</ele><time>2026-04-25T10:23:12.999Z</time></trkpt><trkpt lat="45.30586345795774" lon="7.817979157124173"><ele>273.0</ele><time>2026-04-25T10:23:14Z</time></trkpt><trkpt lat="45.305726478058574" lon="7.817944631463849"><ele>273.0</ele><time>2026-04-25T10:23:15Z</time></trkpt><trkpt lat="45.30559056275659" lon="7.817910418886421"><ele>273.0</ele><time>2026-04-25T10:23:16Z</time></trkpt><trkpt lat="45.305461319659585" lon="7.817877885852884"><ele>273.0</ele><time>2026-04-25T10:23:17Z</time></trkpt><trkpt lat="45.305353008904575" lon="7.817850621871165"><ele>273.0</ele><time>2026-04-25T10:23:18Z</time></trkpt><trkpt lat="45.30525678523214" lon="7.817826400457346"><ele>273.2</ele><time>2026-04-25T10:23:19Z</time></trkpt><trkpt lat="45.305151205348764" lon="7.8177998239097555"><ele>273.4</ele><time>2026-04-25T10:23:20Z</time></trkpt><trkpt lat="45.30503621034246" lon="7.8177700085963115"><ele>273.59999999999997</ele><time>2026-04-25T10:23:21Z</time></trkpt><trkpt lat="45.30493522200864" lon="7.817743778155355"><ele>273.8</ele><time>2026-04-25T10:23:22Z</time></trkpt><trkpt lat="45.30483184400153" lon="7.8177169270249705"><ele>274.0</ele><time>2026-04-25T10:23:23Z</time></trkpt><trkpt lat="45.30472162606708" lon="7.8176882993020875"><ele>274.2</ele><time>2026-04-25T10:23:24Z</time></trkpt><trkpt lat="45.304617404512214" lon="7.817662091097655"><ele>274.4</ele><time>2026-04-25T10:23:25Z</time></trkpt><trkpt lat="45.304539295906174" lon="7.817642525029352"><ele>274.6</ele><time>2026-04-25T10:23:26Z</time></trkpt><trkpt lat="45.30443549307992" lon="7.817616522589743"><ele>274.8</ele><time>2026-04-25T10:23:28Z</time></trkpt><trkpt lat="45.30430824723247" lon="7.81758464771339"><ele>275.0</ele><time>2026-04-25T10:23:30Z</time></trkpt><trkpt lat="45.30421976358202" lon="7.8175624827316055"><ele>275.0</ele><time>2026-04-25T10:23:31Z</time></trkpt><trkpt lat="45.30411884572388" lon="7.817537202978712"><ele>275.0</ele><time>2026-04-25T10:23:32Z</time></trkpt><trkpt lat="45.304056736649315" lon="7.817521644779006"><ele>275.0</ele><time>2026-04-25T10:23:33Z</time></trkpt><trkpt lat="45.30395798393085" lon="7.817919977210434"><ele>275.0</ele><time>2026-04-25T10:23:36Z</time></trkpt><trkpt lat="45.30394945155223" lon="7.8180647840166895"><ele>275.0</ele><time>2026-04-25T10:23:37Z</time></trkpt><trkpt lat="45.30393107476164" lon="7.818204556662408"><ele>275.0</ele><time>2026-04-25T10:23:38Z</time></trkpt><trkpt lat="45.30390380363154" lon="7.818316341632919"><ele>275.0</ele><time>2026-04-25T10:23:39Z</time></trkpt><trkpt lat="45.30378869343367" lon="7.818483551113191"><ele>274.4</ele><time>2026-04-25T10:23:41Z</time></trkpt><trkpt lat="45.30370797282213" lon="7.818631419902591"><ele>273.8</ele><time>2026-04-25T10:23:42Z</time></trkpt><trkpt lat="45.30364250899169" lon="7.818744542243218"><ele>273.2</ele><time>2026-04-25T10:23:43Z</time></trkpt><trkpt lat="45.303602235191576" lon="7.818815602604925"><ele>272.6</ele><time>2026-04-25T10:23:44Z</time></trkpt><trkpt lat="45.3036323007491" lon="7.8189372476861365"><ele>272.0</ele><time>2026-04-25T10:23:46Z</time></trkpt><trkpt lat="45.30373746526817" lon="7.819045939890166"><ele>272.0</ele><time>2026-04-25T10:23:48Z</time></trkpt><trkpt lat="45.3037910367965" lon="7.819100239079759"><ele>272.0</ele><time>2026-04-25T10:23:49Z</time></trkpt><trkpt lat="45.30385630392101" lon="7.819155353507903"><ele>272.0</ele><time>2026-04-25T10:23:52Z</time></trkpt><trkpt lat="45.30377543418631" lon="7.819251908420401"><ele>272.0</ele><time>2026-04-25T10:23:55Z</time></trkpt><trkpt lat="45.30370687402175" lon="7.819212642607574"><ele>272.0</ele><time>2026-04-25T10:23:56Z</time></trkpt><trkpt lat="45.30363479830046" lon="7.819118087963717"><ele>272.0</ele><time>2026-04-25T10:23:58Z</time></trkpt><trkpt lat="45.30352428983539" lon="7.819072648544249"><ele>272.0</ele><time>2026-04-25T10:23:59Z</time></trkpt><trkpt lat="45.303451381097986" lon="7.819037294292492"><ele>272.0</ele><time>2026-04-25T10:24:00Z</time></trkpt><trkpt lat="45.303381224670815" lon="7.81904223782127"><ele>272.0</ele><time>2026-04-25T10:24:01Z</time></trkpt><trkpt lat="45.30329506327741" lon="7.819060806333353"><ele>272.0</ele><time>2026-04-25T10:24:02Z</time></trkpt><trkpt lat="45.303209551052085" lon="7.819101813805774"><ele>272.0</ele><time>2026-04-25T10:24:03Z</time></trkpt><trkpt lat="45.303125763705395" lon="7.818999873354625"><ele>272.0</ele><time>2026-04-25T10:24:05Z</time></trkpt><trkpt lat="45.30307419511957" lon="7.818881922716899"><ele>271.8</ele><time>2026-04-25T10:24:06Z</time></trkpt><trkpt lat="45.30298379641857" lon="7.818753551536868"><ele>271.6</ele><time>2026-04-25T10:24:07Z</time></trkpt><trkpt lat="45.30288904316469" lon="7.818648514012498"><ele>271.40000000000003</ele><time>2026-04-25T10:24:07.999Z</time></trkpt><trkpt lat="45.3028133240362" lon="7.818667097248823"><ele>271.2</ele><time>2026-04-25T10:24:08.999Z</time></trkpt><trkpt lat="45.302766714584216" lon="7.818755500493582"><ele>271.0</ele><time>2026-04-25T10:24:10.999Z</time></trkpt><trkpt lat="45.30270035099773" lon="7.81877902970356"><ele>271.0</ele><time>2026-04-25T10:24:11.999Z</time></trkpt><trkpt lat="45.30260269856599" lon="7.818765951418805"><ele>271.0</ele><time>2026-04-25T10:24:12.999Z</time></trkpt><trkpt lat="45.30250477971456" lon="7.818717434124213"><ele>271.0</ele><time>2026-04-25T10:24:13.999Z</time></trkpt><trkpt lat="45.30242754047094" lon="7.818642951056224"><ele>271.0</ele><time>2026-04-25T10:24:14.999Z</time></trkpt><trkpt lat="45.30235128083272" lon="7.81855249215823"><ele>271.0</ele><time>2026-04-25T10:24:15.999Z</time></trkpt><trkpt lat="45.30225802537043" lon="7.818486466017516"><ele>269.75</ele><time>2026-04-25T10:24:16.999Z</time></trkpt><trkpt lat="45.30214440475353" lon="7.8184552431962695"><ele>268.5</ele><time>2026-04-25T10:24:17.999Z</time></trkpt><trkpt lat="45.30203501968448" lon="7.818374365080898"><ele>267.25</ele><time>2026-04-25T10:24:18.999Z</time></trkpt><trkpt lat="45.3019123641785" lon="7.818308810463171"><ele>266.0</ele><time>2026-04-25T10:24:19.999Z</time></trkpt><trkpt lat="45.30182994869265" lon="7.818207418736607"><ele>266.0</ele><time>2026-04-25T10:24:20.999Z</time></trkpt><trkpt lat="45.30173256410008" lon="7.818165084583607"><ele>266.0</ele><time>2026-04-25T10:24:21.999Z</time></trkpt><trkpt lat="45.30161342390799" lon="7.818159772210403"><ele>266.0</ele><time>2026-04-25T10:24:22.999Z</time></trkpt><trkpt lat="45.30151038555299" lon="7.818109063574268"><ele>266.0</ele><time>2026-04-25T10:24:23.999Z</time></trkpt><trkpt lat="45.301429422945816" lon="7.818050899975317"><ele>266.0</ele><time>2026-04-25T10:24:24.999Z</time></trkpt><trkpt lat="45.30134204389693" lon="7.8180518084441575"><ele>266.1666666666667</ele><time>2026-04-25T10:24:25.999Z</time></trkpt><trkpt lat="45.301253326033056" lon="7.818058129163295"><ele>266.33333333333337</ele><time>2026-04-25T10:24:26.999Z</time></trkpt><trkpt lat="45.301179587626834" lon="7.81800928881362"><ele>266.5</ele><time>2026-04-25T10:24:29.999Z</time></trkpt><trkpt lat="45.301103845827065" lon="7.818042281681336"><ele>266.6666666666667</ele><time>2026-04-25T10:24:30.999Z</time></trkpt><trkpt lat="45.30103925924265" lon="7.818040680127588"><ele>266.8333333333333</ele><time>2026-04-25T10:24:31.999Z</time></trkpt><trkpt lat="45.30098625744036" lon="7.817955494585325"><ele>267.0</ele><time>2026-04-25T10:24:33.999Z</time></trkpt><trkpt lat="45.30091190260284" lon="7.817868205151477"><ele>267.0</ele><time>2026-04-25T10:24:36.999Z</time></trkpt><trkpt lat="45.30085075735715" lon="7.817908141436598"><ele>267.0</ele><time>2026-04-25T10:24:38.999Z</time></trkpt><trkpt lat="45.30078956822815" lon="7.8178739865777205"><ele>267.0</ele><time>2026-04-25T10:24:40.999Z</time></trkpt><trkpt lat="45.30068601567594" lon="7.817798456418924"><ele>267.0</ele><time>2026-04-25T10:24:43.999Z</time></trkpt><trkpt lat="45.30062764938583" lon="7.8177502010134505"><ele>267.0</ele><time>2026-04-25T10:24:44.999Z</time></trkpt><trkpt lat="45.300516305114826" lon="7.817650501676229"><ele>267.0</ele><time>2026-04-25T10:24:45.999Z</time></trkpt><trkpt lat="45.300401106259294" lon="7.817579458414814"><ele>265.25</ele><time>2026-04-25T10:24:46.999Z</time></trkpt><trkpt lat="45.30027582607983" lon="7.817524399109693"><ele>263.5</ele><time>2026-04-25T10:24:47.999Z</time></trkpt><trkpt lat="45.300163849313314" lon="7.817453510690276"><ele>261.75</ele><time>2026-04-25T10:24:48.999Z</time></trkpt><trkpt lat="45.30007972516283" lon="7.817361166154464"><ele>260.0</ele><time>2026-04-25T10:24:49.999Z</time></trkpt><trkpt lat="45.30001295329555" lon="7.817252254289831"><ele>260.0</ele><time>2026-04-25T10:24:50.999Z</time></trkpt><trkpt lat="45.299928865830886" lon="7.817172848133244"><ele>260.0</ele><time>2026-04-25T10:24:51.999Z</time></trkpt><trkpt lat="45.29986392181396" lon="7.817115404415749"><ele>260.0</ele><time>2026-04-25T10:24:52.999Z</time></trkpt><trkpt lat="45.299805855274734" lon="7.816991536411795"><ele>260.0</ele><time>2026-04-25T10:24:54.999Z</time></trkpt><trkpt lat="45.299740340802785" lon="7.816995731574588"><ele>260.0</ele><time>2026-04-25T10:24:55.999Z</time></trkpt><trkpt lat="45.29966314276991" lon="7.817025296624758"><ele>260.0</ele><time>2026-04-25T10:24:56.999Z</time></trkpt><trkpt lat="45.299572428399294" lon="7.817075472004024"><ele>259.75</ele><time>2026-04-25T10:24:57.999Z</time></trkpt><trkpt lat="45.29945679122196" lon="7.8171140356095545"><ele>259.5</ele><time>2026-04-25T10:24:58.999Z</time></trkpt><trkpt lat="45.29934770019719" lon="7.817140064578875"><ele>259.25</ele><time>2026-04-25T10:24:59.999Z</time></trkpt><trkpt lat="45.29922197898604" lon="7.817144833794973"><ele>259.0</ele><time>2026-04-25T10:25:00.999Z</time></trkpt><trkpt lat="45.299105004172354" lon="7.817158006168037"><ele>259.0</ele><time>2026-04-25T10:25:01.999Z</time></trkpt><trkpt lat="45.29902156155336" lon="7.817177716935038"><ele>259.0</ele><time>2026-04-25T10:25:02.999Z</time></trkpt><trkpt lat="45.29895100490554" lon="7.817195374182226"><ele>259.0</ele><time>2026-04-25T10:25:04.999Z</time></trkpt><trkpt lat="45.298846045789595" lon="7.817184861765033"><ele>259.0</ele><time>2026-04-25T10:25:06.999Z</time></trkpt><trkpt lat="45.29876312435505" lon="7.81719065570039"><ele>259.0</ele><time>2026-04-25T10:25:07.999Z</time></trkpt><trkpt lat="45.29867994104989" lon="7.817196536316059"><ele>259.0</ele><time>2026-04-25T10:25:08.999Z</time></trkpt><trkpt lat="45.29857664619822" lon="7.817203934642003"><ele>258.0</ele><time>2026-04-25T10:25:09.999Z</time></trkpt><trkpt lat="45.29847763692027" lon="7.817225006600938"><ele>257.0</ele><time>2026-04-25T10:25:10.999Z</time></trkpt><trkpt lat="45.29837416268657" lon="7.817254405834945"><ele>255.99999999999997</ele><time>2026-04-25T10:25:11.999Z</time></trkpt><trkpt lat="45.29828880302604" lon="7.817297621218495"><ele>255.0</ele><time>2026-04-25T10:25:12.999Z</time></trkpt><trkpt lat="45.29822799266245" lon="7.817364684358486"><ele>254.0</ele><time>2026-04-25T10:25:13.999Z</time></trkpt><trkpt lat="45.298161735050165" lon="7.81745506053406"><ele>254.0</ele><time>2026-04-25T10:25:14.999Z</time></trkpt><trkpt lat="45.298110231622005" lon="7.817562507731494"><ele>253.99999999999997</ele><time>2026-04-25T10:25:15.999Z</time></trkpt><trkpt lat="45.2980838324781" lon="7.8176998285171395"><ele>253.99999999999997</ele><time>2026-04-25T10:25:16.999Z</time></trkpt><trkpt lat="45.298030605641976" lon="7.817833238631053"><ele>254.0</ele><time>2026-04-25T10:25:17.999Z</time></trkpt><trkpt lat="45.29798945970014" lon="7.817984093169904"><ele>254.0</ele><time>2026-04-25T10:25:18.999Z</time></trkpt><trkpt lat="45.29796164512395" lon="7.818142116261354"><ele>254.0</ele><time>2026-04-25T10:25:20Z</time></trkpt><trkpt lat="45.29791089706217" lon="7.818268542101093"><ele>253.99999999999997</ele><time>2026-04-25T10:25:21Z</time></trkpt><trkpt lat="45.29785104960528" lon="7.818399292074252"><ele>253.99999999999997</ele><time>2026-04-25T10:25:23Z</time></trkpt><trkpt lat="45.29778148290268" lon="7.818503283993707"><ele>254.0</ele><time>2026-04-25T10:25:26Z</time></trkpt><trkpt lat="45.297757169974474" lon="7.818608775025283"><ele>254.0</ele><time>2026-04-25T10:25:27Z</time></trkpt><trkpt lat="45.29762643238364" lon="7.818840428339554"><ele>256.0</ele><time>2026-04-25T10:25:28Z</time></trkpt><trkpt lat="45.29751802963379" lon="7.818925793397927"><ele>258.0</ele><time>2026-04-25T10:25:29Z</time></trkpt><trkpt lat="45.29721828581796" lon="7.819034780953881"><ele>260.0</ele><time>2026-04-25T10:25:30Z</time></trkpt><trkpt lat="45.29701093302739" lon="7.818987917447398"><ele>260.4</ele><time>2026-04-25T10:25:31Z</time></trkpt><trkpt lat="45.29691030102301" lon="7.8189384778082385"><ele>260.8</ele><time>2026-04-25T10:25:32Z</time></trkpt><trkpt lat="45.29678640540406" lon="7.818894291289576"><ele>261.2</ele><time>2026-04-25T10:25:33Z</time></trkpt><trkpt lat="45.296692011599156" lon="7.818817970095308"><ele>261.6</ele><time>2026-04-25T10:25:34Z</time></trkpt><trkpt lat="45.29659829699744" lon="7.818756006865135"><ele>262.0</ele><time>2026-04-25T10:25:35Z</time></trkpt><trkpt lat="45.29654698178925" lon="7.8177085809166424"><ele>260.0</ele><time>2026-04-25T10:25:37Z</time></trkpt><trkpt lat="45.29643103138603" lon="7.817632975714889"><ele>258.0</ele><time>2026-04-25T10:25:38Z</time></trkpt><trkpt lat="45.29632018962617" lon="7.817570244983438"><ele>256.0</ele><time>2026-04-25T10:25:39Z</time></trkpt><trkpt lat="45.29619276065464" lon="7.817536093638748"><ele>254.0</ele><time>2026-04-25T10:25:40Z</time></trkpt><trkpt lat="45.296088749609815" lon="7.817528841891068"><ele>254.0</ele><time>2026-04-25T10:25:41Z</time></trkpt><trkpt lat="45.2959655457352" lon="7.817554907182696"><ele>254.0</ele><time>2026-04-25T10:25:42Z</time></trkpt><trkpt lat="45.29585204529868" lon="7.817593476069662"><ele>254.0</ele><time>2026-04-25T10:25:43Z</time></trkpt><trkpt lat="45.29573888876197" lon="7.817642075896074"><ele>254.0</ele><time>2026-04-25T10:25:44Z</time></trkpt><trkpt lat="45.29562574320603" lon="7.817687218493557"><ele>256.25</ele><time>2026-04-25T10:25:45Z</time></trkpt><trkpt lat="45.295501081381566" lon="7.817732575753872"><ele>258.5</ele><time>2026-04-25T10:25:46Z</time></trkpt><trkpt lat="45.295370183156095" lon="7.817778976515441"><ele>260.75</ele><time>2026-04-25T10:25:47Z</time></trkpt><trkpt lat="45.29523839779414" lon="7.817822872437107"><ele>263.0</ele><time>2026-04-25T10:25:48Z</time></trkpt><trkpt lat="45.2951054416626" lon="7.817853066505927"><ele>263.0</ele><time>2026-04-25T10:25:49Z</time></trkpt><trkpt lat="45.29496164017461" lon="7.8178999265282485"><ele>263.0</ele><time>2026-04-25T10:25:50Z</time></trkpt><trkpt lat="45.29482626574175" lon="7.8179610738169725"><ele>263.0</ele><time>2026-04-25T10:25:51Z</time></trkpt><trkpt lat="45.29469461820695" lon="7.818015520480358"><ele>263.0</ele><time>2026-04-25T10:25:52Z</time></trkpt><trkpt lat="45.294556288612256" lon="7.818064827426052"><ele>260.5</ele><time>2026-04-25T10:25:53Z</time></trkpt><trkpt lat="45.2944160042149" lon="7.818114991012785"><ele>258.0</ele><time>2026-04-25T10:25:54Z</time></trkpt><trkpt lat="45.294278622353914" lon="7.818159480356313"><ele>255.5</ele><time>2026-04-25T10:25:55Z</time></trkpt><trkpt lat="45.294156097193046" lon="7.818206974519834"><ele>253.0</ele><time>2026-04-25T10:25:56Z</time></trkpt><trkpt lat="45.294003273019186" lon="7.818254789581472"><ele>251.25</ele><time>2026-04-25T10:25:57Z</time></trkpt><trkpt lat="45.2938570264034" lon="7.8182831233809855"><ele>249.5</ele><time>2026-04-25T10:25:58Z</time></trkpt><trkpt lat="45.293718695326945" lon="7.818320373797582"><ele>247.75</ele><time>2026-04-25T10:25:59Z</time></trkpt><trkpt lat="45.29357442400443" lon="7.818393657217039"><ele>246.0</ele><time>2026-04-25T10:26:00Z</time></trkpt><trkpt lat="45.293429319815466" lon="7.818470694560422"><ele>249.33333333333331</ele><time>2026-04-25T10:26:01Z</time></trkpt><trkpt lat="45.29328603864921" lon="7.818549583077319"><ele>252.66666666666666</ele><time>2026-04-25T10:26:02Z</time></trkpt><trkpt lat="45.29313757411404" lon="7.818612019432342"><ele>256.0</ele><time>2026-04-25T10:26:03Z</time></trkpt><trkpt lat="45.29298537964324" lon="7.8186698052716945"><ele>256.0</ele><time>2026-04-25T10:26:04Z</time></trkpt><trkpt lat="45.29283889713696" lon="7.818722298262275"><ele>256.0</ele><time>2026-04-25T10:26:05Z</time></trkpt><trkpt lat="45.292688576817476" lon="7.818776821255374"><ele>256.0</ele><time>2026-04-25T10:26:06Z</time></trkpt><trkpt lat="45.29253580874407" lon="7.818833519196322"><ele>256.0</ele><time>2026-04-25T10:26:07Z</time></trkpt><trkpt lat="45.29238845859301" lon="7.818885733661141"><ele>256.0</ele><time>2026-04-25T10:26:08Z</time></trkpt><trkpt lat="45.2922431889688" lon="7.818910238617811"><ele>256.0</ele><time>2026-04-25T10:26:09Z</time></trkpt><trkpt lat="45.29210294887845" lon="7.8189615372707015"><ele>256.0</ele><time>2026-04-25T10:26:10Z</time></trkpt><trkpt lat="45.291983201944326" lon="7.819017346080213"><ele>254.75</ele><time>2026-04-25T10:26:11Z</time></trkpt><trkpt lat="45.291832668151166" lon="7.819058454534787"><ele>253.5</ele><time>2026-04-25T10:26:12Z</time></trkpt><trkpt lat="45.29169269805159" lon="7.81913002744315"><ele>252.25</ele><time>2026-04-25T10:26:13Z</time></trkpt><trkpt lat="45.291573477595875" lon="7.819171212672352"><ele>251.0</ele><time>2026-04-25T10:26:14Z</time></trkpt><trkpt lat="45.2914766749271" lon="7.819205461429212"><ele>250.8</ele><time>2026-04-25T10:26:15Z</time></trkpt><trkpt lat="45.29139201346623" lon="7.819226178380168"><ele>250.60000000000002</ele><time>2026-04-25T10:26:16Z</time></trkpt><trkpt lat="45.29130709487898" lon="7.819242992791298"><ele>250.4</ele><time>2026-04-25T10:26:17Z</time></trkpt><trkpt lat="45.29119258794361" lon="7.819238609168175"><ele>250.2</ele><time>2026-04-25T10:26:18Z</time></trkpt><trkpt lat="45.29107057819587" lon="7.819227845964545"><ele>250.0</ele><time>2026-04-25T10:26:19Z</time></trkpt><trkpt lat="45.29093609858692" lon="7.819213238932802"><ele>250.0</ele><time>2026-04-25T10:26:20Z</time></trkpt><trkpt lat="45.29079528621171" lon="7.819225116151868"><ele>250.0</ele><time>2026-04-25T10:26:21Z</time></trkpt><trkpt lat="45.29065790387423" lon="7.8192201291147425"><ele>250.0</ele><time>2026-04-25T10:26:22Z</time></trkpt><trkpt lat="45.29052106994092" lon="7.819217473675469"><ele>250.0</ele><time>2026-04-25T10:26:22.999Z</time></trkpt><trkpt lat="45.290387933974635" lon="7.819198865056504"><ele>249.75</ele><time>2026-04-25T10:26:23.999Z</time></trkpt><trkpt lat="45.29026974313765" lon="7.819189004010245"><ele>249.5</ele><time>2026-04-25T10:26:24.999Z</time></trkpt><trkpt lat="45.290148440332736" lon="7.819171886767671"><ele>249.25</ele><time>2026-04-25T10:26:25.999Z</time></trkpt><trkpt lat="45.29003055413336" lon="7.819152720704036"><ele>249.0</ele><time>2026-04-25T10:26:26.999Z</time></trkpt><trkpt lat="45.28990862805396" lon="7.819149819991878"><ele>249.0</ele><time>2026-04-25T10:26:27.999Z</time></trkpt><trkpt lat="45.2897890720677" lon="7.8191655874493735"><ele>249.0</ele><time>2026-04-25T10:26:28.999Z</time></trkpt><trkpt lat="45.28966977814778" lon="7.819196801610047"><ele>249.0</ele><time>2026-04-25T10:26:29.999Z</time></trkpt><trkpt lat="45.28954503983612" lon="7.819214359058482"><ele>249.0</ele><time>2026-04-25T10:26:30.999Z</time></trkpt><trkpt lat="45.289412074328006" lon="7.81920632334794"><ele>248.75</ele><time>2026-04-25T10:26:31.999Z</time></trkpt><trkpt lat="45.28927893518376" lon="7.819192573381517"><ele>248.5</ele><time>2026-04-25T10:26:32.999Z</time></trkpt><trkpt lat="45.289130561942095" lon="7.819209188997049"><ele>248.25</ele><time>2026-04-25T10:26:33.999Z</time></trkpt><trkpt lat="45.28899227460627" lon="7.819213900172351"><ele>248.0</ele><time>2026-04-25T10:26:34.999Z</time></trkpt><trkpt lat="45.28885223250843" lon="7.819199948698738"><ele>248.5</ele><time>2026-04-25T10:26:35.999Z</time></trkpt><trkpt lat="45.28872802127088" lon="7.819162140316651"><ele>249.0</ele><time>2026-04-25T10:26:36.999Z</time></trkpt><trkpt lat="45.28860721023929" lon="7.819108454390659"><ele>249.5</ele><time>2026-04-25T10:26:37.999Z</time></trkpt><trkpt lat="45.28848307424393" lon="7.819053763869914"><ele>250.0</ele><time>2026-04-25T10:26:38.999Z</time></trkpt><trkpt lat="45.28834060050812" lon="7.819005358815291"><ele>250.0</ele><time>2026-04-25T10:26:39.999Z</time></trkpt><trkpt lat="45.28820567522842" lon="7.81895472046196"><ele>250.0</ele><time>2026-04-25T10:26:40.999Z</time></trkpt><trkpt lat="45.28806572302457" lon="7.818895179110524"><ele>250.0</ele><time>2026-04-25T10:26:41.999Z</time></trkpt><trkpt lat="45.28793046747693" lon="7.81884609919881"><ele>250.0</ele><time>2026-04-25T10:26:42.999Z</time></trkpt><trkpt lat="45.287818320713896" lon="7.8188103950767625"><ele>250.5</ele><time>2026-04-25T10:26:43.999Z</time></trkpt><trkpt lat="45.287685139249184" lon="7.818815426616738"><ele>251.0</ele><time>2026-04-25T10:26:44.999Z</time></trkpt><trkpt lat="45.287536630097556" lon="7.818825702967407"><ele>251.5</ele><time>2026-04-25T10:26:45.999Z</time></trkpt><trkpt lat="45.28738651279137" lon="7.8188305865192"><ele>252.0</ele><time>2026-04-25T10:26:46.999Z</time></trkpt><trkpt lat="45.28725191094758" lon="7.818796479955438"><ele>252.25</ele><time>2026-04-25T10:26:47.999Z</time></trkpt><trkpt lat="45.28710986591183" lon="7.8187561959491685"><ele>252.5</ele><time>2026-04-25T10:26:48.999Z</time></trkpt><trkpt lat="45.286976738976605" lon="7.818710224291707"><ele>252.75</ele><time>2026-04-25T10:26:49.999Z</time></trkpt><trkpt lat="45.286841130505806" lon="7.818666309622825"><ele>253.0</ele><time>2026-04-25T10:26:50.999Z</time></trkpt><trkpt lat="45.28669058826308" lon="7.818640445321463"><ele>253.0</ele><time>2026-04-25T10:26:51.999Z</time></trkpt><trkpt lat="45.28653371802635" lon="7.818631146479704"><ele>253.0</ele><time>2026-04-25T10:26:52.999Z</time></trkpt><trkpt lat="45.28637171500905" lon="7.8186227832227155"><ele>253.0</ele><time>2026-04-25T10:26:53.999Z</time></trkpt><trkpt lat="45.28622150637637" lon="7.818623142554001"><ele>253.33333333333331</ele><time>2026-04-25T10:26:54.999Z</time></trkpt><trkpt lat="45.28606393260877" lon="7.818629687861938"><ele>253.66666666666669</ele><time>2026-04-25T10:26:55.999Z</time></trkpt><trkpt lat="45.285909442979865" lon="7.818645056228623"><ele>254.0</ele><time>2026-04-25T10:26:56.999Z</time></trkpt><trkpt lat="45.285762486255116" lon="7.8186726515717755"><ele>254.0</ele><time>2026-04-25T10:26:57.999Z</time></trkpt><trkpt lat="45.2856073220964" lon="7.818712622557171"><ele>254.0</ele><time>2026-04-25T10:26:58.999Z</time></trkpt><trkpt lat="45.28545337307094" lon="7.818727565515339"><ele>254.0</ele><time>2026-04-25T10:26:59.999Z</time></trkpt><trkpt lat="45.28529764481635" lon="7.818729631190305"><ele>253.0</ele><time>2026-04-25T10:27:00.999Z</time></trkpt><trkpt lat="45.285140829499895" lon="7.81871607496893"><ele>252.0</ele><time>2026-04-25T10:27:01.999Z</time></trkpt><trkpt lat="45.284971662906415" lon="7.818690734860726"><ele>251.0</ele><time>2026-04-25T10:27:02.999Z</time></trkpt><trkpt lat="45.28481407536638" lon="7.818664821240241"><ele>250.75</ele><time>2026-04-25T10:27:03.999Z</time></trkpt><trkpt lat="45.284657022899616" lon="7.818647186996561"><ele>250.5</ele><time>2026-04-25T10:27:04.999Z</time></trkpt><trkpt lat="45.28451903437177" lon="7.818619747777444"><ele>250.25</ele><time>2026-04-25T10:27:05.999Z</time></trkpt><trkpt lat="45.284383932283276" lon="7.818594279623438"><ele>250.0</ele><time>2026-04-25T10:27:06.999Z</time></trkpt><trkpt lat="45.28424602877441" lon="7.818595655552326"><ele>250.0</ele><time>2026-04-25T10:27:07.999Z</time></trkpt><trkpt lat="45.28408242492925" lon="7.818609956122891"><ele>250.0</ele><time>2026-04-25T10:27:08.999Z</time></trkpt><trkpt lat="45.283914474262474" lon="7.818604233925403"><ele>250.0</ele><time>2026-04-25T10:27:09.999Z</time></trkpt><trkpt lat="45.28375718781387" lon="7.818595318513024"><ele>250.0</ele><time>2026-04-25T10:27:10.999Z</time></trkpt><trkpt lat="45.28359271125098" lon="7.818591008893389"><ele>250.0</ele><time>2026-04-25T10:27:11.999Z</time></trkpt><trkpt lat="45.283427629292035" lon="7.81857055140846"><ele>250.0</ele><time>2026-04-25T10:27:12.999Z</time></trkpt><trkpt lat="45.28327398026398" lon="7.818558880826821"><ele>250.0</ele><time>2026-04-25T10:27:13.999Z</time></trkpt><trkpt lat="45.28311655983807" lon="7.8185390578670395"><ele>250.0</ele><time>2026-04-25T10:27:14.999Z</time></trkpt><trkpt lat="45.2829537775887" lon="7.818539555719678"><ele>250.0</ele><time>2026-04-25T10:27:15.999Z</time></trkpt><trkpt lat="45.282803799187285" lon="7.818519314391623"><ele>246.66666666666666</ele><time>2026-04-25T10:27:16.999Z</time></trkpt><trkpt lat="45.282637304385844" lon="7.818453926249552"><ele>243.33333333333331</ele><time>2026-04-25T10:27:17.999Z</time></trkpt><trkpt lat="45.282482710245084" lon="7.818413022645241"><ele>240.0</ele><time>2026-04-25T10:27:18.999Z</time></trkpt><trkpt lat="45.2823381382568" lon="7.818412615709572"><ele>240.66666666666669</ele><time>2026-04-25T10:27:19.999Z</time></trkpt><trkpt lat="45.28217999649574" lon="7.818440786848679"><ele>241.33333333333334</ele><time>2026-04-25T10:27:20.999Z</time></trkpt><trkpt lat="45.28200754078638" lon="7.818470926802809"><ele>242.0</ele><time>2026-04-25T10:27:21.999Z</time></trkpt><trkpt lat="45.281842450209375" lon="7.818494742754955"><ele>244.33333333333334</ele><time>2026-04-25T10:27:22.999Z</time></trkpt><trkpt lat="45.281674421560886" lon="7.818520909085361"><ele>246.66666666666669</ele><time>2026-04-25T10:27:23.999Z</time></trkpt><trkpt lat="45.281505156126116" lon="7.818556088366908"><ele>249.0</ele><time>2026-04-25T10:27:24.999Z</time></trkpt><trkpt lat="45.28135203951442" lon="7.8185992808242935"><ele>249.0</ele><time>2026-04-25T10:27:26Z</time></trkpt><trkpt lat="45.28119449455887" lon="7.818637051975833"><ele>249.0</ele><time>2026-04-25T10:27:27Z</time></trkpt><trkpt lat="45.28103809102407" lon="7.818604602407933"><ele>249.0</ele><time>2026-04-25T10:27:28Z</time></trkpt><trkpt lat="45.28091110139312" lon="7.81859777566399"><ele>249.0</ele><time>2026-04-25T10:27:29Z</time></trkpt><trkpt lat="45.28081413253267" lon="7.818644889506729"><ele>249.0</ele><time>2026-04-25T10:27:30Z</time></trkpt><trkpt lat="45.28070197836531" lon="7.8187144488801845"><ele>249.0</ele><time>2026-04-25T10:27:31Z</time></trkpt><trkpt lat="45.28059199852198" lon="7.818818780269137"><ele>249.0</ele><time>2026-04-25T10:27:32Z</time></trkpt><trkpt lat="45.28047654718913" lon="7.81893724032243"><ele>249.0</ele><time>2026-04-25T10:27:33Z</time></trkpt><trkpt lat="45.280341281692365" lon="7.8190081324419"><ele>248.0</ele><time>2026-04-25T10:27:34Z</time></trkpt><trkpt lat="45.28019687799917" lon="7.819059867694603"><ele>247.0</ele><time>2026-04-25T10:27:35Z</time></trkpt><trkpt lat="45.28005705582669" lon="7.819117749960791"><ele>246.0</ele><time>2026-04-25T10:27:36Z</time></trkpt><trkpt lat="45.27990303009153" lon="7.81916094852597"><ele>244.33333333333331</ele><time>2026-04-25T10:27:37Z</time></trkpt><trkpt lat="45.27973756470142" lon="7.819181489196926"><ele>242.66666666666666</ele><time>2026-04-25T10:27:38Z</time></trkpt><trkpt lat="45.27957224926025" lon="7.819199039239937"><ele>241.0</ele><time>2026-04-25T10:27:39Z</time></trkpt><trkpt lat="45.27940599091664" lon="7.81921822408268"><ele>241.0</ele><time>2026-04-25T10:27:40Z</time></trkpt><trkpt lat="45.2792378369372" lon="7.819261853883246"><ele>241.0</ele><time>2026-04-25T10:27:41Z</time></trkpt><trkpt lat="45.279074724856336" lon="7.819327949632434"><ele>241.0</ele><time>2026-04-25T10:27:42Z</time></trkpt><trkpt lat="45.27889859696161" lon="7.819387170701745"><ele>243.33333333333331</ele><time>2026-04-25T10:27:43Z</time></trkpt><trkpt lat="45.27872845469342" lon="7.8194556620207045"><ele>245.66666666666669</ele><time>2026-04-25T10:27:44Z</time></trkpt><trkpt lat="45.27856018104736" lon="7.819529265280143"><ele>248.0</ele><time>2026-04-25T10:27:45Z</time></trkpt><trkpt lat="45.27843386308712" lon="7.819571109949598"><ele>248.0</ele><time>2026-04-25T10:27:46Z</time></trkpt><trkpt lat="45.27826518781326" lon="7.819578934410441"><ele>248.0</ele><time>2026-04-25T10:27:47Z</time></trkpt><trkpt lat="45.278102940101164" lon="7.819562518434522"><ele>248.0</ele><time>2026-04-25T10:27:48Z</time></trkpt><trkpt lat="45.27794128929307" lon="7.81954058321722"><ele>245.33333333333334</ele><time>2026-04-25T10:27:49Z</time></trkpt><trkpt lat="45.27777304260182" lon="7.8195227928780735"><ele>242.66666666666669</ele><time>2026-04-25T10:27:50Z</time></trkpt><trkpt lat="45.27760557448399" lon="7.819515579711877"><ele>240.0</ele><time>2026-04-25T10:27:51Z</time></trkpt><trkpt lat="45.277449610247665" lon="7.819523459265236"><ele>240.0</ele><time>2026-04-25T10:27:52Z</time></trkpt><trkpt lat="45.27731534688351" lon="7.819542343435788"><ele>240.0</ele><time>2026-04-25T10:27:53Z</time></trkpt><trkpt lat="45.27720398897081" lon="7.819557274946162"><ele>240.0</ele><time>2026-04-25T10:27:54Z</time></trkpt><trkpt lat="45.27711671948612" lon="7.819568472570226"><ele>240.0</ele><time>2026-04-25T10:27:55Z</time></trkpt><trkpt lat="45.277040892093325" lon="7.819537392166409"><ele>240.0</ele><time>2026-04-25T10:27:56Z</time></trkpt><trkpt lat="45.27695119951493" lon="7.8195313027311055"><ele>239.6</ele><time>2026-04-25T10:27:58Z</time></trkpt><trkpt lat="45.276959633287625" lon="7.819393868331723"><ele>239.2</ele><time>2026-04-25T10:28:04Z</time></trkpt><trkpt lat="45.276962131201586" lon="7.8192156358695915"><ele>238.8</ele><time>2026-04-25T10:28:06Z</time></trkpt><trkpt lat="45.27696432706248" lon="7.819123012256903"><ele>238.4</ele><time>2026-04-25T10:28:07Z</time></trkpt><trkpt lat="45.27697163021223" lon="7.818949891918875"><ele>238.0</ele><time>2026-04-25T10:28:09Z</time></trkpt><trkpt lat="45.27697398249002" lon="7.818857738211454"><ele>237.33333333333331</ele><time>2026-04-25T10:28:10Z</time></trkpt><trkpt lat="45.27697576889205" lon="7.818764514237206"><ele>236.66666666666666</ele><time>2026-04-25T10:28:11Z</time></trkpt><trkpt lat="45.27698135291465" lon="7.8186571705777705"><ele>236.0</ele><time>2026-04-25T10:28:12Z</time></trkpt><trkpt lat="45.27698700974686" lon="7.81854174078189"><ele>235.33333333333331</ele><time>2026-04-25T10:28:13Z</time></trkpt><trkpt lat="45.27698890250136" lon="7.818412216648832"><ele>234.66666666666666</ele><time>2026-04-25T10:28:14Z</time></trkpt><trkpt lat="45.27698937734383" lon="7.818278562118663"><ele>234.0</ele><time>2026-04-25T10:28:15Z</time></trkpt><trkpt lat="45.276987464314075" lon="7.818146268675191"><ele>233.83333333333334</ele><time>2026-04-25T10:28:16Z</time></trkpt><trkpt lat="45.27698078508827" lon="7.818011440883126"><ele>233.66666666666669</ele><time>2026-04-25T10:28:17Z</time></trkpt><trkpt lat="45.276972733109844" lon="7.817884635824216"><ele>233.5</ele><time>2026-04-25T10:28:18Z</time></trkpt><trkpt lat="45.27695831259369" lon="7.817769042616972"><ele>233.33333333333334</ele><time>2026-04-25T10:28:19Z</time></trkpt><trkpt lat="45.276952480853296" lon="7.817647261499139"><ele>233.16666666666669</ele><time>2026-04-25T10:28:20Z</time></trkpt><trkpt lat="45.27695598222528" lon="7.817534868458891"><ele>233.0</ele><time>2026-04-25T10:28:21Z</time></trkpt><trkpt lat="45.27694821396564" lon="7.817441841553164"><ele>233.00000000000003</ele><time>2026-04-25T10:28:23Z</time></trkpt><trkpt lat="45.276929726615215" lon="7.81732301378066"><ele>233.0</ele><time>2026-04-25T10:28:33.999Z</time></trkpt><trkpt lat="45.2769123131873" lon="7.817219471180879"><ele>233.0</ele><time>2026-04-25T10:28:34.999Z</time></trkpt><trkpt lat="45.27689460609595" lon="7.8171115794231785"><ele>233.0</ele><time>2026-04-25T10:28:35.999Z</time></trkpt><trkpt lat="45.27687152659678" lon="7.8169971834270005"><ele>233.00000000000003</ele><time>2026-04-25T10:28:36.999Z</time></trkpt><trkpt lat="45.27683628542432" lon="7.816879753074531"><ele>233.0</ele><time>2026-04-25T10:28:37.999Z</time></trkpt><trkpt lat="45.27680506022661" lon="7.816755081989374"><ele>233.0</ele><time>2026-04-25T10:28:38.999Z</time></trkpt><trkpt lat="45.27676604754888" lon="7.8166294627112105"><ele>233.0</ele><time>2026-04-25T10:28:39.999Z</time></trkpt><trkpt lat="45.276719646973774" lon="7.816502824770236"><ele>233.0</ele><time>2026-04-25T10:28:40.999Z</time></trkpt><trkpt lat="45.276671947390234" lon="7.816382703575575"><ele>233.0</ele><time>2026-04-25T10:28:41.999Z</time></trkpt><trkpt lat="45.27662223253941" lon="7.816254904995149"><ele>233.0</ele><time>2026-04-25T10:28:42.999Z</time></trkpt><trkpt lat="45.27658226338831" lon="7.816141044933724"><ele>233.00000000000003</ele><time>2026-04-25T10:28:43.999Z</time></trkpt><trkpt lat="45.2765473164855" lon="7.816040626904767"><ele>233.0</ele><time>2026-04-25T10:28:44.999Z</time></trkpt><trkpt lat="45.27651010143534" lon="7.815954923804105"><ele>233.0</ele><time>2026-04-25T10:28:45.999Z</time></trkpt><trkpt lat="45.27646708966689" lon="7.8158849156953805"><ele>233.0</ele><time>2026-04-25T10:28:46.999Z</time></trkpt><trkpt lat="45.27642815916245" lon="7.815811935906551"><ele>233.00000000000003</ele><time>2026-04-25T10:28:47.999Z</time></trkpt><trkpt lat="45.27633744208855" lon="7.815826189279725"><ele>233.0</ele><time>2026-04-25T10:28:48.999Z</time></trkpt><trkpt lat="45.27624278259477" lon="7.815827796536135"><ele>233.0</ele><time>2026-04-25T10:28:49.999Z</time></trkpt><trkpt lat="45.27613168625995" lon="7.815835591968205"><ele>233.0</ele><time>2026-04-25T10:28:50.999Z</time></trkpt><trkpt lat="45.276016949968465" lon="7.815850168264237"><ele>233.0</ele><time>2026-04-25T10:28:51.999Z</time></trkpt><trkpt lat="45.2758988341696" lon="7.815870390148197"><ele>233.0</ele><time>2026-04-25T10:28:52.999Z</time></trkpt><trkpt lat="45.27578751055631" lon="7.815884548340582"><ele>233.00000000000003</ele><time>2026-04-25T10:28:53.999Z</time></trkpt><trkpt lat="45.27568810055055" lon="7.815888812015263"><ele>233.0</ele><time>2026-04-25T10:28:54.999Z</time></trkpt><trkpt lat="45.27559909284324" lon="7.8158898612471095"><ele>233.0</ele><time>2026-04-25T10:28:55.999Z</time></trkpt><trkpt lat="45.27551932271919" lon="7.815891893323568"><ele>233.0</ele><time>2026-04-25T10:28:56.999Z</time></trkpt><trkpt lat="45.275449106234085" lon="7.815893719125309"><ele>233.00000000000003</ele><time>2026-04-25T10:28:57.999Z</time></trkpt><trkpt lat="45.27538415960469" lon="7.8158972208034765"><ele>233.0</ele><time>2026-04-25T10:28:58.999Z</time></trkpt><trkpt lat="45.27528965941043" lon="7.815899261967606"><ele>232.8</ele><time>2026-04-25T10:29:00.999Z</time></trkpt><trkpt lat="45.27522591130178" lon="7.815888307842409"><ele>232.60000000000002</ele><time>2026-04-25T10:29:01.999Z</time></trkpt><trkpt lat="45.2751313818928" lon="7.815880561808752"><ele>232.39999999999998</ele><time>2026-04-25T10:29:02.999Z</time></trkpt><trkpt lat="45.27503050067144" lon="7.815842173763472"><ele>232.2</ele><time>2026-04-25T10:29:03.999Z</time></trkpt><trkpt lat="45.27490739791863" lon="7.815869127936028"><ele>232.0</ele><time>2026-04-25T10:29:04.999Z</time></trkpt><trkpt lat="45.274779503145" lon="7.815867304457188"><ele>232.0</ele><time>2026-04-25T10:29:05.999Z</time></trkpt><trkpt lat="45.274643656667955" lon="7.8158688251533635"><ele>232.0</ele><time>2026-04-25T10:29:06.999Z</time></trkpt><trkpt lat="45.27450195821598" lon="7.815871037093669"><ele>232.0</ele><time>2026-04-25T10:29:07.999Z</time></trkpt><trkpt lat="45.2743578167023" lon="7.815875409075994"><ele>232.0</ele><time>2026-04-25T10:29:08.999Z</time></trkpt><trkpt lat="45.274219318260656" lon="7.815877449303789"><ele>232.0</ele><time>2026-04-25T10:29:09.999Z</time></trkpt><trkpt lat="45.27408120260263" lon="7.815880066966003"><ele>232.0</ele><time>2026-04-25T10:29:10.999Z</time></trkpt><trkpt lat="45.27394518708401" lon="7.8158839960909"><ele>232.0</ele><time>2026-04-25T10:29:11.999Z</time></trkpt><trkpt lat="45.27380866424219" lon="7.8158893100064795"><ele>232.0</ele><time>2026-04-25T10:29:12.999Z</time></trkpt><trkpt lat="45.27367381529237" lon="7.815907682866888"><ele>231.5</ele><time>2026-04-25T10:29:13.999Z</time></trkpt><trkpt lat="45.27353160383367" lon="7.815931860228507"><ele>231.0</ele><time>2026-04-25T10:29:14.999Z</time></trkpt><trkpt lat="45.273391936479705" lon="7.815956090130883"><ele>230.5</ele><time>2026-04-25T10:29:15.999Z</time></trkpt><trkpt lat="45.273251553796506" lon="7.815981749152006"><ele>230.0</ele><time>2026-04-25T10:29:16.999Z</time></trkpt><trkpt lat="45.27311173172614" lon="7.816008015452182"><ele>230.25</ele><time>2026-04-25T10:29:17.999Z</time></trkpt><trkpt lat="45.27297580783539" lon="7.816029150782405"><ele>230.5</ele><time>2026-04-25T10:29:18.999Z</time></trkpt><trkpt lat="45.27284625313662" lon="7.816049996053687"><ele>230.75</ele><time>2026-04-25T10:29:19.999Z</time></trkpt><trkpt lat="45.27271562157756" lon="7.816068254936021"><ele>231.0</ele><time>2026-04-25T10:29:20.999Z</time></trkpt><trkpt lat="45.272586930008785" lon="7.816088669312043"><ele>231.0</ele><time>2026-04-25T10:29:21.999Z</time></trkpt><trkpt lat="45.27245670646656" lon="7.816103720372937"><ele>231.0</ele><time>2026-04-25T10:29:22.999Z</time></trkpt><trkpt lat="45.27232704030635" lon="7.816113375353227"><ele>231.0</ele><time>2026-04-25T10:29:23.999Z</time></trkpt><trkpt lat="45.272199460455376" lon="7.816121731427573"><ele>231.0</ele><time>2026-04-25T10:29:24.999Z</time></trkpt><trkpt lat="45.27207176163795" lon="7.8161371157192185"><ele>231.20000000000002</ele><time>2026-04-25T10:29:25.999Z</time></trkpt><trkpt lat="45.271951283256584" lon="7.816138570002611"><ele>231.40000000000003</ele><time>2026-04-25T10:29:26.999Z</time></trkpt><trkpt lat="45.27184124586783" lon="7.8161384944177525"><ele>231.6</ele><time>2026-04-25T10:29:27.999Z</time></trkpt><trkpt lat="45.271741125286184" lon="7.816141064110319"><ele>231.8</ele><time>2026-04-25T10:29:28.999Z</time></trkpt><trkpt lat="45.27164780924831" lon="7.8161412600794895"><ele>232.0</ele><time>2026-04-25T10:29:29.999Z</time></trkpt><trkpt lat="45.271557799142776" lon="7.8161351026307955"><ele>231.99999999999997</ele><time>2026-04-25T10:29:30.999Z</time></trkpt><trkpt lat="45.271472324993574" lon="7.816126240016135"><ele>232.0</ele><time>2026-04-25T10:29:32Z</time></trkpt><trkpt lat="45.27139482408186" lon="7.8161276746762205"><ele>232.0</ele><time>2026-04-25T10:29:33Z</time></trkpt><trkpt lat="45.2713256244056" lon="7.81613887117217"><ele>232.0</ele><time>2026-04-25T10:29:34Z</time></trkpt><trkpt lat="45.2712575424568" lon="7.816226457018322"><ele>231.99999999999997</ele><time>2026-04-25T10:29:36Z</time></trkpt><trkpt lat="45.27124384304481" lon="7.816321750130316"><ele>232.0</ele><time>2026-04-25T10:29:37Z</time></trkpt><trkpt lat="45.271255852280184" lon="7.8164513675881135"><ele>232.0</ele><time>2026-04-25T10:29:38Z</time></trkpt><trkpt lat="45.271283293515594" lon="7.816603502718834"><ele>232.0</ele><time>2026-04-25T10:29:39Z</time></trkpt><trkpt lat="45.271309921908376" lon="7.816768423800556"><ele>232.0</ele><time>2026-04-25T10:29:40Z</time></trkpt><trkpt lat="45.27132190894325" lon="7.8169407141379255"><ele>232.0</ele><time>2026-04-25T10:29:41Z</time></trkpt><trkpt lat="45.271324794202066" lon="7.817101612643875"><ele>232.0</ele><time>2026-04-25T10:29:42Z</time></trkpt><trkpt lat="45.27133143200653" lon="7.817242622174587"><ele>232.0</ele><time>2026-04-25T10:29:43Z</time></trkpt><trkpt lat="45.2713480294654" lon="7.817371107163528"><ele>232.0</ele><time>2026-04-25T10:29:44Z</time></trkpt><trkpt lat="45.27136315269899" lon="7.8174968335530926"><ele>232.0</ele><time>2026-04-25T10:29:45Z</time></trkpt><trkpt lat="45.271377263979296" lon="7.817622200457928"><ele>232.0</ele><time>2026-04-25T10:29:46Z</time></trkpt><trkpt lat="45.27139499995464" lon="7.817758758929955"><ele>232.0</ele><time>2026-04-25T10:29:47Z</time></trkpt><trkpt lat="45.27141107551541" lon="7.817897493944582"><ele>232.0</ele><time>2026-04-25T10:29:48Z</time></trkpt><trkpt lat="45.271426332313695" lon="7.818040363032062"><ele>232.0</ele><time>2026-04-25T10:29:49Z</time></trkpt><trkpt lat="45.271435107724564" lon="7.818178898482045"><ele>232.0</ele><time>2026-04-25T10:29:50Z</time></trkpt><trkpt lat="45.27144488655869" lon="7.818308524209946"><ele>232.0</ele><time>2026-04-25T10:29:51Z</time></trkpt><trkpt lat="45.271452339536665" lon="7.8184421501534365"><ele>232.39999999999998</ele><time>2026-04-25T10:29:52Z</time></trkpt><trkpt lat="45.27146112206948" lon="7.818580004058621"><ele>232.79999999999998</ele><time>2026-04-25T10:29:53Z</time></trkpt><trkpt lat="45.271475719152086" lon="7.8187268450438845"><ele>233.2</ele><time>2026-04-25T10:29:54Z</time></trkpt><trkpt lat="45.27148734571915" lon="7.818874144512792"><ele>233.6</ele><time>2026-04-25T10:29:55Z</time></trkpt><trkpt lat="45.27151058678318" lon="7.819020739772238"><ele>234.0</ele><time>2026-04-25T10:29:56Z</time></trkpt><trkpt lat="45.271526660622385" lon="7.81916941360336"><ele>233.79999999999998</ele><time>2026-04-25T10:29:57Z</time></trkpt><trkpt lat="45.27153015466731" lon="7.819317531424346"><ele>233.59999999999997</ele><time>2026-04-25T10:29:58Z</time></trkpt><trkpt lat="45.27154909561383" lon="7.819465037298096"><ele>233.4</ele><time>2026-04-25T10:29:59Z</time></trkpt><trkpt lat="45.27155251521968" lon="7.819613686503955"><ele>233.2</ele><time>2026-04-25T10:30:00Z</time></trkpt><trkpt lat="45.27155841042244" lon="7.819771583711463"><ele>233.0</ele><time>2026-04-25T10:30:01Z</time></trkpt><trkpt lat="45.271554839231925" lon="7.819927452120608"><ele>233.0</ele><time>2026-04-25T10:30:02Z</time></trkpt><trkpt lat="45.27154824625956" lon="7.820090368883215"><ele>233.0</ele><time>2026-04-25T10:30:03Z</time></trkpt><trkpt lat="45.2715266968903" lon="7.820242286845532"><ele>233.0</ele><time>2026-04-25T10:30:04Z</time></trkpt><trkpt lat="45.27150397162752" lon="7.820397281536691"><ele>233.0</ele><time>2026-04-25T10:30:05Z</time></trkpt><trkpt lat="45.27148356251292" lon="7.820551205277763"><ele>233.0</ele><time>2026-04-25T10:30:06Z</time></trkpt><trkpt lat="45.271469420316215" lon="7.820677425939978"><ele>233.0</ele><time>2026-04-25T10:30:07Z</time></trkpt><trkpt lat="45.27145144089241" lon="7.820800924802481"><ele>233.0</ele><time>2026-04-25T10:30:08Z</time></trkpt><trkpt lat="45.271422270041676" lon="7.820919749214789"><ele>233.0</ele><time>2026-04-25T10:30:09Z</time></trkpt><trkpt lat="45.271382693392965" lon="7.8210453799855335"><ele>233.0</ele><time>2026-04-25T10:30:10Z</time></trkpt><trkpt lat="45.2713329215142" lon="7.821173969755478"><ele>233.0</ele><time>2026-04-25T10:30:11Z</time></trkpt><trkpt lat="45.27128285911774" lon="7.8212854682358355"><ele>233.0</ele><time>2026-04-25T10:30:12Z</time></trkpt><trkpt lat="45.271238880128166" lon="7.821381031557861"><ele>233.0</ele><time>2026-04-25T10:30:13Z</time></trkpt><trkpt lat="45.2712013869511" lon="7.821462501689033"><ele>233.0</ele><time>2026-04-25T10:30:14Z</time></trkpt><trkpt lat="45.27115980477363" lon="7.8215505299988175"><ele>233.0</ele><time>2026-04-25T10:30:16Z</time></trkpt><trkpt lat="45.27106194844424" lon="7.821422703612587"><ele>233.0</ele><time>2026-04-25T10:30:18Z</time></trkpt><trkpt lat="45.270985081037665" lon="7.821296985921498"><ele>233.0</ele><time>2026-04-25T10:30:19Z</time></trkpt><trkpt lat="45.27089850092454" lon="7.821174367491311"><ele>233.0</ele><time>2026-04-25T10:30:20Z</time></trkpt><trkpt lat="45.2708102270526" lon="7.8210377645032905"><ele>233.0</ele><time>2026-04-25T10:30:21Z</time></trkpt><trkpt lat="45.270736642494235" lon="7.8209372643828186"><ele>233.0</ele><time>2026-04-25T10:30:22Z</time></trkpt><trkpt lat="45.27066045053076" lon="7.820870087005634"><ele>233.0</ele><time>2026-04-25T10:30:23Z</time></trkpt><trkpt lat="45.270593823016355" lon="7.820801590481396"><ele>232.60000000000002</ele><time>2026-04-25T10:30:24Z</time></trkpt><trkpt lat="45.27052750912065" lon="7.820729947015315"><ele>232.20000000000002</ele><time>2026-04-25T10:30:25Z</time></trkpt><trkpt lat="45.27046257866956" lon="7.820646861042486"><ele>231.8</ele><time>2026-04-25T10:30:26Z</time></trkpt><trkpt lat="45.270427805213664" lon="7.820556828257744"><ele>231.4</ele><time>2026-04-25T10:30:27Z</time></trkpt><trkpt lat="45.2703951320113" lon="7.82041087371155"><ele>231.0</ele><time>2026-04-25T10:30:29Z</time></trkpt><trkpt lat="45.270238101536016" lon="7.820477471887252"><ele>231.0</ele><time>2026-04-25T10:30:30Z</time></trkpt><trkpt lat="45.27014002363993" lon="7.820474056269144"><ele>231.0</ele><time>2026-04-25T10:30:31Z</time></trkpt><trkpt lat="45.27001781364143" lon="7.8204892750512025"><ele>231.0</ele><time>2026-04-25T10:30:32Z</time></trkpt><trkpt lat="45.26988418581217" lon="7.8205013644519195"><ele>231.0</ele><time>2026-04-25T10:30:33Z</time></trkpt><trkpt lat="45.269745013914566" lon="7.820507713010405"><ele>230.75</ele><time>2026-04-25T10:30:34Z</time></trkpt><trkpt lat="45.26961356333671" lon="7.820487366297463"><ele>230.5</ele><time>2026-04-25T10:30:35Z</time></trkpt><trkpt lat="45.26948155544184" lon="7.820453745832383"><ele>230.25</ele><time>2026-04-25T10:30:36Z</time></trkpt><trkpt lat="45.26934482813395" lon="7.820418923389512"><ele>230.0</ele><time>2026-04-25T10:30:37Z</time></trkpt><trkpt lat="45.2692018917382" lon="7.8203825195488506"><ele>230.0</ele><time>2026-04-25T10:30:38Z</time></trkpt><trkpt lat="45.26906690780943" lon="7.820340927158716"><ele>230.0</ele><time>2026-04-25T10:30:39Z</time></trkpt><trkpt lat="45.26893402751866" lon="7.820297505883634"><ele>230.0</ele><time>2026-04-25T10:30:40Z</time></trkpt><trkpt lat="45.268804955525965" lon="7.820255332383916"><ele>230.0</ele><time>2026-04-25T10:30:41Z</time></trkpt><trkpt lat="45.2686698515786" lon="7.820242386015293"><ele>229.5</ele><time>2026-04-25T10:30:42Z</time></trkpt><trkpt lat="45.26853221813217" lon="7.820210104674627"><ele>229.0</ele><time>2026-04-25T10:30:43Z</time></trkpt><trkpt lat="45.26838442191241" lon="7.820192912593121"><ele>228.5</ele><time>2026-04-25T10:30:44Z</time></trkpt><trkpt lat="45.26824822954308" lon="7.820187317140576"><ele>228.0</ele><time>2026-04-25T10:30:45Z</time></trkpt><trkpt lat="45.268114371107664" lon="7.820167563489028"><ele>227.75</ele><time>2026-04-25T10:30:46Z</time></trkpt><trkpt lat="45.267980084377065" lon="7.820162259141915"><ele>227.5</ele><time>2026-04-25T10:30:46.999Z</time></trkpt><trkpt lat="45.26785019035153" lon="7.8201506168864094"><ele>227.25</ele><time>2026-04-25T10:30:47.999Z</time></trkpt><trkpt lat="45.26771930605986" lon="7.820140617040714"><ele>227.0</ele><time>2026-04-25T10:30:48.999Z</time></trkpt><trkpt lat="45.267585795736935" lon="7.8201320522709254"><ele>227.66666666666669</ele><time>2026-04-25T10:30:49.999Z</time></trkpt><trkpt lat="45.26743923684342" lon="7.820132370234785"><ele>228.33333333333331</ele><time>2026-04-25T10:30:50.999Z</time></trkpt><trkpt lat="45.26728228209235" lon="7.820142953877138"><ele>229.0</ele><time>2026-04-25T10:30:51.999Z</time></trkpt><trkpt lat="45.26712181214074" lon="7.820161353363926"><ele>227.66666666666666</ele><time>2026-04-25T10:30:52.999Z</time></trkpt><trkpt lat="45.26695547021854" lon="7.820152964222574"><ele>226.33333333333331</ele><time>2026-04-25T10:30:53.999Z</time></trkpt><trkpt lat="45.26679149970981" lon="7.820159202688526"><ele>225.0</ele><time>2026-04-25T10:30:54.999Z</time></trkpt><trkpt lat="45.26661414436984" lon="7.820186523658697"><ele>225.0</ele><time>2026-04-25T10:30:55.999Z</time></trkpt><trkpt lat="45.266446222377084" lon="7.820194658880417"><ele>225.0</ele><time>2026-04-25T10:30:56.999Z</time></trkpt><trkpt lat="45.26628912276273" lon="7.820201334114271"><ele>225.0</ele><time>2026-04-25T10:30:57.999Z</time></trkpt><trkpt lat="45.266135261548705" lon="7.820205107585832"><ele>224.75</ele><time>2026-04-25T10:30:58.999Z</time></trkpt><trkpt lat="45.265985090763714" lon="7.820227001901489"><ele>224.5</ele><time>2026-04-25T10:30:59.999Z</time></trkpt><trkpt lat="45.26585629947229" lon="7.820247339646223"><ele>224.25</ele><time>2026-04-25T10:31:00.999Z</time></trkpt><trkpt lat="45.26572293192514" lon="7.820278029012871"><ele>224.0</ele><time>2026-04-25T10:31:01.999Z</time></trkpt><trkpt lat="45.26559046262977" lon="7.820318163603606"><ele>224.66666666666669</ele><time>2026-04-25T10:31:02.999Z</time></trkpt><trkpt lat="45.26544326493191" lon="7.820317622356332"><ele>225.33333333333331</ele><time>2026-04-25T10:31:03.999Z</time></trkpt><trkpt lat="45.26529733612525" lon="7.82032880138032"><ele>226.0</ele><time>2026-04-25T10:31:04.999Z</time></trkpt><trkpt lat="45.26513516080818" lon="7.820361552105083"><ele>226.0</ele><time>2026-04-25T10:31:05.999Z</time></trkpt><trkpt lat="45.26498572645446" lon="7.820363409783986"><ele>226.0</ele><time>2026-04-25T10:31:06.999Z</time></trkpt><trkpt lat="45.26482500742532" lon="7.82037097347032"><ele>226.0</ele><time>2026-04-25T10:31:07.999Z</time></trkpt><trkpt lat="45.264659171945524" lon="7.8203856024933"><ele>226.33333333333331</ele><time>2026-04-25T10:31:08.999Z</time></trkpt><trkpt lat="45.26449467368332" lon="7.820390439790425"><ele>226.66666666666669</ele><time>2026-04-25T10:31:09.999Z</time></trkpt><trkpt lat="45.26434114934154" lon="7.820384513513955"><ele>227.0</ele><time>2026-04-25T10:31:10.999Z</time></trkpt><trkpt lat="45.26420874814637" lon="7.820367601040395"><ele>227.0</ele><time>2026-04-25T10:31:11.999Z</time></trkpt><trkpt lat="45.2640751578248" lon="7.8203480933473735"><ele>227.0</ele><time>2026-04-25T10:31:12.999Z</time></trkpt><trkpt lat="45.26395313057095" lon="7.820329159312588"><ele>227.0</ele><time>2026-04-25T10:31:13.999Z</time></trkpt><trkpt lat="45.263824933730106" lon="7.82030901131779"><ele>227.0</ele><time>2026-04-25T10:31:14.999Z</time></trkpt><trkpt lat="45.26369372228661" lon="7.820253003686841"><ele>227.0</ele><time>2026-04-25T10:31:15.999Z</time></trkpt><trkpt lat="45.263550269692345" lon="7.820190183604052"><ele>227.0</ele><time>2026-04-25T10:31:16.999Z</time></trkpt><trkpt lat="45.263411122375295" lon="7.820157214421367"><ele>227.0</ele><time>2026-04-25T10:31:17.999Z</time></trkpt><trkpt lat="45.26327492110216" lon="7.820144574574128"><ele>227.0</ele><time>2026-04-25T10:31:18.999Z</time></trkpt><trkpt lat="45.263153082953146" lon="7.820051057589398"><ele>226.25</ele><time>2026-04-25T10:31:19.999Z</time></trkpt><trkpt lat="45.2630376068761" lon="7.819985686903859"><ele>225.5</ele><time>2026-04-25T10:31:20.999Z</time></trkpt><trkpt lat="45.262885668485474" lon="7.820056123401815"><ele>224.75</ele><time>2026-04-25T10:31:21.999Z</time></trkpt><trkpt lat="45.26275336428813" lon="7.820029760749141"><ele>224.0</ele><time>2026-04-25T10:31:22.999Z</time></trkpt><trkpt lat="45.26261202019521" lon="7.820019602508681"><ele>224.0</ele><time>2026-04-25T10:31:23.999Z</time></trkpt><trkpt lat="45.26247290856063" lon="7.820022081974366"><ele>224.0</ele><time>2026-04-25T10:31:24.999Z</time></trkpt><trkpt lat="45.262330100726714" lon="7.820030432986583"><ele>224.0</ele><time>2026-04-25T10:31:25.999Z</time></trkpt><trkpt lat="45.262200095986366" lon="7.820034313203145"><ele>224.0</ele><time>2026-04-25T10:31:26.999Z</time></trkpt><trkpt lat="45.26207549734924" lon="7.820031106121041"><ele>224.25</ele><time>2026-04-25T10:31:27.999Z</time></trkpt><trkpt lat="45.26194889844509" lon="7.8200257831994255"><ele>224.5</ele><time>2026-04-25T10:31:28.999Z</time></trkpt><trkpt lat="45.26181016655343" lon="7.820019782286339"><ele>224.75</ele><time>2026-04-25T10:31:29.999Z</time></trkpt><trkpt lat="45.26166772710743" lon="7.820028943798615"><ele>225.0</ele><time>2026-04-25T10:31:30.999Z</time></trkpt><trkpt lat="45.2615391694892" lon="7.820026318444685"><ele>224.5</ele><time>2026-04-25T10:31:31.999Z</time></trkpt><trkpt lat="45.26141202997891" lon="7.8200283835414615"><ele>224.0</ele><time>2026-04-25T10:31:32.999Z</time></trkpt><trkpt lat="45.26127692340465" lon="7.82002868796718"><ele>223.5</ele><time>2026-04-25T10:31:33.999Z</time></trkpt><trkpt lat="45.261117495120715" lon="7.820027957701169"><ele>223.0</ele><time>2026-04-25T10:31:34.999Z</time></trkpt><trkpt lat="45.260971398365115" lon="7.820039415343532"><ele>223.0</ele><time>2026-04-25T10:31:35.999Z</time></trkpt><trkpt lat="45.26083652860431" lon="7.820080448943638"><ele>223.0</ele><time>2026-04-25T10:31:36.999Z</time></trkpt><trkpt lat="45.26069551233925" lon="7.820121752615818"><ele>223.0</ele><time>2026-04-25T10:31:38Z</time></trkpt><trkpt lat="45.260566994172585" lon="7.820161140003309"><ele>223.0</ele><time>2026-04-25T10:31:39Z</time></trkpt><trkpt lat="45.26043593687574" lon="7.820187860987458"><ele>223.0</ele><time>2026-04-25T10:31:40Z</time></trkpt><trkpt lat="45.260295036568465" lon="7.8201876954574345"><ele>223.0</ele><time>2026-04-25T10:31:41Z</time></trkpt><trkpt lat="45.26015001212171" lon="7.820146923451867"><ele>223.0</ele><time>2026-04-25T10:31:42Z</time></trkpt><trkpt lat="45.260001175554514" lon="7.820101837742276"><ele>223.0</ele><time>2026-04-25T10:31:43Z</time></trkpt><trkpt lat="45.25985370070824" lon="7.820058814050311"><ele>223.0</ele><time>2026-04-25T10:31:44Z</time></trkpt><trkpt lat="45.25970251852226" lon="7.820022754974773"><ele>223.0</ele><time>2026-04-25T10:31:45Z</time></trkpt><trkpt lat="45.259553502401914" lon="7.819987782279565"><ele>223.0</ele><time>2026-04-25T10:31:46Z</time></trkpt><trkpt lat="45.259400742409355" lon="7.819977694591693"><ele>223.0</ele><time>2026-04-25T10:31:47Z</time></trkpt><trkpt lat="45.2592483538655" lon="7.81997537958153"><ele>223.0</ele><time>2026-04-25T10:31:48Z</time></trkpt><trkpt lat="45.2590863755618" lon="7.819976228688248"><ele>223.0</ele><time>2026-04-25T10:31:49Z</time></trkpt><trkpt lat="45.25894131919632" lon="7.819985485820432"><ele>223.0</ele><time>2026-04-25T10:31:50Z</time></trkpt><trkpt lat="45.25875657564058" lon="7.8199869683317065"><ele>223.0</ele><time>2026-04-25T10:31:51Z</time></trkpt><trkpt lat="45.25859610737547" lon="7.819975671769211"><ele>223.0</ele><time>2026-04-25T10:31:52Z</time></trkpt><trkpt lat="45.25842894188396" lon="7.819984336262775"><ele>223.0</ele><time>2026-04-25T10:31:53Z</time></trkpt><trkpt lat="45.25827158007122" lon="7.820009492786635"><ele>223.0</ele><time>2026-04-25T10:31:54Z</time></trkpt><trkpt lat="45.258101165655944" lon="7.820077445073044"><ele>223.0</ele><time>2026-04-25T10:31:55Z</time></trkpt><trkpt lat="45.2579628337843" lon="7.820155644332787"><ele>222.0</ele><time>2026-04-25T10:31:56Z</time></trkpt><trkpt lat="45.25780760766055" lon="7.820233764539989"><ele>221.0</ele><time>2026-04-25T10:31:57Z</time></trkpt><trkpt lat="45.2576465417579" lon="7.820305011089278"><ele>220.0</ele><time>2026-04-25T10:31:58Z</time></trkpt><trkpt lat="45.25748075949707" lon="7.820364168574371"><ele>220.0</ele><time>2026-04-25T10:31:59Z</time></trkpt><trkpt lat="45.257320500774" lon="7.82041664407452"><ele>220.0</ele><time>2026-04-25T10:32:00Z</time></trkpt><trkpt lat="45.25717364196886" lon="7.8204769511003205"><ele>220.0</ele><time>2026-04-25T10:32:01Z</time></trkpt><trkpt lat="45.25704652788752" lon="7.820507105507218"><ele>220.0</ele><time>2026-04-25T10:32:02Z</time></trkpt><trkpt lat="45.256941582672354" lon="7.820496971746991"><ele>220.25</ele><time>2026-04-25T10:32:03Z</time></trkpt><trkpt lat="45.25684614630448" lon="7.8204421680375455"><ele>220.5</ele><time>2026-04-25T10:32:04Z</time></trkpt><trkpt lat="45.25672685606397" lon="7.820391689364803"><ele>220.75</ele><time>2026-04-25T10:32:05Z</time></trkpt><trkpt lat="45.25659121925082" lon="7.8203527967056425"><ele>221.0</ele><time>2026-04-25T10:32:06Z</time></trkpt><trkpt lat="45.25644670175151" lon="7.820320590213189"><ele>220.33333333333334</ele><time>2026-04-25T10:32:07Z</time></trkpt><trkpt lat="45.25628958172509" lon="7.820294216347775"><ele>219.66666666666669</ele><time>2026-04-25T10:32:08Z</time></trkpt><trkpt lat="45.25612715586002" lon="7.820279128069849"><ele>219.0</ele><time>2026-04-25T10:32:09Z</time></trkpt><trkpt lat="45.25596744659145" lon="7.82027315095562"><ele>219.0</ele><time>2026-04-25T10:32:10Z</time></trkpt><trkpt lat="45.25580826105602" lon="7.820286624088405"><ele>219.0</ele><time>2026-04-25T10:32:11Z</time></trkpt><trkpt lat="45.25564370363052" lon="7.820309959290326"><ele>219.0</ele><time>2026-04-25T10:32:12Z</time></trkpt><trkpt lat="45.25548714531894" lon="7.820349996417053"><ele>219.0</ele><time>2026-04-25T10:32:13Z</time></trkpt><trkpt lat="45.25533347720708" lon="7.820411667435343"><ele>219.0</ele><time>2026-04-25T10:32:14Z</time></trkpt><trkpt lat="45.25519241231101" lon="7.820464717967647"><ele>219.0</ele><time>2026-04-25T10:32:15Z</time></trkpt><trkpt lat="45.25508013344766" lon="7.820507824464141"><ele>219.0</ele><time>2026-04-25T10:32:16Z</time></trkpt><trkpt lat="45.25498927081263" lon="7.820530810100071"><ele>219.0</ele><time>2026-04-25T10:32:17Z</time></trkpt><trkpt lat="45.25491334027966" lon="7.820518465002158"><ele>219.0</ele><time>2026-04-25T10:32:18Z</time></trkpt><trkpt lat="45.254850669025" lon="7.820463271911031"><ele>219.0</ele><time>2026-04-25T10:32:19Z</time></trkpt><trkpt lat="45.25480016215219" lon="7.82038179884812"><ele>219.0</ele><time>2026-04-25T10:32:20Z</time></trkpt><trkpt lat="45.25476793102355" lon="7.820280395172406"><ele>219.0</ele><time>2026-04-25T10:32:21Z</time></trkpt><trkpt lat="45.25474277968099" lon="7.820146779415565"><ele>219.0</ele><time>2026-04-25T10:32:22Z</time></trkpt><trkpt lat="45.25469949480947" lon="7.819985318704037"><ele>218.33333333333331</ele><time>2026-04-25T10:32:23Z</time></trkpt><trkpt lat="45.25463845363922" lon="7.819801064617234"><ele>217.66666666666666</ele><time>2026-04-25T10:32:24Z</time></trkpt><trkpt lat="45.254569036450754" lon="7.81961557299972"><ele>217.0</ele><time>2026-04-25T10:32:25Z</time></trkpt><trkpt lat="45.25449770994935" lon="7.8194036970186485"><ele>217.33333333333331</ele><time>2026-04-25T10:32:26Z</time></trkpt><trkpt lat="45.25443096008638" lon="7.8191849244339116"><ele>217.66666666666669</ele><time>2026-04-25T10:32:27Z</time></trkpt><trkpt lat="45.25436956915638" lon="7.8189889003199555"><ele>218.0</ele><time>2026-04-25T10:32:28Z</time></trkpt><trkpt lat="45.25432260226729" lon="7.818795308716857"><ele>218.0</ele><time>2026-04-25T10:32:29Z</time></trkpt><trkpt lat="45.25427687131827" lon="7.81863628891907"><ele>218.0</ele><time>2026-04-25T10:32:30Z</time></trkpt><trkpt lat="45.254214432343154" lon="7.818510541137602"><ele>218.0</ele><time>2026-04-25T10:32:31Z</time></trkpt><trkpt lat="45.254119266797375" lon="7.8184234546664895"><ele>218.0</ele><time>2026-04-25T10:32:32Z</time></trkpt><trkpt lat="45.254001095518845" lon="7.818360345116506"><ele>218.0</ele><time>2026-04-25T10:32:33Z</time></trkpt><trkpt lat="45.25385490667729" lon="7.818305234275097"><ele>218.0</ele><time>2026-04-25T10:32:34Z</time></trkpt><trkpt lat="45.25368352384113" lon="7.818252954380379"><ele>218.0</ele><time>2026-04-25T10:32:35Z</time></trkpt><trkpt lat="45.253506790289606" lon="7.818248351618214"><ele>218.0</ele><time>2026-04-25T10:32:36Z</time></trkpt><trkpt lat="45.25331028785333" lon="7.818269788680625"><ele>218.0</ele><time>2026-04-25T10:32:37Z</time></trkpt><trkpt lat="45.25310589413185" lon="7.818313906138198"><ele>218.0</ele><time>2026-04-25T10:32:38Z</time></trkpt><trkpt lat="45.252893210521336" lon="7.818357020714091"><ele>217.66666666666669</ele><time>2026-04-25T10:32:39Z</time></trkpt><trkpt lat="45.25268217672739" lon="7.818393349331549"><ele>217.33333333333331</ele><time>2026-04-25T10:32:40Z</time></trkpt><trkpt lat="45.25248102942693" lon="7.818429746112262"><ele>217.0</ele><time>2026-04-25T10:32:41Z</time></trkpt><trkpt lat="45.25229742967396" lon="7.818467922742151"><ele>218.0</ele><time>2026-04-25T10:32:42Z</time></trkpt><trkpt lat="45.25211089162987" lon="7.8184911112373845"><ele>219.0</ele><time>2026-04-25T10:32:43Z</time></trkpt><trkpt lat="45.251940381321866" lon="7.818502123217999"><ele>220.0</ele><time>2026-04-25T10:32:44Z</time></trkpt><trkpt lat="45.25175288337585" lon="7.8185280965968715"><ele>220.0</ele><time>2026-04-25T10:32:45Z</time></trkpt><trkpt lat="45.25156175790246" lon="7.818560533857895"><ele>220.0</ele><time>2026-04-25T10:32:46Z</time></trkpt><trkpt lat="45.25137882873523" lon="7.8186010009468045"><ele>220.0</ele><time>2026-04-25T10:32:47Z</time></trkpt><trkpt lat="45.25119988741249" lon="7.818643713790112"><ele>219.5</ele><time>2026-04-25T10:32:47.999Z</time></trkpt><trkpt lat="45.25104833942813" lon="7.818674181022229"><ele>219.0</ele><time>2026-04-25T10:32:48.999Z</time></trkpt><trkpt lat="45.25092665881028" lon="7.818711925025727"><ele>218.5</ele><time>2026-04-25T10:32:49.999Z</time></trkpt><trkpt lat="45.250826765996436" lon="7.818731185732425"><ele>218.0</ele><time>2026-04-25T10:32:50.999Z</time></trkpt><trkpt lat="45.25075386677402" lon="7.818717290535897"><ele>218.0</ele><time>2026-04-25T10:32:51.999Z</time></trkpt><trkpt lat="45.25064860145906" lon="7.818570129085691"><ele>218.0</ele><time>2026-04-25T10:32:53.999Z</time></trkpt><trkpt lat="45.25060119737843" lon="7.818436467890996"><ele>218.0</ele><time>2026-04-25T10:32:54.999Z</time></trkpt><trkpt lat="45.25054721727881" lon="7.818252965099047"><ele>218.0</ele><time>2026-04-25T10:32:55.999Z</time></trkpt><trkpt lat="45.25048169027402" lon="7.818063014780908"><ele>218.0</ele><time>2026-04-25T10:32:56.999Z</time></trkpt><trkpt lat="45.25040922183577" lon="7.817885635304119"><ele>218.0</ele><time>2026-04-25T10:32:57.999Z</time></trkpt><trkpt lat="45.250315716959726" lon="7.817760638569991"><ele>218.0</ele><time>2026-04-25T10:32:58.999Z</time></trkpt><trkpt lat="45.250195127435596" lon="7.8176569664594675"><ele>218.0</ele><time>2026-04-25T10:32:59.999Z</time></trkpt><trkpt lat="45.25004284605638" lon="7.817570812450906"><ele>217.66666666666669</ele><time>2026-04-25T10:33:00.999Z</time></trkpt><trkpt lat="45.24988069032183" lon="7.817529625180068"><ele>217.33333333333331</ele><time>2026-04-25T10:33:01.999Z</time></trkpt><trkpt lat="45.249686884672435" lon="7.817476924903539"><ele>217.0</ele><time>2026-04-25T10:33:02.999Z</time></trkpt><trkpt lat="45.249519808824" lon="7.817431076509498"><ele>216.8</ele><time>2026-04-25T10:33:03.999Z</time></trkpt><trkpt lat="45.24938843624183" lon="7.817370324051297"><ele>216.6</ele><time>2026-04-25T10:33:04.999Z</time></trkpt><trkpt lat="45.24928029791198" lon="7.8173209121960845"><ele>216.40000000000003</ele><time>2026-04-25T10:33:05.999Z</time></trkpt><trkpt lat="45.24920963000174" lon="7.817294784710215"><ele>216.20000000000002</ele><time>2026-04-25T10:33:06.999Z</time></trkpt><trkpt lat="45.24913834015263" lon="7.817295813995165"><ele>216.0</ele><time>2026-04-25T10:33:09.999Z</time></trkpt><trkpt lat="45.249088884876606" lon="7.817351778681133"><ele>216.0</ele><time>2026-04-25T10:33:11.999Z</time></trkpt><trkpt lat="45.2490217768202" lon="7.817331667206403"><ele>216.00000000000003</ele><time>2026-04-25T10:33:16.999Z</time></trkpt><trkpt lat="45.24906190979168" lon="7.817228895224084"><ele>216.00000000000003</ele><time>2026-04-25T10:33:17.999Z</time></trkpt><trkpt lat="45.2490594390742" lon="7.817096599219666"><ele>216.0</ele><time>2026-04-25T10:33:18.999Z</time></trkpt><trkpt lat="45.24904923533445" lon="7.816954173283775"><ele>216.0</ele><time>2026-04-25T10:33:19.999Z</time></trkpt><trkpt lat="45.2490442874325" lon="7.816804167963941"><ele>216.25</ele><time>2026-04-25T10:33:20.999Z</time></trkpt><trkpt lat="45.249042575022045" lon="7.816640827857959"><ele>216.5</ele><time>2026-04-25T10:33:21.999Z</time></trkpt><trkpt lat="45.249055548599955" lon="7.8164850243467905"><ele>216.75</ele><time>2026-04-25T10:33:22.999Z</time></trkpt><trkpt lat="45.249040879933744" lon="7.816303506194156"><ele>217.0</ele><time>2026-04-25T10:33:23.999Z</time></trkpt><trkpt lat="45.24905707638248" lon="7.816127548721587"><ele>217.0</ele><time>2026-04-25T10:33:24.999Z</time></trkpt><trkpt lat="45.2490452018981" lon="7.8159476263165"><ele>217.0</ele><time>2026-04-25T10:33:25.999Z</time></trkpt><trkpt lat="45.24904715739984" lon="7.815775813422676"><ele>217.0</ele><time>2026-04-25T10:33:26.999Z</time></trkpt><trkpt lat="45.24904279655368" lon="7.815627679962898"><ele>217.0</ele><time>2026-04-25T10:33:27.999Z</time></trkpt><trkpt lat="45.249033467519446" lon="7.815512428212999"><ele>217.0</ele><time>2026-04-25T10:33:28.999Z</time></trkpt><trkpt lat="45.24899256997178" lon="7.815410747829019"><ele>216.6</ele><time>2026-04-25T10:33:29.999Z</time></trkpt><trkpt lat="45.248931832087024" lon="7.815350257258762"><ele>216.2</ele><time>2026-04-25T10:33:30.999Z</time></trkpt><trkpt lat="45.24884581796854" lon="7.815352364507489"><ele>215.8</ele><time>2026-04-25T10:33:31.999Z</time></trkpt><trkpt lat="45.2487295656931" lon="7.815374349284621"><ele>215.4</ele><time>2026-04-25T10:33:32.999Z</time></trkpt><trkpt lat="45.24860168431877" lon="7.815362878791776"><ele>215.0</ele><time>2026-04-25T10:33:33.999Z</time></trkpt><trkpt lat="45.248469788776035" lon="7.815377240832534"><ele>215.0</ele><time>2026-04-25T10:33:34.999Z</time></trkpt><trkpt lat="45.248325085219115" lon="7.8153929975259135"><ele>215.0</ele><time>2026-04-25T10:33:35.999Z</time></trkpt><trkpt lat="45.24818180536336" lon="7.815405736412589"><ele>215.0</ele><time>2026-04-25T10:33:36.999Z</time></trkpt><trkpt lat="45.248037929778576" lon="7.815414545884148"><ele>215.0</ele><time>2026-04-25T10:33:37.999Z</time></trkpt><trkpt lat="45.24789590129203" lon="7.81542091593145"><ele>215.66666666666669</ele><time>2026-04-25T10:33:38.999Z</time></trkpt><trkpt lat="45.247745631747435" lon="7.815447986485532"><ele>216.33333333333331</ele><time>2026-04-25T10:33:39.999Z</time></trkpt><trkpt lat="45.247607093040735" lon="7.815429453944634"><ele>217.0</ele><time>2026-04-25T10:33:40.999Z</time></trkpt><trkpt lat="45.24744406421574" lon="7.8154333415498565"><ele>217.0</ele><time>2026-04-25T10:33:41.999Z</time></trkpt><trkpt lat="45.24728000557307" lon="7.815459876071533"><ele>217.0</ele><time>2026-04-25T10:33:42.999Z</time></trkpt><trkpt lat="45.24713051847835" lon="7.815441443792429"><ele>217.0</ele><time>2026-04-25T10:33:44Z</time></trkpt><trkpt lat="45.246968573147655" lon="7.815425863976318"><ele>217.0</ele><time>2026-04-25T10:33:45Z</time></trkpt><trkpt lat="45.24683327407581" lon="7.815406037353462"><ele>217.0</ele><time>2026-04-25T10:33:46Z</time></trkpt><trkpt lat="45.24669138739409" lon="7.815399823251734"><ele>217.0</ele><time>2026-04-25T10:33:47Z</time></trkpt><trkpt lat="45.24653453783296" lon="7.815369678078485"><ele>217.0</ele><time>2026-04-25T10:33:48Z</time></trkpt><trkpt lat="45.24638639566943" lon="7.815315005014644"><ele>216.66666666666666</ele><time>2026-04-25T10:33:49Z</time></trkpt><trkpt lat="45.24622577168879" lon="7.8152799746206325"><ele>216.33333333333331</ele><time>2026-04-25T10:33:50Z</time></trkpt><trkpt lat="45.24606108386715" lon="7.8152415108373345"><ele>216.0</ele><time>2026-04-25T10:33:51Z</time></trkpt><trkpt lat="45.24589924346051" lon="7.815194433403079"><ele>216.25</ele><time>2026-04-25T10:33:52Z</time></trkpt><trkpt lat="45.24577025564499" lon="7.815150291761606"><ele>216.5</ele><time>2026-04-25T10:33:53Z</time></trkpt><trkpt lat="45.24563632691085" lon="7.815100079068431"><ele>216.75</ele><time>2026-04-25T10:33:54Z</time></trkpt><trkpt lat="45.24548641612781" lon="7.815039933322624"><ele>217.0</ele><time>2026-04-25T10:33:55Z</time></trkpt><trkpt lat="45.24534241312182" lon="7.814979406941781"><ele>216.99999999999997</ele><time>2026-04-25T10:33:56Z</time></trkpt><trkpt lat="45.24521992775746" lon="7.814936021262534"><ele>217.0</ele><time>2026-04-25T10:33:57Z</time></trkpt><trkpt lat="45.24514352731783" lon="7.814914798909094"><ele>217.0</ele><time>2026-04-25T10:33:58Z</time></trkpt><trkpt lat="45.24507319619554" lon="7.814912092357222"><ele>217.0</ele><time>2026-04-25T10:33:59Z</time></trkpt><trkpt lat="45.24503268481238" lon="7.815013994015947"><ele>216.99999999999997</ele><time>2026-04-25T10:34:00Z</time></trkpt><trkpt lat="45.24500140795992" lon="7.815137077291172"><ele>217.0</ele><time>2026-04-25T10:34:01Z</time></trkpt><trkpt lat="45.244955124055494" lon="7.815298372763787"><ele>217.0</ele><time>2026-04-25T10:34:02Z</time></trkpt><trkpt lat="45.24492213007204" lon="7.815470177149849"><ele>217.0</ele><time>2026-04-25T10:34:03Z</time></trkpt><trkpt lat="45.244851211910806" lon="7.815635996282544"><ele>217.0</ele><time>2026-04-25T10:34:04Z</time></trkpt><trkpt lat="45.244782093126695" lon="7.815832432145386"><ele>217.0</ele><time>2026-04-25T10:34:05Z</time></trkpt><trkpt lat="45.244733502265134" lon="7.816023448865082"><ele>216.99999999999997</ele><time>2026-04-25T10:34:06Z</time></trkpt><trkpt lat="45.244682450150755" lon="7.8161682313166745"><ele>217.0</ele><time>2026-04-25T10:34:07Z</time></trkpt><trkpt lat="45.244614810310665" lon="7.8162600100112245"><ele>217.0</ele><time>2026-04-25T10:34:08Z</time></trkpt><trkpt lat="45.244558246552465" lon="7.816322760232443"><ele>217.0</ele><time>2026-04-25T10:34:09Z</time></trkpt><trkpt lat="45.24448511395409" lon="7.8163286686945685"><ele>216.99999999999997</ele><time>2026-04-25T10:34:10Z</time></trkpt><trkpt lat="45.24440376377817" lon="7.816281841739872"><ele>217.0</ele><time>2026-04-25T10:34:11Z</time></trkpt><trkpt lat="45.24429638073647" lon="7.816255474008049"><ele>217.0</ele><time>2026-04-25T10:34:12Z</time></trkpt><trkpt lat="45.24416763770783" lon="7.8162232642572205"><ele>217.0</ele><time>2026-04-25T10:34:13Z</time></trkpt><trkpt lat="45.24403647325414" lon="7.816201209637181"><ele>217.0</ele><time>2026-04-25T10:34:14Z</time></trkpt><trkpt lat="45.24393251663256" lon="7.816233457650993"><ele>217.0</ele><time>2026-04-25T10:34:15Z</time></trkpt><trkpt lat="45.24385085030165" lon="7.816302009563192"><ele>216.0</ele><time>2026-04-25T10:34:16Z</time></trkpt><trkpt lat="45.24375449216821" lon="7.816414379165345"><ele>215.0</ele><time>2026-04-25T10:34:17Z</time></trkpt><trkpt lat="45.243636187281375" lon="7.816523005047003"><ele>214.0</ele><time>2026-04-25T10:34:18Z</time></trkpt><trkpt lat="45.243522756301225" lon="7.816621668152805"><ele>213.0</ele><time>2026-04-25T10:34:19Z</time></trkpt><trkpt lat="45.2433819933331" lon="7.816772339255076"><ele>213.5</ele><time>2026-04-25T10:34:20Z</time></trkpt><trkpt lat="45.243246108263335" lon="7.816894079084274"><ele>214.0</ele><time>2026-04-25T10:34:21Z</time></trkpt><trkpt lat="45.243149709264735" lon="7.817039878869593"><ele>214.5</ele><time>2026-04-25T10:34:22Z</time></trkpt><trkpt lat="45.243069596468466" lon="7.8171777528534605"><ele>215.0</ele><time>2026-04-25T10:34:23Z</time></trkpt><trkpt lat="45.24299052984651" lon="7.817308583768344"><ele>214.5</ele><time>2026-04-25T10:34:24Z</time></trkpt><trkpt lat="45.24291859837319" lon="7.817499186296052"><ele>214.0</ele><time>2026-04-25T10:34:25Z</time></trkpt><trkpt lat="45.242881990760765" lon="7.817706547592479"><ele>213.5</ele><time>2026-04-25T10:34:26Z</time></trkpt><trkpt lat="45.24285495182665" lon="7.817890053519798"><ele>213.0</ele><time>2026-04-25T10:34:27Z</time></trkpt><trkpt lat="45.24284665003578" lon="7.818105390946599"><ele>213.0</ele><time>2026-04-25T10:34:28Z</time></trkpt><trkpt lat="45.24283662046191" lon="7.818321945552598"><ele>213.0</ele><time>2026-04-25T10:34:29Z</time></trkpt><trkpt lat="45.2428018999344" lon="7.818565015671079"><ele>213.0</ele><time>2026-04-25T10:34:30Z</time></trkpt><trkpt lat="45.24278582964726" lon="7.818766343850231"><ele>213.0</ele><time>2026-04-25T10:34:31Z</time></trkpt><trkpt lat="45.24276804942323" lon="7.818969961922545"><ele>213.0</ele><time>2026-04-25T10:34:32Z</time></trkpt><trkpt lat="45.24274812602879" lon="7.81918113154473"><ele>213.0</ele><time>2026-04-25T10:34:33Z</time></trkpt><trkpt lat="45.24272871102141" lon="7.819386912765251"><ele>213.0</ele><time>2026-04-25T10:34:34Z</time></trkpt><trkpt lat="45.24272452120165" lon="7.8195911767794755"><ele>213.0</ele><time>2026-04-25T10:34:35Z</time></trkpt><trkpt lat="45.242711326360144" lon="7.819744106686425"><ele>213.0</ele><time>2026-04-25T10:34:36Z</time></trkpt><trkpt lat="45.242699619671484" lon="7.8198859887471714"><ele>213.0</ele><time>2026-04-25T10:34:37Z</time></trkpt><trkpt lat="45.242688991888805" lon="7.819978821005847"><ele>213.0</ele><time>2026-04-25T10:34:38Z</time></trkpt><trkpt lat="45.24267208037376" lon="7.820097433689528"><ele>213.0</ele><time>2026-04-25T10:34:40Z</time></trkpt><trkpt lat="45.24250605531251" lon="7.8202524307453904"><ele>213.25</ele><time>2026-04-25T10:34:42Z</time></trkpt><trkpt lat="45.24249493953359" lon="7.8203910277561475"><ele>213.5</ele><time>2026-04-25T10:34:43Z</time></trkpt><trkpt lat="45.24247414608795" lon="7.8205598163241605"><ele>213.75</ele><time>2026-04-25T10:34:44Z</time></trkpt><trkpt lat="45.242433002015666" lon="7.820744303696781"><ele>214.0</ele><time>2026-04-25T10:34:45Z</time></trkpt><trkpt lat="45.24241305398566" lon="7.820918122634634"><ele>214.2</ele><time>2026-04-25T10:34:46Z</time></trkpt><trkpt lat="45.242418531088575" lon="7.821110598902262"><ele>214.39999999999998</ele><time>2026-04-25T10:34:46.999Z</time></trkpt><trkpt lat="45.24242713285318" lon="7.821281593782025"><ele>214.6</ele><time>2026-04-25T10:34:47.999Z</time></trkpt><trkpt lat="45.24242745294623" lon="7.821412823645174"><ele>214.8</ele><time>2026-04-25T10:34:48.999Z</time></trkpt><trkpt lat="45.24239541781095" lon="7.821500405082228"><ele>215.0</ele><time>2026-04-25T10:34:49.999Z</time></trkpt><trkpt lat="45.2423323190606" lon="7.821601257864633"><ele>214.75</ele><time>2026-04-25T10:34:50.999Z</time></trkpt><trkpt lat="45.24223136973076" lon="7.821691875960297"><ele>214.5</ele><time>2026-04-25T10:34:51.999Z</time></trkpt><trkpt lat="45.24212109102475" lon="7.821772545561512"><ele>214.25</ele><time>2026-04-25T10:34:52.999Z</time></trkpt><trkpt lat="45.24201349856498" lon="7.821872541579687"><ele>214.0</ele><time>2026-04-25T10:34:53.999Z</time></trkpt><trkpt lat="45.24191507596212" lon="7.821980389574149"><ele>214.0</ele><time>2026-04-25T10:34:54.999Z</time></trkpt><trkpt lat="45.24181376442481" lon="7.8220819845484435"><ele>214.0</ele><time>2026-04-25T10:34:55.999Z</time></trkpt><trkpt lat="45.241704211036165" lon="7.822174319679136"><ele>214.0</ele><time>2026-04-25T10:34:56.999Z</time></trkpt><trkpt lat="45.241587324577694" lon="7.822252751370611"><ele>214.0</ele><time>2026-04-25T10:34:57.999Z</time></trkpt><trkpt lat="45.24147995968496" lon="7.822313863820568"><ele>213.25</ele><time>2026-04-25T10:34:58.999Z</time></trkpt><trkpt lat="45.2413635974359" lon="7.822363892598842"><ele>212.5</ele><time>2026-04-25T10:34:59.999Z</time></trkpt><trkpt lat="45.24125180238247" lon="7.822439278558597"><ele>211.75</ele><time>2026-04-25T10:35:00.999Z</time></trkpt><trkpt lat="45.24110204636104" lon="7.822557413979705"><ele>211.0</ele><time>2026-04-25T10:35:01.999Z</time></trkpt><trkpt lat="45.24094559050004" lon="7.822673508968901"><ele>211.0</ele><time>2026-04-25T10:35:02.999Z</time></trkpt><trkpt lat="45.24087153483952" lon="7.822704217705918"><ele>211.0</ele><time>2026-04-25T10:35:04.999Z</time></trkpt><trkpt lat="45.24081805000079" lon="7.822835088873941"><ele>211.0</ele><time>2026-04-25T10:35:05.999Z</time></trkpt><trkpt lat="45.240779305562185" lon="7.823002834861453"><ele>211.0</ele><time>2026-04-25T10:35:06.999Z</time></trkpt><trkpt lat="45.240749751408735" lon="7.823180014728805"><ele>211.0</ele><time>2026-04-25T10:35:07.999Z</time></trkpt><trkpt lat="45.24072100697835" lon="7.823360547330396"><ele>211.0</ele><time>2026-04-25T10:35:08.999Z</time></trkpt><trkpt lat="45.24069908512229" lon="7.823547469397399"><ele>211.0</ele><time>2026-04-25T10:35:09.999Z</time></trkpt><trkpt lat="45.24067890293498" lon="7.823705305762586"><ele>211.0</ele><time>2026-04-25T10:35:10.999Z</time></trkpt><trkpt lat="45.24064193070269" lon="7.823833475236186"><ele>211.0</ele><time>2026-04-25T10:35:11.999Z</time></trkpt><trkpt lat="45.24057540090545" lon="7.823905367190716"><ele>211.0</ele><time>2026-04-25T10:35:12.999Z</time></trkpt><trkpt lat="45.24045777932831" lon="7.823974009672197"><ele>211.0</ele><time>2026-04-25T10:35:13.999Z</time></trkpt><trkpt lat="45.24033742894238" lon="7.824050385757092"><ele>211.0</ele><time>2026-04-25T10:35:14.999Z</time></trkpt><trkpt lat="45.24021759298053" lon="7.824140198695379"><ele>211.0</ele><time>2026-04-25T10:35:15.999Z</time></trkpt><trkpt lat="45.24012186432432" lon="7.824226820016512"><ele>211.0</ele><time>2026-04-25T10:35:16.999Z</time></trkpt><trkpt lat="45.240064671653144" lon="7.824295100420187"><ele>210.8</ele><time>2026-04-25T10:35:17.999Z</time></trkpt><trkpt lat="45.24003980919363" lon="7.8243841456464605"><ele>210.60000000000002</ele><time>2026-04-25T10:35:18.999Z</time></trkpt><trkpt lat="45.240045365065185" lon="7.824507679749125"><ele>210.4</ele><time>2026-04-25T10:35:19.999Z</time></trkpt><trkpt lat="45.24008306122052" lon="7.824644358344212"><ele>210.2</ele><time>2026-04-25T10:35:20.999Z</time></trkpt><trkpt lat="45.240142669226664" lon="7.82480347040546"><ele>210.0</ele><time>2026-04-25T10:35:21.999Z</time></trkpt><trkpt lat="45.240199956356065" lon="7.824976660054005"><ele>210.0</ele><time>2026-04-25T10:35:22.999Z</time></trkpt><trkpt lat="45.24025347040284" lon="7.825130013559904"><ele>210.0</ele><time>2026-04-25T10:35:23.999Z</time></trkpt><trkpt lat="45.24028735449811" lon="7.825304089154455"><ele>210.0</ele><time>2026-04-25T10:35:24.999Z</time></trkpt><trkpt lat="45.240286763234636" lon="7.825478353483334"><ele>210.0</ele><time>2026-04-25T10:35:25.999Z</time></trkpt><trkpt lat="45.24026942721018" lon="7.825681851576573"><ele>210.0</ele><time>2026-04-25T10:35:26.999Z</time></trkpt><trkpt lat="45.24025135990291" lon="7.825883306488878"><ele>210.0</ele><time>2026-04-25T10:35:27.999Z</time></trkpt><trkpt lat="45.240239690045755" lon="7.826095095309191"><ele>210.0</ele><time>2026-04-25T10:35:28.999Z</time></trkpt><trkpt lat="45.24021561006529" lon="7.826299133313872"><ele>210.0</ele><time>2026-04-25T10:35:29.999Z</time></trkpt><trkpt lat="45.240184115080346" lon="7.826513547602171"><ele>210.0</ele><time>2026-04-25T10:35:30.999Z</time></trkpt><trkpt lat="45.24014465183657" lon="7.826696550764947"><ele>210.0</ele><time>2026-04-25T10:35:31.999Z</time></trkpt><trkpt lat="45.24007780863978" lon="7.826863662334557"><ele>210.0</ele><time>2026-04-25T10:35:32.999Z</time></trkpt><trkpt lat="45.23998978953813" lon="7.827006679922279"><ele>210.0</ele><time>2026-04-25T10:35:33.999Z</time></trkpt><trkpt lat="45.23989983269309" lon="7.827148124845988"><ele>210.0</ele><time>2026-04-25T10:35:34.999Z</time></trkpt><trkpt lat="45.239836661609" lon="7.827305224670097"><ele>210.0</ele><time>2026-04-25T10:35:35.999Z</time></trkpt><trkpt lat="45.23978185005003" lon="7.82748956810431"><ele>210.0</ele><time>2026-04-25T10:35:36.999Z</time></trkpt><trkpt lat="45.23973228956021" lon="7.827678524209103"><ele>210.0</ele><time>2026-04-25T10:35:37.999Z</time></trkpt><trkpt lat="45.23967874166011" lon="7.827876493414294"><ele>209.75</ele><time>2026-04-25T10:35:38.999Z</time></trkpt><trkpt lat="45.239609122497264" lon="7.828058585577502"><ele>209.5</ele><time>2026-04-25T10:35:39.999Z</time></trkpt><trkpt lat="45.23952873948436" lon="7.828231586398653"><ele>209.25</ele><time>2026-04-25T10:35:40.999Z</time></trkpt><trkpt lat="45.23943286299539" lon="7.828366900750414"><ele>209.0</ele><time>2026-04-25T10:35:41.999Z</time></trkpt><trkpt lat="45.23932603601032" lon="7.828498653970379"><ele>209.00000000000003</ele><time>2026-04-25T10:35:42.999Z</time></trkpt><trkpt lat="45.23925338253322" lon="7.828612489721926"><ele>209.0</ele><time>2026-04-25T10:35:43.999Z</time></trkpt><trkpt lat="45.23919443666249" lon="7.828702698416327"><ele>209.0</ele><time>2026-04-25T10:35:44.999Z</time></trkpt><trkpt lat="45.23913374711689" lon="7.8287354810556"><ele>209.0</ele><time>2026-04-25T10:35:45.999Z</time></trkpt><trkpt lat="45.23906048050178" lon="7.828722844021894"><ele>209.00000000000003</ele><time>2026-04-25T10:35:46.999Z</time></trkpt><trkpt lat="45.238949569837686" lon="7.828696967972271"><ele>209.0</ele><time>2026-04-25T10:35:47.999Z</time></trkpt><trkpt lat="45.2388157494309" lon="7.8286667745883065"><ele>208.75</ele><time>2026-04-25T10:35:48.999Z</time></trkpt><trkpt lat="45.23866796969466" lon="7.82864622012096"><ele>208.5</ele><time>2026-04-25T10:35:50Z</time></trkpt><trkpt lat="45.23852460661619" lon="7.828630494837093"><ele>208.25</ele><time>2026-04-25T10:35:51Z</time></trkpt><trkpt lat="45.23840664936206" lon="7.828610691259828"><ele>208.0</ele><time>2026-04-25T10:35:52Z</time></trkpt><trkpt lat="45.23831153039472" lon="7.828607216651401"><ele>208.0</ele><time>2026-04-25T10:35:53Z</time></trkpt><trkpt lat="45.23825058610869" lon="7.828636852034882"><ele>208.0</ele><time>2026-04-25T10:35:54Z</time></trkpt><trkpt lat="45.23818790060078" lon="7.8288205674191715"><ele>208.0</ele><time>2026-04-25T10:35:56Z</time></trkpt><trkpt lat="45.23816468894457" lon="7.828914973367644"><ele>208.0</ele><time>2026-04-25T10:35:57Z</time></trkpt><trkpt lat="45.23811907767195" lon="7.8289910551548"><ele>208.0</ele><time>2026-04-25T10:35:58Z</time></trkpt><trkpt lat="45.23796392499957" lon="7.829001956587635"><ele>208.5</ele><time>2026-04-25T10:36:00Z</time></trkpt><trkpt lat="45.23784127621871" lon="7.8289915739720355"><ele>209.0</ele><time>2026-04-25T10:36:01Z</time></trkpt><trkpt lat="45.237704660301624" lon="7.828990100026656"><ele>209.5</ele><time>2026-04-25T10:36:02Z</time></trkpt><trkpt lat="45.237567957952436" lon="7.828984018674814"><ele>210.0</ele><time>2026-04-25T10:36:03Z</time></trkpt><trkpt lat="45.23743761269858" lon="7.828975019138704"><ele>210.0</ele><time>2026-04-25T10:36:04Z</time></trkpt><trkpt lat="45.23732682575379" lon="7.828974898292846"><ele>210.0</ele><time>2026-04-25T10:36:05Z</time></trkpt><trkpt lat="45.237229676536614" lon="7.82898029386941"><ele>210.0</ele><time>2026-04-25T10:36:06Z</time></trkpt><trkpt lat="45.237134784525566" lon="7.828991949189021"><ele>210.0</ele><time>2026-04-25T10:36:07Z</time></trkpt><trkpt lat="45.237024846111325" lon="7.828996763034541"><ele>210.0</ele><time>2026-04-25T10:36:08Z</time></trkpt><trkpt lat="45.236918518916525" lon="7.828999849516491"><ele>209.4</ele><time>2026-04-25T10:36:09Z</time></trkpt><trkpt lat="45.23681353154618" lon="7.828997925343187"><ele>208.8</ele><time>2026-04-25T10:36:10Z</time></trkpt><trkpt lat="45.23669923530948" lon="7.829005843136352"><ele>208.2</ele><time>2026-04-25T10:36:11Z</time></trkpt><trkpt lat="45.23659277939867" lon="7.82900665970373"><ele>207.6</ele><time>2026-04-25T10:36:12Z</time></trkpt><trkpt lat="45.2364943070716" lon="7.829001602607679"><ele>207.0</ele><time>2026-04-25T10:36:13Z</time></trkpt><trkpt lat="45.23641110657054" lon="7.8290076046581385"><ele>206.8</ele><time>2026-04-25T10:36:14Z</time></trkpt><trkpt lat="45.23634575722523" lon="7.829049288310005"><ele>206.6</ele><time>2026-04-25T10:36:16Z</time></trkpt><trkpt lat="45.23637072734083" lon="7.8292441668188335"><ele>206.4</ele><time>2026-04-25T10:36:18Z</time></trkpt><trkpt lat="45.23638397723734" lon="7.829378408124194"><ele>206.20000000000002</ele><time>2026-04-25T10:36:19Z</time></trkpt><trkpt lat="45.2363753530228" lon="7.829532862802699"><ele>206.0</ele><time>2026-04-25T10:36:20Z</time></trkpt><trkpt lat="45.23637253406752" lon="7.8296838234427275"><ele>206.0</ele><time>2026-04-25T10:36:21Z</time></trkpt><trkpt lat="45.23637653531685" lon="7.829845630076184"><ele>206.0</ele><time>2026-04-25T10:36:22Z</time></trkpt><trkpt lat="45.236386779320235" lon="7.830024946056096"><ele>206.0</ele><time>2026-04-25T10:36:23Z</time></trkpt><trkpt lat="45.23639786971093" lon="7.8302114223971175"><ele>206.0</ele><time>2026-04-25T10:36:24Z</time></trkpt><trkpt lat="45.23640757162614" lon="7.83039166972043"><ele>206.4</ele><time>2026-04-25T10:36:25Z</time></trkpt><trkpt lat="45.23640256418392" lon="7.830546174777579"><ele>206.8</ele><time>2026-04-25T10:36:26Z</time></trkpt><trkpt lat="45.2364020111698" lon="7.830684644751966"><ele>207.20000000000002</ele><time>2026-04-25T10:36:27Z</time></trkpt><trkpt lat="45.23639155129626" lon="7.8307897208038435"><ele>207.60000000000002</ele><time>2026-04-25T10:36:28Z</time></trkpt><trkpt lat="45.23628717608557" lon="7.830875735628381"><ele>208.0</ele><time>2026-04-25T10:36:30Z</time></trkpt><trkpt lat="45.23621446707985" lon="7.830862763116438"><ele>208.0</ele><time>2026-04-25T10:36:31Z</time></trkpt><trkpt lat="45.23611022104909" lon="7.830878381278292"><ele>208.0</ele><time>2026-04-25T10:36:32Z</time></trkpt><trkpt lat="45.23601646919875" lon="7.83089242720333"><ele>208.0</ele><time>2026-04-25T10:36:33Z</time></trkpt><trkpt lat="45.235895152138596" lon="7.830909218233162"><ele>208.0</ele><time>2026-04-25T10:36:34Z</time></trkpt><trkpt lat="45.23577262747029" lon="7.830925165258876"><ele>208.0</ele><time>2026-04-25T10:36:35Z</time></trkpt><trkpt lat="45.23565203812619" lon="7.830940477093383"><ele>207.5</ele><time>2026-04-25T10:36:36Z</time></trkpt><trkpt lat="45.23552401048991" lon="7.8309540877379975"><ele>207.0</ele><time>2026-04-25T10:36:37Z</time></trkpt><trkpt lat="45.23538912757381" lon="7.830966038007412"><ele>206.5</ele><time>2026-04-25T10:36:38Z</time></trkpt><trkpt lat="45.23525070038093" lon="7.830977228901485"><ele>206.0</ele><time>2026-04-25T10:36:39Z</time></trkpt><trkpt lat="45.23511512860532" lon="7.830988188954495"><ele>206.0</ele><time>2026-04-25T10:36:40Z</time></trkpt><trkpt lat="45.23498309199326" lon="7.83099951324642"><ele>206.0</ele><time>2026-04-25T10:36:41Z</time></trkpt><trkpt lat="45.23483821348456" lon="7.831014574316677"><ele>206.0</ele><time>2026-04-25T10:36:42Z</time></trkpt><trkpt lat="45.23469948216634" lon="7.831029347486992"><ele>206.0</ele><time>2026-04-25T10:36:43Z</time></trkpt><trkpt lat="45.234556851260265" lon="7.831045106509891"><ele>206.0</ele><time>2026-04-25T10:36:44Z</time></trkpt><trkpt lat="45.23440738638829" lon="7.83106218598337"><ele>206.0</ele><time>2026-04-25T10:36:45Z</time></trkpt><trkpt lat="45.23427081128833" lon="7.831079091041341"><ele>206.0</ele><time>2026-04-25T10:36:46Z</time></trkpt><trkpt lat="45.23412142053514" lon="7.831097582404183"><ele>206.0</ele><time>2026-04-25T10:36:47Z</time></trkpt><trkpt lat="45.23396131712288" lon="7.831119641770022"><ele>206.0</ele><time>2026-04-25T10:36:48Z</time></trkpt><trkpt lat="45.233803771048485" lon="7.831142085483407"><ele>206.0</ele><time>2026-04-25T10:36:49Z</time></trkpt><trkpt lat="45.233640667982996" lon="7.831167780057504"><ele>206.0</ele><time>2026-04-25T10:36:50Z</time></trkpt><trkpt lat="45.233487436016425" lon="7.83119418281248"><ele>206.0</ele><time>2026-04-25T10:36:51Z</time></trkpt><trkpt lat="45.23334266124895" lon="7.831215948086333"><ele>206.0</ele><time>2026-04-25T10:36:52Z</time></trkpt><trkpt lat="45.23321902970415" lon="7.831231053532976"><ele>206.0</ele><time>2026-04-25T10:36:53Z</time></trkpt><trkpt lat="45.23309798335547" lon="7.831252166542783"><ele>206.0</ele><time>2026-04-25T10:36:54Z</time></trkpt><trkpt lat="45.23299232612198" lon="7.831281492446105"><ele>206.0</ele><time>2026-04-25T10:36:55Z</time></trkpt><trkpt lat="45.232890714010054" lon="7.831330384211109"><ele>206.0</ele><time>2026-04-25T10:36:56Z</time></trkpt><trkpt lat="45.2328078281666" lon="7.831374580582227"><ele>206.0</ele><time>2026-04-25T10:36:57Z</time></trkpt><trkpt lat="45.23275420720457" lon="7.83145760222134"><ele>206.0</ele><time>2026-04-25T10:36:58Z</time></trkpt><trkpt lat="45.232717523700465" lon="7.831573081548027"><ele>206.0</ele><time>2026-04-25T10:36:58.999Z</time></trkpt><trkpt lat="45.23270013594178" lon="7.831711320927801"><ele>205.75</ele><time>2026-04-25T10:36:59.999Z</time></trkpt><trkpt lat="45.23268491586784" lon="7.831866561682137"><ele>205.5</ele><time>2026-04-25T10:37:00.999Z</time></trkpt><trkpt lat="45.23265642355645" lon="7.832036591344224"><ele>205.25</ele><time>2026-04-25T10:37:01.999Z</time></trkpt><trkpt lat="45.232630318651715" lon="7.832236842207981"><ele>205.0</ele><time>2026-04-25T10:37:02.999Z</time></trkpt><trkpt lat="45.23260200391928" lon="7.832439294475717"><ele>204.66666666666666</ele><time>2026-04-25T10:37:03.999Z</time></trkpt><trkpt lat="45.23258681923307" lon="7.832648111148646"><ele>204.33333333333331</ele><time>2026-04-25T10:37:04.999Z</time></trkpt><trkpt lat="45.2325579657767" lon="7.832872478621065"><ele>204.0</ele><time>2026-04-25T10:37:05.999Z</time></trkpt><trkpt lat="45.23253569756027" lon="7.8331126556675015"><ele>204.0</ele><time>2026-04-25T10:37:06.999Z</time></trkpt><trkpt lat="45.23253429638996" lon="7.8333437385371525"><ele>204.0</ele><time>2026-04-25T10:37:07.999Z</time></trkpt><trkpt lat="45.23251421275819" lon="7.8335894003400615"><ele>204.0</ele><time>2026-04-25T10:37:08.999Z</time></trkpt><trkpt lat="45.23249560359099" lon="7.8338482430888625"><ele>204.0</ele><time>2026-04-25T10:37:09.999Z</time></trkpt><trkpt lat="45.23249057436437" lon="7.834067540332659"><ele>204.0</ele><time>2026-04-25T10:37:10.999Z</time></trkpt><trkpt lat="45.23247514498674" lon="7.834266835286426"><ele>204.0</ele><time>2026-04-25T10:37:11.999Z</time></trkpt><trkpt lat="45.23246305321562" lon="7.834420540133141"><ele>204.0</ele><time>2026-04-25T10:37:12.999Z</time></trkpt><trkpt lat="45.232452034456095" lon="7.834535004953582"><ele>204.2</ele><time>2026-04-25T10:37:13.999Z</time></trkpt><trkpt lat="45.23243692798153" lon="7.834642438706968"><ele>204.39999999999998</ele><time>2026-04-25T10:37:15.999Z</time></trkpt><trkpt lat="45.23230880732855" lon="7.834572795452453"><ele>204.6</ele><time>2026-04-25T10:37:16.999Z</time></trkpt><trkpt lat="45.2322063711521" lon="7.834594803230034"><ele>204.8</ele><time>2026-04-25T10:37:17.999Z</time></trkpt><trkpt lat="45.2320821671324" lon="7.83462148968415"><ele>205.0</ele><time>2026-04-25T10:37:18.999Z</time></trkpt><trkpt lat="45.23194755814393" lon="7.834649635668031"><ele>205.25</ele><time>2026-04-25T10:37:19.999Z</time></trkpt><trkpt lat="45.23180877983998" lon="7.834678511910985"><ele>205.5</ele><time>2026-04-25T10:37:20.999Z</time></trkpt><trkpt lat="45.23165862348974" lon="7.834708092914272"><ele>205.75</ele><time>2026-04-25T10:37:21.999Z</time></trkpt><trkpt lat="45.23150461258222" lon="7.834738433299825"><ele>206.0</ele><time>2026-04-25T10:37:22.999Z</time></trkpt><trkpt lat="45.231346968101484" lon="7.834765494251561"><ele>205.33333333333334</ele><time>2026-04-25T10:37:23.999Z</time></trkpt><trkpt lat="45.231186430165074" lon="7.834805008775853"><ele>204.66666666666669</ele><time>2026-04-25T10:37:24.999Z</time></trkpt><trkpt lat="45.23102758840676" lon="7.834835179122438"><ele>204.0</ele><time>2026-04-25T10:37:25.999Z</time></trkpt><trkpt lat="45.23085945738928" lon="7.834865204134604"><ele>204.0</ele><time>2026-04-25T10:37:26.999Z</time></trkpt><trkpt lat="45.23070160560747" lon="7.834875728859501"><ele>204.0</ele><time>2026-04-25T10:37:27.999Z</time></trkpt><trkpt lat="45.23055291374328" lon="7.834912151689462"><ele>204.0</ele><time>2026-04-25T10:37:28.999Z</time></trkpt><trkpt lat="45.23041923120428" lon="7.834951470166737"><ele>204.0</ele><time>2026-04-25T10:37:29.999Z</time></trkpt><trkpt lat="45.23028177615039" lon="7.835026978869552"><ele>204.0</ele><time>2026-04-25T10:37:30.999Z</time></trkpt><trkpt lat="45.23014412368648" lon="7.835087827231424"><ele>204.0</ele><time>2026-04-25T10:37:31.999Z</time></trkpt><trkpt lat="45.230008270080916" lon="7.835161758331998"><ele>204.0</ele><time>2026-04-25T10:37:32.999Z</time></trkpt><trkpt lat="45.2298698334342" lon="7.835235239971723"><ele>204.0</ele><time>2026-04-25T10:37:33.999Z</time></trkpt><trkpt lat="45.22973732684419" lon="7.835326159037552"><ele>203.75</ele><time>2026-04-25T10:37:34.999Z</time></trkpt><trkpt lat="45.229610296113165" lon="7.835415677091348"><ele>203.5</ele><time>2026-04-25T10:37:35.999Z</time></trkpt><trkpt lat="45.22947141685065" lon="7.835513925060082"><ele>203.25</ele><time>2026-04-25T10:37:36.999Z</time></trkpt><trkpt lat="45.229368826671575" lon="7.8355798091658535"><ele>203.0</ele><time>2026-04-25T10:37:37.999Z</time></trkpt><trkpt lat="45.2292655723815" lon="7.835617654140551"><ele>203.0</ele><time>2026-04-25T10:37:38.999Z</time></trkpt><trkpt lat="45.22916072922311" lon="7.8356341763736514"><ele>203.0</ele><time>2026-04-25T10:37:39.999Z</time></trkpt><trkpt lat="45.229036463317115" lon="7.835652529438151"><ele>203.0</ele><time>2026-04-25T10:37:40.999Z</time></trkpt><trkpt lat="45.22890690947803" lon="7.835640222330334"><ele>203.0</ele><time>2026-04-25T10:37:41.999Z</time></trkpt><trkpt lat="45.22878474322667" lon="7.835605262254994"><ele>203.2</ele><time>2026-04-25T10:37:42.999Z</time></trkpt><trkpt lat="45.228678209023045" lon="7.835544196566378"><ele>203.4</ele><time>2026-04-25T10:37:43.999Z</time></trkpt><trkpt lat="45.22856811554933" lon="7.835475187216999"><ele>203.6</ele><time>2026-04-25T10:37:44.999Z</time></trkpt><trkpt lat="45.22848861307592" lon="7.835443177298259"><ele>203.79999999999998</ele><time>2026-04-25T10:37:45.999Z</time></trkpt><trkpt lat="45.228397731643575" lon="7.83552138629934"><ele>204.0</ele><time>2026-04-25T10:37:47.999Z</time></trkpt><trkpt lat="45.22838659750736" lon="7.835663513146699"><ele>204.0</ele><time>2026-04-25T10:37:48.999Z</time></trkpt><trkpt lat="45.22836154349381" lon="7.835778403126971"><ele>204.0</ele><time>2026-04-25T10:37:49.999Z</time></trkpt><trkpt lat="45.228330629356215" lon="7.835917164566578"><ele>204.0</ele><time>2026-04-25T10:37:50.999Z</time></trkpt><trkpt lat="45.228308141551665" lon="7.836083553392231"><ele>204.0</ele><time>2026-04-25T10:37:51.999Z</time></trkpt><trkpt lat="45.228290942059424" lon="7.836270199383319"><ele>204.0</ele><time>2026-04-25T10:37:52.999Z</time></trkpt><trkpt lat="45.22828897534394" lon="7.836479559039269"><ele>204.0</ele><time>2026-04-25T10:37:53.999Z</time></trkpt><trkpt lat="45.228304545533426" lon="7.83666858542475"><ele>204.0</ele><time>2026-04-25T10:37:54.999Z</time></trkpt><trkpt lat="45.2283121963899" lon="7.836876745007377"><ele>204.0</ele><time>2026-04-25T10:37:56Z</time></trkpt><trkpt lat="45.22831240430237" lon="7.837080468638782"><ele>204.0</ele><time>2026-04-25T10:37:57Z</time></trkpt><trkpt lat="45.22830533173842" lon="7.8372890964173445"><ele>203.75</ele><time>2026-04-25T10:37:58Z</time></trkpt><trkpt lat="45.22829045424811" lon="7.837487473216909"><ele>203.5</ele><time>2026-04-25T10:37:59Z</time></trkpt><trkpt lat="45.22828278781188" lon="7.8376997655281135"><ele>203.25</ele><time>2026-04-25T10:38:00Z</time></trkpt><trkpt lat="45.228296486372244" lon="7.83791228995257"><ele>203.0</ele><time>2026-04-25T10:38:01Z</time></trkpt><trkpt lat="45.22833754404796" lon="7.838109182934492"><ele>203.0</ele><time>2026-04-25T10:38:02Z</time></trkpt><trkpt lat="45.22839506845866" lon="7.83830022089941"><ele>203.0</ele><time>2026-04-25T10:38:03Z</time></trkpt><trkpt lat="45.22845328113258" lon="7.838485442612803"><ele>203.0</ele><time>2026-04-25T10:38:04Z</time></trkpt><trkpt lat="45.22849778024562" lon="7.838688733636282"><ele>203.0</ele><time>2026-04-25T10:38:05Z</time></trkpt><trkpt lat="45.228499854310314" lon="7.838881984854385"><ele>203.0</ele><time>2026-04-25T10:38:06Z</time></trkpt><trkpt lat="45.228493843742015" lon="7.839061279000963"><ele>203.0</ele><time>2026-04-25T10:38:07Z</time></trkpt><trkpt lat="45.22850045114272" lon="7.839255295177797"><ele>203.0</ele><time>2026-04-25T10:38:08Z</time></trkpt><trkpt lat="45.22848730637188" lon="7.8394414896740425"><ele>203.0</ele><time>2026-04-25T10:38:09Z</time></trkpt><trkpt lat="45.22847455578576" lon="7.839634783748831"><ele>203.0</ele><time>2026-04-25T10:38:10Z</time></trkpt><trkpt lat="45.228451841401345" lon="7.83981626690531"><ele>203.0</ele><time>2026-04-25T10:38:11Z</time></trkpt><trkpt lat="45.22844892326952" lon="7.8399598172430345"><ele>203.0</ele><time>2026-04-25T10:38:12Z</time></trkpt><trkpt lat="45.22844294938301" lon="7.840071691085465"><ele>203.0</ele><time>2026-04-25T10:38:13Z</time></trkpt><trkpt lat="45.228443055209574" lon="7.8401715751163765"><ele>203.0</ele><time>2026-04-25T10:38:14Z</time></trkpt><trkpt lat="45.22845501480913" lon="7.84027838811616"><ele>203.0</ele><time>2026-04-25T10:38:15Z</time></trkpt><trkpt lat="45.228435766924235" lon="7.840409955680241"><ele>203.0</ele><time>2026-04-25T10:38:16Z</time></trkpt><trkpt lat="45.22847485681113" lon="7.8405937903862695"><ele>203.0</ele><time>2026-04-25T10:38:17Z</time></trkpt><trkpt lat="45.22854861386533" lon="7.8407635050544275"><ele>203.0</ele><time>2026-04-25T10:38:18Z</time></trkpt><trkpt lat="45.2286735437153" lon="7.8409191980876205"><ele>203.0</ele><time>2026-04-25T10:38:19Z</time></trkpt><trkpt lat="45.22876983838605" lon="7.8410480009819326"><ele>203.0</ele><time>2026-04-25T10:38:20Z</time></trkpt><trkpt lat="45.228880379625146" lon="7.84118376457845"><ele>203.0</ele><time>2026-04-25T10:38:21Z</time></trkpt><trkpt lat="45.228989467503936" lon="7.8412928538592075"><ele>203.0</ele><time>2026-04-25T10:38:22Z</time></trkpt><trkpt lat="45.22908106619666" lon="7.841433668056945"><ele>203.0</ele><time>2026-04-25T10:38:23Z</time></trkpt><trkpt lat="45.22914572244672" lon="7.841606523915259"><ele>203.0</ele><time>2026-04-25T10:38:24Z</time></trkpt><trkpt lat="45.229185578616594" lon="7.8418019230323575"><ele>203.0</ele><time>2026-04-25T10:38:25Z</time></trkpt><trkpt lat="45.229206347728095" lon="7.842014510396984"><ele>203.0</ele><time>2026-04-25T10:38:26Z</time></trkpt><trkpt lat="45.229209017984566" lon="7.842224144898069"><ele>202.66666666666669</ele><time>2026-04-25T10:38:27Z</time></trkpt><trkpt lat="45.2292122655027" lon="7.842448524358943"><ele>202.33333333333331</ele><time>2026-04-25T10:38:28Z</time></trkpt><trkpt lat="45.22922844841439" lon="7.842673922232375"><ele>202.0</ele><time>2026-04-25T10:38:29Z</time></trkpt><trkpt lat="45.22924942284015" lon="7.8428850686370195"><ele>202.0</ele><time>2026-04-25T10:38:30Z</time></trkpt><trkpt lat="45.22927214833835" lon="7.8431023716643455"><ele>202.0</ele><time>2026-04-25T10:38:31Z</time></trkpt><trkpt lat="45.22930637377646" lon="7.843324087398067"><ele>202.0</ele><time>2026-04-25T10:38:32Z</time></trkpt><trkpt lat="45.22934827318407" lon="7.8435481902808615"><ele>202.33333333333331</ele><time>2026-04-25T10:38:33Z</time></trkpt><trkpt lat="45.22938724905477" lon="7.8437783878568785"><ele>202.66666666666669</ele><time>2026-04-25T10:38:34Z</time></trkpt><trkpt lat="45.22942563268486" lon="7.844002312357385"><ele>203.0</ele><time>2026-04-25T10:38:35Z</time></trkpt><trkpt lat="45.229464666836876" lon="7.844228488854607"><ele>203.0</ele><time>2026-04-25T10:38:36Z</time></trkpt><trkpt lat="45.22950259626205" lon="7.844457834898669"><ele>203.0</ele><time>2026-04-25T10:38:37Z</time></trkpt><trkpt lat="45.22953966899239" lon="7.844688887889912"><ele>203.0</ele><time>2026-04-25T10:38:38Z</time></trkpt><trkpt lat="45.22957630548304" lon="7.844904082950175"><ele>203.0</ele><time>2026-04-25T10:38:39Z</time></trkpt><trkpt lat="45.229602791826515" lon="7.8450858556379295"><ele>203.0</ele><time>2026-04-25T10:38:40Z</time></trkpt><trkpt lat="45.22964839443426" lon="7.845294229898916"><ele>203.0</ele><time>2026-04-25T10:38:41Z</time></trkpt><trkpt lat="45.22969644415555" lon="7.845494540737476"><ele>203.0</ele><time>2026-04-25T10:38:42Z</time></trkpt><trkpt lat="45.229755243517225" lon="7.845667387105407"><ele>203.25</ele><time>2026-04-25T10:38:43Z</time></trkpt><trkpt lat="45.22982815505746" lon="7.845832568315052"><ele>203.5</ele><time>2026-04-25T10:38:44Z</time></trkpt><trkpt lat="45.22991743309464" lon="7.8460071092268375"><ele>203.75</ele><time>2026-04-25T10:38:45Z</time></trkpt><trkpt lat="45.23001844226744" lon="7.846169912700474"><ele>204.0</ele><time>2026-04-25T10:38:46Z</time></trkpt><trkpt lat="45.23012902194637" lon="7.8463208201472625"><ele>204.0</ele><time>2026-04-25T10:38:47Z</time></trkpt><trkpt lat="45.23024470976086" lon="7.84647638081479"><ele>204.0</ele><time>2026-04-25T10:38:48Z</time></trkpt><trkpt lat="45.23035760219181" lon="7.846639346681229"><ele>204.0</ele><time>2026-04-25T10:38:49Z</time></trkpt><trkpt lat="45.230465852518215" lon="7.846796454896638"><ele>204.0</ele><time>2026-04-25T10:38:50Z</time></trkpt><trkpt lat="45.230565973424184" lon="7.846965605631898"><ele>204.0</ele><time>2026-04-25T10:38:51Z</time></trkpt><trkpt lat="45.230658043225404" lon="7.847121252011809"><ele>204.0</ele><time>2026-04-25T10:38:52Z</time></trkpt><trkpt lat="45.23073315572409" lon="7.847259609003172"><ele>204.0</ele><time>2026-04-25T10:38:53Z</time></trkpt><trkpt lat="45.23079535922304" lon="7.8473943402680035"><ele>204.0</ele><time>2026-04-25T10:38:54Z</time></trkpt><trkpt lat="45.23083902898623" lon="7.8475309963596995"><ele>204.0</ele><time>2026-04-25T10:38:55Z</time></trkpt><trkpt lat="45.230868329265995" lon="7.8476665525668325"><ele>204.0</ele><time>2026-04-25T10:38:56Z</time></trkpt><trkpt lat="45.23090068637142" lon="7.847827787926596"><ele>204.0</ele><time>2026-04-25T10:38:57Z</time></trkpt><trkpt lat="45.230935062145605" lon="7.847975384195999"><ele>204.0</ele><time>2026-04-25T10:38:58Z</time></trkpt><trkpt lat="45.23097205799002" lon="7.848103012516348"><ele>204.0</ele><time>2026-04-25T10:38:59Z</time></trkpt><trkpt lat="45.231003329498094" lon="7.8482132687411825"><ele>204.0</ele><time>2026-04-25T10:39:00Z</time></trkpt><trkpt lat="45.231036531639376" lon="7.848315106842794"><ele>204.0</ele><time>2026-04-25T10:39:01Z</time></trkpt><trkpt lat="45.231080906649744" lon="7.848468063718805"><ele>204.0</ele><time>2026-04-25T10:39:03Z</time></trkpt><trkpt lat="45.23109759023858" lon="7.84856465472049"><ele>204.0</ele><time>2026-04-25T10:39:04.999Z</time></trkpt><trkpt lat="45.23099398551743" lon="7.848619579044638"><ele>204.2</ele><time>2026-04-25T10:39:05.999Z</time></trkpt><trkpt lat="45.230922011428305" lon="7.848688713809293"><ele>204.39999999999998</ele><time>2026-04-25T10:39:06.999Z</time></trkpt><trkpt lat="45.23083726899579" lon="7.848753636281408"><ele>204.6</ele><time>2026-04-25T10:39:07.999Z</time></trkpt><trkpt lat="45.230740112018374" lon="7.848778301747292"><ele>204.8</ele><time>2026-04-25T10:39:08.999Z</time></trkpt><trkpt lat="45.23063068967652" lon="7.848817849053686"><ele>205.0</ele><time>2026-04-25T10:39:09.999Z</time></trkpt><trkpt lat="45.23050598368823" lon="7.848828247185118"><ele>205.0</ele><time>2026-04-25T10:39:10.999Z</time></trkpt><trkpt lat="45.230381993549635" lon="7.848825544381793"><ele>205.0</ele><time>2026-04-25T10:39:11.999Z</time></trkpt><trkpt lat="45.23025057660935" lon="7.848842105362127"><ele>205.0</ele><time>2026-04-25T10:39:12.999Z</time></trkpt><trkpt lat="45.23011371000625" lon="7.848847444076041"><ele>205.0</ele><time>2026-04-25T10:39:13.999Z</time></trkpt><trkpt lat="45.2299835406807" lon="7.8488287339011045"><ele>205.0</ele><time>2026-04-25T10:39:14.999Z</time></trkpt><trkpt lat="45.22986714508562" lon="7.848807837358842"><ele>205.0</ele><time>2026-04-25T10:39:15.999Z</time></trkpt><trkpt lat="45.229756275968555" lon="7.848784795258091"><ele>205.0</ele><time>2026-04-25T10:39:16.999Z</time></trkpt><trkpt lat="45.2296400496223" lon="7.848776181379327"><ele>205.0</ele><time>2026-04-25T10:39:17.999Z</time></trkpt><trkpt lat="45.22952172373492" lon="7.848733961621337"><ele>205.0</ele><time>2026-04-25T10:39:18.999Z</time></trkpt><trkpt lat="45.22940514257372" lon="7.848711980589872"><ele>205.0</ele><time>2026-04-25T10:39:19.999Z</time></trkpt><trkpt lat="45.229300485564416" lon="7.848705074210313"><ele>205.0</ele><time>2026-04-25T10:39:20.999Z</time></trkpt><trkpt lat="45.229218092004054" lon="7.848688557920428"><ele>205.0</ele><time>2026-04-25T10:39:21.999Z</time></trkpt><trkpt lat="45.22912581251169" lon="7.848677181600189"><ele>205.0</ele><time>2026-04-25T10:39:23.999Z</time></trkpt><trkpt lat="45.22911369490045" lon="7.848821946462383"><ele>205.0</ele><time>2026-04-25T10:39:24.999Z</time></trkpt><trkpt lat="45.22910148958971" lon="7.848936059826061"><ele>205.0</ele><time>2026-04-25T10:39:25.999Z</time></trkpt><trkpt lat="45.22909629257603" lon="7.849095016594041"><ele>205.0</ele><time>2026-04-25T10:39:26.999Z</time></trkpt><trkpt lat="45.22908268178233" lon="7.849279682082747"><ele>205.0</ele><time>2026-04-25T10:39:27.999Z</time></trkpt><trkpt lat="45.22907114208288" lon="7.849480408804883"><ele>205.25</ele><time>2026-04-25T10:39:28.999Z</time></trkpt><trkpt lat="45.229049596696704" lon="7.849676968300434"><ele>205.5</ele><time>2026-04-25T10:39:29.999Z</time></trkpt><trkpt lat="45.22903183517617" lon="7.849866042046617"><ele>205.75</ele><time>2026-04-25T10:39:30.999Z</time></trkpt><trkpt lat="45.22901176589064" lon="7.850052564581294"><ele>206.0</ele><time>2026-04-25T10:39:31.999Z</time></trkpt><trkpt lat="45.22900222790232" lon="7.850243639308395"><ele>206.0</ele><time>2026-04-25T10:39:32.999Z</time></trkpt><trkpt lat="45.228974992913635" lon="7.850433308076314"><ele>206.0</ele><time>2026-04-25T10:39:33.999Z</time></trkpt><trkpt lat="45.228958307474805" lon="7.850617078958622"><ele>206.0</ele><time>2026-04-25T10:39:34.999Z</time></trkpt><trkpt lat="45.22895286209066" lon="7.8507810171390515"><ele>206.0</ele><time>2026-04-25T10:39:35.999Z</time></trkpt><trkpt lat="45.2289353737781" lon="7.850947665874386"><ele>206.0</ele><time>2026-04-25T10:39:36.999Z</time></trkpt><trkpt lat="45.22892321230572" lon="7.851103291200851"><ele>206.0</ele><time>2026-04-25T10:39:37.999Z</time></trkpt><trkpt lat="45.228915801375734" lon="7.851229681537534"><ele>206.0</ele><time>2026-04-25T10:39:38.999Z</time></trkpt><trkpt lat="45.2289092676454" lon="7.851343388729485"><ele>206.0</ele><time>2026-04-25T10:39:39.999Z</time></trkpt><trkpt lat="45.2289107515864" lon="7.851435502307178"><ele>206.0</ele><time>2026-04-25T10:39:40.999Z</time></trkpt><trkpt lat="45.22890921590394" lon="7.851592148291551"><ele>206.0</ele><time>2026-04-25T10:39:42.999Z</time></trkpt><trkpt lat="45.22872823055281" lon="7.851838805587696"><ele>206.0</ele><time>2026-04-25T10:39:45.999Z</time></trkpt><trkpt lat="45.22864522885307" lon="7.851969170719929"><ele>206.0</ele><time>2026-04-25T10:39:46.999Z</time></trkpt><trkpt lat="45.22854703824312" lon="7.852114657722842"><ele>206.0</ele><time>2026-04-25T10:39:47.999Z</time></trkpt><trkpt lat="45.22844250593876" lon="7.852292103796794"><ele>206.0</ele><time>2026-04-25T10:39:48.999Z</time></trkpt><trkpt lat="45.22833686955739" lon="7.852444852400546"><ele>206.0</ele><time>2026-04-25T10:39:49.999Z</time></trkpt><trkpt lat="45.228219014684015" lon="7.852619885095208"><ele>205.33333333333334</ele><time>2026-04-25T10:39:50.999Z</time></trkpt><trkpt lat="45.22809397137864" lon="7.852801518550336"><ele>204.66666666666669</ele><time>2026-04-25T10:39:51.999Z</time></trkpt><trkpt lat="45.227969152439854" lon="7.852980446834446"><ele>204.0</ele><time>2026-04-25T10:39:52.999Z</time></trkpt><trkpt lat="45.22785924130324" lon="7.8531515188473415"><ele>204.0</ele><time>2026-04-25T10:39:53.999Z</time></trkpt><trkpt lat="45.227735191471105" lon="7.85333836882632"><ele>204.0</ele><time>2026-04-25T10:39:54.999Z</time></trkpt><trkpt lat="45.2276229743464" lon="7.853510402555548"><ele>204.0</ele><time>2026-04-25T10:39:55.999Z</time></trkpt><trkpt lat="45.227518947036216" lon="7.85367622612614"><ele>204.33333333333331</ele><time>2026-04-25T10:39:56.999Z</time></trkpt><trkpt lat="45.22741049048192" lon="7.853850252905306"><ele>204.66666666666666</ele><time>2026-04-25T10:39:57.999Z</time></trkpt><trkpt lat="45.227304683113246" lon="7.854021437846849"><ele>205.0</ele><time>2026-04-25T10:39:58.999Z</time></trkpt><trkpt lat="45.22721262819673" lon="7.854163295165185"><ele>205.25</ele><time>2026-04-25T10:39:59.999Z</time></trkpt><trkpt lat="45.2271167121129" lon="7.854314640043047"><ele>205.5</ele><time>2026-04-25T10:40:00.999Z</time></trkpt><trkpt lat="45.22702035215855" lon="7.85446811880657"><ele>205.75</ele><time>2026-04-25T10:40:02Z</time></trkpt><trkpt lat="45.226930485728204" lon="7.854606985093301"><ele>206.0</ele><time>2026-04-25T10:40:03Z</time></trkpt><trkpt lat="45.226849944515685" lon="7.854725193760867"><ele>206.0</ele><time>2026-04-25T10:40:04Z</time></trkpt><trkpt lat="45.22678032877317" lon="7.854826847626041"><ele>206.0</ele><time>2026-04-25T10:40:05Z</time></trkpt><trkpt lat="45.226708201415036" lon="7.854921532351756"><ele>206.0</ele><time>2026-04-25T10:40:06Z</time></trkpt><trkpt lat="45.226642001807" lon="7.855013442781957"><ele>206.0</ele><time>2026-04-25T10:40:07Z</time></trkpt><trkpt lat="45.226593191302115" lon="7.85509672759982"><ele>206.0</ele><time>2026-04-25T10:40:08Z</time></trkpt><trkpt lat="45.226528775885114" lon="7.855175519667439"><ele>205.8</ele><time>2026-04-25T10:40:09Z</time></trkpt><trkpt lat="45.22646013982596" lon="7.855203720248958"><ele>205.60000000000002</ele><time>2026-04-25T10:40:10Z</time></trkpt><trkpt lat="45.22640644291381" lon="7.855283066500116"><ele>205.4</ele><time>2026-04-25T10:40:12Z</time></trkpt><trkpt lat="45.226565883611194" lon="7.8554286056873"><ele>205.2</ele><time>2026-04-25T10:40:15Z</time></trkpt><trkpt lat="45.22663615832992" lon="7.8554471136882515"><ele>205.0</ele><time>2026-04-25T10:40:16Z</time></trkpt><trkpt lat="45.22672439345101" lon="7.855485965761135"><ele>205.4</ele><time>2026-04-25T10:40:17Z</time></trkpt><trkpt lat="45.22682202735793" lon="7.855533264419244"><ele>205.8</ele><time>2026-04-25T10:40:18Z</time></trkpt><trkpt lat="45.22692673616945" lon="7.8555912296324655"><ele>206.2</ele><time>2026-04-25T10:40:19Z</time></trkpt><trkpt lat="45.22702740404868" lon="7.855646539964232"><ele>206.6</ele><time>2026-04-25T10:40:20Z</time></trkpt><trkpt lat="45.22712900190583" lon="7.85569433700271"><ele>207.0</ele><time>2026-04-25T10:40:21Z</time></trkpt><trkpt lat="45.22723643409216" lon="7.8557383895867865"><ele>207.2</ele><time>2026-04-25T10:40:22Z</time></trkpt><trkpt lat="45.22733133650431" lon="7.855783744658943"><ele>207.39999999999998</ele><time>2026-04-25T10:40:23Z</time></trkpt><trkpt lat="45.22744143613589" lon="7.8558334679092034"><ele>207.60000000000002</ele><time>2026-04-25T10:40:24Z</time></trkpt><trkpt lat="45.22754658861063" lon="7.855882225742699"><ele>207.8</ele><time>2026-04-25T10:40:25Z</time></trkpt><trkpt lat="45.22765302597619" lon="7.855922693527652"><ele>208.0</ele><time>2026-04-25T10:40:26Z</time></trkpt><trkpt lat="45.22775624620037" lon="7.855970448313017"><ele>208.0</ele><time>2026-04-25T10:40:27Z</time></trkpt><trkpt lat="45.22785930002096" lon="7.856027097178243"><ele>208.0</ele><time>2026-04-25T10:40:28Z</time></trkpt><trkpt lat="45.22793763111425" lon="7.856063525790795"><ele>208.0</ele><time>2026-04-25T10:40:29Z</time></trkpt><trkpt lat="45.22799343179565" lon="7.8561059073786925"><ele>208.0</ele><time>2026-04-25T10:40:31Z</time></trkpt><trkpt lat="45.22785310890476" lon="7.856236320585592"><ele>208.0</ele><time>2026-04-25T10:40:33Z</time></trkpt><trkpt lat="45.22774390688994" lon="7.85634652507902"><ele>208.0</ele><time>2026-04-25T10:40:34Z</time></trkpt><trkpt lat="45.2276181630664" lon="7.856473892129098"><ele>208.0</ele><time>2026-04-25T10:40:35Z</time></trkpt><trkpt lat="45.22748373388073" lon="7.856612060627392"><ele>208.0</ele><time>2026-04-25T10:40:36Z</time></trkpt><trkpt lat="45.22735831264891" lon="7.8567473946248505"><ele>208.0</ele><time>2026-04-25T10:40:37Z</time></trkpt><trkpt lat="45.227243505405" lon="7.856893523525326"><ele>208.0</ele><time>2026-04-25T10:40:38Z</time></trkpt><trkpt lat="45.22713487227692" lon="7.857038793642649"><ele>208.0</ele><time>2026-04-25T10:40:39Z</time></trkpt><trkpt lat="45.22703589376205" lon="7.85718650061587"><ele>208.0</ele><time>2026-04-25T10:40:40Z</time></trkpt><trkpt lat="45.22694427819814" lon="7.85731621294484"><ele>208.0</ele><time>2026-04-25T10:40:41Z</time></trkpt><trkpt lat="45.22686293887707" lon="7.857438596772863"><ele>208.0</ele><time>2026-04-25T10:40:42Z</time></trkpt><trkpt lat="45.2267845206887" lon="7.8575559041990815"><ele>208.0</ele><time>2026-04-25T10:40:43Z</time></trkpt><trkpt lat="45.22669284365588" lon="7.857651717757667"><ele>208.0</ele><time>2026-04-25T10:40:44Z</time></trkpt><trkpt lat="45.22661046333492" lon="7.857767015353169"><ele>208.25</ele><time>2026-04-25T10:40:45Z</time></trkpt><trkpt lat="45.226520922216075" lon="7.857892336791848"><ele>208.5</ele><time>2026-04-25T10:40:46Z</time></trkpt><trkpt lat="45.226426335409954" lon="7.858019978226495"><ele>208.75</ele><time>2026-04-25T10:40:47Z</time></trkpt><trkpt lat="45.22632608656381" lon="7.858156847735012"><ele>209.0</ele><time>2026-04-25T10:40:48Z</time></trkpt><trkpt lat="45.22621920102301" lon="7.858302778562839"><ele>208.5</ele><time>2026-04-25T10:40:49Z</time></trkpt><trkpt lat="45.226113549241" lon="7.8584470247027465"><ele>208.0</ele><time>2026-04-25T10:40:50Z</time></trkpt><trkpt lat="45.226000897891424" lon="7.858589452748669"><ele>207.5</ele><time>2026-04-25T10:40:51Z</time></trkpt><trkpt lat="45.22589669407109" lon="7.858744027700963"><ele>207.0</ele><time>2026-04-25T10:40:52Z</time></trkpt><trkpt lat="45.225787527964755" lon="7.858847217544419"><ele>207.0</ele><time>2026-04-25T10:40:53Z</time></trkpt><trkpt lat="45.225696444488946" lon="7.858954231070424"><ele>207.0</ele><time>2026-04-25T10:40:54Z</time></trkpt><trkpt lat="45.225625026406284" lon="7.859046002418862"><ele>207.0</ele><time>2026-04-25T10:40:55Z</time></trkpt><trkpt lat="45.22557018129857" lon="7.8591227109764015"><ele>207.0</ele><time>2026-04-25T10:40:56Z</time></trkpt><trkpt lat="45.22548432551529" lon="7.859177837636759"><ele>207.0</ele><time>2026-04-25T10:40:58Z</time></trkpt><trkpt lat="45.22547517933286" lon="7.85904754659626"><ele>206.0</ele><time>2026-04-25T10:41:00Z</time></trkpt><trkpt lat="45.225449991417435" lon="7.858884118861943"><ele>206.0</ele><time>2026-04-25T10:41:01.999Z</time></trkpt><trkpt lat="45.22543933510052" lon="7.858791580409282"><ele>206.0</ele><time>2026-04-25T10:41:02.999Z</time></trkpt><trkpt lat="45.22541852398261" lon="7.858674698874512"><ele>206.0</ele><time>2026-04-25T10:41:04.999Z</time></trkpt></trkseg></trk></gpx>